<?xml version="1.0" encoding="UTF-8" standalone="yes"?>
<gpx
 xmlns="http://www.topografix.com/GPX/1/1"
 creator="OziExplorer Version 3956f - http://www.oziexplorer.com"
 version="1.1"
 xmlns:xsi="http://www.w3.org/2001/XMLSchema-instance"
 xsi:schemaLocation="http://www.topografix.com/GPX/1/1 http://www.topografix.com/GPX/1/1/gpx.xsd">
<metadata>
 <time>2017-10-18T06:23:03Z</time>
 <bounds minlat="31.764489" minlon="35.012995" maxlat="31.796626" maxlon="35.115317"/>
</metadata>
<trk>
 <name>kisalon-raziel_Izm, 37 km.</name>
 <desc>kisalon-raziel_Izm, 37 km.</desc>
<trkseg>
<trkpt lat="31.7777270" lon="35.0164390">
<ele>289.011353</ele>
<time>2014-05-23T04:18:26.001Z</time>
</trkpt>
<trkpt lat="31.7776190" lon="35.0162260">
<ele>285.201355</ele>
<time>2014-05-23T04:28:30.999Z</time>
</trkpt>
<trkpt lat="31.7776210" lon="35.0161390">
<ele>283.403046</ele>
<time>2014-05-23T04:28:40.002Z</time>
</trkpt>
<trkpt lat="31.7775760" lon="35.0160460">
<ele>282.610565</ele>
<time>2014-05-23T04:28:44.996Z</time>
</trkpt>
<trkpt lat="31.7775010" lon="35.0159780">
<ele>282.793427</ele>
<time>2014-05-23T04:28:51.001Z</time>
</trkpt>
<trkpt lat="31.7774050" lon="35.0159530">
<ele>284.408875</ele>
<time>2014-05-23T04:28:56.997Z</time>
</trkpt>
<trkpt lat="31.7773190" lon="35.0158940">
<ele>285.597595</ele>
<time>2014-05-23T04:29:03.002Z</time>
</trkpt>
<trkpt lat="31.7772450" lon="35.0158100">
<ele>286.390076</ele>
<time>2014-05-23T04:29:08.998Z</time>
</trkpt>
<trkpt lat="31.7771800" lon="35.0157100">
<ele>286.390076</ele>
<time>2014-05-23T04:29:15.003Z</time>
</trkpt>
<trkpt lat="31.7771180" lon="35.0155900">
<ele>285.993835</ele>
<time>2014-05-23T04:29:20.999Z</time>
</trkpt>
<trkpt lat="31.7770810" lon="35.0154820">
<ele>284.988007</ele>
<time>2014-05-23T04:29:26.002Z</time>
</trkpt>
<trkpt lat="31.7770370" lon="35.0153600">
<ele>284.195526</ele>
<time>2014-05-23T04:29:31.998Z</time>
</trkpt>
<trkpt lat="31.7770000" lon="35.0152540">
<ele>283.585938</ele>
<time>2014-05-23T04:29:37.000Z</time>
</trkpt>
<trkpt lat="31.7769520" lon="35.0151370">
<ele>283.006805</ele>
<time>2014-05-23T04:29:42.996Z</time>
</trkpt>
<trkpt lat="31.7769240" lon="35.0150150">
<ele>282.000977</ele>
<time>2014-05-23T04:29:49.001Z</time>
</trkpt>
<trkpt lat="31.7768890" lon="35.0148990">
<ele>281.391357</ele>
<time>2014-05-23T04:29:54.997Z</time>
</trkpt>
<trkpt lat="31.7768390" lon="35.0147900">
<ele>281.391357</ele>
<time>2014-05-23T04:30:01.002Z</time>
</trkpt>
<trkpt lat="31.7767540" lon="35.0146880">
<ele>282.610565</ele>
<time>2014-05-23T04:30:08.001Z</time>
</trkpt>
<trkpt lat="31.7766630" lon="35.0146330">
<ele>284.408875</ele>
<time>2014-05-23T04:30:13.997Z</time>
</trkpt>
<trkpt lat="31.7765730" lon="35.0145780">
<ele>286.207214</ele>
<time>2014-05-23T04:30:20.002Z</time>
</trkpt>
<trkpt lat="31.7764810" lon="35.0145290">
<ele>286.786316</ele>
<time>2014-05-23T04:30:25.998Z</time>
</trkpt>
<trkpt lat="31.7763850" lon="35.0144960">
<ele>287.213043</ele>
<time>2014-05-23T04:30:32.003Z</time>
</trkpt>
<trkpt lat="31.7762770" lon="35.0144630">
<ele>287.792175</ele>
<time>2014-05-23T04:30:36.996Z</time>
</trkpt>
<trkpt lat="31.7761750" lon="35.0144370">
<ele>288.615112</ele>
<time>2014-05-23T04:30:41.999Z</time>
</trkpt>
<trkpt lat="31.7760700" lon="35.0144030">
<ele>289.011353</ele>
<time>2014-05-23T04:30:47.002Z</time>
</trkpt>
<trkpt lat="31.7759640" lon="35.0143470">
<ele>289.194244</ele>
<time>2014-05-23T04:30:52.004Z</time>
</trkpt>
<trkpt lat="31.7758810" lon="35.0142940">
<ele>289.194244</ele>
<time>2014-05-23T04:30:55.996Z</time>
</trkpt>
<trkpt lat="31.7757990" lon="35.0142310">
<ele>289.011353</ele>
<time>2014-05-23T04:30:59.996Z</time>
</trkpt>
<trkpt lat="31.7757160" lon="35.0141560">
<ele>288.798004</ele>
<time>2014-05-23T04:31:03.996Z</time>
</trkpt>
<trkpt lat="31.7756290" lon="35.0140820">
<ele>287.609283</ele>
<time>2014-05-23T04:31:07.997Z</time>
</trkpt>
<trkpt lat="31.7755590" lon="35.0140110">
<ele>286.603424</ele>
<time>2014-05-23T04:31:11.004Z</time>
</trkpt>
<trkpt lat="31.7754890" lon="35.0139210">
<ele>284.988007</ele>
<time>2014-05-23T04:31:14.002Z</time>
</trkpt>
<trkpt lat="31.7754220" lon="35.0138350">
<ele>283.799286</ele>
<time>2014-05-23T04:31:17.000Z</time>
</trkpt>
<trkpt lat="31.7753510" lon="35.0137490">
<ele>282.397186</ele>
<time>2014-05-23T04:31:19.998Z</time>
</trkpt>
<trkpt lat="31.7752700" lon="35.0136670">
<ele>282.000977</ele>
<time>2014-05-23T04:31:22.996Z</time>
</trkpt>
<trkpt lat="31.7751880" lon="35.0136040">
<ele>281.604736</ele>
<time>2014-05-23T04:31:26.003Z</time>
</trkpt>
<trkpt lat="31.7750910" lon="35.0135640">
<ele>281.391357</ele>
<time>2014-05-23T04:31:29.001Z</time>
</trkpt>
<trkpt lat="31.7749790" lon="35.0135350">
<ele>281.391357</ele>
<time>2014-05-23T04:31:33.001Z</time>
</trkpt>
<trkpt lat="31.7749120" lon="35.0134450">
<ele>280.812225</ele>
<time>2014-05-23T04:31:37.001Z</time>
</trkpt>
<trkpt lat="31.7748780" lon="35.0133380">
<ele>279.989258</ele>
<time>2014-05-23T04:31:39.999Z</time>
</trkpt>
<trkpt lat="31.7748360" lon="35.0132320">
<ele>278.800568</ele>
<time>2014-05-23T04:31:42.997Z</time>
</trkpt>
<trkpt lat="31.7747350" lon="35.0132340">
<ele>278.008087</ele>
<time>2014-05-23T04:31:46.998Z</time>
</trkpt>
<trkpt lat="31.7746630" lon="35.0133450">
<ele>278.190948</ele>
<time>2014-05-23T04:31:50.998Z</time>
</trkpt>
<trkpt lat="31.7746150" lon="35.0134540">
<ele>278.587189</ele>
<time>2014-05-23T04:31:53.996Z</time>
</trkpt>
<trkpt lat="31.7745850" lon="35.0135800">
<ele>280.202637</ele>
<time>2014-05-23T04:31:57.003Z</time>
</trkpt>
<trkpt lat="31.7745330" lon="35.0136960">
<ele>281.787598</ele>
<time>2014-05-23T04:32:00.001Z</time>
</trkpt>
<trkpt lat="31.7744220" lon="35.0137850">
<ele>282.610565</ele>
<time>2014-05-23T04:32:02.999Z</time>
</trkpt>
<trkpt lat="31.7742950" lon="35.0137850">
<ele>282.397186</ele>
<time>2014-05-23T04:32:05.997Z</time>
</trkpt>
<trkpt lat="31.7741950" lon="35.0136810">
<ele>281.208466</ele>
<time>2014-05-23T04:32:08.002Z</time>
</trkpt>
<trkpt lat="31.7741160" lon="35.0135720">
<ele>279.410156</ele>
<time>2014-05-23T04:32:09.997Z</time>
</trkpt>
<trkpt lat="31.7740290" lon="35.0134580">
<ele>277.794739</ele>
<time>2014-05-23T04:32:12.002Z</time>
</trkpt>
<trkpt lat="31.7739340" lon="35.0133510">
<ele>276.392639</ele>
<time>2014-05-23T04:32:13.998Z</time>
</trkpt>
<trkpt lat="31.7738390" lon="35.0132570">
<ele>275.386810</ele>
<time>2014-05-23T04:32:16.002Z</time>
</trkpt>
<trkpt lat="31.7737430" lon="35.0131700">
<ele>274.411438</ele>
<time>2014-05-23T04:32:17.998Z</time>
</trkpt>
<trkpt lat="31.7736400" lon="35.0130760">
<ele>273.192230</ele>
<time>2014-05-23T04:32:20.003Z</time>
</trkpt>
<trkpt lat="31.7735230" lon="35.0130130">
<ele>272.613129</ele>
<time>2014-05-23T04:32:21.998Z</time>
</trkpt>
<trkpt lat="31.7734140" lon="35.0129950">
<ele>272.613129</ele>
<time>2014-05-23T04:32:24.003Z</time>
</trkpt>
<trkpt lat="31.7733200" lon="35.0130080">
<ele>273.009369</ele>
<time>2014-05-23T04:32:25.999Z</time>
</trkpt>
<trkpt lat="31.7732280" lon="35.0130760">
<ele>274.411438</ele>
<time>2014-05-23T04:32:28.997Z</time>
</trkpt>
<trkpt lat="31.7731590" lon="35.0131610">
<ele>276.392639</ele>
<time>2014-05-23T04:32:32.004Z</time>
</trkpt>
<trkpt lat="31.7730870" lon="35.0132760">
<ele>279.013916</ele>
<time>2014-05-23T04:32:36.004Z</time>
</trkpt>
<trkpt lat="31.7730270" lon="35.0133660">
<ele>281.208466</ele>
<time>2014-05-23T04:32:40.998Z</time>
</trkpt>
<trkpt lat="31.7729480" lon="35.0134460">
<ele>283.403046</ele>
<time>2014-05-23T04:32:47.003Z</time>
</trkpt>
<trkpt lat="31.7728670" lon="35.0134990">
<ele>283.585938</ele>
<time>2014-05-23T04:32:51.003Z</time>
</trkpt>
<trkpt lat="31.7727930" lon="35.0135720">
<ele>283.006805</ele>
<time>2014-05-23T04:32:55.003Z</time>
</trkpt>
<trkpt lat="31.7727300" lon="35.0136640">
<ele>282.397186</ele>
<time>2014-05-23T04:32:59.004Z</time>
</trkpt>
<trkpt lat="31.7726730" lon="35.0137680">
<ele>282.000977</ele>
<time>2014-05-23T04:33:03.997Z</time>
</trkpt>
<trkpt lat="31.7726200" lon="35.0138820">
<ele>283.403046</ele>
<time>2014-05-23T04:33:09.000Z</time>
</trkpt>
<trkpt lat="31.7725790" lon="35.0139900">
<ele>284.805115</ele>
<time>2014-05-23T04:33:14.996Z</time>
</trkpt>
<trkpt lat="31.7725070" lon="35.0140830">
<ele>285.414734</ele>
<time>2014-05-23T04:33:22.003Z</time>
</trkpt>
<trkpt lat="31.7724300" lon="35.0141760">
<ele>285.993835</ele>
<time>2014-05-23T04:33:27.999Z</time>
</trkpt>
<trkpt lat="31.7723660" lon="35.0142560">
<ele>286.786316</ele>
<time>2014-05-23T04:33:33.002Z</time>
</trkpt>
<trkpt lat="31.7723000" lon="35.0143400">
<ele>288.798004</ele>
<time>2014-05-23T04:33:38.998Z</time>
</trkpt>
<trkpt lat="31.7722300" lon="35.0144240">
<ele>290.809662</ele>
<time>2014-05-23T04:33:45.003Z</time>
</trkpt>
<trkpt lat="31.7721660" lon="35.0145190">
<ele>289.590485</ele>
<time>2014-05-23T04:33:50.999Z</time>
</trkpt>
<trkpt lat="31.7721010" lon="35.0146120">
<ele>288.798004</ele>
<time>2014-05-23T04:33:57.004Z</time>
</trkpt>
<trkpt lat="31.7720240" lon="35.0147090">
<ele>289.590485</ele>
<time>2014-05-23T04:34:03.000Z</time>
</trkpt>
<trkpt lat="31.7719580" lon="35.0148080">
<ele>290.413422</ele>
<time>2014-05-23T04:34:08.996Z</time>
</trkpt>
<trkpt lat="31.7719010" lon="35.0148980">
<ele>291.205933</ele>
<time>2014-05-23T04:34:13.999Z</time>
</trkpt>
<trkpt lat="31.7718520" lon="35.0150000">
<ele>292.211761</ele>
<time>2014-05-23T04:34:20.004Z</time>
</trkpt>
<trkpt lat="31.7718030" lon="35.0151090">
<ele>293.004242</ele>
<time>2014-05-23T04:34:26.000Z</time>
</trkpt>
<trkpt lat="31.7717660" lon="35.0152120">
<ele>294.010071</ele>
<time>2014-05-23T04:34:31.996Z</time>
</trkpt>
<trkpt lat="31.7717250" lon="35.0153210">
<ele>294.802551</ele>
<time>2014-05-23T04:34:39.003Z</time>
</trkpt>
<trkpt lat="31.7716730" lon="35.0154260">
<ele>295.595032</ele>
<time>2014-05-23T04:34:44.999Z</time>
</trkpt>
<trkpt lat="31.7716140" lon="35.0155230">
<ele>296.814240</ele>
<time>2014-05-23T04:34:51.004Z</time>
</trkpt>
<trkpt lat="31.7715670" lon="35.0156210">
<ele>298.185822</ele>
<time>2014-05-23T04:34:57.000Z</time>
</trkpt>
<trkpt lat="31.7714950" lon="35.0157000">
<ele>299.587921</ele>
<time>2014-05-23T04:35:03.998Z</time>
</trkpt>
<trkpt lat="31.7714090" lon="35.0157590">
<ele>300.807129</ele>
<time>2014-05-23T04:35:10.003Z</time>
</trkpt>
<trkpt lat="31.7713080" lon="35.0158040">
<ele>301.995850</ele>
<time>2014-05-23T04:35:14.997Z</time>
</trkpt>
<trkpt lat="31.7712210" lon="35.0158870">
<ele>303.794159</ele>
<time>2014-05-23T04:35:20.000Z</time>
</trkpt>
<trkpt lat="31.7711400" lon="35.0159650">
<ele>303.611267</ele>
<time>2014-05-23T04:35:25.996Z</time>
</trkpt>
<trkpt lat="31.7710380" lon="35.0160190">
<ele>302.392059</ele>
<time>2014-05-23T04:35:30.998Z</time>
</trkpt>
<trkpt lat="31.7709650" lon="35.0161140">
<ele>301.812958</ele>
<time>2014-05-23T04:35:36.001Z</time>
</trkpt>
<trkpt lat="31.7709350" lon="35.0162220">
<ele>301.812958</ele>
<time>2014-05-23T04:35:41.004Z</time>
</trkpt>
<trkpt lat="31.7709330" lon="35.0163550">
<ele>303.397919</ele>
<time>2014-05-23T04:35:47.000Z</time>
</trkpt>
<trkpt lat="31.7709190" lon="35.0164720">
<ele>305.013367</ele>
<time>2014-05-23T04:35:52.002Z</time>
</trkpt>
<trkpt lat="31.7709050" lon="35.0165980">
<ele>306.811676</ele>
<time>2014-05-23T04:35:57.998Z</time>
</trkpt>
<trkpt lat="31.7708820" lon="35.0167160">
<ele>308.609985</ele>
<time>2014-05-23T04:36:04.003Z</time>
</trkpt>
<trkpt lat="31.7708510" lon="35.0168340">
<ele>310.194977</ele>
<time>2014-05-23T04:36:09.999Z</time>
</trkpt>
<trkpt lat="31.7708450" lon="35.0169510">
<ele>312.206665</ele>
<time>2014-05-23T04:36:16.004Z</time>
</trkpt>
<trkpt lat="31.7708560" lon="35.0170620">
<ele>314.187866</ele>
<time>2014-05-23T04:36:22.000Z</time>
</trkpt>
<trkpt lat="31.7708910" lon="35.0171790">
<ele>315.407043</ele>
<time>2014-05-23T04:36:28.999Z</time>
</trkpt>
<trkpt lat="31.7709340" lon="35.0172820">
<ele>316.595734</ele>
<time>2014-05-23T04:36:35.004Z</time>
</trkpt>
<trkpt lat="31.7709690" lon="35.0173830">
<ele>317.601593</ele>
<time>2014-05-23T04:36:42.002Z</time>
</trkpt>
<trkpt lat="31.7710110" lon="35.0174950">
<ele>318.790314</ele>
<time>2014-05-23T04:36:50.003Z</time>
</trkpt>
<trkpt lat="31.7710500" lon="35.0176120">
<ele>320.009521</ele>
<time>2014-05-23T04:36:58.003Z</time>
</trkpt>
<trkpt lat="31.7710780" lon="35.0177410">
<ele>321.198242</ele>
<time>2014-05-23T04:37:06.004Z</time>
</trkpt>
<trkpt lat="31.7711030" lon="35.0178650">
<ele>322.386932</ele>
<time>2014-05-23T04:37:13.002Z</time>
</trkpt>
<trkpt lat="31.7711150" lon="35.0179820">
<ele>322.996552</ele>
<time>2014-05-23T04:37:18.998Z</time>
</trkpt>
<trkpt lat="31.7711010" lon="35.0181070">
<ele>322.996552</ele>
<time>2014-05-23T04:37:25.997Z</time>
</trkpt>
<trkpt lat="31.7711030" lon="35.0182240">
<ele>323.209930</ele>
<time>2014-05-23T04:37:33.004Z</time>
</trkpt>
<trkpt lat="31.7711200" lon="35.0183360">
<ele>323.606140</ele>
<time>2014-05-23T04:37:40.002Z</time>
</trkpt>
<trkpt lat="31.7711410" lon="35.0184460">
<ele>324.794861</ele>
<time>2014-05-23T04:37:48.003Z</time>
</trkpt>
<trkpt lat="31.7711890" lon="35.0183520">
<ele>324.002411</ele>
<time>2014-05-23T04:38:04.998Z</time>
</trkpt>
<trkpt lat="31.7712320" lon="35.0182480">
<ele>324.398651</ele>
<time>2014-05-23T04:38:15.003Z</time>
</trkpt>
<trkpt lat="31.7712730" lon="35.0181360">
<ele>324.612000</ele>
<time>2014-05-23T04:38:23.004Z</time>
</trkpt>
<trkpt lat="31.7713070" lon="35.0180230">
<ele>324.794861</ele>
<time>2014-05-23T04:38:31.004Z</time>
</trkpt>
<trkpt lat="31.7713180" lon="35.0179160">
<ele>324.794861</ele>
<time>2014-05-23T04:38:37.000Z</time>
</trkpt>
<trkpt lat="31.7713100" lon="35.0177920">
<ele>323.789063</ele>
<time>2014-05-23T04:38:42.003Z</time>
</trkpt>
<trkpt lat="31.7712980" lon="35.0176770">
<ele>322.813660</ele>
<time>2014-05-23T04:38:46.997Z</time>
</trkpt>
<trkpt lat="31.7713050" lon="35.0175580">
<ele>322.204071</ele>
<time>2014-05-23T04:38:53.002Z</time>
</trkpt>
<trkpt lat="31.7713270" lon="35.0174440">
<ele>321.807861</ele>
<time>2014-05-23T04:38:58.998Z</time>
</trkpt>
<trkpt lat="31.7713800" lon="35.0173380">
<ele>321.807861</ele>
<time>2014-05-23T04:39:05.003Z</time>
</trkpt>
<trkpt lat="31.7714470" lon="35.0172580">
<ele>321.990723</ele>
<time>2014-05-23T04:39:12.001Z</time>
</trkpt>
<trkpt lat="31.7715380" lon="35.0171840">
<ele>322.600342</ele>
<time>2014-05-23T04:39:18.999Z</time>
</trkpt>
<trkpt lat="31.7716270" lon="35.0171370">
<ele>324.185272</ele>
<time>2014-05-23T04:39:25.004Z</time>
</trkpt>
<trkpt lat="31.7717070" lon="35.0170700">
<ele>324.612000</ele>
<time>2014-05-23T04:39:31.000Z</time>
</trkpt>
<trkpt lat="31.7717910" lon="35.0170080">
<ele>325.191132</ele>
<time>2014-05-23T04:39:36.996Z</time>
</trkpt>
<trkpt lat="31.7718780" lon="35.0169520">
<ele>326.014069</ele>
<time>2014-05-23T04:39:44.004Z</time>
</trkpt>
<trkpt lat="31.7719620" lon="35.0168840">
<ele>326.593201</ele>
<time>2014-05-23T04:39:51.002Z</time>
</trkpt>
<trkpt lat="31.7720540" lon="35.0168740">
<ele>328.208649</ele>
<time>2014-05-23T04:39:58.000Z</time>
</trkpt>
<trkpt lat="31.7720470" lon="35.0169890">
<ele>329.610718</ele>
<time>2014-05-23T04:40:06.001Z</time>
</trkpt>
<trkpt lat="31.7719970" lon="35.0170870">
<ele>330.189850</ele>
<time>2014-05-23T04:40:12.999Z</time>
</trkpt>
<trkpt lat="31.7719540" lon="35.0171900">
<ele>330.799469</ele>
<time>2014-05-23T04:40:19.998Z</time>
</trkpt>
<trkpt lat="31.7718980" lon="35.0172950">
<ele>331.012787</ele>
<time>2014-05-23T04:40:27.998Z</time>
</trkpt>
<trkpt lat="31.7718380" lon="35.0173960">
<ele>331.195679</ele>
<time>2014-05-23T04:40:34.997Z</time>
</trkpt>
<trkpt lat="31.7717780" lon="35.0174850">
<ele>330.189850</ele>
<time>2014-05-23T04:40:42.997Z</time>
</trkpt>
<trkpt lat="31.7717430" lon="35.0175900">
<ele>330.006958</ele>
<time>2014-05-23T04:40:50.998Z</time>
</trkpt>
<trkpt lat="31.7717890" lon="35.0176820">
<ele>331.805267</ele>
<time>2014-05-23T04:41:00.001Z</time>
</trkpt>
<trkpt lat="31.7718930" lon="35.0176620">
<ele>334.213196</ele>
<time>2014-05-23T04:41:08.002Z</time>
</trkpt>
<trkpt lat="31.7719820" lon="35.0176090">
<ele>336.194397</ele>
<time>2014-05-23T04:41:16.002Z</time>
</trkpt>
<trkpt lat="31.7720730" lon="35.0175640">
<ele>337.809845</ele>
<time>2014-05-23T04:41:23.001Z</time>
</trkpt>
<trkpt lat="31.7721570" lon="35.0175190">
<ele>338.785187</ele>
<time>2014-05-23T04:41:28.997Z</time>
</trkpt>
<trkpt lat="31.7722370" lon="35.0174510">
<ele>339.211914</ele>
<time>2014-05-23T04:41:32.997Z</time>
</trkpt>
<trkpt lat="31.7723240" lon="35.0173480">
<ele>339.394806</ele>
<time>2014-05-23T04:41:36.997Z</time>
</trkpt>
<trkpt lat="31.7724030" lon="35.0173350">
<ele>340.187286</ele>
<time>2014-05-23T04:41:43.002Z</time>
</trkpt>
<trkpt lat="31.7723970" lon="35.0174570">
<ele>341.802734</ele>
<time>2014-05-23T04:41:51.003Z</time>
</trkpt>
<trkpt lat="31.7723330" lon="35.0175520">
<ele>342.412323</ele>
<time>2014-05-23T04:41:58.001Z</time>
</trkpt>
<trkpt lat="31.7722650" lon="35.0176470">
<ele>342.412323</ele>
<time>2014-05-23T04:42:05.000Z</time>
</trkpt>
<trkpt lat="31.7722290" lon="35.0177460">
<ele>342.991455</ele>
<time>2014-05-23T04:42:11.998Z</time>
</trkpt>
<trkpt lat="31.7721990" lon="35.0178560">
<ele>343.204803</ele>
<time>2014-05-23T04:42:21.001Z</time>
</trkpt>
<trkpt lat="31.7721790" lon="35.0179720">
<ele>343.204803</ele>
<time>2014-05-23T04:42:29.002Z</time>
</trkpt>
<trkpt lat="31.7722020" lon="35.0180830">
<ele>344.393524</ele>
<time>2014-05-23T04:42:37.996Z</time>
</trkpt>
<trkpt lat="31.7722280" lon="35.0181720">
<ele>345.399353</ele>
<time>2014-05-23T04:43:20.004Z</time>
</trkpt>
<trkpt lat="31.7722210" lon="35.0182620">
<ele>345.612732</ele>
<time>2014-05-23T04:43:38.001Z</time>
</trkpt>
<trkpt lat="31.7722580" lon="35.0183710">
<ele>347.197662</ele>
<time>2014-05-23T04:43:50.002Z</time>
</trkpt>
<trkpt lat="31.7723270" lon="35.0184560">
<ele>349.209351</ele>
<time>2014-05-23T04:43:58.002Z</time>
</trkpt>
<trkpt lat="31.7723930" lon="35.0185360">
<ele>351.190552</ele>
<time>2014-05-23T04:44:05.001Z</time>
</trkpt>
<trkpt lat="31.7724540" lon="35.0186180">
<ele>352.196411</ele>
<time>2014-05-23T04:44:13.001Z</time>
</trkpt>
<trkpt lat="31.7725200" lon="35.0187050">
<ele>353.202240</ele>
<time>2014-05-23T04:44:21.002Z</time>
</trkpt>
<trkpt lat="31.7725630" lon="35.0188050">
<ele>354.390930</ele>
<time>2014-05-23T04:44:29.003Z</time>
</trkpt>
<trkpt lat="31.7726180" lon="35.0188970">
<ele>356.006409</ele>
<time>2014-05-23T04:44:37.003Z</time>
</trkpt>
<trkpt lat="31.7726890" lon="35.0189590">
<ele>357.408478</ele>
<time>2014-05-23T04:44:45.004Z</time>
</trkpt>
<trkpt lat="31.7727090" lon="35.0190690">
<ele>358.597198</ele>
<time>2014-05-23T04:44:52.996Z</time>
</trkpt>
<trkpt lat="31.7727630" lon="35.0191590">
<ele>359.999268</ele>
<time>2014-05-23T04:45:01.999Z</time>
</trkpt>
<trkpt lat="31.7728360" lon="35.0192350">
<ele>361.614716</ele>
<time>2014-05-23T04:45:09.999Z</time>
</trkpt>
<trkpt lat="31.7728960" lon="35.0193270">
<ele>362.986328</ele>
<time>2014-05-23T04:45:19.002Z</time>
</trkpt>
<trkpt lat="31.7729070" lon="35.0194440">
<ele>364.205536</ele>
<time>2014-05-23T04:45:27.003Z</time>
</trkpt>
<trkpt lat="31.7729000" lon="35.0195520">
<ele>364.997986</ele>
<time>2014-05-23T04:45:34.001Z</time>
</trkpt>
<trkpt lat="31.7728960" lon="35.0196780">
<ele>365.394257</ele>
<time>2014-05-23T04:45:41.000Z</time>
</trkpt>
<trkpt lat="31.7729160" lon="35.0197890">
<ele>365.607605</ele>
<time>2014-05-23T04:45:47.998Z</time>
</trkpt>
<trkpt lat="31.7729390" lon="35.0198960">
<ele>366.003845</ele>
<time>2014-05-23T04:45:54.003Z</time>
</trkpt>
<trkpt lat="31.7729540" lon="35.0200060">
<ele>366.400085</ele>
<time>2014-05-23T04:46:01.001Z</time>
</trkpt>
<trkpt lat="31.7729450" lon="35.0201300">
<ele>366.400085</ele>
<time>2014-05-23T04:46:08.000Z</time>
</trkpt>
<trkpt lat="31.7729060" lon="35.0202380">
<ele>366.186737</ele>
<time>2014-05-23T04:46:13.002Z</time>
</trkpt>
<trkpt lat="31.7728310" lon="35.0203180">
<ele>365.607605</ele>
<time>2014-05-23T04:46:16.000Z</time>
</trkpt>
<trkpt lat="31.7727900" lon="35.0204280">
<ele>365.394257</ele>
<time>2014-05-23T04:46:18.998Z</time>
</trkpt>
<trkpt lat="31.7728580" lon="35.0205080">
<ele>366.613464</ele>
<time>2014-05-23T04:46:22.999Z</time>
</trkpt>
<trkpt lat="31.7729660" lon="35.0205620">
<ele>367.985046</ele>
<time>2014-05-23T04:46:29.004Z</time>
</trkpt>
<trkpt lat="31.7730560" lon="35.0206080">
<ele>369.204254</ele>
<time>2014-05-23T04:46:35.000Z</time>
</trkpt>
<trkpt lat="31.7731460" lon="35.0206760">
<ele>370.606323</ele>
<time>2014-05-23T04:46:41.998Z</time>
</trkpt>
<trkpt lat="31.7732470" lon="35.0207360">
<ele>371.398804</ele>
<time>2014-05-23T04:46:47.001Z</time>
</trkpt>
<trkpt lat="31.7733500" lon="35.0207640">
<ele>371.398804</ele>
<time>2014-05-23T04:46:52.003Z</time>
</trkpt>
<trkpt lat="31.7734380" lon="35.0208090">
<ele>371.612152</ele>
<time>2014-05-23T04:46:56.004Z</time>
</trkpt>
<trkpt lat="31.7735530" lon="35.0209080">
<ele>372.008392</ele>
<time>2014-05-23T04:46:59.002Z</time>
</trkpt>
<trkpt lat="31.7736460" lon="35.0209660">
<ele>372.191284</ele>
<time>2014-05-23T04:47:00.997Z</time>
</trkpt>
<trkpt lat="31.7737350" lon="35.0210390">
<ele>372.404663</ele>
<time>2014-05-23T04:47:03.002Z</time>
</trkpt>
<trkpt lat="31.7735424" lon="35.0211334">
<ele>372.800873</ele>
<time>2014-05-23T04:47:04.998Z</time>
</trkpt>
<trkpt lat="31.7733566" lon="35.0212236">
<ele>373.014252</ele>
<time>2014-05-23T04:47:07.002Z</time>
</trkpt>
<trkpt lat="31.7733120" lon="35.0212880">
<ele>374.202942</ele>
<time>2014-05-23T04:47:08.998Z</time>
</trkpt>
<trkpt lat="31.7735594" lon="35.0214907">
<ele>375.391663</ele>
<time>2014-05-23T04:47:11.996Z</time>
</trkpt>
<trkpt lat="31.7736732" lon="35.0216478">
<ele>376.397522</ele>
<time>2014-05-23T04:47:16.999Z</time>
</trkpt>
<trkpt lat="31.7737869" lon="35.0218272">
<ele>377.403351</ele>
<time>2014-05-23T04:47:20.999Z</time>
</trkpt>
<trkpt lat="31.7738808" lon="35.0221181">
<ele>378.195862</ele>
<time>2014-05-23T04:47:23.997Z</time>
</trkpt>
<trkpt lat="31.7739853" lon="35.0222858">
<ele>378.592072</ele>
<time>2014-05-23T04:47:27.997Z</time>
</trkpt>
<trkpt lat="31.7741039" lon="35.0225165">
<ele>379.201660</ele>
<time>2014-05-23T04:47:31.998Z</time>
</trkpt>
<trkpt lat="31.7742224" lon="35.0227686">
<ele>379.811279</ele>
<time>2014-05-23T04:47:34.996Z</time>
</trkpt>
<trkpt lat="31.7743228" lon="35.0229349">
<ele>380.603760</ele>
<time>2014-05-23T04:47:38.996Z</time>
</trkpt>
<trkpt lat="31.7744505" lon="35.0231602">
<ele>381.000000</ele>
<time>2014-05-23T04:48:09.996Z</time>
</trkpt>
<trkpt lat="31.7746010" lon="35.0233640">
<ele>382.005859</ele>
<time>2014-05-23T04:48:13.997Z</time>
</trkpt>
<trkpt lat="31.7746602" lon="35.0236001">
<ele>382.584930</ele>
<time>2014-05-23T04:48:17.997Z</time>
</trkpt>
<trkpt lat="31.7747287" lon="35.0238146">
<ele>382.798340</ele>
<time>2014-05-23T04:48:21.997Z</time>
</trkpt>
<trkpt lat="31.7747332" lon="35.0239112">
<ele>382.798340</ele>
<time>2014-05-23T04:48:25.004Z</time>
</trkpt>
<trkpt lat="31.7748290" lon="35.0240239">
<ele>382.584930</ele>
<time>2014-05-23T04:48:28.002Z</time>
</trkpt>
<trkpt lat="31.7749202" lon="35.0240936">
<ele>415.594788</ele>
<time>2014-05-23T04:54:23.996Z</time>
</trkpt>
<trkpt lat="31.7748060" lon="35.0242360">
<ele>416.996887</ele>
<time>2014-05-23T04:54:31.003Z</time>
</trkpt>
<trkpt lat="31.7747280" lon="35.0243120">
<ele>418.185608</ele>
<time>2014-05-23T04:54:38.002Z</time>
</trkpt>
<trkpt lat="31.7746450" lon="35.0243750">
<ele>419.191467</ele>
<time>2014-05-23T04:54:45.000Z</time>
</trkpt>
<trkpt lat="31.7745630" lon="35.0244390">
<ele>420.806885</ele>
<time>2014-05-23T04:54:53.001Z</time>
</trkpt>
<trkpt lat="31.7744780" lon="35.0244920">
<ele>422.208954</ele>
<time>2014-05-23T04:55:01.001Z</time>
</trkpt>
<trkpt lat="31.7743910" lon="35.0245480">
<ele>423.611053</ele>
<time>2014-05-23T04:55:08.000Z</time>
</trkpt>
<trkpt lat="31.7742760" lon="35.0245050">
<ele>423.397675</ele>
<time>2014-05-23T04:55:13.002Z</time>
</trkpt>
<trkpt lat="31.7741530" lon="35.0244810">
<ele>423.611053</ele>
<time>2014-05-23T04:55:16.000Z</time>
</trkpt>
<trkpt lat="31.7740350" lon="35.0244740">
<ele>424.007263</ele>
<time>2014-05-23T04:55:18.998Z</time>
</trkpt>
<trkpt lat="31.7739270" lon="35.0244330">
<ele>424.403534</ele>
<time>2014-05-23T04:56:06.000Z</time>
</trkpt>
<trkpt lat="31.7737950" lon="35.0244220">
<ele>425.409332</ele>
<time>2014-05-23T04:56:10.000Z</time>
</trkpt>
<trkpt lat="31.7736760" lon="35.0244280">
<ele>426.201843</ele>
<time>2014-05-23T04:56:14.001Z</time>
</trkpt>
<trkpt lat="31.7735600" lon="35.0244330">
<ele>426.811462</ele>
<time>2014-05-23T04:56:18.001Z</time>
</trkpt>
<trkpt lat="31.7734610" lon="35.0244250">
<ele>427.390533</ele>
<time>2014-05-23T04:56:22.001Z</time>
</trkpt>
<trkpt lat="31.7733490" lon="35.0243960">
<ele>427.603912</ele>
<time>2014-05-23T04:56:26.002Z</time>
</trkpt>
<trkpt lat="31.7732350" lon="35.0243560">
<ele>427.786804</ele>
<time>2014-05-23T04:56:30.002Z</time>
</trkpt>
<trkpt lat="31.7731260" lon="35.0243170">
<ele>427.603912</ele>
<time>2014-05-23T04:56:34.002Z</time>
</trkpt>
<trkpt lat="31.7730170" lon="35.0242460">
<ele>426.811462</ele>
<time>2014-05-23T04:56:38.003Z</time>
</trkpt>
<trkpt lat="31.7729210" lon="35.0242920">
<ele>427.390533</ele>
<time>2014-05-23T04:56:53.002Z</time>
</trkpt>
<trkpt lat="31.7728500" lon="35.0243790">
<ele>428.396393</ele>
<time>2014-05-23T04:56:58.004Z</time>
</trkpt>
<trkpt lat="31.7727660" lon="35.0244490">
<ele>429.402252</ele>
<time>2014-05-23T04:57:04.000Z</time>
</trkpt>
<trkpt lat="31.7726840" lon="35.0245270">
<ele>430.194733</ele>
<time>2014-05-23T04:57:09.996Z</time>
</trkpt>
<trkpt lat="31.7726140" lon="35.0246070">
<ele>431.413940</ele>
<time>2014-05-23T04:57:16.001Z</time>
</trkpt>
<trkpt lat="31.7725380" lon="35.0246980">
<ele>433.608459</ele>
<time>2014-05-23T04:57:24.002Z</time>
</trkpt>
<trkpt lat="31.7724830" lon="35.0247940">
<ele>435.803070</ele>
<time>2014-05-23T04:57:31.000Z</time>
</trkpt>
<trkpt lat="31.7724270" lon="35.0249050">
<ele>437.997589</ele>
<time>2014-05-23T04:57:39.001Z</time>
</trkpt>
<trkpt lat="31.7723470" lon="35.0249740">
<ele>439.186340</ele>
<time>2014-05-23T04:57:44.997Z</time>
</trkpt>
<trkpt lat="31.7722680" lon="35.0250290">
<ele>439.795929</ele>
<time>2014-05-23T04:57:50.000Z</time>
</trkpt>
<trkpt lat="31.7721900" lon="35.0250830">
<ele>440.405518</ele>
<time>2014-05-23T04:57:55.002Z</time>
</trkpt>
<trkpt lat="31.7721060" lon="35.0251570">
<ele>441.197998</ele>
<time>2014-05-23T04:58:00.998Z</time>
</trkpt>
<trkpt lat="31.7720430" lon="35.0252570">
<ele>442.386719</ele>
<time>2014-05-23T04:58:07.997Z</time>
</trkpt>
<trkpt lat="31.7719810" lon="35.0253370">
<ele>443.209686</ele>
<time>2014-05-23T04:58:15.004Z</time>
</trkpt>
<trkpt lat="31.7719120" lon="35.0254100">
<ele>443.788788</ele>
<time>2014-05-23T04:58:21.000Z</time>
</trkpt>
<trkpt lat="31.7718410" lon="35.0254760">
<ele>444.611755</ele>
<time>2014-05-23T04:58:26.996Z</time>
</trkpt>
<trkpt lat="31.7717610" lon="35.0255610">
<ele>445.587128</ele>
<time>2014-05-23T04:58:34.997Z</time>
</trkpt>
<trkpt lat="31.7716800" lon="35.0256220">
<ele>446.013855</ele>
<time>2014-05-23T04:58:41.002Z</time>
</trkpt>
<trkpt lat="31.7716220" lon="35.0257120">
<ele>446.989197</ele>
<time>2014-05-23T04:58:48.000Z</time>
</trkpt>
<trkpt lat="31.7715410" lon="35.0257810">
<ele>447.202545</ele>
<time>2014-05-23T04:58:54.998Z</time>
</trkpt>
<trkpt lat="31.7714520" lon="35.0258510">
<ele>446.989197</ele>
<time>2014-05-23T04:59:01.003Z</time>
</trkpt>
<trkpt lat="31.7713630" lon="35.0259100">
<ele>446.592957</ele>
<time>2014-05-23T04:59:08.002Z</time>
</trkpt>
<trkpt lat="31.7712700" lon="35.0259450">
<ele>445.800476</ele>
<time>2014-05-23T04:59:13.998Z</time>
</trkpt>
<trkpt lat="31.7711790" lon="35.0259870">
<ele>444.398407</ele>
<time>2014-05-23T04:59:19.000Z</time>
</trkpt>
<trkpt lat="31.7710940" lon="35.0260690">
<ele>443.392548</ele>
<time>2014-05-23T04:59:24.003Z</time>
</trkpt>
<trkpt lat="31.7710780" lon="35.0261950">
<ele>445.007996</ele>
<time>2014-05-23T04:59:28.003Z</time>
</trkpt>
<trkpt lat="31.7710990" lon="35.0262990">
<ele>446.592957</ele>
<time>2014-05-23T04:59:32.004Z</time>
</trkpt>
<trkpt lat="31.7711060" lon="35.0264130">
<ele>447.598785</ele>
<time>2014-05-23T04:59:38.000Z</time>
</trkpt>
<trkpt lat="31.7711120" lon="35.0265230">
<ele>448.604645</ele>
<time>2014-05-23T04:59:43.002Z</time>
</trkpt>
<trkpt lat="31.7710980" lon="35.0266530">
<ele>449.214264</ele>
<time>2014-05-23T04:59:48.998Z</time>
</trkpt>
<trkpt lat="31.7710850" lon="35.0267550">
<ele>450.402954</ele>
<time>2014-05-23T04:59:55.003Z</time>
</trkpt>
<trkpt lat="31.7710550" lon="35.0268710">
<ele>451.591675</ele>
<time>2014-05-23T05:00:00.999Z</time>
</trkpt>
<trkpt lat="31.7710410" lon="35.0269730">
<ele>452.810883</ele>
<time>2014-05-23T05:00:07.998Z</time>
</trkpt>
<trkpt lat="31.7710420" lon="35.0270790">
<ele>454.395844</ele>
<time>2014-05-23T05:00:14.996Z</time>
</trkpt>
<trkpt lat="31.7710210" lon="35.0271960">
<ele>454.212952</ele>
<time>2014-05-23T05:00:22.997Z</time>
</trkpt>
<trkpt lat="31.7710530" lon="35.0272960">
<ele>454.792084</ele>
<time>2014-05-23T05:00:30.997Z</time>
</trkpt>
<trkpt lat="31.7711430" lon="35.0273040">
<ele>456.194153</ele>
<time>2014-05-23T05:01:51.004Z</time>
</trkpt>
<trkpt lat="31.7712340" lon="35.0272950">
<ele>457.809601</ele>
<time>2014-05-23T05:02:02.996Z</time>
</trkpt>
<trkpt lat="31.7713230" lon="35.0273300">
<ele>459.211670</ele>
<time>2014-05-23T05:02:10.003Z</time>
</trkpt>
<trkpt lat="31.7714150" lon="35.0273860">
<ele>460.796661</ele>
<time>2014-05-23T05:02:18.004Z</time>
</trkpt>
<trkpt lat="31.7714930" lon="35.0274560">
<ele>462.198730</ele>
<time>2014-05-23T05:02:25.002Z</time>
</trkpt>
<trkpt lat="31.7715050" lon="35.0275440">
<ele>462.412079</ele>
<time>2014-05-23T05:02:47.000Z</time>
</trkpt>
<trkpt lat="31.7714820" lon="35.0276370">
<ele>461.985352</ele>
<time>2014-05-23T05:03:47.998Z</time>
</trkpt>
<trkpt lat="31.7714620" lon="35.0277480">
<ele>461.589142</ele>
<time>2014-05-23T05:03:54.996Z</time>
</trkpt>
<trkpt lat="31.7714190" lon="35.0278530">
<ele>461.406250</ele>
<time>2014-05-23T05:04:01.001Z</time>
</trkpt>
<trkpt lat="31.7713760" lon="35.0279460">
<ele>461.406250</ele>
<time>2014-05-23T05:04:06.997Z</time>
</trkpt>
<trkpt lat="31.7713510" lon="35.0280410">
<ele>461.010010</ele>
<time>2014-05-23T05:04:18.998Z</time>
</trkpt>
<trkpt lat="31.7712860" lon="35.0281180">
<ele>460.187042</ele>
<time>2014-05-23T05:06:14.999Z</time>
</trkpt>
<trkpt lat="31.7712620" lon="35.0282260">
<ele>459.607941</ele>
<time>2014-05-23T05:06:20.002Z</time>
</trkpt>
<trkpt lat="31.7712440" lon="35.0283520">
<ele>458.998322</ele>
<time>2014-05-23T05:06:25.004Z</time>
</trkpt>
<trkpt lat="31.7711920" lon="35.0284490">
<ele>458.388733</ele>
<time>2014-05-23T05:06:28.996Z</time>
</trkpt>
<trkpt lat="31.7711180" lon="35.0285380">
<ele>457.992462</ele>
<time>2014-05-23T05:06:32.996Z</time>
</trkpt>
<trkpt lat="31.7710490" lon="35.0286260">
<ele>457.596252</ele>
<time>2014-05-23T05:06:36.996Z</time>
</trkpt>
<trkpt lat="31.7709970" lon="35.0287150">
<ele>457.413330</ele>
<time>2014-05-23T05:06:40.003Z</time>
</trkpt>
<trkpt lat="31.7710110" lon="35.0288230">
<ele>457.413330</ele>
<time>2014-05-23T05:06:43.001Z</time>
</trkpt>
<trkpt lat="31.7711070" lon="35.0289140">
<ele>457.809601</ele>
<time>2014-05-23T05:06:47.002Z</time>
</trkpt>
<trkpt lat="31.7711670" lon="35.0290220">
<ele>457.809601</ele>
<time>2014-05-23T05:06:51.002Z</time>
</trkpt>
<trkpt lat="31.7711770" lon="35.0291310">
<ele>457.809601</ele>
<time>2014-05-23T05:06:54.000Z</time>
</trkpt>
<trkpt lat="31.7711910" lon="35.0292420">
<ele>457.809601</ele>
<time>2014-05-23T05:06:56.998Z</time>
</trkpt>
<trkpt lat="31.7711850" lon="35.0293530">
<ele>457.809601</ele>
<time>2014-05-23T05:06:59.996Z</time>
</trkpt>
<trkpt lat="31.7711770" lon="35.0294880">
<ele>457.992462</ele>
<time>2014-05-23T05:07:03.996Z</time>
</trkpt>
<trkpt lat="31.7711710" lon="35.0296060">
<ele>458.205841</ele>
<time>2014-05-23T05:07:07.997Z</time>
</trkpt>
<trkpt lat="31.7711860" lon="35.0297160">
<ele>458.602081</ele>
<time>2014-05-23T05:07:11.004Z</time>
</trkpt>
<trkpt lat="31.7712350" lon="35.0298190">
<ele>458.998322</ele>
<time>2014-05-23T05:07:14.002Z</time>
</trkpt>
<trkpt lat="31.7713350" lon="35.0298950">
<ele>459.607941</ele>
<time>2014-05-23T05:07:18.002Z</time>
</trkpt>
<trkpt lat="31.7714200" lon="35.0299500">
<ele>460.004150</ele>
<time>2014-05-23T05:07:22.002Z</time>
</trkpt>
<trkpt lat="31.7714860" lon="35.0300610">
<ele>460.613739</ele>
<time>2014-05-23T05:07:26.003Z</time>
</trkpt>
<trkpt lat="31.7714990" lon="35.0301790">
<ele>461.010010</ele>
<time>2014-05-23T05:07:29.001Z</time>
</trkpt>
<trkpt lat="31.7714680" lon="35.0302910">
<ele>461.406250</ele>
<time>2014-05-23T05:07:31.999Z</time>
</trkpt>
<trkpt lat="31.7714510" lon="35.0304140">
<ele>461.802460</ele>
<time>2014-05-23T05:07:34.997Z</time>
</trkpt>
<trkpt lat="31.7714750" lon="35.0305460">
<ele>463.204559</ele>
<time>2014-05-23T05:07:38.004Z</time>
</trkpt>
<trkpt lat="31.7715300" lon="35.0306530">
<ele>464.210388</ele>
<time>2014-05-23T05:07:41.002Z</time>
</trkpt>
<trkpt lat="31.7715450" lon="35.0307530">
<ele>465.185730</ele>
<time>2014-05-23T05:07:44.000Z</time>
</trkpt>
<trkpt lat="31.7714990" lon="35.0308610">
<ele>466.191589</ele>
<time>2014-05-23T05:07:48.000Z</time>
</trkpt>
<trkpt lat="31.7714450" lon="35.0309650">
<ele>467.014557</ele>
<time>2014-05-23T05:07:53.996Z</time>
</trkpt>
<trkpt lat="31.7713980" lon="35.0310830">
<ele>468.203278</ele>
<time>2014-05-23T05:07:58.999Z</time>
</trkpt>
<trkpt lat="31.7713440" lon="35.0311950">
<ele>469.391998</ele>
<time>2014-05-23T05:08:04.001Z</time>
</trkpt>
<trkpt lat="31.7712900" lon="35.0313040">
<ele>471.007446</ele>
<time>2014-05-23T05:08:09.004Z</time>
</trkpt>
<trkpt lat="31.7712430" lon="35.0314020">
<ele>472.805756</ele>
<time>2014-05-23T05:08:13.998Z</time>
</trkpt>
<trkpt lat="31.7711880" lon="35.0314960">
<ele>474.604065</ele>
<time>2014-05-23T05:08:20.003Z</time>
</trkpt>
<trkpt lat="31.7711250" lon="35.0315890">
<ele>476.402405</ele>
<time>2014-05-23T05:08:27.001Z</time>
</trkpt>
<trkpt lat="31.7710680" lon="35.0316820">
<ele>478.810333</ele>
<time>2014-05-23T05:08:32.997Z</time>
</trkpt>
<trkpt lat="31.7710170" lon="35.0317760">
<ele>482.010742</ele>
<time>2014-05-23T05:08:40.998Z</time>
</trkpt>
<trkpt lat="31.7709320" lon="35.0318330">
<ele>484.601532</ele>
<time>2014-05-23T05:08:50.001Z</time>
</trkpt>
<trkpt lat="31.7708360" lon="35.0318900">
<ele>487.009460</ele>
<time>2014-05-23T05:08:59.004Z</time>
</trkpt>
<trkpt lat="31.7707500" lon="35.0319400">
<ele>489.386871</ele>
<time>2014-05-23T05:09:06.002Z</time>
</trkpt>
<trkpt lat="31.7706530" lon="35.0319530">
<ele>489.204010</ele>
<time>2014-05-23T05:09:13.000Z</time>
</trkpt>
<trkpt lat="31.7705700" lon="35.0320100">
<ele>488.990662</ele>
<time>2014-05-23T05:09:19.999Z</time>
</trkpt>
<trkpt lat="31.7705000" lon="35.0320930">
<ele>488.990662</ele>
<time>2014-05-23T05:09:26.997Z</time>
</trkpt>
<trkpt lat="31.7704300" lon="35.0321620">
<ele>487.984802</ele>
<time>2014-05-23T05:09:34.004Z</time>
</trkpt>
<trkpt lat="31.7703480" lon="35.0322280">
<ele>486.796082</ele>
<time>2014-05-23T05:09:38.998Z</time>
</trkpt>
<trkpt lat="31.7702740" lon="35.0323120">
<ele>486.003601</ele>
<time>2014-05-23T05:09:45.996Z</time>
</trkpt>
<trkpt lat="31.7701880" lon="35.0323620">
<ele>484.388153</ele>
<time>2014-05-23T05:09:53.997Z</time>
</trkpt>
<trkpt lat="31.7701160" lon="35.0324350">
<ele>483.199463</ele>
<time>2014-05-23T05:10:03.000Z</time>
</trkpt>
<trkpt lat="31.7700750" lon="35.0325440">
<ele>482.986084</ele>
<time>2014-05-23T05:10:11.001Z</time>
</trkpt>
<trkpt lat="31.7700500" lon="35.0326630">
<ele>483.412811</ele>
<time>2014-05-23T05:10:19.001Z</time>
</trkpt>
<trkpt lat="31.7700510" lon="35.0327710">
<ele>484.205261</ele>
<time>2014-05-23T05:10:26.000Z</time>
</trkpt>
<trkpt lat="31.7700590" lon="35.0328920">
<ele>485.607330</ele>
<time>2014-05-23T05:10:31.996Z</time>
</trkpt>
<trkpt lat="31.7700800" lon="35.0330170">
<ele>486.399841</ele>
<time>2014-05-23T05:10:39.003Z</time>
</trkpt>
<trkpt lat="31.7700870" lon="35.0331280">
<ele>486.613190</ele>
<time>2014-05-23T05:10:46.001Z</time>
</trkpt>
<trkpt lat="31.7701070" lon="35.0332450">
<ele>487.405670</ele>
<time>2014-05-23T05:10:53.000Z</time>
</trkpt>
<trkpt lat="31.7701390" lon="35.0333450">
<ele>488.411530</ele>
<time>2014-05-23T05:10:59.998Z</time>
</trkpt>
<trkpt lat="31.7701610" lon="35.0334510">
<ele>489.386871</ele>
<time>2014-05-23T05:11:06.996Z</time>
</trkpt>
<trkpt lat="31.7701790" lon="35.0335650">
<ele>490.209869</ele>
<time>2014-05-23T05:11:14.004Z</time>
</trkpt>
<trkpt lat="31.7702090" lon="35.0336700">
<ele>491.185211</ele>
<time>2014-05-23T05:11:21.002Z</time>
</trkpt>
<trkpt lat="31.7702520" lon="35.0337720">
<ele>492.587280</ele>
<time>2014-05-23T05:11:28.000Z</time>
</trkpt>
<trkpt lat="31.7702680" lon="35.0338750">
<ele>493.593140</ele>
<time>2014-05-23T05:11:34.999Z</time>
</trkpt>
<trkpt lat="31.7703150" lon="35.0339820">
<ele>495.391449</ele>
<time>2014-05-23T05:11:41.004Z</time>
</trkpt>
<trkpt lat="31.7703200" lon="35.0340830">
<ele>496.001068</ele>
<time>2014-05-23T05:11:48.002Z</time>
</trkpt>
<trkpt lat="31.7703630" lon="35.0341860">
<ele>497.585999</ele>
<time>2014-05-23T05:11:55.000Z</time>
</trkpt>
<trkpt lat="31.7703900" lon="35.0342930">
<ele>498.988068</ele>
<time>2014-05-23T05:12:03.001Z</time>
</trkpt>
<trkpt lat="31.7704090" lon="35.0344030">
<ele>500.390137</ele>
<time>2014-05-23T05:12:11.002Z</time>
</trkpt>
<trkpt lat="31.7704200" lon="35.0345260">
<ele>501.792267</ele>
<time>2014-05-23T05:12:19.996Z</time>
</trkpt>
<trkpt lat="31.7704270" lon="35.0346320">
<ele>503.011444</ele>
<time>2014-05-23T05:12:27.996Z</time>
</trkpt>
<trkpt lat="31.7704170" lon="35.0347490">
<ele>503.986786</ele>
<time>2014-05-23T05:12:35.997Z</time>
</trkpt>
<trkpt lat="31.7704160" lon="35.0348540">
<ele>505.205994</ele>
<time>2014-05-23T05:12:43.998Z</time>
</trkpt>
<trkpt lat="31.7703920" lon="35.0349520">
<ele>505.785126</ele>
<time>2014-05-23T05:12:50.996Z</time>
</trkpt>
<trkpt lat="31.7703340" lon="35.0350430">
<ele>505.602264</ele>
<time>2014-05-23T05:12:58.997Z</time>
</trkpt>
<trkpt lat="31.7703150" lon="35.0351580">
<ele>506.790955</ele>
<time>2014-05-23T05:13:06.997Z</time>
</trkpt>
<trkpt lat="31.7702840" lon="35.0352570">
<ele>507.613922</ele>
<time>2014-05-23T05:13:14.998Z</time>
</trkpt>
<trkpt lat="31.7702370" lon="35.0353650">
<ele>508.193054</ele>
<time>2014-05-23T05:13:24.001Z</time>
</trkpt>
<trkpt lat="31.7702130" lon="35.0354870">
<ele>509.595123</ele>
<time>2014-05-23T05:13:33.004Z</time>
</trkpt>
<trkpt lat="31.7701780" lon="35.0355900">
<ele>510.600952</ele>
<time>2014-05-23T05:13:40.996Z</time>
</trkpt>
<trkpt lat="31.7701750" lon="35.0357070">
<ele>512.399292</ele>
<time>2014-05-23T05:13:48.996Z</time>
</trkpt>
<trkpt lat="31.7701700" lon="35.0358100">
<ele>513.405151</ele>
<time>2014-05-23T05:13:56.997Z</time>
</trkpt>
<trkpt lat="31.7701720" lon="35.0359340">
<ele>514.807190</ele>
<time>2014-05-23T05:14:04.998Z</time>
</trkpt>
<trkpt lat="31.7701560" lon="35.0360430">
<ele>515.813049</ele>
<time>2014-05-23T05:14:11.996Z</time>
</trkpt>
<trkpt lat="31.7701650" lon="35.0361600">
<ele>517.215149</ele>
<time>2014-05-23T05:14:19.997Z</time>
</trkpt>
<trkpt lat="31.7701660" lon="35.0362680">
<ele>518.403870</ele>
<time>2014-05-23T05:14:27.004Z</time>
</trkpt>
<trkpt lat="31.7701600" lon="35.0363770">
<ele>519.592529</ele>
<time>2014-05-23T05:14:34.002Z</time>
</trkpt>
<trkpt lat="31.7701590" lon="35.0364910">
<ele>520.811768</ele>
<time>2014-05-23T05:14:41.001Z</time>
</trkpt>
<trkpt lat="31.7701860" lon="35.0365980">
<ele>523.006348</ele>
<time>2014-05-23T05:14:47.999Z</time>
</trkpt>
<trkpt lat="31.7702180" lon="35.0367060">
<ele>525.200867</ele>
<time>2014-05-23T05:14:54.997Z</time>
</trkpt>
<trkpt lat="31.7702080" lon="35.0368200">
<ele>526.999207</ele>
<time>2014-05-23T05:15:01.002Z</time>
</trkpt>
<trkpt lat="31.7701740" lon="35.0369220">
<ele>528.187927</ele>
<time>2014-05-23T05:15:06.998Z</time>
</trkpt>
<trkpt lat="31.7701120" lon="35.0370140">
<ele>528.614685</ele>
<time>2014-05-23T05:15:13.997Z</time>
</trkpt>
<trkpt lat="31.7700500" lon="35.0371020">
<ele>529.010864</ele>
<time>2014-05-23T05:15:21.004Z</time>
</trkpt>
<trkpt lat="31.7699880" lon="35.0371840">
<ele>529.407104</ele>
<time>2014-05-23T05:15:28.002Z</time>
</trkpt>
<trkpt lat="31.7699110" lon="35.0372530">
<ele>529.010864</ele>
<time>2014-05-23T05:15:32.996Z</time>
</trkpt>
<trkpt lat="31.7698370" lon="35.0373140">
<ele>528.401245</ele>
<time>2014-05-23T05:15:40.003Z</time>
</trkpt>
<trkpt lat="31.7697510" lon="35.0373660">
<ele>527.395447</ele>
<time>2014-05-23T05:15:47.002Z</time>
</trkpt>
<trkpt lat="31.7696700" lon="35.0374380">
<ele>526.785828</ele>
<time>2014-05-23T05:15:54.000Z</time>
</trkpt>
<trkpt lat="31.7695920" lon="35.0375150">
<ele>526.206726</ele>
<time>2014-05-23T05:16:02.001Z</time>
</trkpt>
<trkpt lat="31.7695490" lon="35.0376150">
<ele>526.602966</ele>
<time>2014-05-23T05:16:08.999Z</time>
</trkpt>
<trkpt lat="31.7695240" lon="35.0377350">
<ele>526.785828</ele>
<time>2014-05-23T05:16:15.997Z</time>
</trkpt>
<trkpt lat="31.7695260" lon="35.0378520">
<ele>527.791687</ele>
<time>2014-05-23T05:16:25.000Z</time>
</trkpt>
<trkpt lat="31.7695250" lon="35.0379670">
<ele>528.614685</ele>
<time>2014-05-23T05:16:34.003Z</time>
</trkpt>
<trkpt lat="31.7695530" lon="35.0380790">
<ele>530.199585</ele>
<time>2014-05-23T05:16:42.004Z</time>
</trkpt>
<trkpt lat="31.7695670" lon="35.0381970">
<ele>531.388306</ele>
<time>2014-05-23T05:16:50.998Z</time>
</trkpt>
<trkpt lat="31.7695750" lon="35.0383080">
<ele>532.394165</ele>
<time>2014-05-23T05:16:58.999Z</time>
</trkpt>
<trkpt lat="31.7695950" lon="35.0384200">
<ele>533.796265</ele>
<time>2014-05-23T05:17:06.999Z</time>
</trkpt>
<trkpt lat="31.7696170" lon="35.0385280">
<ele>534.984924</ele>
<time>2014-05-23T05:17:15.000Z</time>
</trkpt>
<trkpt lat="31.7696340" lon="35.0386360">
<ele>535.990784</ele>
<time>2014-05-23T05:17:23.001Z</time>
</trkpt>
<trkpt lat="31.7696670" lon="35.0387350">
<ele>537.392883</ele>
<time>2014-05-23T05:17:29.999Z</time>
</trkpt>
<trkpt lat="31.7696850" lon="35.0388380">
<ele>538.002502</ele>
<time>2014-05-23T05:17:39.002Z</time>
</trkpt>
<trkpt lat="31.7697020" lon="35.0389470">
<ele>538.398743</ele>
<time>2014-05-23T05:17:47.003Z</time>
</trkpt>
<trkpt lat="31.7697250" lon="35.0390610">
<ele>539.191223</ele>
<time>2014-05-23T05:17:55.997Z</time>
</trkpt>
<trkpt lat="31.7697400" lon="35.0391770">
<ele>539.587463</ele>
<time>2014-05-23T05:18:05.000Z</time>
</trkpt>
<trkpt lat="31.7697660" lon="35.0392870">
<ele>540.410400</ele>
<time>2014-05-23T05:18:14.003Z</time>
</trkpt>
<trkpt lat="31.7698000" lon="35.0393960">
<ele>541.599121</ele>
<time>2014-05-23T05:18:22.997Z</time>
</trkpt>
<trkpt lat="31.7698350" lon="35.0395050">
<ele>542.604919</ele>
<time>2014-05-23T05:18:30.004Z</time>
</trkpt>
<trkpt lat="31.7698730" lon="35.0396050">
<ele>544.007080</ele>
<time>2014-05-23T05:18:36.000Z</time>
</trkpt>
<trkpt lat="31.7699110" lon="35.0397070">
<ele>545.805359</ele>
<time>2014-05-23T05:18:45.003Z</time>
</trkpt>
<trkpt lat="31.7699620" lon="35.0398110">
<ele>547.786560</ele>
<time>2014-05-23T05:18:53.997Z</time>
</trkpt>
<trkpt lat="31.7699950" lon="35.0399240">
<ele>549.401978</ele>
<time>2014-05-23T05:19:03.000Z</time>
</trkpt>
<trkpt lat="31.7700250" lon="35.0400280">
<ele>550.986938</ele>
<time>2014-05-23T05:19:11.001Z</time>
</trkpt>
<trkpt lat="31.7700590" lon="35.0401350">
<ele>552.602417</ele>
<time>2014-05-23T05:19:19.001Z</time>
</trkpt>
<trkpt lat="31.7700880" lon="35.0402380">
<ele>554.187317</ele>
<time>2014-05-23T05:19:27.002Z</time>
</trkpt>
<trkpt lat="31.7701030" lon="35.0403500">
<ele>555.406555</ele>
<time>2014-05-23T05:19:35.003Z</time>
</trkpt>
<trkpt lat="31.7700980" lon="35.0404570">
<ele>556.412415</ele>
<time>2014-05-23T05:19:43.003Z</time>
</trkpt>
<trkpt lat="31.7700930" lon="35.0405680">
<ele>557.997375</ele>
<time>2014-05-23T05:19:50.002Z</time>
</trkpt>
<trkpt lat="31.7700940" lon="35.0406680">
<ele>559.399475</ele>
<time>2014-05-23T05:19:57.000Z</time>
</trkpt>
<trkpt lat="31.7700830" lon="35.0407690">
<ele>560.801514</ele>
<time>2014-05-23T05:20:05.001Z</time>
</trkpt>
<trkpt lat="31.7700450" lon="35.0408680">
<ele>561.411133</ele>
<time>2014-05-23T05:20:13.001Z</time>
</trkpt>
<trkpt lat="31.7700040" lon="35.0409680">
<ele>561.807373</ele>
<time>2014-05-23T05:20:22.004Z</time>
</trkpt>
<trkpt lat="31.7699720" lon="35.0410650">
<ele>562.386475</ele>
<time>2014-05-23T05:20:29.996Z</time>
</trkpt>
<trkpt lat="31.7699240" lon="35.0411730">
<ele>562.813171</ele>
<time>2014-05-23T05:20:37.997Z</time>
</trkpt>
<trkpt lat="31.7698620" lon="35.0412620">
<ele>562.599854</ele>
<time>2014-05-23T05:20:45.004Z</time>
</trkpt>
<trkpt lat="31.7698030" lon="35.0413570">
<ele>561.411133</ele>
<time>2014-05-23T05:20:52.996Z</time>
</trkpt>
<trkpt lat="31.7697700" lon="35.0414750">
<ele>561.197754</ele>
<time>2014-05-23T05:21:00.996Z</time>
</trkpt>
<trkpt lat="31.7697640" lon="35.0415810">
<ele>561.593994</ele>
<time>2014-05-23T05:21:08.997Z</time>
</trkpt>
<trkpt lat="31.7697810" lon="35.0417100">
<ele>562.996094</ele>
<time>2014-05-23T05:21:18.000Z</time>
</trkpt>
<trkpt lat="31.7698130" lon="35.0418380">
<ele>564.611511</ele>
<time>2014-05-23T05:21:26.001Z</time>
</trkpt>
<trkpt lat="31.7698400" lon="35.0419680">
<ele>566.196472</ele>
<time>2014-05-23T05:21:32.999Z</time>
</trkpt>
<trkpt lat="31.7698530" lon="35.0420850">
<ele>567.202332</ele>
<time>2014-05-23T05:21:41.000Z</time>
</trkpt>
<trkpt lat="31.7698820" lon="35.0422130">
<ele>567.994812</ele>
<time>2014-05-23T05:21:49.000Z</time>
</trkpt>
<trkpt lat="31.7699110" lon="35.0423380">
<ele>569.000671</ele>
<time>2014-05-23T05:21:57.001Z</time>
</trkpt>
<trkpt lat="31.7699360" lon="35.0424610">
<ele>569.793152</ele>
<time>2014-05-23T05:22:03.999Z</time>
</trkpt>
<trkpt lat="31.7699660" lon="35.0425670">
<ele>571.012329</ele>
<time>2014-05-23T05:22:10.004Z</time>
</trkpt>
<trkpt lat="31.7700150" lon="35.0426630">
<ele>572.810669</ele>
<time>2014-05-23T05:22:17.003Z</time>
</trkpt>
<trkpt lat="31.7700410" lon="35.0427720">
<ele>573.603149</ele>
<time>2014-05-23T05:22:24.001Z</time>
</trkpt>
<trkpt lat="31.7700480" lon="35.0428900">
<ele>573.786011</ele>
<time>2014-05-23T05:22:32.002Z</time>
</trkpt>
<trkpt lat="31.7700930" lon="35.0430040">
<ele>575.401428</ele>
<time>2014-05-23T05:22:40.002Z</time>
</trkpt>
<trkpt lat="31.7701290" lon="35.0431030">
<ele>576.986389</ele>
<time>2014-05-23T05:22:48.003Z</time>
</trkpt>
<trkpt lat="31.7701530" lon="35.0432330">
<ele>577.992249</ele>
<time>2014-05-23T05:22:56.004Z</time>
</trkpt>
<trkpt lat="31.7701680" lon="35.0433340">
<ele>578.998047</ele>
<time>2014-05-23T05:23:03.002Z</time>
</trkpt>
<trkpt lat="31.7702230" lon="35.0434360">
<ele>581.406006</ele>
<time>2014-05-23T05:23:08.998Z</time>
</trkpt>
<trkpt lat="31.7702320" lon="35.0435370">
<ele>582.198486</ele>
<time>2014-05-23T05:23:15.996Z</time>
</trkpt>
<trkpt lat="31.7702560" lon="35.0436610">
<ele>583.600525</ele>
<time>2014-05-23T05:23:23.997Z</time>
</trkpt>
<trkpt lat="31.7702820" lon="35.0437800">
<ele>585.185547</ele>
<time>2014-05-23T05:23:33.000Z</time>
</trkpt>
<trkpt lat="31.7703050" lon="35.0438900">
<ele>586.404724</ele>
<time>2014-05-23T05:23:41.001Z</time>
</trkpt>
<trkpt lat="31.7703320" lon="35.0440080">
<ele>587.989685</ele>
<time>2014-05-23T05:23:49.001Z</time>
</trkpt>
<trkpt lat="31.7703370" lon="35.0441240">
<ele>588.812683</ele>
<time>2014-05-23T05:23:54.997Z</time>
</trkpt>
<trkpt lat="31.7703420" lon="35.0442390">
<ele>589.605103</ele>
<time>2014-05-23T05:24:01.996Z</time>
</trkpt>
<trkpt lat="31.7703490" lon="35.0443540">
<ele>590.793884</ele>
<time>2014-05-23T05:24:09.003Z</time>
</trkpt>
<trkpt lat="31.7703510" lon="35.0444680">
<ele>592.013062</ele>
<time>2014-05-23T05:24:16.001Z</time>
</trkpt>
<trkpt lat="31.7703560" lon="35.0445920">
<ele>593.415100</ele>
<time>2014-05-23T05:24:21.997Z</time>
</trkpt>
<trkpt lat="31.7703580" lon="35.0446950">
<ele>594.207581</ele>
<time>2014-05-23T05:24:29.998Z</time>
</trkpt>
<trkpt lat="31.7703700" lon="35.0448030">
<ele>595.609680</ele>
<time>2014-05-23T05:24:37.999Z</time>
</trkpt>
<trkpt lat="31.7703690" lon="35.0449250">
<ele>596.585083</ele>
<time>2014-05-23T05:24:47.002Z</time>
</trkpt>
<trkpt lat="31.7703720" lon="35.0450270">
<ele>597.408020</ele>
<time>2014-05-23T05:24:55.996Z</time>
</trkpt>
<trkpt lat="31.7703640" lon="35.0451410">
<ele>598.413879</ele>
<time>2014-05-23T05:25:03.996Z</time>
</trkpt>
<trkpt lat="31.7703640" lon="35.0452690">
<ele>599.785461</ele>
<time>2014-05-23T05:25:11.997Z</time>
</trkpt>
<trkpt lat="31.7703750" lon="35.0453910">
<ele>601.400879</ele>
<time>2014-05-23T05:25:19.998Z</time>
</trkpt>
<trkpt lat="31.7703670" lon="35.0455120">
<ele>602.406738</ele>
<time>2014-05-23T05:25:27.998Z</time>
</trkpt>
<trkpt lat="31.7703590" lon="35.0456380">
<ele>603.412537</ele>
<time>2014-05-23T05:25:35.999Z</time>
</trkpt>
<trkpt lat="31.7703600" lon="35.0457670">
<ele>604.601257</ele>
<time>2014-05-23T05:25:44.000Z</time>
</trkpt>
<trkpt lat="31.7703470" lon="35.0458680">
<ele>605.210876</ele>
<time>2014-05-23T05:25:49.996Z</time>
</trkpt>
<trkpt lat="31.7703230" lon="35.0459790">
<ele>606.186279</ele>
<time>2014-05-23T05:25:58.999Z</time>
</trkpt>
<trkpt lat="31.7702620" lon="35.0460650">
<ele>606.186279</ele>
<time>2014-05-23T05:26:09.004Z</time>
</trkpt>
<trkpt lat="31.7702100" lon="35.0461790">
<ele>607.009216</ele>
<time>2014-05-23T05:26:20.003Z</time>
</trkpt>
<trkpt lat="31.7701670" lon="35.0463000">
<ele>607.801697</ele>
<time>2014-05-23T05:26:28.997Z</time>
</trkpt>
<trkpt lat="31.7701390" lon="35.0464070">
<ele>608.990417</ele>
<time>2014-05-23T05:26:38.000Z</time>
</trkpt>
<trkpt lat="31.7701000" lon="35.0465200">
<ele>609.599976</ele>
<time>2014-05-23T05:26:46.000Z</time>
</trkpt>
<trkpt lat="31.7700430" lon="35.0466190">
<ele>609.203735</ele>
<time>2014-05-23T05:26:54.001Z</time>
</trkpt>
<trkpt lat="31.7700310" lon="35.0467480">
<ele>610.392456</ele>
<time>2014-05-23T05:27:03.004Z</time>
</trkpt>
<trkpt lat="31.7700380" lon="35.0468630">
<ele>611.794556</ele>
<time>2014-05-23T05:27:11.998Z</time>
</trkpt>
<trkpt lat="31.7700140" lon="35.0469860">
<ele>612.404175</ele>
<time>2014-05-23T05:27:19.999Z</time>
</trkpt>
<trkpt lat="31.7700010" lon="35.0470990">
<ele>613.196655</ele>
<time>2014-05-23T05:27:27.999Z</time>
</trkpt>
<trkpt lat="31.7699980" lon="35.0472350">
<ele>613.989136</ele>
<time>2014-05-23T05:27:37.002Z</time>
</trkpt>
<trkpt lat="31.7699780" lon="35.0473670">
<ele>615.208313</ele>
<time>2014-05-23T05:27:45.003Z</time>
</trkpt>
<trkpt lat="31.7699640" lon="35.0474810">
<ele>616.397034</ele>
<time>2014-05-23T05:27:53.004Z</time>
</trkpt>
<trkpt lat="31.7699520" lon="35.0475990">
<ele>617.585754</ele>
<time>2014-05-23T05:28:01.998Z</time>
</trkpt>
<trkpt lat="31.7699540" lon="35.0477260">
<ele>618.987854</ele>
<time>2014-05-23T05:28:11.001Z</time>
</trkpt>
<trkpt lat="31.7699250" lon="35.0478440">
<ele>619.993652</ele>
<time>2014-05-23T05:28:20.004Z</time>
</trkpt>
<trkpt lat="31.7698820" lon="35.0479460">
<ele>620.207031</ele>
<time>2014-05-23T05:28:26.000Z</time>
</trkpt>
<trkpt lat="31.7698400" lon="35.0480490">
<ele>620.999512</ele>
<time>2014-05-23T05:28:34.000Z</time>
</trkpt>
<trkpt lat="31.7697850" lon="35.0481500">
<ele>621.609131</ele>
<time>2014-05-23T05:28:42.001Z</time>
</trkpt>
<trkpt lat="31.7698050" lon="35.0482760">
<ele>623.194092</ele>
<time>2014-05-23T05:28:51.004Z</time>
</trkpt>
<trkpt lat="31.7698890" lon="35.0483370">
<ele>624.596130</ele>
<time>2014-05-23T05:28:58.996Z</time>
</trkpt>
<trkpt lat="31.7699970" lon="35.0483350">
<ele>625.784912</ele>
<time>2014-05-23T05:29:06.003Z</time>
</trkpt>
<trkpt lat="31.7700850" lon="35.0482720">
<ele>625.998230</ele>
<time>2014-05-23T05:29:14.997Z</time>
</trkpt>
<trkpt lat="31.7701220" lon="35.0481580">
<ele>625.205750</ele>
<time>2014-05-23T05:29:21.002Z</time>
</trkpt>
<trkpt lat="31.7701550" lon="35.0480390">
<ele>625.601990</ele>
<time>2014-05-23T05:29:26.998Z</time>
</trkpt>
<trkpt lat="31.7701990" lon="35.0479440">
<ele>626.211609</ele>
<time>2014-05-23T05:29:33.996Z</time>
</trkpt>
<trkpt lat="31.7702340" lon="35.0478440">
<ele>625.784912</ele>
<time>2014-05-23T05:29:41.004Z</time>
</trkpt>
<trkpt lat="31.7702730" lon="35.0477470">
<ele>625.388672</ele>
<time>2014-05-23T05:29:49.004Z</time>
</trkpt>
<trkpt lat="31.7703180" lon="35.0476360">
<ele>624.992371</ele>
<time>2014-05-23T05:29:57.998Z</time>
</trkpt>
<trkpt lat="31.7703680" lon="35.0475290">
<ele>624.992371</ele>
<time>2014-05-23T05:30:07.001Z</time>
</trkpt>
<trkpt lat="31.7704210" lon="35.0474070">
<ele>625.784912</ele>
<time>2014-05-23T05:30:15.002Z</time>
</trkpt>
<trkpt lat="31.7704950" lon="35.0473210">
<ele>627.400269</ele>
<time>2014-05-23T05:30:23.003Z</time>
</trkpt>
<trkpt lat="31.7705640" lon="35.0472510">
<ele>628.802429</ele>
<time>2014-05-23T05:30:31.003Z</time>
</trkpt>
<trkpt lat="31.7706370" lon="35.0471770">
<ele>630.387329</ele>
<time>2014-05-23T05:30:39.997Z</time>
</trkpt>
<trkpt lat="31.7707240" lon="35.0471090">
<ele>632.185730</ele>
<time>2014-05-23T05:30:47.998Z</time>
</trkpt>
<trkpt lat="31.7708130" lon="35.0470400">
<ele>632.185730</ele>
<time>2014-05-23T05:30:57.001Z</time>
</trkpt>
<trkpt lat="31.7708930" lon="35.0469630">
<ele>632.002808</ele>
<time>2014-05-23T05:31:06.004Z</time>
</trkpt>
<trkpt lat="31.7709900" lon="35.0469220">
<ele>632.399048</ele>
<time>2014-05-23T05:31:13.996Z</time>
</trkpt>
<trkpt lat="31.7710810" lon="35.0468720">
<ele>632.612427</ele>
<time>2014-05-23T05:31:21.996Z</time>
</trkpt>
<trkpt lat="31.7711670" lon="35.0468150">
<ele>632.612427</ele>
<time>2014-05-23T05:31:29.997Z</time>
</trkpt>
<trkpt lat="31.7712550" lon="35.0467550">
<ele>633.008667</ele>
<time>2014-05-23T05:31:37.998Z</time>
</trkpt>
<trkpt lat="31.7713520" lon="35.0467030">
<ele>634.197327</ele>
<time>2014-05-23T05:31:44.996Z</time>
</trkpt>
<trkpt lat="31.7714390" lon="35.0466680">
<ele>635.599426</ele>
<time>2014-05-23T05:31:52.997Z</time>
</trkpt>
<trkpt lat="31.7715220" lon="35.0466140">
<ele>636.605286</ele>
<time>2014-05-23T05:32:00.997Z</time>
</trkpt>
<trkpt lat="31.7716160" lon="35.0465900">
<ele>635.812805</ele>
<time>2014-05-23T05:32:10.000Z</time>
</trkpt>
<trkpt lat="31.7717080" lon="35.0465840">
<ele>634.593628</ele>
<time>2014-05-23T05:32:19.997Z</time>
</trkpt>
<trkpt lat="31.7718000" lon="35.0465630">
<ele>633.191467</ele>
<time>2014-05-23T05:32:29.000Z</time>
</trkpt>
<trkpt lat="31.7718600" lon="35.0464810">
<ele>632.185730</ele>
<time>2014-05-23T05:32:37.000Z</time>
</trkpt>
<trkpt lat="31.7718910" lon="35.0463740">
<ele>631.789429</ele>
<time>2014-05-23T05:32:43.999Z</time>
</trkpt>
<trkpt lat="31.7718980" lon="35.0462440">
<ele>631.393188</ele>
<time>2014-05-23T05:32:50.997Z</time>
</trkpt>
<trkpt lat="31.7719350" lon="35.0461290">
<ele>631.210266</ele>
<time>2014-05-23T05:32:58.004Z</time>
</trkpt>
<trkpt lat="31.7719500" lon="35.0460220">
<ele>630.996948</ele>
<time>2014-05-23T05:33:05.003Z</time>
</trkpt>
<trkpt lat="31.7719790" lon="35.0459150">
<ele>630.814087</ele>
<time>2014-05-23T05:33:12.001Z</time>
</trkpt>
<trkpt lat="31.7719990" lon="35.0458160">
<ele>630.814087</ele>
<time>2014-05-23T05:33:18.999Z</time>
</trkpt>
<trkpt lat="31.7720240" lon="35.0457140">
<ele>630.996948</ele>
<time>2014-05-23T05:33:25.998Z</time>
</trkpt>
<trkpt lat="31.7720560" lon="35.0456120">
<ele>630.996948</ele>
<time>2014-05-23T05:33:32.996Z</time>
</trkpt>
<trkpt lat="31.7720690" lon="35.0454850">
<ele>631.393188</ele>
<time>2014-05-23T05:33:40.997Z</time>
</trkpt>
<trkpt lat="31.7720980" lon="35.0453800">
<ele>631.210266</ele>
<time>2014-05-23T05:33:48.004Z</time>
</trkpt>
<trkpt lat="31.7721220" lon="35.0452630">
<ele>630.814087</ele>
<time>2014-05-23T05:33:55.002Z</time>
</trkpt>
<trkpt lat="31.7721260" lon="35.0451750">
<ele>630.600708</ele>
<time>2014-05-23T05:34:33.001Z</time>
</trkpt>
<trkpt lat="31.7721560" lon="35.0450680">
<ele>631.393188</ele>
<time>2014-05-23T05:34:38.997Z</time>
</trkpt>
<trkpt lat="31.7721930" lon="35.0449380">
<ele>632.185730</ele>
<time>2014-05-23T05:34:42.997Z</time>
</trkpt>
<trkpt lat="31.7722380" lon="35.0448160">
<ele>633.191467</ele>
<time>2014-05-23T05:34:46.004Z</time>
</trkpt>
<trkpt lat="31.7722850" lon="35.0446830">
<ele>634.197327</ele>
<time>2014-05-23T05:34:49.002Z</time>
</trkpt>
<trkpt lat="31.7723200" lon="35.0445480">
<ele>634.593628</ele>
<time>2014-05-23T05:34:52.000Z</time>
</trkpt>
<trkpt lat="31.7723840" lon="35.0444430">
<ele>635.386108</ele>
<time>2014-05-23T05:34:54.998Z</time>
</trkpt>
<trkpt lat="31.7724550" lon="35.0443750">
<ele>633.008667</ele>
<time>2014-05-23T05:34:57.996Z</time>
</trkpt>
<trkpt lat="31.7725240" lon="35.0442980">
<ele>630.600708</ele>
<time>2014-05-23T05:35:02.999Z</time>
</trkpt>
<trkpt lat="31.7723870" lon="35.0444040">
<ele>635.386108</ele>
<time>2014-05-23T05:54:45.996Z</time>
</trkpt>
<trkpt lat="31.7723330" lon="35.0444950">
<ele>634.806946</ele>
<time>2014-05-23T05:54:50.999Z</time>
</trkpt>
<trkpt lat="31.7722880" lon="35.0446090">
<ele>634.593628</ele>
<time>2014-05-23T05:54:56.002Z</time>
</trkpt>
<trkpt lat="31.7722640" lon="35.0447360">
<ele>633.801086</ele>
<time>2014-05-23T05:55:00.002Z</time>
</trkpt>
<trkpt lat="31.7722360" lon="35.0448480">
<ele>633.008667</ele>
<time>2014-05-23T05:55:04.002Z</time>
</trkpt>
<trkpt lat="31.7721940" lon="35.0449620">
<ele>632.185730</ele>
<time>2014-05-23T05:55:08.996Z</time>
</trkpt>
<trkpt lat="31.7721550" lon="35.0450920">
<ele>631.210266</ele>
<time>2014-05-23T05:55:13.999Z</time>
</trkpt>
<trkpt lat="31.7721330" lon="35.0451930">
<ele>630.600708</ele>
<time>2014-05-23T05:55:19.001Z</time>
</trkpt>
<trkpt lat="31.7721090" lon="35.0454040">
<ele>631.210266</ele>
<time>2014-05-23T05:55:32.998Z</time>
</trkpt>
<trkpt lat="31.7720690" lon="35.0455220">
<ele>631.210266</ele>
<time>2014-05-23T05:55:36.998Z</time>
</trkpt>
<trkpt lat="31.7720390" lon="35.0456630">
<ele>630.996948</ele>
<time>2014-05-23T05:55:39.996Z</time>
</trkpt>
<trkpt lat="31.7720130" lon="35.0457970">
<ele>630.814087</ele>
<time>2014-05-23T05:55:42.001Z</time>
</trkpt>
<trkpt lat="31.7719800" lon="35.0459490">
<ele>630.814087</ele>
<time>2014-05-23T05:55:43.997Z</time>
</trkpt>
<trkpt lat="31.7719460" lon="35.0461000">
<ele>631.210266</ele>
<time>2014-05-23T05:55:46.001Z</time>
</trkpt>
<trkpt lat="31.7719170" lon="35.0462430">
<ele>631.393188</ele>
<time>2014-05-23T05:55:47.997Z</time>
</trkpt>
<trkpt lat="31.7718950" lon="35.0463760">
<ele>631.789429</ele>
<time>2014-05-23T05:55:50.002Z</time>
</trkpt>
<trkpt lat="31.7718760" lon="35.0464930">
<ele>632.185730</ele>
<time>2014-05-23T05:55:51.997Z</time>
</trkpt>
<trkpt lat="31.7718570" lon="35.0466000">
<ele>632.795288</ele>
<time>2014-05-23T05:55:55.004Z</time>
</trkpt>
<trkpt lat="31.7718290" lon="35.0467080">
<ele>634.014526</ele>
<time>2014-05-23T05:55:58.996Z</time>
</trkpt>
<trkpt lat="31.7718130" lon="35.0468270">
<ele>635.203186</ele>
<time>2014-05-23T05:56:02.996Z</time>
</trkpt>
<trkpt lat="31.7717910" lon="35.0469460">
<ele>636.605286</ele>
<time>2014-05-23T05:56:06.996Z</time>
</trkpt>
<trkpt lat="31.7717700" lon="35.0470560">
<ele>637.794006</ele>
<time>2014-05-23T05:56:10.997Z</time>
</trkpt>
<trkpt lat="31.7717400" lon="35.0471690">
<ele>639.013184</ele>
<time>2014-05-23T05:56:15.999Z</time>
</trkpt>
<trkpt lat="31.7717320" lon="35.0472770">
<ele>639.805725</ele>
<time>2014-05-23T05:56:21.002Z</time>
</trkpt>
<trkpt lat="31.7717140" lon="35.0473750">
<ele>640.598145</ele>
<time>2014-05-23T05:56:26.998Z</time>
</trkpt>
<trkpt lat="31.7716890" lon="35.0474910">
<ele>641.604004</ele>
<time>2014-05-23T05:56:33.996Z</time>
</trkpt>
<trkpt lat="31.7716590" lon="35.0475960">
<ele>642.609863</ele>
<time>2014-05-23T05:56:40.001Z</time>
</trkpt>
<trkpt lat="31.7716300" lon="35.0477120">
<ele>643.798523</ele>
<time>2014-05-23T05:56:47.000Z</time>
</trkpt>
<trkpt lat="31.7716070" lon="35.0478340">
<ele>644.804382</ele>
<time>2014-05-23T05:56:52.996Z</time>
</trkpt>
<trkpt lat="31.7715870" lon="35.0479450">
<ele>645.810242</ele>
<time>2014-05-23T05:56:59.001Z</time>
</trkpt>
<trkpt lat="31.7715610" lon="35.0480720">
<ele>646.602661</ele>
<time>2014-05-23T05:57:04.997Z</time>
</trkpt>
<trkpt lat="31.7715340" lon="35.0481740">
<ele>646.998962</ele>
<time>2014-05-23T05:57:08.997Z</time>
</trkpt>
<trkpt lat="31.7714980" lon="35.0483140">
<ele>647.212280</ele>
<time>2014-05-23T05:57:12.997Z</time>
</trkpt>
<trkpt lat="31.7714650" lon="35.0484630">
<ele>647.608521</ele>
<time>2014-05-23T05:57:16.004Z</time>
</trkpt>
<trkpt lat="31.7714400" lon="35.0485850">
<ele>648.004822</ele>
<time>2014-05-23T05:57:18.000Z</time>
</trkpt>
<trkpt lat="31.7714170" lon="35.0487190">
<ele>648.004822</ele>
<time>2014-05-23T05:57:19.996Z</time>
</trkpt>
<trkpt lat="31.7713930" lon="35.0488630">
<ele>648.401062</ele>
<time>2014-05-23T05:57:22.000Z</time>
</trkpt>
<trkpt lat="31.7713680" lon="35.0490130">
<ele>648.614380</ele>
<time>2014-05-23T05:57:23.996Z</time>
</trkpt>
<trkpt lat="31.7713470" lon="35.0491670">
<ele>649.193481</ele>
<time>2014-05-23T05:57:26.001Z</time>
</trkpt>
<trkpt lat="31.7713210" lon="35.0493160">
<ele>649.406921</ele>
<time>2014-05-23T05:57:27.996Z</time>
</trkpt>
<trkpt lat="31.7712980" lon="35.0494500">
<ele>650.199341</ele>
<time>2014-05-23T05:57:30.001Z</time>
</trkpt>
<trkpt lat="31.7712720" lon="35.0495740">
<ele>651.205200</ele>
<time>2014-05-23T05:57:31.997Z</time>
</trkpt>
<trkpt lat="31.7712460" lon="35.0496840">
<ele>652.211060</ele>
<time>2014-05-23T05:57:34.001Z</time>
</trkpt>
<trkpt lat="31.7712220" lon="35.0498190">
<ele>653.613098</ele>
<time>2014-05-23T05:57:36.999Z</time>
</trkpt>
<trkpt lat="31.7711990" lon="35.0499300">
<ele>654.801880</ele>
<time>2014-05-23T05:57:41.000Z</time>
</trkpt>
<trkpt lat="31.7711650" lon="35.0500480">
<ele>655.807739</ele>
<time>2014-05-23T05:57:46.996Z</time>
</trkpt>
<trkpt lat="31.7711390" lon="35.0501590">
<ele>656.386780</ele>
<time>2014-05-23T05:57:51.998Z</time>
</trkpt>
<trkpt lat="31.7711150" lon="35.0502660">
<ele>656.996399</ele>
<time>2014-05-23T05:57:58.003Z</time>
</trkpt>
<trkpt lat="31.7710980" lon="35.0503730">
<ele>657.606018</ele>
<time>2014-05-23T05:58:02.997Z</time>
</trkpt>
<trkpt lat="31.7710780" lon="35.0505000">
<ele>658.611877</ele>
<time>2014-05-23T05:58:09.002Z</time>
</trkpt>
<trkpt lat="31.7710530" lon="35.0506030">
<ele>659.404297</ele>
<time>2014-05-23T05:58:13.002Z</time>
</trkpt>
<trkpt lat="31.7710260" lon="35.0507130">
<ele>660.196777</ele>
<time>2014-05-23T05:58:17.996Z</time>
</trkpt>
<trkpt lat="31.7709890" lon="35.0508220">
<ele>660.593079</ele>
<time>2014-05-23T05:58:22.999Z</time>
</trkpt>
<trkpt lat="31.7709400" lon="35.0509200">
<ele>660.806396</ele>
<time>2014-05-23T05:58:26.999Z</time>
</trkpt>
<trkpt lat="31.7708960" lon="35.0510410">
<ele>660.989319</ele>
<time>2014-05-23T05:58:30.999Z</time>
</trkpt>
<trkpt lat="31.7708560" lon="35.0511490">
<ele>661.385498</ele>
<time>2014-05-23T05:58:33.997Z</time>
</trkpt>
<trkpt lat="31.7708100" lon="35.0512690">
<ele>661.598938</ele>
<time>2014-05-23T05:58:37.004Z</time>
</trkpt>
<trkpt lat="31.7707600" lon="35.0513930">
<ele>661.995117</ele>
<time>2014-05-23T05:58:40.002Z</time>
</trkpt>
<trkpt lat="31.7707040" lon="35.0515220">
<ele>662.604675</ele>
<time>2014-05-23T05:58:43.000Z</time>
</trkpt>
<trkpt lat="31.7706410" lon="35.0516650">
<ele>663.000916</ele>
<time>2014-05-23T05:58:45.998Z</time>
</trkpt>
<trkpt lat="31.7705950" lon="35.0517670">
<ele>663.214294</ele>
<time>2014-05-23T05:58:48.003Z</time>
</trkpt>
<trkpt lat="31.7705480" lon="35.0518750">
<ele>663.610535</ele>
<time>2014-05-23T05:58:49.999Z</time>
</trkpt>
<trkpt lat="31.7705010" lon="35.0519850">
<ele>663.610535</ele>
<time>2014-05-23T05:58:52.003Z</time>
</trkpt>
<trkpt lat="31.7704560" lon="35.0520920">
<ele>663.793457</ele>
<time>2014-05-23T05:58:53.999Z</time>
</trkpt>
<trkpt lat="31.7704120" lon="35.0521890">
<ele>664.189697</ele>
<time>2014-05-23T05:58:56.004Z</time>
</trkpt>
<trkpt lat="31.7703510" lon="35.0523030">
<ele>664.585876</ele>
<time>2014-05-23T05:58:59.002Z</time>
</trkpt>
<trkpt lat="31.7703030" lon="35.0524110">
<ele>665.195496</ele>
<time>2014-05-23T05:59:03.002Z</time>
</trkpt>
<trkpt lat="31.7702600" lon="35.0525130">
<ele>665.805115</ele>
<time>2014-05-23T05:59:07.002Z</time>
</trkpt>
<trkpt lat="31.7702070" lon="35.0526210">
<ele>666.597595</ele>
<time>2014-05-23T05:59:11.003Z</time>
</trkpt>
<trkpt lat="31.7701640" lon="35.0527210">
<ele>667.207214</ele>
<time>2014-05-23T05:59:15.003Z</time>
</trkpt>
<trkpt lat="31.7701150" lon="35.0528350">
<ele>668.213074</ele>
<time>2014-05-23T05:59:19.997Z</time>
</trkpt>
<trkpt lat="31.7700620" lon="35.0529520">
<ele>668.792175</ele>
<time>2014-05-23T05:59:24.999Z</time>
</trkpt>
<trkpt lat="31.7700180" lon="35.0530490">
<ele>668.792175</ele>
<time>2014-05-23T05:59:29.000Z</time>
</trkpt>
<trkpt lat="31.7699710" lon="35.0531450">
<ele>669.005493</ele>
<time>2014-05-23T05:59:33.000Z</time>
</trkpt>
<trkpt lat="31.7699200" lon="35.0532500">
<ele>669.188416</ele>
<time>2014-05-23T05:59:37.000Z</time>
</trkpt>
<trkpt lat="31.7698730" lon="35.0533580">
<ele>669.615112</ele>
<time>2014-05-23T05:59:41.001Z</time>
</trkpt>
<trkpt lat="31.7698220" lon="35.0534880">
<ele>670.407593</ele>
<time>2014-05-23T05:59:45.001Z</time>
</trkpt>
<trkpt lat="31.7697750" lon="35.0536000">
<ele>670.986694</ele>
<time>2014-05-23T05:59:47.999Z</time>
</trkpt>
<trkpt lat="31.7697320" lon="35.0537150">
<ele>670.986694</ele>
<time>2014-05-23T05:59:50.997Z</time>
</trkpt>
<trkpt lat="31.7696860" lon="35.0538200">
<ele>670.194275</ele>
<time>2014-05-23T05:59:54.004Z</time>
</trkpt>
<trkpt lat="31.7696440" lon="35.0539180">
<ele>669.797974</ele>
<time>2014-05-23T05:59:57.002Z</time>
</trkpt>
<trkpt lat="31.7696030" lon="35.0540180">
<ele>669.401733</ele>
<time>2014-05-23T06:00:00.000Z</time>
</trkpt>
<trkpt lat="31.7695550" lon="35.0541460">
<ele>668.792175</ele>
<time>2014-05-23T06:00:04.000Z</time>
</trkpt>
<trkpt lat="31.7695140" lon="35.0542590">
<ele>668.395874</ele>
<time>2014-05-23T06:00:08.001Z</time>
</trkpt>
<trkpt lat="31.7694850" lon="35.0543800">
<ele>668.395874</ele>
<time>2014-05-23T06:00:12.001Z</time>
</trkpt>
<trkpt lat="31.7694570" lon="35.0544860">
<ele>668.395874</ele>
<time>2014-05-23T06:00:16.001Z</time>
</trkpt>
<trkpt lat="31.7694400" lon="35.0546210">
<ele>668.792175</ele>
<time>2014-05-23T06:00:20.002Z</time>
</trkpt>
<trkpt lat="31.7694290" lon="35.0547440">
<ele>669.188416</ele>
<time>2014-05-23T06:00:23.000Z</time>
</trkpt>
<trkpt lat="31.7694180" lon="35.0548760">
<ele>669.615112</ele>
<time>2014-05-23T06:00:25.998Z</time>
</trkpt>
<trkpt lat="31.7694080" lon="35.0550150">
<ele>670.011353</ele>
<time>2014-05-23T06:00:28.996Z</time>
</trkpt>
<trkpt lat="31.7693990" lon="35.0551540">
<ele>670.194275</ele>
<time>2014-05-23T06:00:32.003Z</time>
</trkpt>
<trkpt lat="31.7693960" lon="35.0552840">
<ele>670.590515</ele>
<time>2014-05-23T06:00:35.001Z</time>
</trkpt>
<trkpt lat="31.7693930" lon="35.0553960">
<ele>670.986694</ele>
<time>2014-05-23T06:00:37.999Z</time>
</trkpt>
<trkpt lat="31.7693860" lon="35.0555350">
<ele>671.413452</ele>
<time>2014-05-23T06:00:41.999Z</time>
</trkpt>
<trkpt lat="31.7693790" lon="35.0556760">
<ele>671.992554</ele>
<time>2014-05-23T06:00:45.999Z</time>
</trkpt>
<trkpt lat="31.7693750" lon="35.0557810">
<ele>672.602173</ele>
<time>2014-05-23T06:00:48.997Z</time>
</trkpt>
<trkpt lat="31.7693700" lon="35.0559190">
<ele>673.394653</ele>
<time>2014-05-23T06:00:52.998Z</time>
</trkpt>
<trkpt lat="31.7693510" lon="35.0560330">
<ele>673.790894</ele>
<time>2014-05-23T06:00:55.996Z</time>
</trkpt>
<trkpt lat="31.7693320" lon="35.0561470">
<ele>674.400513</ele>
<time>2014-05-23T06:00:59.003Z</time>
</trkpt>
<trkpt lat="31.7693160" lon="35.0562860">
<ele>674.796692</ele>
<time>2014-05-23T06:01:03.003Z</time>
</trkpt>
<trkpt lat="31.7693060" lon="35.0564060">
<ele>674.004272</ele>
<time>2014-05-23T06:01:07.003Z</time>
</trkpt>
<trkpt lat="31.7692930" lon="35.0565190">
<ele>673.211731</ele>
<time>2014-05-23T06:01:11.004Z</time>
</trkpt>
<trkpt lat="31.7692690" lon="35.0566440">
<ele>672.388794</ele>
<time>2014-05-23T06:01:15.004Z</time>
</trkpt>
<trkpt lat="31.7692450" lon="35.0567600">
<ele>671.596313</ele>
<time>2014-05-23T06:01:19.004Z</time>
</trkpt>
<trkpt lat="31.7692460" lon="35.0568700">
<ele>671.200134</ele>
<time>2014-05-23T06:01:22.996Z</time>
</trkpt>
<trkpt lat="31.7692470" lon="35.0569880">
<ele>670.803833</ele>
<time>2014-05-23T06:01:26.996Z</time>
</trkpt>
<trkpt lat="31.7692860" lon="35.0570950">
<ele>670.986694</ele>
<time>2014-05-23T06:01:30.996Z</time>
</trkpt>
<trkpt lat="31.7693440" lon="35.0571970">
<ele>671.200134</ele>
<time>2014-05-23T06:01:34.997Z</time>
</trkpt>
<trkpt lat="31.7694010" lon="35.0573090">
<ele>671.200134</ele>
<time>2014-05-23T06:01:38.997Z</time>
</trkpt>
<trkpt lat="31.7694550" lon="35.0574270">
<ele>670.986694</ele>
<time>2014-05-23T06:01:42.997Z</time>
</trkpt>
<trkpt lat="31.7695220" lon="35.0575500">
<ele>671.200134</ele>
<time>2014-05-23T06:01:46.998Z</time>
</trkpt>
<trkpt lat="31.7695560" lon="35.0576490">
<ele>670.590515</ele>
<time>2014-05-23T06:01:49.996Z</time>
</trkpt>
<trkpt lat="31.7696010" lon="35.0577560">
<ele>670.194275</ele>
<time>2014-05-23T06:01:53.003Z</time>
</trkpt>
<trkpt lat="31.7696400" lon="35.0578660">
<ele>669.401733</ele>
<time>2014-05-23T06:01:56.001Z</time>
</trkpt>
<trkpt lat="31.7696860" lon="35.0579800">
<ele>669.401733</ele>
<time>2014-05-23T06:01:58.999Z</time>
</trkpt>
<trkpt lat="31.7697250" lon="35.0581020">
<ele>669.797974</ele>
<time>2014-05-23T06:02:01.997Z</time>
</trkpt>
<trkpt lat="31.7697640" lon="35.0582230">
<ele>670.407593</ele>
<time>2014-05-23T06:02:05.004Z</time>
</trkpt>
<trkpt lat="31.7697960" lon="35.0583560">
<ele>670.590515</ele>
<time>2014-05-23T06:02:08.002Z</time>
</trkpt>
<trkpt lat="31.7698110" lon="35.0585090">
<ele>670.407593</ele>
<time>2014-05-23T06:02:11.000Z</time>
</trkpt>
<trkpt lat="31.7698290" lon="35.0586170">
<ele>670.407593</ele>
<time>2014-05-23T06:02:13.004Z</time>
</trkpt>
<trkpt lat="31.7698500" lon="35.0587310">
<ele>670.407593</ele>
<time>2014-05-23T06:02:15.000Z</time>
</trkpt>
<trkpt lat="31.7698770" lon="35.0588450">
<ele>670.407593</ele>
<time>2014-05-23T06:02:16.996Z</time>
</trkpt>
<trkpt lat="31.7699100" lon="35.0589630">
<ele>669.615112</ele>
<time>2014-05-23T06:02:19.000Z</time>
</trkpt>
<trkpt lat="31.7699500" lon="35.0590850">
<ele>668.609314</ele>
<time>2014-05-23T06:02:20.996Z</time>
</trkpt>
<trkpt lat="31.7700030" lon="35.0592070">
<ele>667.603455</ele>
<time>2014-05-23T06:02:23.001Z</time>
</trkpt>
<trkpt lat="31.7700810" lon="35.0593150">
<ele>666.810974</ele>
<time>2014-05-23T06:02:24.996Z</time>
</trkpt>
<trkpt lat="31.7701760" lon="35.0594160">
<ele>665.987976</ele>
<time>2014-05-23T06:02:27.001Z</time>
</trkpt>
<trkpt lat="31.7702770" lon="35.0595210">
<ele>665.012634</ele>
<time>2014-05-23T06:02:28.997Z</time>
</trkpt>
<trkpt lat="31.7703840" lon="35.0596330">
<ele>664.403076</ele>
<time>2014-05-23T06:02:31.001Z</time>
</trkpt>
<trkpt lat="31.7704870" lon="35.0597640">
<ele>664.403076</ele>
<time>2014-05-23T06:02:32.997Z</time>
</trkpt>
<trkpt lat="31.7705770" lon="35.0599080">
<ele>664.585876</ele>
<time>2014-05-23T06:02:35.002Z</time>
</trkpt>
<trkpt lat="31.7706580" lon="35.0600380">
<ele>664.585876</ele>
<time>2014-05-23T06:02:36.997Z</time>
</trkpt>
<trkpt lat="31.7707350" lon="35.0601530">
<ele>664.006775</ele>
<time>2014-05-23T06:02:39.002Z</time>
</trkpt>
<trkpt lat="31.7708150" lon="35.0602650">
<ele>662.208496</ele>
<time>2014-05-23T06:02:40.998Z</time>
</trkpt>
<trkpt lat="31.7709010" lon="35.0603710">
<ele>660.196777</ele>
<time>2014-05-23T06:02:43.002Z</time>
</trkpt>
<trkpt lat="31.7709890" lon="35.0604830">
<ele>658.398499</ele>
<time>2014-05-23T06:02:44.998Z</time>
</trkpt>
<trkpt lat="31.7710600" lon="35.0606190">
<ele>657.392639</ele>
<time>2014-05-23T06:02:47.003Z</time>
</trkpt>
<trkpt lat="31.7711050" lon="35.0607720">
<ele>657.209717</ele>
<time>2014-05-23T06:02:48.998Z</time>
</trkpt>
<trkpt lat="31.7711320" lon="35.0609280">
<ele>656.600159</ele>
<time>2014-05-23T06:02:51.003Z</time>
</trkpt>
<trkpt lat="31.7711440" lon="35.0610760">
<ele>655.990540</ele>
<time>2014-05-23T06:02:52.999Z</time>
</trkpt>
<trkpt lat="31.7711360" lon="35.0612180">
<ele>655.594299</ele>
<time>2014-05-23T06:02:55.003Z</time>
</trkpt>
<trkpt lat="31.7711220" lon="35.0613590">
<ele>656.386780</ele>
<time>2014-05-23T06:02:56.999Z</time>
</trkpt>
<trkpt lat="31.7711050" lon="35.0615050">
<ele>657.606018</ele>
<time>2014-05-23T06:02:59.004Z</time>
</trkpt>
<trkpt lat="31.7710870" lon="35.0616520">
<ele>658.794678</ele>
<time>2014-05-23T06:03:00.999Z</time>
</trkpt>
<trkpt lat="31.7710720" lon="35.0618070">
<ele>657.606018</ele>
<time>2014-05-23T06:03:03.004Z</time>
</trkpt>
<trkpt lat="31.7710600" lon="35.0619700">
<ele>656.386780</ele>
<time>2014-05-23T06:03:05.000Z</time>
</trkpt>
<trkpt lat="31.7710440" lon="35.0621410">
<ele>655.594299</ele>
<time>2014-05-23T06:03:07.004Z</time>
</trkpt>
<trkpt lat="31.7710400" lon="35.0623220">
<ele>655.594299</ele>
<time>2014-05-23T06:03:09.000Z</time>
</trkpt>
<trkpt lat="31.7710530" lon="35.0625050">
<ele>655.411438</ele>
<time>2014-05-23T06:03:10.996Z</time>
</trkpt>
<trkpt lat="31.7710730" lon="35.0626810">
<ele>654.801880</ele>
<time>2014-05-23T06:03:13.000Z</time>
</trkpt>
<trkpt lat="31.7711020" lon="35.0628470">
<ele>654.192261</ele>
<time>2014-05-23T06:03:14.996Z</time>
</trkpt>
<trkpt lat="31.7711340" lon="35.0630040">
<ele>653.613098</ele>
<time>2014-05-23T06:03:17.001Z</time>
</trkpt>
<trkpt lat="31.7711700" lon="35.0631510">
<ele>652.790161</ele>
<time>2014-05-23T06:03:18.996Z</time>
</trkpt>
<trkpt lat="31.7712120" lon="35.0632890">
<ele>651.997681</ele>
<time>2014-05-23T06:03:21.001Z</time>
</trkpt>
<trkpt lat="31.7712580" lon="35.0634210">
<ele>651.388123</ele>
<time>2014-05-23T06:03:22.997Z</time>
</trkpt>
<trkpt lat="31.7713020" lon="35.0635550">
<ele>650.412720</ele>
<time>2014-05-23T06:03:25.001Z</time>
</trkpt>
<trkpt lat="31.7713500" lon="35.0636910">
<ele>649.193481</ele>
<time>2014-05-23T06:03:26.997Z</time>
</trkpt>
<trkpt lat="31.7713860" lon="35.0638340">
<ele>649.010681</ele>
<time>2014-05-23T06:03:29.002Z</time>
</trkpt>
<trkpt lat="31.7714190" lon="35.0639890">
<ele>649.803101</ele>
<time>2014-05-23T06:03:30.997Z</time>
</trkpt>
<trkpt lat="31.7714670" lon="35.0641460">
<ele>650.808960</ele>
<time>2014-05-23T06:03:33.002Z</time>
</trkpt>
<trkpt lat="31.7715200" lon="35.0643150">
<ele>651.814819</ele>
<time>2014-05-23T06:03:34.998Z</time>
</trkpt>
<trkpt lat="31.7715850" lon="35.0644810">
<ele>652.393860</ele>
<time>2014-05-23T06:03:37.002Z</time>
</trkpt>
<trkpt lat="31.7716700" lon="35.0646070">
<ele>652.211060</ele>
<time>2014-05-23T06:03:38.998Z</time>
</trkpt>
<trkpt lat="31.7717580" lon="35.0646980">
<ele>652.607300</ele>
<time>2014-05-23T06:03:41.003Z</time>
</trkpt>
<trkpt lat="31.7718070" lon="35.0647950">
<ele>653.186401</ele>
<time>2014-05-23T06:03:44.001Z</time>
</trkpt>
<trkpt lat="31.7717980" lon="35.0648760">
<ele>654.192261</ele>
<time>2014-05-23T06:04:00.002Z</time>
</trkpt>
<trkpt lat="31.7717600" lon="35.0649800">
<ele>655.411438</ele>
<time>2014-05-23T06:06:01.999Z</time>
</trkpt>
<trkpt lat="31.7717250" lon="35.0651110">
<ele>656.813477</ele>
<time>2014-05-23T06:06:05.999Z</time>
</trkpt>
<trkpt lat="31.7717130" lon="35.0652300">
<ele>658.002258</ele>
<time>2014-05-23T06:06:08.997Z</time>
</trkpt>
<trkpt lat="31.7717130" lon="35.0653570">
<ele>659.404297</ele>
<time>2014-05-23T06:06:14.000Z</time>
</trkpt>
<trkpt lat="31.7717180" lon="35.0654700">
<ele>660.410156</ele>
<time>2014-05-23T06:06:19.002Z</time>
</trkpt>
<trkpt lat="31.7717150" lon="35.0655900">
<ele>661.995117</ele>
<time>2014-05-23T06:06:24.998Z</time>
</trkpt>
<trkpt lat="31.7716990" lon="35.0657030">
<ele>663.214294</ele>
<time>2014-05-23T06:06:31.997Z</time>
</trkpt>
<trkpt lat="31.7716870" lon="35.0658130">
<ele>664.403076</ele>
<time>2014-05-23T06:06:38.002Z</time>
</trkpt>
<trkpt lat="31.7716710" lon="35.0659290">
<ele>665.805115</ele>
<time>2014-05-23T06:06:45.000Z</time>
</trkpt>
<trkpt lat="31.7716540" lon="35.0660370">
<ele>666.993835</ele>
<time>2014-05-23T06:06:53.001Z</time>
</trkpt>
<trkpt lat="31.7716430" lon="35.0661480">
<ele>668.395874</ele>
<time>2014-05-23T06:06:59.999Z</time>
</trkpt>
<trkpt lat="31.7716500" lon="35.0662640">
<ele>669.615112</ele>
<time>2014-05-23T06:07:08.000Z</time>
</trkpt>
<trkpt lat="31.7716470" lon="35.0663770">
<ele>670.803833</ele>
<time>2014-05-23T06:07:17.003Z</time>
</trkpt>
<trkpt lat="31.7716120" lon="35.0664850">
<ele>671.413452</ele>
<time>2014-05-23T06:07:25.003Z</time>
</trkpt>
<trkpt lat="31.7715630" lon="35.0665750">
<ele>671.992554</ele>
<time>2014-05-23T06:07:32.002Z</time>
</trkpt>
<trkpt lat="31.7715320" lon="35.0666790">
<ele>672.205872</ele>
<time>2014-05-23T06:07:40.002Z</time>
</trkpt>
<trkpt lat="31.7715100" lon="35.0667960">
<ele>672.388794</ele>
<time>2014-05-23T06:07:48.003Z</time>
</trkpt>
<trkpt lat="31.7714880" lon="35.0669020">
<ele>672.388794</ele>
<time>2014-05-23T06:07:55.001Z</time>
</trkpt>
<trkpt lat="31.7714700" lon="35.0670130">
<ele>672.602173</ele>
<time>2014-05-23T06:08:03.002Z</time>
</trkpt>
<trkpt lat="31.7714630" lon="35.0671340">
<ele>671.992554</ele>
<time>2014-05-23T06:08:11.003Z</time>
</trkpt>
<trkpt lat="31.7714610" lon="35.0672500">
<ele>671.596313</ele>
<time>2014-05-23T06:08:18.001Z</time>
</trkpt>
<trkpt lat="31.7714690" lon="35.0673650">
<ele>671.809692</ele>
<time>2014-05-23T06:08:26.002Z</time>
</trkpt>
<trkpt lat="31.7714930" lon="35.0674840">
<ele>672.602173</ele>
<time>2014-05-23T06:08:34.002Z</time>
</trkpt>
<trkpt lat="31.7715250" lon="35.0675990">
<ele>673.607971</ele>
<time>2014-05-23T06:08:42.003Z</time>
</trkpt>
<trkpt lat="31.7715340" lon="35.0677060">
<ele>673.790894</ele>
<time>2014-05-23T06:08:49.001Z</time>
</trkpt>
<trkpt lat="31.7715460" lon="35.0678070">
<ele>674.187073</ele>
<time>2014-05-23T06:09:05.996Z</time>
</trkpt>
<trkpt lat="31.7716200" lon="35.0678180">
<ele>675.010132</ele>
<time>2014-05-23T06:09:36.003Z</time>
</trkpt>
<trkpt lat="31.7716310" lon="35.0679020">
<ele>675.010132</ele>
<time>2014-05-23T06:09:50.000Z</time>
</trkpt>
<trkpt lat="31.7716360" lon="35.0680250">
<ele>675.802551</ele>
<time>2014-05-23T06:09:59.996Z</time>
</trkpt>
<trkpt lat="31.7716290" lon="35.0681460">
<ele>676.198792</ele>
<time>2014-05-23T06:10:07.003Z</time>
</trkpt>
<trkpt lat="31.7716150" lon="35.0682590">
<ele>676.412170</ele>
<time>2014-05-23T06:10:11.997Z</time>
</trkpt>
<trkpt lat="31.7716360" lon="35.0683720">
<ele>677.204651</ele>
<time>2014-05-23T06:10:18.002Z</time>
</trkpt>
<trkpt lat="31.7716510" lon="35.0684820">
<ele>677.814270</ele>
<time>2014-05-23T06:10:23.998Z</time>
</trkpt>
<trkpt lat="31.7716650" lon="35.0685950">
<ele>678.393372</ele>
<time>2014-05-23T06:10:30.003Z</time>
</trkpt>
<trkpt lat="31.7716830" lon="35.0687130">
<ele>679.185852</ele>
<time>2014-05-23T06:10:35.999Z</time>
</trkpt>
<trkpt lat="31.7717030" lon="35.0688250">
<ele>680.191711</ele>
<time>2014-05-23T06:10:41.002Z</time>
</trkpt>
<trkpt lat="31.7717160" lon="35.0689350">
<ele>681.410889</ele>
<time>2014-05-23T06:10:46.998Z</time>
</trkpt>
<trkpt lat="31.7717340" lon="35.0690430">
<ele>682.812927</ele>
<time>2014-05-23T06:10:53.996Z</time>
</trkpt>
<trkpt lat="31.7717450" lon="35.0691570">
<ele>684.397888</ele>
<time>2014-05-23T06:11:01.997Z</time>
</trkpt>
<trkpt lat="31.7717620" lon="35.0692680">
<ele>686.013367</ele>
<time>2014-05-23T06:11:09.997Z</time>
</trkpt>
<trkpt lat="31.7717820" lon="35.0693760">
<ele>687.384949</ele>
<time>2014-05-23T06:11:17.998Z</time>
</trkpt>
<trkpt lat="31.7718140" lon="35.0694820">
<ele>689.213745</ele>
<time>2014-05-23T06:11:25.999Z</time>
</trkpt>
<trkpt lat="31.7718310" lon="35.0695900">
<ele>690.798706</ele>
<time>2014-05-23T06:11:33.999Z</time>
</trkpt>
<trkpt lat="31.7718370" lon="35.0697010">
<ele>691.987427</ele>
<time>2014-05-23T06:11:42.000Z</time>
</trkpt>
<trkpt lat="31.7718240" lon="35.0698130">
<ele>692.993286</ele>
<time>2014-05-23T06:11:51.003Z</time>
</trkpt>
<trkpt lat="31.7717950" lon="35.0699260">
<ele>694.212524</ele>
<time>2014-05-23T06:11:59.004Z</time>
</trkpt>
<trkpt lat="31.7717450" lon="35.0700290">
<ele>695.187866</ele>
<time>2014-05-23T06:12:05.000Z</time>
</trkpt>
<trkpt lat="31.7717000" lon="35.0701280">
<ele>696.193726</ele>
<time>2014-05-23T06:12:10.996Z</time>
</trkpt>
<trkpt lat="31.7716630" lon="35.0702370">
<ele>697.412903</ele>
<time>2014-05-23T06:12:18.003Z</time>
</trkpt>
<trkpt lat="31.7716140" lon="35.0703380">
<ele>698.388245</ele>
<time>2014-05-23T06:12:25.001Z</time>
</trkpt>
<trkpt lat="31.7715850" lon="35.0704570">
<ele>699.790283</ele>
<time>2014-05-23T06:12:32.000Z</time>
</trkpt>
<trkpt lat="31.7715570" lon="35.0705600">
<ele>701.009460</ele>
<time>2014-05-23T06:12:38.998Z</time>
</trkpt>
<trkpt lat="31.7715060" lon="35.0706630">
<ele>701.192383</ele>
<time>2014-05-23T06:12:45.996Z</time>
</trkpt>
<trkpt lat="31.7714660" lon="35.0707750">
<ele>701.588684</ele>
<time>2014-05-23T06:12:52.001Z</time>
</trkpt>
<trkpt lat="31.7714190" lon="35.0708810">
<ele>701.802002</ele>
<time>2014-05-23T06:12:57.004Z</time>
</trkpt>
<trkpt lat="31.7713890" lon="35.0709830">
<ele>702.411621</ele>
<time>2014-05-23T06:13:01.004Z</time>
</trkpt>
<trkpt lat="31.7713380" lon="35.0710920">
<ele>702.411621</ele>
<time>2014-05-23T06:13:04.996Z</time>
</trkpt>
<trkpt lat="31.7712950" lon="35.0712150">
<ele>702.990662</ele>
<time>2014-05-23T06:13:08.996Z</time>
</trkpt>
<trkpt lat="31.7712690" lon="35.0713400">
<ele>704.392822</ele>
<time>2014-05-23T06:13:13.999Z</time>
</trkpt>
<trkpt lat="31.7712240" lon="35.0714370">
<ele>705.002380</ele>
<time>2014-05-23T06:13:19.001Z</time>
</trkpt>
<trkpt lat="31.7711850" lon="35.0715440">
<ele>705.794922</ele>
<time>2014-05-23T06:13:24.004Z</time>
</trkpt>
<trkpt lat="31.7711660" lon="35.0716220">
<ele>706.587341</ele>
<time>2014-05-23T06:14:59.001Z</time>
</trkpt>
<trkpt lat="31.7711250" lon="35.0717290">
<ele>707.410278</ele>
<time>2014-05-23T06:15:04.003Z</time>
</trkpt>
<trkpt lat="31.7710890" lon="35.0718270">
<ele>708.202820</ele>
<time>2014-05-23T06:15:08.004Z</time>
</trkpt>
<trkpt lat="31.7710490" lon="35.0719490">
<ele>709.391479</ele>
<time>2014-05-23T06:15:12.997Z</time>
</trkpt>
<trkpt lat="31.7710110" lon="35.0720670">
<ele>710.793579</ele>
<time>2014-05-23T06:15:18.000Z</time>
</trkpt>
<trkpt lat="31.7709670" lon="35.0721740">
<ele>711.799438</ele>
<time>2014-05-23T06:15:23.003Z</time>
</trkpt>
<trkpt lat="31.7709170" lon="35.0722980">
<ele>712.988159</ele>
<time>2014-05-23T06:15:27.996Z</time>
</trkpt>
<trkpt lat="31.7708560" lon="35.0724150">
<ele>713.597717</ele>
<time>2014-05-23T06:15:31.997Z</time>
</trkpt>
<trkpt lat="31.7708080" lon="35.0725060">
<ele>714.207336</ele>
<time>2014-05-23T06:15:35.004Z</time>
</trkpt>
<trkpt lat="31.7707550" lon="35.0726240">
<ele>714.999878</ele>
<time>2014-05-23T06:15:39.004Z</time>
</trkpt>
<trkpt lat="31.7707160" lon="35.0727330">
<ele>716.188538</ele>
<time>2014-05-23T06:15:43.998Z</time>
</trkpt>
<trkpt lat="31.7706920" lon="35.0728480">
<ele>717.590637</ele>
<time>2014-05-23T06:15:50.003Z</time>
</trkpt>
<trkpt lat="31.7706540" lon="35.0729580">
<ele>718.596497</ele>
<time>2014-05-23T06:15:55.999Z</time>
</trkpt>
<trkpt lat="31.7706150" lon="35.0730620">
<ele>718.413574</ele>
<time>2014-05-23T06:16:02.997Z</time>
</trkpt>
<trkpt lat="31.7705660" lon="35.0731670">
<ele>717.804016</ele>
<time>2014-05-23T06:16:10.004Z</time>
</trkpt>
<trkpt lat="31.7705250" lon="35.0732720">
<ele>717.590637</ele>
<time>2014-05-23T06:16:17.996Z</time>
</trkpt>
<trkpt lat="31.7704800" lon="35.0733800">
<ele>717.407715</ele>
<time>2014-05-23T06:16:25.997Z</time>
</trkpt>
<trkpt lat="31.7704390" lon="35.0734890">
<ele>717.194397</ele>
<time>2014-05-23T06:16:33.004Z</time>
</trkpt>
<trkpt lat="31.7704160" lon="35.0735920">
<ele>717.407715</ele>
<time>2014-05-23T06:16:40.002Z</time>
</trkpt>
<trkpt lat="31.7703770" lon="35.0736900">
<ele>717.011475</ele>
<time>2014-05-23T06:16:47.001Z</time>
</trkpt>
<trkpt lat="31.7703460" lon="35.0737930">
<ele>716.188538</ele>
<time>2014-05-23T06:16:53.999Z</time>
</trkpt>
<trkpt lat="31.7703140" lon="35.0739050">
<ele>713.811096</ele>
<time>2014-05-23T06:17:00.997Z</time>
</trkpt>
<trkpt lat="31.7703140" lon="35.0740310">
<ele>712.409058</ele>
<time>2014-05-23T06:17:07.002Z</time>
</trkpt>
<trkpt lat="31.7703350" lon="35.0741420">
<ele>711.586121</ele>
<time>2014-05-23T06:17:12.998Z</time>
</trkpt>
<trkpt lat="31.7703510" lon="35.0742510">
<ele>710.793579</ele>
<time>2014-05-23T06:17:16.999Z</time>
</trkpt>
<trkpt lat="31.7703960" lon="35.0743500">
<ele>711.189880</ele>
<time>2014-05-23T06:17:22.001Z</time>
</trkpt>
<trkpt lat="31.7704370" lon="35.0744480">
<ele>711.403198</ele>
<time>2014-05-23T06:17:27.004Z</time>
</trkpt>
<trkpt lat="31.7704910" lon="35.0745480">
<ele>712.012817</ele>
<time>2014-05-23T06:17:31.998Z</time>
</trkpt>
<trkpt lat="31.7705450" lon="35.0746560">
<ele>712.409058</ele>
<time>2014-05-23T06:17:35.998Z</time>
</trkpt>
<trkpt lat="31.7705910" lon="35.0747560">
<ele>712.988159</ele>
<time>2014-05-23T06:17:38.996Z</time>
</trkpt>
<trkpt lat="31.7706520" lon="35.0748630">
<ele>713.994019</ele>
<time>2014-05-23T06:17:42.003Z</time>
</trkpt>
<trkpt lat="31.7707020" lon="35.0749600">
<ele>714.603577</ele>
<time>2014-05-23T06:17:45.001Z</time>
</trkpt>
<trkpt lat="31.7707570" lon="35.0750500">
<ele>714.999878</ele>
<time>2014-05-23T06:17:47.999Z</time>
</trkpt>
<trkpt lat="31.7708220" lon="35.0751370">
<ele>715.396118</ele>
<time>2014-05-23T06:17:50.997Z</time>
</trkpt>
<trkpt lat="31.7708920" lon="35.0752230">
<ele>716.005737</ele>
<time>2014-05-23T06:17:54.004Z</time>
</trkpt>
<trkpt lat="31.7709430" lon="35.0753140">
<ele>716.188538</ele>
<time>2014-05-23T06:18:35.001Z</time>
</trkpt>
<trkpt lat="31.7710120" lon="35.0754120">
<ele>716.584778</ele>
<time>2014-05-23T06:18:40.003Z</time>
</trkpt>
<trkpt lat="31.7710840" lon="35.0755010">
<ele>718.992676</ele>
<time>2014-05-23T06:18:43.001Z</time>
</trkpt>
<trkpt lat="31.7711510" lon="35.0756010">
<ele>721.796936</ele>
<time>2014-05-23T06:18:45.999Z</time>
</trkpt>
<trkpt lat="31.7711730" lon="35.0757460">
<ele>724.601074</ele>
<time>2014-05-23T06:18:48.997Z</time>
</trkpt>
<trkpt lat="31.7711800" lon="35.0758630">
<ele>726.795593</ele>
<time>2014-05-23T06:18:51.002Z</time>
</trkpt>
<trkpt lat="31.7711750" lon="35.0759830">
<ele>728.593872</ele>
<time>2014-05-23T06:18:52.998Z</time>
</trkpt>
<trkpt lat="31.7711440" lon="35.0761100">
<ele>729.995972</ele>
<time>2014-05-23T06:18:55.996Z</time>
</trkpt>
<trkpt lat="31.7710710" lon="35.0762030">
<ele>729.995972</ele>
<time>2014-05-23T06:18:59.003Z</time>
</trkpt>
<trkpt lat="31.7710040" lon="35.0762820">
<ele>729.599731</ele>
<time>2014-05-23T06:19:04.999Z</time>
</trkpt>
<trkpt lat="31.7709290" lon="35.0763560">
<ele>728.411072</ele>
<time>2014-05-23T06:19:11.997Z</time>
</trkpt>
<trkpt lat="31.7708500" lon="35.0764420">
<ele>727.405212</ele>
<time>2014-05-23T06:19:19.998Z</time>
</trkpt>
<trkpt lat="31.7707630" lon="35.0764710">
<ele>726.399353</ele>
<time>2014-05-23T06:19:26.996Z</time>
</trkpt>
<trkpt lat="31.7706480" lon="35.0764770">
<ele>725.210632</ele>
<time>2014-05-23T06:19:31.999Z</time>
</trkpt>
<trkpt lat="31.7705600" lon="35.0765220">
<ele>724.997314</ele>
<time>2014-05-23T06:19:35.999Z</time>
</trkpt>
<trkpt lat="31.7704720" lon="35.0765780">
<ele>724.601074</ele>
<time>2014-05-23T06:19:42.997Z</time>
</trkpt>
<trkpt lat="31.7703790" lon="35.0766380">
<ele>724.387695</ele>
<time>2014-05-23T06:19:49.002Z</time>
</trkpt>
<trkpt lat="31.7702730" lon="35.0766770">
<ele>723.808533</ele>
<time>2014-05-23T06:19:53.996Z</time>
</trkpt>
<trkpt lat="31.7701610" lon="35.0766970">
<ele>722.406494</ele>
<time>2014-05-23T06:19:57.996Z</time>
</trkpt>
<trkpt lat="31.7700390" lon="35.0767180">
<ele>721.187317</ele>
<time>2014-05-23T06:20:01.003Z</time>
</trkpt>
<trkpt lat="31.7699380" lon="35.0767570">
<ele>719.998535</ele>
<time>2014-05-23T06:20:04.001Z</time>
</trkpt>
<trkpt lat="31.7698560" lon="35.0768000">
<ele>719.388916</ele>
<time>2014-05-23T06:20:08.002Z</time>
</trkpt>
<trkpt lat="31.7697500" lon="35.0768220">
<ele>718.413574</ele>
<time>2014-05-23T06:20:12.002Z</time>
</trkpt>
<trkpt lat="31.7696410" lon="35.0768410">
<ele>717.194397</ele>
<time>2014-05-23T06:20:15.000Z</time>
</trkpt>
<trkpt lat="31.7695390" lon="35.0768970">
<ele>715.792297</ele>
<time>2014-05-23T06:20:17.998Z</time>
</trkpt>
<trkpt lat="31.7694510" lon="35.0769550">
<ele>714.603577</ele>
<time>2014-05-23T06:20:20.996Z</time>
</trkpt>
<trkpt lat="31.7693820" lon="35.0770640">
<ele>713.811096</ele>
<time>2014-05-23T06:20:24.003Z</time>
</trkpt>
<trkpt lat="31.7694100" lon="35.0772050">
<ele>712.012817</ele>
<time>2014-05-23T06:20:27.001Z</time>
</trkpt>
<trkpt lat="31.7694720" lon="35.0773040">
<ele>710.610718</ele>
<time>2014-05-23T06:20:29.999Z</time>
</trkpt>
<trkpt lat="31.7695400" lon="35.0774000">
<ele>709.604919</ele>
<time>2014-05-23T06:20:32.997Z</time>
</trkpt>
<trkpt lat="31.7696110" lon="35.0774870">
<ele>708.812378</ele>
<time>2014-05-23T06:20:36.004Z</time>
</trkpt>
<trkpt lat="31.7696820" lon="35.0775860">
<ele>707.593201</ele>
<time>2014-05-23T06:20:39.002Z</time>
</trkpt>
<trkpt lat="31.7697810" lon="35.0776600">
<ele>707.410278</ele>
<time>2014-05-23T06:20:42.000Z</time>
</trkpt>
<trkpt lat="31.7698870" lon="35.0777160">
<ele>707.806519</ele>
<time>2014-05-23T06:20:44.998Z</time>
</trkpt>
<trkpt lat="31.7700000" lon="35.0777780">
<ele>708.202820</ele>
<time>2014-05-23T06:20:47.996Z</time>
</trkpt>
<trkpt lat="31.7700850" lon="35.0778200">
<ele>708.599060</ele>
<time>2014-05-23T06:20:50.001Z</time>
</trkpt>
<trkpt lat="31.7701720" lon="35.0778730">
<ele>708.812378</ele>
<time>2014-05-23T06:20:51.996Z</time>
</trkpt>
<trkpt lat="31.7702680" lon="35.0779190">
<ele>709.391479</ele>
<time>2014-05-23T06:20:54.001Z</time>
</trkpt>
<trkpt lat="31.7703640" lon="35.0779640">
<ele>710.793579</ele>
<time>2014-05-23T06:20:55.997Z</time>
</trkpt>
<trkpt lat="31.7704590" lon="35.0780190">
<ele>712.409058</ele>
<time>2014-05-23T06:20:58.001Z</time>
</trkpt>
<trkpt lat="31.7705640" lon="35.0780850">
<ele>714.390259</ele>
<time>2014-05-23T06:20:59.997Z</time>
</trkpt>
<trkpt lat="31.7706670" lon="35.0781460">
<ele>716.401917</ele>
<time>2014-05-23T06:21:02.002Z</time>
</trkpt>
<trkpt lat="31.7707740" lon="35.0782040">
<ele>718.809875</ele>
<time>2014-05-23T06:21:05.000Z</time>
</trkpt>
<trkpt lat="31.7708400" lon="35.0782120">
<ele>720.211914</ele>
<time>2014-05-23T06:21:15.998Z</time>
</trkpt>
<trkpt lat="31.7708870" lon="35.0782990">
<ele>721.796936</ele>
<time>2014-05-23T06:21:30.004Z</time>
</trkpt>
<trkpt lat="31.7709430" lon="35.0784130">
<ele>723.595215</ele>
<time>2014-05-23T06:21:34.998Z</time>
</trkpt>
<trkpt lat="31.7709420" lon="35.0785420">
<ele>724.204773</ele>
<time>2014-05-23T06:21:37.996Z</time>
</trkpt>
<trkpt lat="31.7709180" lon="35.0786800">
<ele>724.204773</ele>
<time>2014-05-23T06:21:41.003Z</time>
</trkpt>
<trkpt lat="31.7708480" lon="35.0788020">
<ele>723.595215</ele>
<time>2014-05-23T06:21:44.001Z</time>
</trkpt>
<trkpt lat="31.7707560" lon="35.0789160">
<ele>722.985596</ele>
<time>2014-05-23T06:21:46.999Z</time>
</trkpt>
<trkpt lat="31.7706880" lon="35.0790260">
<ele>722.802673</ele>
<time>2014-05-23T06:21:49.997Z</time>
</trkpt>
<trkpt lat="31.7706400" lon="35.0791260">
<ele>722.985596</ele>
<time>2014-05-23T06:21:53.004Z</time>
</trkpt>
<trkpt lat="31.7705970" lon="35.0792420">
<ele>723.198975</ele>
<time>2014-05-23T06:21:57.004Z</time>
</trkpt>
<trkpt lat="31.7705560" lon="35.0793560">
<ele>723.808533</ele>
<time>2014-05-23T06:22:01.004Z</time>
</trkpt>
<trkpt lat="31.7705230" lon="35.0794680">
<ele>724.814392</ele>
<time>2014-05-23T06:22:05.998Z</time>
</trkpt>
<trkpt lat="31.7705050" lon="35.0795840">
<ele>726.795593</ele>
<time>2014-05-23T06:22:11.001Z</time>
</trkpt>
<trkpt lat="31.7704970" lon="35.0796930">
<ele>728.990173</ele>
<time>2014-05-23T06:22:16.003Z</time>
</trkpt>
<trkpt lat="31.7704840" lon="35.0798100">
<ele>731.215210</ele>
<time>2014-05-23T06:22:21.999Z</time>
</trkpt>
<trkpt lat="31.7704580" lon="35.0799240">
<ele>733.196411</ele>
<time>2014-05-23T06:22:27.002Z</time>
</trkpt>
<trkpt lat="31.7704210" lon="35.0800340">
<ele>734.811829</ele>
<time>2014-05-23T06:22:32.998Z</time>
</trkpt>
<trkpt lat="31.7703810" lon="35.0801260">
<ele>736.213867</ele>
<time>2014-05-23T06:22:39.996Z</time>
</trkpt>
<trkpt lat="31.7703180" lon="35.0802230">
<ele>738.012268</ele>
<time>2014-05-23T06:22:48.999Z</time>
</trkpt>
<trkpt lat="31.7702460" lon="35.0803020">
<ele>739.414307</ele>
<time>2014-05-23T06:22:57.000Z</time>
</trkpt>
<trkpt lat="31.7701830" lon="35.0803990">
<ele>741.212646</ele>
<time>2014-05-23T06:23:05.001Z</time>
</trkpt>
<trkpt lat="31.7700940" lon="35.0804540">
<ele>741.395508</ele>
<time>2014-05-23T06:23:14.004Z</time>
</trkpt>
<trkpt lat="31.7700110" lon="35.0804190">
<ele>739.414307</ele>
<time>2014-05-23T06:23:21.002Z</time>
</trkpt>
<trkpt lat="31.7699430" lon="35.0804340">
<ele>738.987610</ele>
<time>2014-05-23T06:24:23.996Z</time>
</trkpt>
<trkpt lat="31.7698380" lon="35.0804450">
<ele>738.012268</ele>
<time>2014-05-23T06:24:27.996Z</time>
</trkpt>
<trkpt lat="31.7697350" lon="35.0804410">
<ele>736.610168</ele>
<time>2014-05-23T06:24:31.003Z</time>
</trkpt>
<trkpt lat="31.7696230" lon="35.0804070">
<ele>734.811829</ele>
<time>2014-05-23T06:24:34.001Z</time>
</trkpt>
<trkpt lat="31.7694890" lon="35.0803960">
<ele>733.013489</ele>
<time>2014-05-23T06:24:36.999Z</time>
</trkpt>
<trkpt lat="31.7693820" lon="35.0804050">
<ele>732.007690</ele>
<time>2014-05-23T06:24:39.997Z</time>
</trkpt>
<trkpt lat="31.7692820" lon="35.0804320">
<ele>731.611450</ele>
<time>2014-05-23T06:24:46.996Z</time>
</trkpt>
<trkpt lat="31.7692060" lon="35.0804960">
<ele>732.190552</ele>
<time>2014-05-23T06:24:53.001Z</time>
</trkpt>
<trkpt lat="31.7691240" lon="35.0805750">
<ele>732.190552</ele>
<time>2014-05-23T06:24:58.997Z</time>
</trkpt>
<trkpt lat="31.7690560" lon="35.0806540">
<ele>731.001831</ele>
<time>2014-05-23T06:25:05.002Z</time>
</trkpt>
<trkpt lat="31.7689970" lon="35.0807550">
<ele>730.209351</ele>
<time>2014-05-23T06:25:12.000Z</time>
</trkpt>
<trkpt lat="31.7689720" lon="35.0808600">
<ele>730.392273</ele>
<time>2014-05-23T06:25:17.996Z</time>
</trkpt>
<trkpt lat="31.7689560" lon="35.0809680">
<ele>730.788513</ele>
<time>2014-05-23T06:25:22.999Z</time>
</trkpt>
<trkpt lat="31.7689320" lon="35.0810870">
<ele>731.215210</ele>
<time>2014-05-23T06:25:28.001Z</time>
</trkpt>
<trkpt lat="31.7689000" lon="35.0812080">
<ele>730.788513</ele>
<time>2014-05-23T06:25:33.004Z</time>
</trkpt>
<trkpt lat="31.7688800" lon="35.0813100">
<ele>730.392273</ele>
<time>2014-05-23T06:25:37.004Z</time>
</trkpt>
<trkpt lat="31.7688780" lon="35.0814200">
<ele>730.605591</ele>
<time>2014-05-23T06:25:41.998Z</time>
</trkpt>
<trkpt lat="31.7689220" lon="35.0815330">
<ele>732.190552</ele>
<time>2014-05-23T06:25:47.001Z</time>
</trkpt>
<trkpt lat="31.7689370" lon="35.0816570">
<ele>732.800171</ele>
<time>2014-05-23T06:25:52.003Z</time>
</trkpt>
<trkpt lat="31.7689270" lon="35.0817810">
<ele>732.800171</ele>
<time>2014-05-23T06:25:56.997Z</time>
</trkpt>
<trkpt lat="31.7689010" lon="35.0819090">
<ele>732.403870</ele>
<time>2014-05-23T06:26:02.000Z</time>
</trkpt>
<trkpt lat="31.7688880" lon="35.0820350">
<ele>732.586792</ele>
<time>2014-05-23T06:26:07.002Z</time>
</trkpt>
<trkpt lat="31.7689180" lon="35.0821470">
<ele>733.409729</ele>
<time>2014-05-23T06:26:11.996Z</time>
</trkpt>
<trkpt lat="31.7689330" lon="35.0822590">
<ele>733.013489</ele>
<time>2014-05-23T06:26:18.001Z</time>
</trkpt>
<trkpt lat="31.7689340" lon="35.0823740">
<ele>732.190552</ele>
<time>2014-05-23T06:26:23.004Z</time>
</trkpt>
<trkpt lat="31.7689280" lon="35.0824810">
<ele>731.398132</ele>
<time>2014-05-23T06:26:29.000Z</time>
</trkpt>
<trkpt lat="31.7690060" lon="35.0825690">
<ele>732.586792</ele>
<time>2014-05-23T06:26:35.998Z</time>
</trkpt>
<trkpt lat="31.7690710" lon="35.0826650">
<ele>733.409729</ele>
<time>2014-05-23T06:26:43.999Z</time>
</trkpt>
<trkpt lat="31.7691040" lon="35.0827620">
<ele>733.196411</ele>
<time>2014-05-23T06:26:50.997Z</time>
</trkpt>
<trkpt lat="31.7691480" lon="35.0828560">
<ele>733.196411</ele>
<time>2014-05-23T06:26:58.004Z</time>
</trkpt>
<trkpt lat="31.7692370" lon="35.0829130">
<ele>734.385071</ele>
<time>2014-05-23T06:27:05.996Z</time>
</trkpt>
<trkpt lat="31.7693310" lon="35.0829420">
<ele>735.604309</ele>
<time>2014-05-23T06:27:13.997Z</time>
</trkpt>
<trkpt lat="31.7693910" lon="35.0830260">
<ele>735.208130</ele>
<time>2014-05-23T06:27:21.004Z</time>
</trkpt>
<trkpt lat="31.7694800" lon="35.0830870">
<ele>735.604309</ele>
<time>2014-05-23T06:27:28.002Z</time>
</trkpt>
<trkpt lat="31.7695600" lon="35.0831590">
<ele>735.787170</ele>
<time>2014-05-23T06:27:33.998Z</time>
</trkpt>
<trkpt lat="31.7696320" lon="35.0832430">
<ele>735.604309</ele>
<time>2014-05-23T06:27:40.003Z</time>
</trkpt>
<trkpt lat="31.7697150" lon="35.0833090">
<ele>736.000549</ele>
<time>2014-05-23T06:27:45.999Z</time>
</trkpt>
<trkpt lat="31.7697920" lon="35.0833710">
<ele>736.213867</ele>
<time>2014-05-23T06:27:51.002Z</time>
</trkpt>
<trkpt lat="31.7698740" lon="35.0834400">
<ele>736.396790</ele>
<time>2014-05-23T06:27:55.996Z</time>
</trkpt>
<trkpt lat="31.7699510" lon="35.0835230">
<ele>736.000549</ele>
<time>2014-05-23T06:28:00.998Z</time>
</trkpt>
<trkpt lat="31.7700400" lon="35.0835930">
<ele>736.000549</ele>
<time>2014-05-23T06:28:06.001Z</time>
</trkpt>
<trkpt lat="31.7701120" lon="35.0836610">
<ele>735.787170</ele>
<time>2014-05-23T06:28:11.004Z</time>
</trkpt>
<trkpt lat="31.7701800" lon="35.0837600">
<ele>734.994690</ele>
<time>2014-05-23T06:28:17.000Z</time>
</trkpt>
<trkpt lat="31.7702570" lon="35.0838350">
<ele>734.994690</ele>
<time>2014-05-23T06:28:22.996Z</time>
</trkpt>
<trkpt lat="31.7703530" lon="35.0838970">
<ele>735.604309</ele>
<time>2014-05-23T06:28:29.001Z</time>
</trkpt>
<trkpt lat="31.7704330" lon="35.0839440">
<ele>736.000549</ele>
<time>2014-05-23T06:28:33.001Z</time>
</trkpt>
<trkpt lat="31.7705160" lon="35.0839880">
<ele>736.396790</ele>
<time>2014-05-23T06:28:37.001Z</time>
</trkpt>
<trkpt lat="31.7706000" lon="35.0840290">
<ele>737.006409</ele>
<time>2014-05-23T06:28:41.002Z</time>
</trkpt>
<trkpt lat="31.7707060" lon="35.0840700">
<ele>737.798889</ele>
<time>2014-05-23T06:28:46.004Z</time>
</trkpt>
<trkpt lat="31.7708000" lon="35.0841040">
<ele>738.591370</ele>
<time>2014-05-23T06:28:49.996Z</time>
</trkpt>
<trkpt lat="31.7709090" lon="35.0841400">
<ele>739.414307</ele>
<time>2014-05-23T06:28:53.996Z</time>
</trkpt>
<trkpt lat="31.7710320" lon="35.0841660">
<ele>740.603027</ele>
<time>2014-05-23T06:28:57.996Z</time>
</trkpt>
<trkpt lat="31.7711280" lon="35.0841810">
<ele>741.395508</ele>
<time>2014-05-23T06:29:01.003Z</time>
</trkpt>
<trkpt lat="31.7712250" lon="35.0841890">
<ele>742.005066</ele>
<time>2014-05-23T06:29:04.001Z</time>
</trkpt>
<trkpt lat="31.7713150" lon="35.0841780">
<ele>742.401367</ele>
<time>2014-05-23T06:29:06.999Z</time>
</trkpt>
<trkpt lat="31.7714250" lon="35.0842050">
<ele>742.797607</ele>
<time>2014-05-23T06:29:11.000Z</time>
</trkpt>
<trkpt lat="31.7715090" lon="35.0842460">
<ele>743.010925</ele>
<time>2014-05-23T06:29:13.998Z</time>
</trkpt>
<trkpt lat="31.7716030" lon="35.0842870">
<ele>742.614685</ele>
<time>2014-05-23T06:29:17.998Z</time>
</trkpt>
<trkpt lat="31.7716020" lon="35.0843930">
<ele>741.791748</ele>
<time>2014-05-23T06:29:21.998Z</time>
</trkpt>
<trkpt lat="31.7715770" lon="35.0845140">
<ele>741.395508</ele>
<time>2014-05-23T06:29:24.996Z</time>
</trkpt>
<trkpt lat="31.7715710" lon="35.0846180">
<ele>740.999329</ele>
<time>2014-05-23T06:29:27.001Z</time>
</trkpt>
<trkpt lat="31.7716010" lon="35.0847250">
<ele>741.608887</ele>
<time>2014-05-23T06:29:28.997Z</time>
</trkpt>
<trkpt lat="31.7716390" lon="35.0848240">
<ele>742.187988</ele>
<time>2014-05-23T06:29:31.001Z</time>
</trkpt>
<trkpt lat="31.7716990" lon="35.0849560">
<ele>742.797607</ele>
<time>2014-05-23T06:29:33.999Z</time>
</trkpt>
<trkpt lat="31.7717510" lon="35.0850660">
<ele>743.407227</ele>
<time>2014-05-23T06:29:38.000Z</time>
</trkpt>
<trkpt lat="31.7718210" lon="35.0851520">
<ele>743.590088</ele>
<time>2014-05-23T06:29:43.002Z</time>
</trkpt>
<trkpt lat="31.7718790" lon="35.0852250">
<ele>743.986267</ele>
<time>2014-05-23T06:29:50.001Z</time>
</trkpt>
<trkpt lat="31.7718410" lon="35.0853310">
<ele>744.595886</ele>
<time>2014-05-23T06:29:58.001Z</time>
</trkpt>
<trkpt lat="31.7717870" lon="35.0854360">
<ele>745.388428</ele>
<time>2014-05-23T06:30:05.000Z</time>
</trkpt>
<trkpt lat="31.7717170" lon="35.0855170">
<ele>746.394226</ele>
<time>2014-05-23T06:30:10.002Z</time>
</trkpt>
<trkpt lat="31.7716520" lon="35.0856020">
<ele>746.790527</ele>
<time>2014-05-23T06:30:14.996Z</time>
</trkpt>
<trkpt lat="31.7715780" lon="35.0856940">
<ele>747.003845</ele>
<time>2014-05-23T06:30:18.996Z</time>
</trkpt>
<trkpt lat="31.7715160" lon="35.0857980">
<ele>747.003845</ele>
<time>2014-05-23T06:30:22.997Z</time>
</trkpt>
<trkpt lat="31.7714680" lon="35.0859170">
<ele>746.790527</ele>
<time>2014-05-23T06:30:26.997Z</time>
</trkpt>
<trkpt lat="31.7714370" lon="35.0860470">
<ele>746.790527</ele>
<time>2014-05-23T06:30:30.997Z</time>
</trkpt>
<trkpt lat="31.7714290" lon="35.0861860">
<ele>747.003845</ele>
<time>2014-05-23T06:30:34.998Z</time>
</trkpt>
<trkpt lat="31.7714470" lon="35.0863140">
<ele>747.613464</ele>
<time>2014-05-23T06:30:38.998Z</time>
</trkpt>
<trkpt lat="31.7714720" lon="35.0864220">
<ele>748.985046</ele>
<time>2014-05-23T06:30:42.998Z</time>
</trkpt>
<trkpt lat="31.7715120" lon="35.0865330">
<ele>750.387085</ele>
<time>2014-05-23T06:30:49.003Z</time>
</trkpt>
<trkpt lat="31.7715520" lon="35.0866450">
<ele>751.789185</ele>
<time>2014-05-23T06:30:54.999Z</time>
</trkpt>
<trkpt lat="31.7715940" lon="35.0867660">
<ele>752.795044</ele>
<time>2014-05-23T06:31:01.004Z</time>
</trkpt>
<trkpt lat="31.7716340" lon="35.0868770">
<ele>753.800903</ele>
<time>2014-05-23T06:31:07.000Z</time>
</trkpt>
<trkpt lat="31.7716700" lon="35.0869960">
<ele>754.806702</ele>
<time>2014-05-23T06:31:13.999Z</time>
</trkpt>
<trkpt lat="31.7717020" lon="35.0871030">
<ele>755.812561</ele>
<time>2014-05-23T06:31:20.997Z</time>
</trkpt>
<trkpt lat="31.7717550" lon="35.0872000">
<ele>758.007080</ele>
<time>2014-05-23T06:31:28.004Z</time>
</trkpt>
<trkpt lat="31.7718030" lon="35.0872960">
<ele>759.988281</ele>
<time>2014-05-23T06:31:34.000Z</time>
</trkpt>
<trkpt lat="31.7718570" lon="35.0873880">
<ele>762.000000</ele>
<time>2014-05-23T06:31:42.001Z</time>
</trkpt>
<trkpt lat="31.7719280" lon="35.0874790">
<ele>764.194519</ele>
<time>2014-05-23T06:31:51.004Z</time>
</trkpt>
<trkpt lat="31.7720060" lon="35.0875610">
<ele>765.992920</ele>
<time>2014-05-23T06:31:59.998Z</time>
</trkpt>
<trkpt lat="31.7720750" lon="35.0876110">
<ele>767.394958</ele>
<time>2014-05-23T06:32:07.999Z</time>
</trkpt>
<trkpt lat="31.7721680" lon="35.0876560">
<ele>768.614136</ele>
<time>2014-05-23T06:32:17.002Z</time>
</trkpt>
<trkpt lat="31.7722530" lon="35.0877050">
<ele>769.985718</ele>
<time>2014-05-23T06:32:25.002Z</time>
</trkpt>
<trkpt lat="31.7723320" lon="35.0877620">
<ele>771.601196</ele>
<time>2014-05-23T06:32:33.003Z</time>
</trkpt>
<trkpt lat="31.7724180" lon="35.0878010">
<ele>772.607056</ele>
<time>2014-05-23T06:32:41.004Z</time>
</trkpt>
<trkpt lat="31.7725070" lon="35.0878540">
<ele>773.612915</ele>
<time>2014-05-23T06:32:49.998Z</time>
</trkpt>
<trkpt lat="31.7725870" lon="35.0879000">
<ele>774.588257</ele>
<time>2014-05-23T06:32:57.998Z</time>
</trkpt>
<trkpt lat="31.7726750" lon="35.0879500">
<ele>775.594116</ele>
<time>2014-05-23T06:33:05.999Z</time>
</trkpt>
<trkpt lat="31.7727560" lon="35.0879970">
<ele>776.386536</ele>
<time>2014-05-23T06:33:14.000Z</time>
</trkpt>
<trkpt lat="31.7728480" lon="35.0880350">
<ele>776.996155</ele>
<time>2014-05-23T06:33:22.000Z</time>
</trkpt>
<trkpt lat="31.7729380" lon="35.0880800">
<ele>777.605774</ele>
<time>2014-05-23T06:33:30.001Z</time>
</trkpt>
<trkpt lat="31.7730270" lon="35.0881180">
<ele>778.184937</ele>
<time>2014-05-23T06:33:38.002Z</time>
</trkpt>
<trkpt lat="31.7731220" lon="35.0881310">
<ele>778.611572</ele>
<time>2014-05-23T06:33:46.002Z</time>
</trkpt>
<trkpt lat="31.7732080" lon="35.0881520">
<ele>779.007874</ele>
<time>2014-05-23T06:33:53.001Z</time>
</trkpt>
<trkpt lat="31.7733060" lon="35.0881890">
<ele>779.586975</ele>
<time>2014-05-23T06:33:59.999Z</time>
</trkpt>
<trkpt lat="31.7734070" lon="35.0882090">
<ele>779.800293</ele>
<time>2014-05-23T06:34:06.004Z</time>
</trkpt>
<trkpt lat="31.7735060" lon="35.0882250">
<ele>780.196533</ele>
<time>2014-05-23T06:34:12.000Z</time>
</trkpt>
<trkpt lat="31.7736090" lon="35.0882050">
<ele>780.013733</ele>
<time>2014-05-23T06:34:43.000Z</time>
</trkpt>
<trkpt lat="31.7736920" lon="35.0882410">
<ele>780.592773</ele>
<time>2014-05-23T06:34:48.003Z</time>
</trkpt>
<trkpt lat="31.7737800" lon="35.0882690">
<ele>781.202393</ele>
<time>2014-05-23T06:34:52.003Z</time>
</trkpt>
<trkpt lat="31.7738860" lon="35.0882820">
<ele>781.385315</ele>
<time>2014-05-23T06:34:56.004Z</time>
</trkpt>
<trkpt lat="31.7739870" lon="35.0882940">
<ele>781.812012</ele>
<time>2014-05-23T06:35:00.004Z</time>
</trkpt>
<trkpt lat="31.7740800" lon="35.0883190">
<ele>781.812012</ele>
<time>2014-05-23T06:35:04.004Z</time>
</trkpt>
<trkpt lat="31.7741780" lon="35.0883420">
<ele>781.385315</ele>
<time>2014-05-23T06:35:07.996Z</time>
</trkpt>
<trkpt lat="31.7742740" lon="35.0883670">
<ele>780.806152</ele>
<time>2014-05-23T06:35:11.996Z</time>
</trkpt>
<trkpt lat="31.7743640" lon="35.0884220">
<ele>780.806152</ele>
<time>2014-05-23T06:35:16.999Z</time>
</trkpt>
<trkpt lat="31.7744430" lon="35.0884920">
<ele>780.989075</ele>
<time>2014-05-23T06:35:22.001Z</time>
</trkpt>
<trkpt lat="31.7745200" lon="35.0885570">
<ele>781.202393</ele>
<time>2014-05-23T06:35:27.004Z</time>
</trkpt>
<trkpt lat="31.7745300" lon="35.0886450">
<ele>782.391113</ele>
<time>2014-05-23T06:35:34.002Z</time>
</trkpt>
<trkpt lat="31.7744690" lon="35.0887430">
<ele>784.189453</ele>
<time>2014-05-23T06:35:42.003Z</time>
</trkpt>
<trkpt lat="31.7744600" lon="35.0888500">
<ele>785.012390</ele>
<time>2014-05-23T06:35:56.000Z</time>
</trkpt>
<trkpt lat="31.7744950" lon="35.0889750">
<ele>785.195313</ele>
<time>2014-05-23T06:36:02.998Z</time>
</trkpt>
<trkpt lat="31.7744940" lon="35.0890870">
<ele>785.804932</ele>
<time>2014-05-23T06:36:08.001Z</time>
</trkpt>
<trkpt lat="31.7744680" lon="35.0891940">
<ele>786.597351</ele>
<time>2014-05-23T06:36:14.999Z</time>
</trkpt>
<trkpt lat="31.7744790" lon="35.0892940">
<ele>786.993591</ele>
<time>2014-05-23T06:36:47.002Z</time>
</trkpt>
<trkpt lat="31.7745060" lon="35.0894020">
<ele>787.206970</ele>
<time>2014-05-23T06:37:02.001Z</time>
</trkpt>
<trkpt lat="31.7745590" lon="35.0894930">
<ele>787.206970</ele>
<time>2014-05-23T06:37:15.997Z</time>
</trkpt>
<trkpt lat="31.7745910" lon="35.0895850">
<ele>787.389832</ele>
<time>2014-05-23T06:37:41.002Z</time>
</trkpt>
<trkpt lat="31.7746130" lon="35.0897080">
<ele>787.206970</ele>
<time>2014-05-23T06:37:48.000Z</time>
</trkpt>
<trkpt lat="31.7746190" lon="35.0898120">
<ele>786.993591</ele>
<time>2014-05-23T06:37:53.996Z</time>
</trkpt>
<trkpt lat="31.7745700" lon="35.0899050">
<ele>787.206970</ele>
<time>2014-05-23T06:38:01.003Z</time>
</trkpt>
<trkpt lat="31.7746250" lon="35.0900010">
<ele>786.597351</ele>
<time>2014-05-23T06:38:08.002Z</time>
</trkpt>
<trkpt lat="31.7746200" lon="35.0901090">
<ele>786.597351</ele>
<time>2014-05-23T06:38:39.002Z</time>
</trkpt>
<trkpt lat="31.7745780" lon="35.0901680">
<ele>786.810669</ele>
<time>2014-05-23T06:40:47.997Z</time>
</trkpt>
<trkpt lat="31.7745770" lon="35.0902980">
<ele>786.201111</ele>
<time>2014-05-23T06:40:54.002Z</time>
</trkpt>
<trkpt lat="31.7745880" lon="35.0904180">
<ele>785.804932</ele>
<time>2014-05-23T06:40:58.002Z</time>
</trkpt>
<trkpt lat="31.7745750" lon="35.0905290">
<ele>784.799072</ele>
<time>2014-05-23T06:41:01.000Z</time>
</trkpt>
<trkpt lat="31.7745820" lon="35.0906530">
<ele>783.396973</ele>
<time>2014-05-23T06:41:05.001Z</time>
</trkpt>
<trkpt lat="31.7746950" lon="35.0906840">
<ele>782.391113</ele>
<time>2014-05-23T06:41:10.003Z</time>
</trkpt>
<trkpt lat="31.7747880" lon="35.0907320">
<ele>781.385315</ele>
<time>2014-05-23T06:41:18.004Z</time>
</trkpt>
<trkpt lat="31.7748760" lon="35.0907010">
<ele>781.202393</ele>
<time>2014-05-23T06:41:34.999Z</time>
</trkpt>
<trkpt lat="31.7749310" lon="35.0906120">
<ele>781.385315</ele>
<time>2014-05-23T06:41:40.001Z</time>
</trkpt>
<trkpt lat="31.7749560" lon="35.0904960">
<ele>782.391113</ele>
<time>2014-05-23T06:41:45.004Z</time>
</trkpt>
<trkpt lat="31.7749960" lon="35.0903950">
<ele>782.787354</ele>
<time>2014-05-23T06:41:49.004Z</time>
</trkpt>
<trkpt lat="31.7750260" lon="35.0902720">
<ele>782.604492</ele>
<time>2014-05-23T06:41:52.996Z</time>
</trkpt>
<trkpt lat="31.7750820" lon="35.0901560">
<ele>782.208252</ele>
<time>2014-05-23T06:41:56.996Z</time>
</trkpt>
<trkpt lat="31.7751760" lon="35.0901140">
<ele>781.202393</ele>
<time>2014-05-23T06:42:00.996Z</time>
</trkpt>
<trkpt lat="31.7752770" lon="35.0900670">
<ele>780.196533</ele>
<time>2014-05-23T06:42:04.997Z</time>
</trkpt>
<trkpt lat="31.7753590" lon="35.0900190">
<ele>779.190674</ele>
<time>2014-05-23T06:42:08.004Z</time>
</trkpt>
<trkpt lat="31.7754600" lon="35.0900180">
<ele>777.605774</ele>
<time>2014-05-23T06:42:11.002Z</time>
</trkpt>
<trkpt lat="31.7755950" lon="35.0900420">
<ele>775.807434</ele>
<time>2014-05-23T06:42:14.000Z</time>
</trkpt>
<trkpt lat="31.7756840" lon="35.0900850">
<ele>774.588257</ele>
<time>2014-05-23T06:42:16.004Z</time>
</trkpt>
<trkpt lat="31.7757600" lon="35.0901590">
<ele>772.789917</ele>
<time>2014-05-23T06:42:18.000Z</time>
</trkpt>
<trkpt lat="31.7758250" lon="35.0902440">
<ele>770.991577</ele>
<time>2014-05-23T06:42:19.996Z</time>
</trkpt>
<trkpt lat="31.7758850" lon="35.0903260">
<ele>769.406677</ele>
<time>2014-05-23T06:42:22.000Z</time>
</trkpt>
<trkpt lat="31.7759820" lon="35.0904330">
<ele>766.602539</ele>
<time>2014-05-23T06:42:24.998Z</time>
</trkpt>
<trkpt lat="31.7760750" lon="35.0905490">
<ele>761.786682</ele>
<time>2014-05-23T06:42:27.996Z</time>
</trkpt>
<trkpt lat="31.7761100" lon="35.0906640">
<ele>759.012939</ele>
<time>2014-05-23T06:42:30.001Z</time>
</trkpt>
<trkpt lat="31.7761300" lon="35.0907940">
<ele>756.391724</ele>
<time>2014-05-23T06:42:31.997Z</time>
</trkpt>
<trkpt lat="31.7761310" lon="35.0909230">
<ele>754.410522</ele>
<time>2014-05-23T06:42:34.001Z</time>
</trkpt>
<trkpt lat="31.7761050" lon="35.0910340">
<ele>753.800903</ele>
<time>2014-05-23T06:42:35.997Z</time>
</trkpt>
<trkpt lat="31.7760560" lon="35.0911490">
<ele>754.014282</ele>
<time>2014-05-23T06:42:39.004Z</time>
</trkpt>
<trkpt lat="31.7760050" lon="35.0912440">
<ele>754.410522</ele>
<time>2014-05-23T06:42:42.002Z</time>
</trkpt>
<trkpt lat="31.7759460" lon="35.0913300">
<ele>754.989624</ele>
<time>2014-05-23T06:42:45.000Z</time>
</trkpt>
<trkpt lat="31.7758880" lon="35.0914240">
<ele>755.202942</ele>
<time>2014-05-23T06:42:47.998Z</time>
</trkpt>
<trkpt lat="31.7758190" lon="35.0915300">
<ele>754.593323</ele>
<time>2014-05-23T06:42:50.996Z</time>
</trkpt>
<trkpt lat="31.7757230" lon="35.0916240">
<ele>754.593323</ele>
<time>2014-05-23T06:42:54.003Z</time>
</trkpt>
<trkpt lat="31.7756130" lon="35.0917080">
<ele>754.197083</ele>
<time>2014-05-23T06:42:57.001Z</time>
</trkpt>
<trkpt lat="31.7754940" lon="35.0917500">
<ele>754.593323</ele>
<time>2014-05-23T06:42:59.999Z</time>
</trkpt>
<trkpt lat="31.7753800" lon="35.0917960">
<ele>755.202942</ele>
<time>2014-05-23T06:43:02.997Z</time>
</trkpt>
<trkpt lat="31.7752550" lon="35.0918670">
<ele>755.599182</ele>
<time>2014-05-23T06:43:06.004Z</time>
</trkpt>
<trkpt lat="31.7751650" lon="35.0919330">
<ele>755.812561</ele>
<time>2014-05-23T06:43:08.000Z</time>
</trkpt>
<trkpt lat="31.7750760" lon="35.0920110">
<ele>755.599182</ele>
<time>2014-05-23T06:43:10.004Z</time>
</trkpt>
<trkpt lat="31.7749930" lon="35.0920920">
<ele>755.202942</ele>
<time>2014-05-23T06:43:12.000Z</time>
</trkpt>
<trkpt lat="31.7749110" lon="35.0921650">
<ele>755.202942</ele>
<time>2014-05-23T06:43:13.996Z</time>
</trkpt>
<trkpt lat="31.7748350" lon="35.0922400">
<ele>754.410522</ele>
<time>2014-05-23T06:43:16.000Z</time>
</trkpt>
<trkpt lat="31.7747560" lon="35.0923120">
<ele>753.587463</ele>
<time>2014-05-23T06:43:17.996Z</time>
</trkpt>
<trkpt lat="31.7746700" lon="35.0923770">
<ele>752.795044</ele>
<time>2014-05-23T06:43:20.001Z</time>
</trkpt>
<trkpt lat="31.7745550" lon="35.0924280">
<ele>752.612122</ele>
<time>2014-05-23T06:43:22.999Z</time>
</trkpt>
<trkpt lat="31.7744440" lon="35.0924650">
<ele>752.612122</ele>
<time>2014-05-23T06:43:26.999Z</time>
</trkpt>
<trkpt lat="31.7743360" lon="35.0925100">
<ele>752.002563</ele>
<time>2014-05-23T06:43:30.999Z</time>
</trkpt>
<trkpt lat="31.7742340" lon="35.0925370">
<ele>751.606262</ele>
<time>2014-05-23T06:43:33.997Z</time>
</trkpt>
<trkpt lat="31.7741070" lon="35.0925150">
<ele>752.398804</ele>
<time>2014-05-23T06:43:37.004Z</time>
</trkpt>
<trkpt lat="31.7740210" lon="35.0924740">
<ele>753.191284</ele>
<time>2014-05-23T06:43:39.000Z</time>
</trkpt>
<trkpt lat="31.7739310" lon="35.0924360">
<ele>753.191284</ele>
<time>2014-05-23T06:43:40.996Z</time>
</trkpt>
<trkpt lat="31.7738330" lon="35.0924030">
<ele>753.008423</ele>
<time>2014-05-23T06:43:43.000Z</time>
</trkpt>
<trkpt lat="31.7737280" lon="35.0923840">
<ele>752.398804</ele>
<time>2014-05-23T06:43:44.996Z</time>
</trkpt>
<trkpt lat="31.7736300" lon="35.0923580">
<ele>752.002563</ele>
<time>2014-05-23T06:43:47.001Z</time>
</trkpt>
<trkpt lat="31.7734940" lon="35.0923350">
<ele>750.996704</ele>
<time>2014-05-23T06:43:48.996Z</time>
</trkpt>
<trkpt lat="31.7733720" lon="35.0923070">
<ele>749.990906</ele>
<time>2014-05-23T06:43:51.001Z</time>
</trkpt>
<trkpt lat="31.7732420" lon="35.0922780">
<ele>748.405884</ele>
<time>2014-05-23T06:43:52.997Z</time>
</trkpt>
<trkpt lat="31.7731220" lon="35.0922700">
<ele>747.400085</ele>
<time>2014-05-23T06:43:55.001Z</time>
</trkpt>
<trkpt lat="31.7730280" lon="35.0922650">
<ele>746.790527</ele>
<time>2014-05-23T06:43:56.997Z</time>
</trkpt>
<trkpt lat="31.7728880" lon="35.0922600">
<ele>745.997986</ele>
<time>2014-05-23T06:44:00.004Z</time>
</trkpt>
<trkpt lat="31.7727400" lon="35.0922480">
<ele>745.388428</ele>
<time>2014-05-23T06:44:02.000Z</time>
</trkpt>
<trkpt lat="31.7725920" lon="35.0922220">
<ele>745.205505</ele>
<time>2014-05-23T06:44:04.004Z</time>
</trkpt>
<trkpt lat="31.7724740" lon="35.0922150">
<ele>744.413025</ele>
<time>2014-05-23T06:44:06.000Z</time>
</trkpt>
<trkpt lat="31.7723770" lon="35.0922560">
<ele>741.395508</ele>
<time>2014-05-23T06:44:07.996Z</time>
</trkpt>
<trkpt lat="31.7722770" lon="35.0923000">
<ele>739.414307</ele>
<time>2014-05-23T06:44:10.000Z</time>
</trkpt>
<trkpt lat="31.7721690" lon="35.0923560">
<ele>737.006409</ele>
<time>2014-05-23T06:44:11.996Z</time>
</trkpt>
<trkpt lat="31.7720450" lon="35.0924160">
<ele>734.202271</ele>
<time>2014-05-23T06:44:14.001Z</time>
</trkpt>
<trkpt lat="31.7719090" lon="35.0924780">
<ele>731.794312</ele>
<time>2014-05-23T06:44:15.996Z</time>
</trkpt>
<trkpt lat="31.7717630" lon="35.0925190">
<ele>732.190552</ele>
<time>2014-05-23T06:44:18.001Z</time>
</trkpt>
<trkpt lat="31.7716100" lon="35.0925410">
<ele>733.409729</ele>
<time>2014-05-23T06:44:19.997Z</time>
</trkpt>
<trkpt lat="31.7714640" lon="35.0925450">
<ele>733.409729</ele>
<time>2014-05-23T06:44:22.001Z</time>
</trkpt>
<trkpt lat="31.7713420" lon="35.0925380">
<ele>732.403870</ele>
<time>2014-05-23T06:44:23.997Z</time>
</trkpt>
<trkpt lat="31.7712480" lon="35.0925160">
<ele>732.190552</ele>
<time>2014-05-23T06:44:26.002Z</time>
</trkpt>
<trkpt lat="31.7711460" lon="35.0924800">
<ele>732.190552</ele>
<time>2014-05-23T06:44:29.000Z</time>
</trkpt>
<trkpt lat="31.7710760" lon="35.0925410">
<ele>731.398132</ele>
<time>2014-05-23T06:44:33.000Z</time>
</trkpt>
<trkpt lat="31.7710370" lon="35.0926400">
<ele>731.001831</ele>
<time>2014-05-23T06:44:35.998Z</time>
</trkpt>
<trkpt lat="31.7710180" lon="35.0927460">
<ele>730.209351</ele>
<time>2014-05-23T06:44:38.003Z</time>
</trkpt>
<trkpt lat="31.7709930" lon="35.0928540">
<ele>729.599731</ele>
<time>2014-05-23T06:44:39.998Z</time>
</trkpt>
<trkpt lat="31.7709070" lon="35.0929300">
<ele>729.995972</ele>
<time>2014-05-23T06:44:42.996Z</time>
</trkpt>
<trkpt lat="31.7708020" lon="35.0929790">
<ele>729.203491</ele>
<time>2014-05-23T06:44:46.003Z</time>
</trkpt>
<trkpt lat="31.7707350" lon="35.0930760">
<ele>728.807312</ele>
<time>2014-05-23T06:44:49.001Z</time>
</trkpt>
<trkpt lat="31.7707000" lon="35.0931790">
<ele>727.405212</ele>
<time>2014-05-23T06:44:50.997Z</time>
</trkpt>
<trkpt lat="31.7706850" lon="35.0933320">
<ele>724.601074</ele>
<time>2014-05-23T06:44:54.004Z</time>
</trkpt>
<trkpt lat="31.7706370" lon="35.0934700">
<ele>721.796936</ele>
<time>2014-05-23T06:44:57.002Z</time>
</trkpt>
<trkpt lat="31.7705660" lon="35.0935870">
<ele>719.206116</ele>
<time>2014-05-23T06:45:00.000Z</time>
</trkpt>
<trkpt lat="31.7704810" lon="35.0936860">
<ele>718.596497</ele>
<time>2014-05-23T06:45:02.998Z</time>
</trkpt>
<trkpt lat="31.7703710" lon="35.0936800">
<ele>719.206116</ele>
<time>2014-05-23T06:45:06.998Z</time>
</trkpt>
<trkpt lat="31.7702740" lon="35.0936470">
<ele>719.785217</ele>
<time>2014-05-23T06:45:09.996Z</time>
</trkpt>
<trkpt lat="31.7701770" lon="35.0936290">
<ele>720.394775</ele>
<time>2014-05-23T06:45:13.003Z</time>
</trkpt>
<trkpt lat="31.7700800" lon="35.0935890">
<ele>721.004395</ele>
<time>2014-05-23T06:45:16.001Z</time>
</trkpt>
<trkpt lat="31.7700750" lon="35.0934680">
<ele>721.796936</ele>
<time>2014-05-23T06:45:23.000Z</time>
</trkpt>
<trkpt lat="31.7700840" lon="35.0933880">
<ele>722.193115</ele>
<time>2014-05-23T06:49:08.003Z</time>
</trkpt>
<trkpt lat="31.7700700" lon="35.0932730">
<ele>722.985596</ele>
<time>2014-05-23T06:51:00.996Z</time>
</trkpt>
<trkpt lat="31.7700590" lon="35.0931410">
<ele>723.808533</ele>
<time>2014-05-23T06:51:05.999Z</time>
</trkpt>
<trkpt lat="31.7700100" lon="35.0930400">
<ele>724.997314</ele>
<time>2014-05-23T06:51:11.002Z</time>
</trkpt>
<trkpt lat="31.7699070" lon="35.0930490">
<ele>725.210632</ele>
<time>2014-05-23T06:51:15.002Z</time>
</trkpt>
<trkpt lat="31.7697880" lon="35.0931270">
<ele>722.985596</ele>
<time>2014-05-23T06:51:19.002Z</time>
</trkpt>
<trkpt lat="31.7697090" lon="35.0931880">
<ele>721.004395</ele>
<time>2014-05-23T06:51:20.998Z</time>
</trkpt>
<trkpt lat="31.7696290" lon="35.0932510">
<ele>718.992676</ele>
<time>2014-05-23T06:51:23.996Z</time>
</trkpt>
<trkpt lat="31.7695510" lon="35.0931910">
<ele>717.804016</ele>
<time>2014-05-23T06:51:27.996Z</time>
</trkpt>
<trkpt lat="31.7695740" lon="35.0930590">
<ele>718.992676</ele>
<time>2014-05-23T06:51:31.997Z</time>
</trkpt>
<trkpt lat="31.7696100" lon="35.0929440">
<ele>720.394775</ele>
<time>2014-05-23T06:51:35.004Z</time>
</trkpt>
<trkpt lat="31.7696230" lon="35.0928140">
<ele>719.998535</ele>
<time>2014-05-23T06:51:38.002Z</time>
</trkpt>
<trkpt lat="31.7695690" lon="35.0927100">
<ele>718.413574</ele>
<time>2014-05-23T06:51:41.000Z</time>
</trkpt>
<trkpt lat="31.7695080" lon="35.0926250">
<ele>716.584778</ele>
<time>2014-05-23T06:51:43.998Z</time>
</trkpt>
<trkpt lat="31.7694130" lon="35.0925570">
<ele>714.207336</ele>
<time>2014-05-23T06:51:47.998Z</time>
</trkpt>
<trkpt lat="31.7693160" lon="35.0926560">
<ele>712.805298</ele>
<time>2014-05-23T06:51:51.998Z</time>
</trkpt>
<trkpt lat="31.7692610" lon="35.0927490">
<ele>712.195740</ele>
<time>2014-05-23T06:51:54.003Z</time>
</trkpt>
<trkpt lat="31.7692140" lon="35.0928670">
<ele>712.012817</ele>
<time>2014-05-23T06:51:55.999Z</time>
</trkpt>
<trkpt lat="31.7691650" lon="35.0930020">
<ele>711.006958</ele>
<time>2014-05-23T06:51:58.003Z</time>
</trkpt>
<trkpt lat="31.7691050" lon="35.0931310">
<ele>709.604919</ele>
<time>2014-05-23T06:51:59.999Z</time>
</trkpt>
<trkpt lat="31.7690460" lon="35.0932610">
<ele>708.599060</ele>
<time>2014-05-23T06:52:02.004Z</time>
</trkpt>
<trkpt lat="31.7689900" lon="35.0933800">
<ele>707.196960</ele>
<time>2014-05-23T06:52:03.999Z</time>
</trkpt>
<trkpt lat="31.7689480" lon="35.0934800">
<ele>706.191101</ele>
<time>2014-05-23T06:52:06.004Z</time>
</trkpt>
<trkpt lat="31.7689040" lon="35.0935900">
<ele>705.002380</ele>
<time>2014-05-23T06:52:09.002Z</time>
</trkpt>
<trkpt lat="31.7688510" lon="35.0936950">
<ele>703.813721</ele>
<time>2014-05-23T06:52:13.996Z</time>
</trkpt>
<trkpt lat="31.7687920" lon="35.0938030">
<ele>702.198242</ele>
<time>2014-05-23T06:52:17.996Z</time>
</trkpt>
<trkpt lat="31.7687470" lon="35.0939340">
<ele>699.607483</ele>
<time>2014-05-23T06:52:21.003Z</time>
</trkpt>
<trkpt lat="31.7686960" lon="35.0940690">
<ele>696.803284</ele>
<time>2014-05-23T06:52:24.001Z</time>
</trkpt>
<trkpt lat="31.7686500" lon="35.0942020">
<ele>694.212524</ele>
<time>2014-05-23T06:52:26.999Z</time>
</trkpt>
<trkpt lat="31.7686070" lon="35.0943180">
<ele>692.414124</ele>
<time>2014-05-23T06:52:29.997Z</time>
</trkpt>
<trkpt lat="31.7685820" lon="35.0944210">
<ele>690.798706</ele>
<time>2014-05-23T06:52:33.004Z</time>
</trkpt>
<trkpt lat="31.7685300" lon="35.0945370">
<ele>688.787048</ele>
<time>2014-05-23T06:52:37.004Z</time>
</trkpt>
<trkpt lat="31.7684900" lon="35.0946400">
<ele>686.409607</ele>
<time>2014-05-23T06:52:40.996Z</time>
</trkpt>
<trkpt lat="31.7684340" lon="35.0947650">
<ele>682.812927</ele>
<time>2014-05-23T06:52:44.996Z</time>
</trkpt>
<trkpt lat="31.7683860" lon="35.0948850">
<ele>680.191711</ele>
<time>2014-05-23T06:52:48.996Z</time>
</trkpt>
<trkpt lat="31.7683480" lon="35.0949990">
<ele>678.210510</ele>
<time>2014-05-23T06:52:52.997Z</time>
</trkpt>
<trkpt lat="31.7683130" lon="35.0951080">
<ele>676.412170</ele>
<time>2014-05-23T06:52:56.997Z</time>
</trkpt>
<trkpt lat="31.7683340" lon="35.0952310">
<ele>675.010132</ele>
<time>2014-05-23T06:53:00.997Z</time>
</trkpt>
<trkpt lat="31.7683790" lon="35.0953440">
<ele>674.004272</ele>
<time>2014-05-23T06:53:04.998Z</time>
</trkpt>
<trkpt lat="31.7684190" lon="35.0954430">
<ele>672.998413</ele>
<time>2014-05-23T06:53:10.000Z</time>
</trkpt>
<trkpt lat="31.7684000" lon="35.0955460">
<ele>670.590515</ele>
<time>2014-05-23T06:53:15.003Z</time>
</trkpt>
<trkpt lat="31.7683430" lon="35.0956370">
<ele>668.609314</ele>
<time>2014-05-23T06:53:19.003Z</time>
</trkpt>
<trkpt lat="31.7683150" lon="35.0957400">
<ele>666.993835</ele>
<time>2014-05-23T06:53:22.001Z</time>
</trkpt>
<trkpt lat="31.7683030" lon="35.0958490">
<ele>665.408936</ele>
<time>2014-05-23T06:53:24.999Z</time>
</trkpt>
<trkpt lat="31.7683060" lon="35.0959920">
<ele>663.214294</ele>
<time>2014-05-23T06:53:29.000Z</time>
</trkpt>
<trkpt lat="31.7683340" lon="35.0960930">
<ele>661.995117</ele>
<time>2014-05-23T06:53:31.004Z</time>
</trkpt>
<trkpt lat="31.7683870" lon="35.0962090">
<ele>660.410156</ele>
<time>2014-05-23T06:53:34.002Z</time>
</trkpt>
<trkpt lat="31.7684540" lon="35.0962880">
<ele>659.404297</ele>
<time>2014-05-23T06:53:35.998Z</time>
</trkpt>
<trkpt lat="31.7685340" lon="35.0963490">
<ele>658.002258</ele>
<time>2014-05-23T06:53:38.003Z</time>
</trkpt>
<trkpt lat="31.7686490" lon="35.0963920">
<ele>657.392639</ele>
<time>2014-05-23T06:53:41.001Z</time>
</trkpt>
<trkpt lat="31.7687400" lon="35.0964280">
<ele>656.813477</ele>
<time>2014-05-23T06:53:43.999Z</time>
</trkpt>
<trkpt lat="31.7688310" lon="35.0964520">
<ele>656.600159</ele>
<time>2014-05-23T06:53:46.997Z</time>
</trkpt>
<trkpt lat="31.7689290" lon="35.0964610">
<ele>656.600159</ele>
<time>2014-05-23T06:53:50.004Z</time>
</trkpt>
<trkpt lat="31.7690470" lon="35.0964620">
<ele>656.996399</ele>
<time>2014-05-23T06:53:54.004Z</time>
</trkpt>
<trkpt lat="31.7691600" lon="35.0964650">
<ele>656.996399</ele>
<time>2014-05-23T06:53:58.004Z</time>
</trkpt>
<trkpt lat="31.7692810" lon="35.0964660">
<ele>656.996399</ele>
<time>2014-05-23T06:54:01.996Z</time>
</trkpt>
<trkpt lat="31.7694000" lon="35.0964670">
<ele>656.813477</ele>
<time>2014-05-23T06:54:05.996Z</time>
</trkpt>
<trkpt lat="31.7695110" lon="35.0964710">
<ele>656.600159</ele>
<time>2014-05-23T06:54:09.996Z</time>
</trkpt>
<trkpt lat="31.7696400" lon="35.0964710">
<ele>656.386780</ele>
<time>2014-05-23T06:54:13.997Z</time>
</trkpt>
<trkpt lat="31.7697370" lon="35.0964560">
<ele>656.600159</ele>
<time>2014-05-23T06:54:17.004Z</time>
</trkpt>
<trkpt lat="31.7698320" lon="35.0964470">
<ele>656.813477</ele>
<time>2014-05-23T06:54:20.002Z</time>
</trkpt>
<trkpt lat="31.7699310" lon="35.0964180">
<ele>656.996399</ele>
<time>2014-05-23T06:54:23.000Z</time>
</trkpt>
<trkpt lat="31.7700300" lon="35.0963840">
<ele>656.813477</ele>
<time>2014-05-23T06:54:25.998Z</time>
</trkpt>
<trkpt lat="31.7701200" lon="35.0963540">
<ele>656.813477</ele>
<time>2014-05-23T06:54:28.996Z</time>
</trkpt>
<trkpt lat="31.7702090" lon="35.0963180">
<ele>656.996399</ele>
<time>2014-05-23T06:54:32.003Z</time>
</trkpt>
<trkpt lat="31.7703030" lon="35.0962760">
<ele>657.209717</ele>
<time>2014-05-23T06:54:35.001Z</time>
</trkpt>
<trkpt lat="31.7704060" lon="35.0962060">
<ele>658.002258</ele>
<time>2014-05-23T06:54:39.001Z</time>
</trkpt>
<trkpt lat="31.7704910" lon="35.0961370">
<ele>659.190918</ele>
<time>2014-05-23T06:54:44.004Z</time>
</trkpt>
<trkpt lat="31.7705740" lon="35.0960810">
<ele>659.800537</ele>
<time>2014-05-23T06:54:48.997Z</time>
</trkpt>
<trkpt lat="31.7706640" lon="35.0960180">
<ele>660.593079</ele>
<time>2014-05-23T06:54:54.000Z</time>
</trkpt>
<trkpt lat="31.7707500" lon="35.0959470">
<ele>660.806396</ele>
<time>2014-05-23T06:54:59.003Z</time>
</trkpt>
<trkpt lat="31.7708310" lon="35.0958780">
<ele>660.013916</ele>
<time>2014-05-23T06:55:03.996Z</time>
</trkpt>
<trkpt lat="31.7709060" lon="35.0957840">
<ele>660.196777</ele>
<time>2014-05-23T06:55:10.001Z</time>
</trkpt>
<trkpt lat="31.7709830" lon="35.0957200">
<ele>659.404297</ele>
<time>2014-05-23T06:55:15.004Z</time>
</trkpt>
<trkpt lat="31.7710410" lon="35.0956290">
<ele>659.800537</ele>
<time>2014-05-23T06:55:21.000Z</time>
</trkpt>
<trkpt lat="31.7711130" lon="35.0955420">
<ele>659.800537</ele>
<time>2014-05-23T06:55:26.996Z</time>
</trkpt>
<trkpt lat="31.7711980" lon="35.0954890">
<ele>658.398499</ele>
<time>2014-05-23T06:55:33.001Z</time>
</trkpt>
<trkpt lat="31.7712110" lon="35.0955820">
<ele>655.594299</ele>
<time>2014-05-23T06:55:39.999Z</time>
</trkpt>
<trkpt lat="31.7711440" lon="35.0956880">
<ele>655.015198</ele>
<time>2014-05-23T06:56:32.997Z</time>
</trkpt>
<trkpt lat="31.7711270" lon="35.0958100">
<ele>652.607300</ele>
<time>2014-05-23T06:56:38.000Z</time>
</trkpt>
<trkpt lat="31.7711010" lon="35.0959220">
<ele>650.595581</ele>
<time>2014-05-23T06:56:42.000Z</time>
</trkpt>
<trkpt lat="31.7710200" lon="35.0960190">
<ele>650.595581</ele>
<time>2014-05-23T06:56:46.000Z</time>
</trkpt>
<trkpt lat="31.7709600" lon="35.0961070">
<ele>650.199341</ele>
<time>2014-05-23T06:56:48.998Z</time>
</trkpt>
<trkpt lat="31.7708980" lon="35.0962180">
<ele>649.406921</ele>
<time>2014-05-23T06:56:51.996Z</time>
</trkpt>
<trkpt lat="31.7708410" lon="35.0963170">
<ele>648.797302</ele>
<time>2014-05-23T06:56:54.001Z</time>
</trkpt>
<trkpt lat="31.7707680" lon="35.0964010">
<ele>649.010681</ele>
<time>2014-05-23T06:56:55.997Z</time>
</trkpt>
<trkpt lat="31.7706960" lon="35.0964650">
<ele>649.406921</ele>
<time>2014-05-23T06:56:58.001Z</time>
</trkpt>
<trkpt lat="31.7706130" lon="35.0965330">
<ele>648.401062</ele>
<time>2014-05-23T06:57:00.999Z</time>
</trkpt>
<trkpt lat="31.7705510" lon="35.0966450">
<ele>646.206482</ele>
<time>2014-05-23T06:57:05.000Z</time>
</trkpt>
<trkpt lat="31.7705330" lon="35.0967500">
<ele>643.798523</ele>
<time>2014-05-23T06:57:07.998Z</time>
</trkpt>
<trkpt lat="31.7704740" lon="35.0968720">
<ele>641.390625</ele>
<time>2014-05-23T06:57:10.996Z</time>
</trkpt>
<trkpt lat="31.7703890" lon="35.0969890">
<ele>639.409485</ele>
<time>2014-05-23T06:57:14.003Z</time>
</trkpt>
<trkpt lat="31.7703050" lon="35.0970800">
<ele>637.794006</ele>
<time>2014-05-23T06:57:17.001Z</time>
</trkpt>
<trkpt lat="31.7702240" lon="35.0971710">
<ele>636.209045</ele>
<time>2014-05-23T06:57:19.999Z</time>
</trkpt>
<trkpt lat="31.7701370" lon="35.0972740">
<ele>634.410706</ele>
<time>2014-05-23T06:57:22.997Z</time>
</trkpt>
<trkpt lat="31.7700250" lon="35.0973650">
<ele>632.612427</ele>
<time>2014-05-23T06:57:26.004Z</time>
</trkpt>
<trkpt lat="31.7699190" lon="35.0973970">
<ele>632.002808</ele>
<time>2014-05-23T06:57:27.999Z</time>
</trkpt>
<trkpt lat="31.7698000" lon="35.0974110">
<ele>631.606567</ele>
<time>2014-05-23T06:57:30.004Z</time>
</trkpt>
<trkpt lat="31.7696920" lon="35.0974300">
<ele>630.996948</ele>
<time>2014-05-23T06:57:32.000Z</time>
</trkpt>
<trkpt lat="31.7695670" lon="35.0974590">
<ele>630.204529</ele>
<time>2014-05-23T06:57:34.998Z</time>
</trkpt>
<trkpt lat="31.7694540" lon="35.0975050">
<ele>628.802429</ele>
<time>2014-05-23T06:57:37.996Z</time>
</trkpt>
<trkpt lat="31.7693570" lon="35.0975710">
<ele>626.394531</ele>
<time>2014-05-23T06:57:41.003Z</time>
</trkpt>
<trkpt lat="31.7692460" lon="35.0976330">
<ele>624.199951</ele>
<time>2014-05-23T06:57:44.001Z</time>
</trkpt>
<trkpt lat="31.7691480" lon="35.0976750">
<ele>622.614929</ele>
<time>2014-05-23T06:57:48.001Z</time>
</trkpt>
<trkpt lat="31.7691070" lon="35.0977400">
<ele>620.389954</ele>
<time>2014-05-23T06:57:53.997Z</time>
</trkpt>
<trkpt lat="31.7692200" lon="35.0977550">
<ele>620.207031</ele>
<time>2014-05-23T06:58:00.002Z</time>
</trkpt>
<trkpt lat="31.7693180" lon="35.0977750">
<ele>619.810791</ele>
<time>2014-05-23T06:58:03.000Z</time>
</trkpt>
<trkpt lat="31.7694440" lon="35.0977960">
<ele>619.414551</ele>
<time>2014-05-23T06:58:05.998Z</time>
</trkpt>
<trkpt lat="31.7695730" lon="35.0978300">
<ele>618.591614</ele>
<time>2014-05-23T06:58:08.996Z</time>
</trkpt>
<trkpt lat="31.7696940" lon="35.0978650">
<ele>617.799133</ele>
<time>2014-05-23T06:58:12.003Z</time>
</trkpt>
<trkpt lat="31.7698060" lon="35.0978890">
<ele>617.189514</ele>
<time>2014-05-23T06:58:15.001Z</time>
</trkpt>
<trkpt lat="31.7699190" lon="35.0978970">
<ele>617.006653</ele>
<time>2014-05-23T06:58:17.999Z</time>
</trkpt>
<trkpt lat="31.7699810" lon="35.0979700">
<ele>614.202454</ele>
<time>2014-05-23T06:58:24.997Z</time>
</trkpt>
<trkpt lat="31.7698990" lon="35.0980600">
<ele>611.184937</ele>
<time>2014-05-23T06:58:30.000Z</time>
</trkpt>
<trkpt lat="31.7697790" lon="35.0980500">
<ele>611.398315</ele>
<time>2014-05-23T06:58:34.000Z</time>
</trkpt>
<trkpt lat="31.7696880" lon="35.0980630">
<ele>610.788757</ele>
<time>2014-05-23T06:58:36.998Z</time>
</trkpt>
<trkpt lat="31.7695900" lon="35.0980900">
<ele>609.386658</ele>
<time>2014-05-23T06:58:39.996Z</time>
</trkpt>
<trkpt lat="31.7694800" lon="35.0981290">
<ele>607.801697</ele>
<time>2014-05-23T06:58:43.997Z</time>
</trkpt>
<trkpt lat="31.7693700" lon="35.0981640">
<ele>606.186279</ele>
<time>2014-05-23T06:58:47.997Z</time>
</trkpt>
<trkpt lat="31.7692720" lon="35.0982130">
<ele>603.991699</ele>
<time>2014-05-23T06:58:51.004Z</time>
</trkpt>
<trkpt lat="31.7691470" lon="35.0982400">
<ele>602.589600</ele>
<time>2014-05-23T06:58:54.002Z</time>
</trkpt>
<trkpt lat="31.7690160" lon="35.0982480">
<ele>601.797119</ele>
<time>2014-05-23T06:58:57.000Z</time>
</trkpt>
<trkpt lat="31.7689040" lon="35.0982630">
<ele>600.791260</ele>
<time>2014-05-23T06:58:59.998Z</time>
</trkpt>
<trkpt lat="31.7687980" lon="35.0983160">
<ele>598.413879</ele>
<time>2014-05-23T06:59:02.996Z</time>
</trkpt>
<trkpt lat="31.7686720" lon="35.0983730">
<ele>595.792542</ele>
<time>2014-05-23T06:59:06.003Z</time>
</trkpt>
<trkpt lat="31.7685420" lon="35.0983960">
<ele>595.396301</ele>
<time>2014-05-23T06:59:09.001Z</time>
</trkpt>
<trkpt lat="31.7684150" lon="35.0984190">
<ele>595.213440</ele>
<time>2014-05-23T06:59:11.999Z</time>
</trkpt>
<trkpt lat="31.7682990" lon="35.0984370">
<ele>595.000061</ele>
<time>2014-05-23T06:59:14.997Z</time>
</trkpt>
<trkpt lat="31.7682020" lon="35.0984650">
<ele>594.390503</ele>
<time>2014-05-23T06:59:18.004Z</time>
</trkpt>
<trkpt lat="31.7680920" lon="35.0984960">
<ele>592.805542</ele>
<time>2014-05-23T06:59:21.002Z</time>
</trkpt>
<trkpt lat="31.7679670" lon="35.0985360">
<ele>591.190063</ele>
<time>2014-05-23T06:59:24.000Z</time>
</trkpt>
<trkpt lat="31.7678740" lon="35.0985630">
<ele>591.007202</ele>
<time>2014-05-23T06:59:25.996Z</time>
</trkpt>
<trkpt lat="31.7677710" lon="35.0985880">
<ele>591.007202</ele>
<time>2014-05-23T06:59:28.000Z</time>
</trkpt>
<trkpt lat="31.7676820" lon="35.0986130">
<ele>590.793884</ele>
<time>2014-05-23T06:59:29.996Z</time>
</trkpt>
<trkpt lat="31.7675960" lon="35.0986280">
<ele>591.007202</ele>
<time>2014-05-23T06:59:37.003Z</time>
</trkpt>
<trkpt lat="31.7675250" lon="35.0987140">
<ele>589.391724</ele>
<time>2014-05-23T07:00:01.999Z</time>
</trkpt>
<trkpt lat="31.7674310" lon="35.0987750">
<ele>588.385925</ele>
<time>2014-05-23T07:00:04.997Z</time>
</trkpt>
<trkpt lat="31.7673360" lon="35.0988390">
<ele>587.014343</ele>
<time>2014-05-23T07:00:08.004Z</time>
</trkpt>
<trkpt lat="31.7672470" lon="35.0988830">
<ele>585.612244</ele>
<time>2014-05-23T07:00:09.999Z</time>
</trkpt>
<trkpt lat="31.7671330" lon="35.0989320">
<ele>583.813904</ele>
<time>2014-05-23T07:00:12.004Z</time>
</trkpt>
<trkpt lat="31.7670200" lon="35.0989750">
<ele>582.198486</ele>
<time>2014-05-23T07:00:14.000Z</time>
</trkpt>
<trkpt lat="31.7669230" lon="35.0990150">
<ele>580.796387</ele>
<time>2014-05-23T07:00:16.004Z</time>
</trkpt>
<trkpt lat="31.7668310" lon="35.0990460">
<ele>579.607666</ele>
<time>2014-05-23T07:00:18.000Z</time>
</trkpt>
<trkpt lat="31.7667090" lon="35.0990900">
<ele>577.992249</ele>
<time>2014-05-23T07:00:20.998Z</time>
</trkpt>
<trkpt lat="31.7665860" lon="35.0991130">
<ele>576.803528</ele>
<time>2014-05-23T07:00:23.996Z</time>
</trkpt>
<trkpt lat="31.7664480" lon="35.0991080">
<ele>575.188049</ele>
<time>2014-05-23T07:00:27.003Z</time>
</trkpt>
<trkpt lat="31.7663560" lon="35.0991030">
<ele>573.999329</ele>
<time>2014-05-23T07:00:28.999Z</time>
</trkpt>
<trkpt lat="31.7662300" lon="35.0991190">
<ele>571.591431</ele>
<time>2014-05-23T07:00:31.997Z</time>
</trkpt>
<trkpt lat="31.7661030" lon="35.0991510">
<ele>568.787292</ele>
<time>2014-05-23T07:00:35.004Z</time>
</trkpt>
<trkpt lat="31.7659720" lon="35.0991680">
<ele>566.013611</ele>
<time>2014-05-23T07:00:38.002Z</time>
</trkpt>
<trkpt lat="31.7658460" lon="35.0991890">
<ele>562.996094</ele>
<time>2014-05-23T07:00:41.000Z</time>
</trkpt>
<trkpt lat="31.7657430" lon="35.0991960">
<ele>560.801514</ele>
<time>2014-05-23T07:00:43.004Z</time>
</trkpt>
<trkpt lat="31.7656340" lon="35.0991880">
<ele>559.003174</ele>
<time>2014-05-23T07:00:45.000Z</time>
</trkpt>
<trkpt lat="31.7655270" lon="35.0991760">
<ele>557.601135</ele>
<time>2014-05-23T07:00:46.996Z</time>
</trkpt>
<trkpt lat="31.7654150" lon="35.0991490">
<ele>556.412415</ele>
<time>2014-05-23T07:00:49.000Z</time>
</trkpt>
<trkpt lat="31.7653080" lon="35.0991190">
<ele>555.589478</ele>
<time>2014-05-23T07:00:50.996Z</time>
</trkpt>
<trkpt lat="31.7651970" lon="35.0990920">
<ele>554.400757</ele>
<time>2014-05-23T07:00:53.001Z</time>
</trkpt>
<trkpt lat="31.7650740" lon="35.0990600">
<ele>552.602417</ele>
<time>2014-05-23T07:00:54.996Z</time>
</trkpt>
<trkpt lat="31.7649760" lon="35.0990260">
<ele>551.413696</ele>
<time>2014-05-23T07:00:57.001Z</time>
</trkpt>
<trkpt lat="31.7648830" lon="35.0990020">
<ele>550.011597</ele>
<time>2014-05-23T07:00:58.997Z</time>
</trkpt>
<trkpt lat="31.7647890" lon="35.0989820">
<ele>547.999939</ele>
<time>2014-05-23T07:01:01.001Z</time>
</trkpt>
<trkpt lat="31.7646800" lon="35.0989430">
<ele>546.201599</ele>
<time>2014-05-23T07:01:03.999Z</time>
</trkpt>
<trkpt lat="31.7646300" lon="35.0988330">
<ele>548.609497</ele>
<time>2014-05-23T07:01:06.997Z</time>
</trkpt>
<trkpt lat="31.7646080" lon="35.0986800">
<ele>550.407837</ele>
<time>2014-05-23T07:01:10.004Z</time>
</trkpt>
<trkpt lat="31.7645910" lon="35.0985340">
<ele>550.194458</ele>
<time>2014-05-23T07:01:13.002Z</time>
</trkpt>
<trkpt lat="31.7645710" lon="35.0984140">
<ele>550.194458</ele>
<time>2014-05-23T07:01:16.000Z</time>
</trkpt>
<trkpt lat="31.7645260" lon="35.0983230">
<ele>549.188660</ele>
<time>2014-05-23T07:01:20.001Z</time>
</trkpt>
<trkpt lat="31.7644890" lon="35.0984390">
<ele>547.603699</ele>
<time>2014-05-23T07:01:25.997Z</time>
</trkpt>
<trkpt lat="31.7645090" lon="35.0985480">
<ele>547.999939</ele>
<time>2014-05-23T07:01:33.004Z</time>
</trkpt>
<trkpt lat="31.7645060" lon="35.0986630">
<ele>547.603699</ele>
<time>2014-05-23T07:01:44.996Z</time>
</trkpt>
<trkpt lat="31.7645070" lon="35.0987930">
<ele>546.414917</ele>
<time>2014-05-23T07:01:51.001Z</time>
</trkpt>
<trkpt lat="31.7645340" lon="35.0989140">
<ele>543.001221</ele>
<time>2014-05-23T07:01:56.997Z</time>
</trkpt>
<trkpt lat="31.7645750" lon="35.0990200">
<ele>540.410400</ele>
<time>2014-05-23T07:02:02.000Z</time>
</trkpt>
<trkpt lat="31.7646240" lon="35.0991030">
<ele>539.008301</ele>
<time>2014-05-23T07:02:07.002Z</time>
</trkpt>
<trkpt lat="31.7647000" lon="35.0991820">
<ele>538.398743</ele>
<time>2014-05-23T07:02:12.998Z</time>
</trkpt>
<trkpt lat="31.7647870" lon="35.0992390">
<ele>539.008301</ele>
<time>2014-05-23T07:02:19.003Z</time>
</trkpt>
<trkpt lat="31.7648800" lon="35.0992970">
<ele>539.587463</ele>
<time>2014-05-23T07:02:24.999Z</time>
</trkpt>
<trkpt lat="31.7649670" lon="35.0993430">
<ele>540.197083</ele>
<time>2014-05-23T07:02:31.004Z</time>
</trkpt>
<trkpt lat="31.7650830" lon="35.0993700">
<ele>541.995361</ele>
<time>2014-05-23T07:02:46.997Z</time>
</trkpt>
<trkpt lat="31.7651970" lon="35.0993940">
<ele>543.793701</ele>
<time>2014-05-23T07:02:50.997Z</time>
</trkpt>
<trkpt lat="31.7653040" lon="35.0994290">
<ele>545.195740</ele>
<time>2014-05-23T07:02:54.997Z</time>
</trkpt>
<trkpt lat="31.7654120" lon="35.0994660">
<ele>546.414917</ele>
<time>2014-05-23T07:02:58.998Z</time>
</trkpt>
<trkpt lat="31.7655080" lon="35.0995060">
<ele>547.390320</ele>
<time>2014-05-23T07:03:02.998Z</time>
</trkpt>
<trkpt lat="31.7656050" lon="35.0995560">
<ele>547.999939</ele>
<time>2014-05-23T07:03:06.998Z</time>
</trkpt>
<trkpt lat="31.7657030" lon="35.0995930">
<ele>549.005737</ele>
<time>2014-05-23T07:03:10.999Z</time>
</trkpt>
<trkpt lat="31.7657950" lon="35.0996210">
<ele>549.798279</ele>
<time>2014-05-23T07:03:16.001Z</time>
</trkpt>
<trkpt lat="31.7658920" lon="35.0996670">
<ele>549.798279</ele>
<time>2014-05-23T07:03:21.997Z</time>
</trkpt>
<trkpt lat="31.7659780" lon="35.0997220">
<ele>549.188660</ele>
<time>2014-05-23T07:03:28.996Z</time>
</trkpt>
<trkpt lat="31.7660630" lon="35.0997730">
<ele>548.792419</ele>
<time>2014-05-23T07:03:36.003Z</time>
</trkpt>
<trkpt lat="31.7661490" lon="35.0998180">
<ele>548.609497</ele>
<time>2014-05-23T07:03:43.001Z</time>
</trkpt>
<trkpt lat="31.7662590" lon="35.0998440">
<ele>549.584900</ele>
<time>2014-05-23T07:03:50.000Z</time>
</trkpt>
<trkpt lat="31.7663610" lon="35.0998500">
<ele>551.200317</ele>
<time>2014-05-23T07:03:55.996Z</time>
</trkpt>
<trkpt lat="31.7664580" lon="35.0998450">
<ele>553.394897</ele>
<time>2014-05-23T07:04:02.001Z</time>
</trkpt>
<trkpt lat="31.7665530" lon="35.0998550">
<ele>554.614075</ele>
<time>2014-05-23T07:04:07.997Z</time>
</trkpt>
<trkpt lat="31.7666470" lon="35.0998510">
<ele>555.406555</ele>
<time>2014-05-23T07:04:14.002Z</time>
</trkpt>
<trkpt lat="31.7667500" lon="35.0998300">
<ele>556.808655</ele>
<time>2014-05-23T07:04:19.998Z</time>
</trkpt>
<trkpt lat="31.7668570" lon="35.0998280">
<ele>557.387756</ele>
<time>2014-05-23T07:04:26.996Z</time>
</trkpt>
<trkpt lat="31.7669550" lon="35.0998380">
<ele>557.601135</ele>
<time>2014-05-23T07:04:33.001Z</time>
</trkpt>
<trkpt lat="31.7670560" lon="35.0998490">
<ele>557.601135</ele>
<time>2014-05-23T07:04:38.004Z</time>
</trkpt>
<trkpt lat="31.7671730" lon="35.0998730">
<ele>557.204895</ele>
<time>2014-05-23T07:04:44.000Z</time>
</trkpt>
<trkpt lat="31.7672830" lon="35.0998730">
<ele>557.814453</ele>
<time>2014-05-23T07:04:49.996Z</time>
</trkpt>
<trkpt lat="31.7673960" lon="35.0998800">
<ele>557.601135</ele>
<time>2014-05-23T07:04:56.001Z</time>
</trkpt>
<trkpt lat="31.7675040" lon="35.0998800">
<ele>555.985657</ele>
<time>2014-05-23T07:05:00.001Z</time>
</trkpt>
<trkpt lat="31.7676170" lon="35.0998360">
<ele>555.985657</ele>
<time>2014-05-23T07:05:05.004Z</time>
</trkpt>
<trkpt lat="31.7677170" lon="35.0997770">
<ele>556.808655</ele>
<time>2014-05-23T07:05:09.997Z</time>
</trkpt>
<trkpt lat="31.7678070" lon="35.0997030">
<ele>558.210754</ele>
<time>2014-05-23T07:05:15.000Z</time>
</trkpt>
<trkpt lat="31.7678820" lon="35.0996230">
<ele>560.191956</ele>
<time>2014-05-23T07:05:20.003Z</time>
</trkpt>
<trkpt lat="31.7679690" lon="35.0995370">
<ele>561.411133</ele>
<time>2014-05-23T07:05:24.996Z</time>
</trkpt>
<trkpt lat="31.7680550" lon="35.0994730">
<ele>561.411133</ele>
<time>2014-05-23T07:05:29.999Z</time>
</trkpt>
<trkpt lat="31.7681370" lon="35.0994090">
<ele>562.996094</ele>
<time>2014-05-23T07:05:35.002Z</time>
</trkpt>
<trkpt lat="31.7682280" lon="35.0993530">
<ele>564.398132</ele>
<time>2014-05-23T07:05:40.004Z</time>
</trkpt>
<trkpt lat="31.7683280" lon="35.0993110">
<ele>564.611511</ele>
<time>2014-05-23T07:05:44.998Z</time>
</trkpt>
<trkpt lat="31.7684200" lon="35.0992770">
<ele>564.794373</ele>
<time>2014-05-23T07:05:50.001Z</time>
</trkpt>
<trkpt lat="31.7685080" lon="35.0992520">
<ele>564.611511</ele>
<time>2014-05-23T07:05:55.003Z</time>
</trkpt>
<trkpt lat="31.7686060" lon="35.0992320">
<ele>564.001953</ele>
<time>2014-05-23T07:05:59.004Z</time>
</trkpt>
<trkpt lat="31.7687010" lon="35.0992120">
<ele>564.001953</ele>
<time>2014-05-23T07:06:03.997Z</time>
</trkpt>
<trkpt lat="31.7687930" lon="35.0991890">
<ele>564.611511</ele>
<time>2014-05-23T07:06:10.002Z</time>
</trkpt>
<trkpt lat="31.7688910" lon="35.0991590">
<ele>565.586853</ele>
<time>2014-05-23T07:06:15.998Z</time>
</trkpt>
<trkpt lat="31.7689800" lon="35.0991290">
<ele>566.592712</ele>
<time>2014-05-23T07:06:21.001Z</time>
</trkpt>
<trkpt lat="31.7690800" lon="35.0991030">
<ele>567.598572</ele>
<time>2014-05-23T07:06:26.997Z</time>
</trkpt>
<trkpt lat="31.7691830" lon="35.0990670">
<ele>569.610229</ele>
<time>2014-05-23T07:06:33.002Z</time>
</trkpt>
<trkpt lat="31.7692870" lon="35.0990520">
<ele>570.585571</ele>
<time>2014-05-23T07:06:38.998Z</time>
</trkpt>
<trkpt lat="31.7694040" lon="35.0990420">
<ele>571.408569</ele>
<time>2014-05-23T07:06:45.003Z</time>
</trkpt>
<trkpt lat="31.7694940" lon="35.0990480">
<ele>571.408569</ele>
<time>2014-05-23T07:06:49.997Z</time>
</trkpt>
<trkpt lat="31.7695980" lon="35.0990540">
<ele>571.591431</ele>
<time>2014-05-23T07:06:54.999Z</time>
</trkpt>
<trkpt lat="31.7697140" lon="35.0990640">
<ele>571.591431</ele>
<time>2014-05-23T07:07:00.002Z</time>
</trkpt>
<trkpt lat="31.7698070" lon="35.0990640">
<ele>571.987671</ele>
<time>2014-05-23T07:07:04.002Z</time>
</trkpt>
<trkpt lat="31.7699070" lon="35.0990610">
<ele>572.201050</ele>
<time>2014-05-23T07:07:08.003Z</time>
</trkpt>
<trkpt lat="31.7699970" lon="35.0990740">
<ele>571.408569</ele>
<time>2014-05-23T07:07:12.003Z</time>
</trkpt>
<trkpt lat="31.7700980" lon="35.0990710">
<ele>571.012329</ele>
<time>2014-05-23T07:07:16.003Z</time>
</trkpt>
<trkpt lat="31.7702040" lon="35.0990680">
<ele>570.798950</ele>
<time>2014-05-23T07:07:20.004Z</time>
</trkpt>
<trkpt lat="31.7702980" lon="35.0990760">
<ele>570.006470</ele>
<time>2014-05-23T07:07:24.004Z</time>
</trkpt>
<trkpt lat="31.7703980" lon="35.0990710">
<ele>569.793152</ele>
<time>2014-05-23T07:07:28.004Z</time>
</trkpt>
<trkpt lat="31.7705070" lon="35.0990760">
<ele>569.000671</ele>
<time>2014-05-23T07:07:31.996Z</time>
</trkpt>
<trkpt lat="31.7706120" lon="35.0990610">
<ele>569.213989</ele>
<time>2014-05-23T07:07:35.996Z</time>
</trkpt>
<trkpt lat="31.7707080" lon="35.0990200">
<ele>570.402710</ele>
<time>2014-05-23T07:07:39.003Z</time>
</trkpt>
<trkpt lat="31.7708080" lon="35.0989830">
<ele>571.012329</ele>
<time>2014-05-23T07:07:42.001Z</time>
</trkpt>
<trkpt lat="31.7709090" lon="35.0989330">
<ele>571.591431</ele>
<time>2014-05-23T07:07:44.999Z</time>
</trkpt>
<trkpt lat="31.7710200" lon="35.0988540">
<ele>570.585571</ele>
<time>2014-05-23T07:07:47.997Z</time>
</trkpt>
<trkpt lat="31.7711220" lon="35.0987760">
<ele>570.006470</ele>
<time>2014-05-23T07:07:51.004Z</time>
</trkpt>
<trkpt lat="31.7712010" lon="35.0986950">
<ele>570.798950</ele>
<time>2014-05-23T07:07:54.002Z</time>
</trkpt>
<trkpt lat="31.7712700" lon="35.0986080">
<ele>572.414429</ele>
<time>2014-05-23T07:07:57.000Z</time>
</trkpt>
<trkpt lat="31.7713380" lon="35.0985190">
<ele>573.603149</ele>
<time>2014-05-23T07:07:59.998Z</time>
</trkpt>
<trkpt lat="31.7714000" lon="35.0984280">
<ele>574.395630</ele>
<time>2014-05-23T07:08:02.996Z</time>
</trkpt>
<trkpt lat="31.7714510" lon="35.0983240">
<ele>576.011047</ele>
<time>2014-05-23T07:08:06.003Z</time>
</trkpt>
<trkpt lat="31.7715060" lon="35.0982270">
<ele>577.199768</ele>
<time>2014-05-23T07:08:09.001Z</time>
</trkpt>
<trkpt lat="31.7715560" lon="35.0981300">
<ele>578.998047</ele>
<time>2014-05-23T07:08:11.999Z</time>
</trkpt>
<trkpt lat="31.7716090" lon="35.0980410">
<ele>582.990967</ele>
<time>2014-05-23T07:08:14.997Z</time>
</trkpt>
<trkpt lat="31.7716570" lon="35.0979460">
<ele>585.398865</ele>
<time>2014-05-23T07:08:18.004Z</time>
</trkpt>
<trkpt lat="31.7717210" lon="35.0978330">
<ele>588.599243</ele>
<time>2014-05-23T07:08:22.004Z</time>
</trkpt>
<trkpt lat="31.7717910" lon="35.0977280">
<ele>591.799683</ele>
<time>2014-05-23T07:08:25.996Z</time>
</trkpt>
<trkpt lat="31.7718580" lon="35.0976220">
<ele>595.000061</ele>
<time>2014-05-23T07:08:29.996Z</time>
</trkpt>
<trkpt lat="31.7719340" lon="35.0975210">
<ele>598.200500</ele>
<time>2014-05-23T07:08:33.996Z</time>
</trkpt>
<trkpt lat="31.7719980" lon="35.0974410">
<ele>598.596741</ele>
<time>2014-05-23T07:08:37.003Z</time>
</trkpt>
<trkpt lat="31.7720580" lon="35.0973520">
<ele>598.413879</ele>
<time>2014-05-23T07:08:40.001Z</time>
</trkpt>
<trkpt lat="31.7721170" lon="35.0972570">
<ele>598.413879</ele>
<time>2014-05-23T07:08:42.999Z</time>
</trkpt>
<trkpt lat="31.7721810" lon="35.0971610">
<ele>598.413879</ele>
<time>2014-05-23T07:08:45.997Z</time>
</trkpt>
<trkpt lat="31.7722450" lon="35.0970670">
<ele>598.810059</ele>
<time>2014-05-23T07:08:49.004Z</time>
</trkpt>
<trkpt lat="31.7723090" lon="35.0969640">
<ele>599.389221</ele>
<time>2014-05-23T07:08:52.002Z</time>
</trkpt>
<trkpt lat="31.7723710" lon="35.0968570">
<ele>598.810059</ele>
<time>2014-05-23T07:08:55.000Z</time>
</trkpt>
<trkpt lat="31.7724390" lon="35.0967560">
<ele>602.406738</ele>
<time>2014-05-23T07:08:59.001Z</time>
</trkpt>
<trkpt lat="31.7725000" lon="35.0967510">
<ele>605.210876</ele>
<time>2014-05-23T07:09:45.000Z</time>
</trkpt>
<trkpt lat="31.7725340" lon="35.0968620">
<ele>605.393738</ele>
<time>2014-05-23T07:15:41.996Z</time>
</trkpt>
<trkpt lat="31.7725860" lon="35.0969510">
<ele>606.795837</ele>
<time>2014-05-23T07:15:45.003Z</time>
</trkpt>
<trkpt lat="31.7726160" lon="35.0970530">
<ele>607.009216</ele>
<time>2014-05-23T07:15:48.001Z</time>
</trkpt>
<trkpt lat="31.7726320" lon="35.0971790">
<ele>606.795837</ele>
<time>2014-05-23T07:15:52.001Z</time>
</trkpt>
<trkpt lat="31.7726360" lon="35.0973200">
<ele>606.399597</ele>
<time>2014-05-23T07:15:56.002Z</time>
</trkpt>
<trkpt lat="31.7726380" lon="35.0974230">
<ele>605.789978</ele>
<time>2014-05-23T07:15:59.000Z</time>
</trkpt>
<trkpt lat="31.7726480" lon="35.0975620">
<ele>604.997498</ele>
<time>2014-05-23T07:16:03.000Z</time>
</trkpt>
<trkpt lat="31.7726480" lon="35.0976940">
<ele>603.991699</ele>
<time>2014-05-23T07:16:07.000Z</time>
</trkpt>
<trkpt lat="31.7726550" lon="35.0978210">
<ele>603.199219</ele>
<time>2014-05-23T07:16:11.001Z</time>
</trkpt>
<trkpt lat="31.7726480" lon="35.0979680">
<ele>601.187500</ele>
<time>2014-05-23T07:16:15.001Z</time>
</trkpt>
<trkpt lat="31.7726380" lon="35.0980790">
<ele>598.596741</ele>
<time>2014-05-23T07:16:17.999Z</time>
</trkpt>
<trkpt lat="31.7726310" lon="35.0981850">
<ele>596.188782</ele>
<time>2014-05-23T07:16:20.997Z</time>
</trkpt>
<trkpt lat="31.7726290" lon="35.0983020">
<ele>594.390503</ele>
<time>2014-05-23T07:16:24.004Z</time>
</trkpt>
<trkpt lat="31.7726320" lon="35.0984220">
<ele>592.592163</ele>
<time>2014-05-23T07:16:27.002Z</time>
</trkpt>
<trkpt lat="31.7726400" lon="35.0985370">
<ele>591.190063</ele>
<time>2014-05-23T07:16:30.000Z</time>
</trkpt>
<trkpt lat="31.7726610" lon="35.0986530">
<ele>590.397583</ele>
<time>2014-05-23T07:16:32.998Z</time>
</trkpt>
<trkpt lat="31.7726930" lon="35.0987770">
<ele>589.605103</ele>
<time>2014-05-23T07:16:35.996Z</time>
</trkpt>
<trkpt lat="31.7727290" lon="35.0988790">
<ele>587.410522</ele>
<time>2014-05-23T07:16:39.003Z</time>
</trkpt>
<trkpt lat="31.7727840" lon="35.0989890">
<ele>585.795105</ele>
<time>2014-05-23T07:16:43.003Z</time>
</trkpt>
<trkpt lat="31.7728330" lon="35.0990840">
<ele>584.393066</ele>
<time>2014-05-23T07:16:47.004Z</time>
</trkpt>
<trkpt lat="31.7728930" lon="35.0991830">
<ele>583.387207</ele>
<time>2014-05-23T07:16:51.997Z</time>
</trkpt>
<trkpt lat="31.7729620" lon="35.0992750">
<ele>582.990967</ele>
<time>2014-05-23T07:16:58.002Z</time>
</trkpt>
<trkpt lat="31.7730190" lon="35.0993690">
<ele>581.985107</ele>
<time>2014-05-23T07:17:03.998Z</time>
</trkpt>
<trkpt lat="31.7731080" lon="35.0994490">
<ele>582.990967</ele>
<time>2014-05-23T07:17:10.997Z</time>
</trkpt>
<trkpt lat="31.7731850" lon="35.0995020">
<ele>584.393066</ele>
<time>2014-05-23T07:17:17.002Z</time>
</trkpt>
<trkpt lat="31.7732830" lon="35.0995460">
<ele>586.008484</ele>
<time>2014-05-23T07:17:24.000Z</time>
</trkpt>
<trkpt lat="31.7733860" lon="35.0995670">
<ele>587.989685</ele>
<time>2014-05-23T07:17:29.996Z</time>
</trkpt>
<trkpt lat="31.7734820" lon="35.0995800">
<ele>590.214722</ele>
<time>2014-05-23T07:17:37.003Z</time>
</trkpt>
<trkpt lat="31.7735830" lon="35.0995940">
<ele>592.409302</ele>
<time>2014-05-23T07:17:42.999Z</time>
</trkpt>
<trkpt lat="31.7736790" lon="35.0995750">
<ele>595.792542</ele>
<time>2014-05-23T07:17:48.002Z</time>
</trkpt>
<trkpt lat="31.7737760" lon="35.0995600">
<ele>598.992920</ele>
<time>2014-05-23T07:17:52.996Z</time>
</trkpt>
<trkpt lat="31.7738710" lon="35.0995490">
<ele>602.010498</ele>
<time>2014-05-23T07:17:57.998Z</time>
</trkpt>
<trkpt lat="31.7739730" lon="35.0995310">
<ele>605.607117</ele>
<time>2014-05-23T07:18:03.001Z</time>
</trkpt>
<trkpt lat="31.7740780" lon="35.0995300">
<ele>608.197937</ele>
<time>2014-05-23T07:18:08.004Z</time>
</trkpt>
<trkpt lat="31.7741720" lon="35.0995500">
<ele>611.398315</ele>
<time>2014-05-23T07:18:12.997Z</time>
</trkpt>
<trkpt lat="31.7742530" lon="35.0996410">
<ele>611.794556</ele>
<time>2014-05-23T07:18:18.000Z</time>
</trkpt>
<trkpt lat="31.7742650" lon="35.0997470">
<ele>609.203735</ele>
<time>2014-05-23T07:18:22.000Z</time>
</trkpt>
<trkpt lat="31.7742710" lon="35.0998620">
<ele>606.003357</ele>
<time>2014-05-23T07:18:26.001Z</time>
</trkpt>
<trkpt lat="31.7742920" lon="35.1000020">
<ele>602.802917</ele>
<time>2014-05-23T07:18:30.001Z</time>
</trkpt>
<trkpt lat="31.7743060" lon="35.1001070">
<ele>600.212158</ele>
<time>2014-05-23T07:18:32.999Z</time>
</trkpt>
<trkpt lat="31.7743320" lon="35.1002110">
<ele>597.987122</ele>
<time>2014-05-23T07:18:35.997Z</time>
</trkpt>
<trkpt lat="31.7743820" lon="35.1003210">
<ele>596.585083</ele>
<time>2014-05-23T07:18:39.004Z</time>
</trkpt>
<trkpt lat="31.7744460" lon="35.1004050">
<ele>596.798401</ele>
<time>2014-05-23T07:18:42.002Z</time>
</trkpt>
<trkpt lat="31.7745190" lon="35.1004670">
<ele>597.194641</ele>
<time>2014-05-23T07:18:46.002Z</time>
</trkpt>
<trkpt lat="31.7746140" lon="35.1005320">
<ele>598.200500</ele>
<time>2014-05-23T07:18:50.996Z</time>
</trkpt>
<trkpt lat="31.7746860" lon="35.1005940">
<ele>598.413879</ele>
<time>2014-05-23T07:18:54.996Z</time>
</trkpt>
<trkpt lat="31.7747640" lon="35.1006580">
<ele>598.810059</ele>
<time>2014-05-23T07:18:58.997Z</time>
</trkpt>
<trkpt lat="31.7748510" lon="35.1007150">
<ele>599.785461</ele>
<time>2014-05-23T07:19:02.997Z</time>
</trkpt>
<trkpt lat="31.7749430" lon="35.1007790">
<ele>600.212158</ele>
<time>2014-05-23T07:19:08.000Z</time>
</trkpt>
<trkpt lat="31.7750290" lon="35.1008400">
<ele>600.395081</ele>
<time>2014-05-23T07:19:13.002Z</time>
</trkpt>
<trkpt lat="31.7751210" lon="35.1009070">
<ele>600.608398</ele>
<time>2014-05-23T07:19:17.996Z</time>
</trkpt>
<trkpt lat="31.7752080" lon="35.1009710">
<ele>600.791260</ele>
<time>2014-05-23T07:19:22.999Z</time>
</trkpt>
<trkpt lat="31.7753030" lon="35.1010210">
<ele>601.797119</ele>
<time>2014-05-23T07:19:28.001Z</time>
</trkpt>
<trkpt lat="31.7753880" lon="35.1010710">
<ele>602.589600</ele>
<time>2014-05-23T07:19:33.004Z</time>
</trkpt>
<trkpt lat="31.7754830" lon="35.1011310">
<ele>603.199219</ele>
<time>2014-05-23T07:19:37.998Z</time>
</trkpt>
<trkpt lat="31.7755650" lon="35.1011690">
<ele>604.205078</ele>
<time>2014-05-23T07:19:43.000Z</time>
</trkpt>
<trkpt lat="31.7756540" lon="35.1012200">
<ele>604.997498</ele>
<time>2014-05-23T07:19:48.996Z</time>
</trkpt>
<trkpt lat="31.7757420" lon="35.1012550">
<ele>605.789978</ele>
<time>2014-05-23T07:19:56.004Z</time>
</trkpt>
<trkpt lat="31.7758430" lon="35.1012910">
<ele>605.607117</ele>
<time>2014-05-23T07:20:03.002Z</time>
</trkpt>
<trkpt lat="31.7759470" lon="35.1013200">
<ele>605.789978</ele>
<time>2014-05-23T07:20:10.000Z</time>
</trkpt>
<trkpt lat="31.7760390" lon="35.1013390">
<ele>606.003357</ele>
<time>2014-05-23T07:20:16.999Z</time>
</trkpt>
<trkpt lat="31.7761470" lon="35.1013460">
<ele>607.009216</ele>
<time>2014-05-23T07:20:23.997Z</time>
</trkpt>
<trkpt lat="31.7762470" lon="35.1013630">
<ele>607.588318</ele>
<time>2014-05-23T07:20:30.002Z</time>
</trkpt>
<trkpt lat="31.7763440" lon="35.1013630">
<ele>608.807556</ele>
<time>2014-05-23T07:20:34.996Z</time>
</trkpt>
<trkpt lat="31.7764530" lon="35.1013570">
<ele>610.392456</ele>
<time>2014-05-23T07:20:39.998Z</time>
</trkpt>
<trkpt lat="31.7765710" lon="35.1013490">
<ele>612.404175</ele>
<time>2014-05-23T07:20:45.001Z</time>
</trkpt>
<trkpt lat="31.7766670" lon="35.1013360">
<ele>614.385315</ele>
<time>2014-05-23T07:20:49.001Z</time>
</trkpt>
<trkpt lat="31.7767920" lon="35.1013190">
<ele>615.208313</ele>
<time>2014-05-23T07:20:53.002Z</time>
</trkpt>
<trkpt lat="31.7768900" lon="35.1013070">
<ele>615.604553</ele>
<time>2014-05-23T07:20:56.000Z</time>
</trkpt>
<trkpt lat="31.7769860" lon="35.1012890">
<ele>616.214172</ele>
<time>2014-05-23T07:20:58.998Z</time>
</trkpt>
<trkpt lat="31.7771020" lon="35.1012610">
<ele>617.189514</ele>
<time>2014-05-23T07:21:01.996Z</time>
</trkpt>
<trkpt lat="31.7772130" lon="35.1012320">
<ele>618.591614</ele>
<time>2014-05-23T07:21:05.003Z</time>
</trkpt>
<trkpt lat="31.7773150" lon="35.1012110">
<ele>619.810791</ele>
<time>2014-05-23T07:21:08.001Z</time>
</trkpt>
<trkpt lat="31.7774180" lon="35.1011910">
<ele>621.212891</ele>
<time>2014-05-23T07:21:10.999Z</time>
</trkpt>
<trkpt lat="31.7775180" lon="35.1011820">
<ele>624.199951</ele>
<time>2014-05-23T07:21:13.997Z</time>
</trkpt>
<trkpt lat="31.7776430" lon="35.1011670">
<ele>627.796570</ele>
<time>2014-05-23T07:21:17.997Z</time>
</trkpt>
<trkpt lat="31.7777600" lon="35.1011600">
<ele>631.210266</ele>
<time>2014-05-23T07:21:21.997Z</time>
</trkpt>
<trkpt lat="31.7778560" lon="35.1011690">
<ele>633.404907</ele>
<time>2014-05-23T07:21:25.004Z</time>
</trkpt>
<trkpt lat="31.7779470" lon="35.1011910">
<ele>635.203186</ele>
<time>2014-05-23T07:21:28.002Z</time>
</trkpt>
<trkpt lat="31.7780300" lon="35.1012310">
<ele>636.209045</ele>
<time>2014-05-23T07:21:31.000Z</time>
</trkpt>
<trkpt lat="31.7781100" lon="35.1013260">
<ele>637.001465</ele>
<time>2014-05-23T07:21:33.998Z</time>
</trkpt>
<trkpt lat="31.7781560" lon="35.1014510">
<ele>637.794006</ele>
<time>2014-05-23T07:21:36.996Z</time>
</trkpt>
<trkpt lat="31.7781520" lon="35.1015880">
<ele>637.214905</ele>
<time>2014-05-23T07:21:40.997Z</time>
</trkpt>
<trkpt lat="31.7781330" lon="35.1017270">
<ele>636.209045</ele>
<time>2014-05-23T07:21:44.997Z</time>
</trkpt>
<trkpt lat="31.7781230" lon="35.1018490">
<ele>635.599426</ele>
<time>2014-05-23T07:21:48.004Z</time>
</trkpt>
<trkpt lat="31.7781130" lon="35.1019690">
<ele>634.806946</ele>
<time>2014-05-23T07:21:51.002Z</time>
</trkpt>
<trkpt lat="31.7780980" lon="35.1020900">
<ele>632.795288</ele>
<time>2014-05-23T07:21:54.000Z</time>
</trkpt>
<trkpt lat="31.7780900" lon="35.1022060">
<ele>631.606567</ele>
<time>2014-05-23T07:21:56.998Z</time>
</trkpt>
<trkpt lat="31.7780870" lon="35.1023220">
<ele>630.814087</ele>
<time>2014-05-23T07:21:59.996Z</time>
</trkpt>
<trkpt lat="31.7780760" lon="35.1024290">
<ele>629.594910</ele>
<time>2014-05-23T07:22:03.003Z</time>
</trkpt>
<trkpt lat="31.7780660" lon="35.1025310">
<ele>628.406128</ele>
<time>2014-05-23T07:22:06.001Z</time>
</trkpt>
<trkpt lat="31.7780670" lon="35.1026390">
<ele>627.613708</ele>
<time>2014-05-23T07:22:08.999Z</time>
</trkpt>
<trkpt lat="31.7780850" lon="35.1027450">
<ele>627.613708</ele>
<time>2014-05-23T07:22:11.997Z</time>
</trkpt>
<trkpt lat="31.7781240" lon="35.1028450">
<ele>628.406128</ele>
<time>2014-05-23T07:22:15.004Z</time>
</trkpt>
<trkpt lat="31.7781720" lon="35.1029490">
<ele>629.594910</ele>
<time>2014-05-23T07:22:18.002Z</time>
</trkpt>
<trkpt lat="31.7782380" lon="35.1030640">
<ele>631.606567</ele>
<time>2014-05-23T07:22:21.000Z</time>
</trkpt>
<trkpt lat="31.7782940" lon="35.1031550">
<ele>633.008667</ele>
<time>2014-05-23T07:22:23.998Z</time>
</trkpt>
<trkpt lat="31.7783500" lon="35.1032390">
<ele>634.593628</ele>
<time>2014-05-23T07:22:26.996Z</time>
</trkpt>
<trkpt lat="31.7784160" lon="35.1033560">
<ele>636.391907</ele>
<time>2014-05-23T07:22:30.996Z</time>
</trkpt>
<trkpt lat="31.7784790" lon="35.1034770">
<ele>638.007324</ele>
<time>2014-05-23T07:22:34.997Z</time>
</trkpt>
<trkpt lat="31.7785260" lon="35.1035720">
<ele>639.196106</ele>
<time>2014-05-23T07:22:38.004Z</time>
</trkpt>
<trkpt lat="31.7785760" lon="35.1036630">
<ele>640.598145</ele>
<time>2014-05-23T07:22:41.002Z</time>
</trkpt>
<trkpt lat="31.7786290" lon="35.1037880">
<ele>642.213623</ele>
<time>2014-05-23T07:22:45.002Z</time>
</trkpt>
<trkpt lat="31.7786650" lon="35.1038890">
<ele>644.011902</ele>
<time>2014-05-23T07:22:48.000Z</time>
</trkpt>
<trkpt lat="31.7786620" lon="35.1040210">
<ele>644.987305</ele>
<time>2014-05-23T07:22:52.000Z</time>
</trkpt>
<trkpt lat="31.7786330" lon="35.1041340">
<ele>645.200684</ele>
<time>2014-05-23T07:22:56.001Z</time>
</trkpt>
<trkpt lat="31.7785960" lon="35.1042210">
<ele>645.200684</ele>
<time>2014-05-23T07:23:01.003Z</time>
</trkpt>
<trkpt lat="31.7785730" lon="35.1043210">
<ele>645.993103</ele>
<time>2014-05-23T07:23:05.997Z</time>
</trkpt>
<trkpt lat="31.7785170" lon="35.1044270">
<ele>645.993103</ele>
<time>2014-05-23T07:23:12.002Z</time>
</trkpt>
<trkpt lat="31.7784680" lon="35.1045350">
<ele>646.206482</ele>
<time>2014-05-23T07:23:17.998Z</time>
</trkpt>
<trkpt lat="31.7784240" lon="35.1046350">
<ele>645.993103</ele>
<time>2014-05-23T07:23:24.003Z</time>
</trkpt>
<trkpt lat="31.7783950" lon="35.1047500">
<ele>645.200684</ele>
<time>2014-05-23T07:23:29.999Z</time>
</trkpt>
<trkpt lat="31.7783650" lon="35.1048700">
<ele>644.408142</ele>
<time>2014-05-23T07:23:36.004Z</time>
</trkpt>
<trkpt lat="31.7783530" lon="35.1050010">
<ele>643.798523</ele>
<time>2014-05-23T07:23:42.000Z</time>
</trkpt>
<trkpt lat="31.7783640" lon="35.1051200">
<ele>644.011902</ele>
<time>2014-05-23T07:23:47.003Z</time>
</trkpt>
<trkpt lat="31.7783710" lon="35.1052480">
<ele>644.011902</ele>
<time>2014-05-23T07:23:51.996Z</time>
</trkpt>
<trkpt lat="31.7783870" lon="35.1053540">
<ele>644.194824</ele>
<time>2014-05-23T07:23:56.999Z</time>
</trkpt>
<trkpt lat="31.7783960" lon="35.1054740">
<ele>644.408142</ele>
<time>2014-05-23T07:24:02.002Z</time>
</trkpt>
<trkpt lat="31.7784060" lon="35.1055960">
<ele>644.591064</ele>
<time>2014-05-23T07:24:07.998Z</time>
</trkpt>
<trkpt lat="31.7784270" lon="35.1057130">
<ele>644.804382</ele>
<time>2014-05-23T07:24:13.000Z</time>
</trkpt>
<trkpt lat="31.7784560" lon="35.1058130">
<ele>645.200684</ele>
<time>2014-05-23T07:24:18.003Z</time>
</trkpt>
<trkpt lat="31.7785180" lon="35.1059140">
<ele>646.389343</ele>
<time>2014-05-23T07:24:22.003Z</time>
</trkpt>
<trkpt lat="31.7786090" lon="35.1059930">
<ele>648.797302</ele>
<time>2014-05-23T07:24:26.997Z</time>
</trkpt>
<trkpt lat="31.7786930" lon="35.1060380">
<ele>650.991882</ele>
<time>2014-05-23T07:24:32.000Z</time>
</trkpt>
<trkpt lat="31.7787960" lon="35.1060810">
<ele>653.613098</ele>
<time>2014-05-23T07:24:37.002Z</time>
</trkpt>
<trkpt lat="31.7788990" lon="35.1061350">
<ele>656.386780</ele>
<time>2014-05-23T07:24:41.996Z</time>
</trkpt>
<trkpt lat="31.7789840" lon="35.1061890">
<ele>658.398499</ele>
<time>2014-05-23T07:24:46.999Z</time>
</trkpt>
<trkpt lat="31.7790460" lon="35.1062810">
<ele>660.196777</ele>
<time>2014-05-23T07:24:52.001Z</time>
</trkpt>
<trkpt lat="31.7790950" lon="35.1063900">
<ele>662.391357</ele>
<time>2014-05-23T07:24:56.002Z</time>
</trkpt>
<trkpt lat="31.7791220" lon="35.1065040">
<ele>664.189697</ele>
<time>2014-05-23T07:25:03.000Z</time>
</trkpt>
<trkpt lat="31.7791400" lon="35.1066220">
<ele>665.987976</ele>
<time>2014-05-23T07:25:09.998Z</time>
</trkpt>
<trkpt lat="31.7791430" lon="35.1067380">
<ele>667.207214</ele>
<time>2014-05-23T07:25:16.997Z</time>
</trkpt>
<trkpt lat="31.7791420" lon="35.1068520">
<ele>668.395874</ele>
<time>2014-05-23T07:25:24.004Z</time>
</trkpt>
<trkpt lat="31.7791360" lon="35.1069720">
<ele>669.615112</ele>
<time>2014-05-23T07:25:31.002Z</time>
</trkpt>
<trkpt lat="31.7791190" lon="35.1070810">
<ele>670.407593</ele>
<time>2014-05-23T07:25:38.001Z</time>
</trkpt>
<trkpt lat="31.7791260" lon="35.1071990">
<ele>671.413452</ele>
<time>2014-05-23T07:25:44.999Z</time>
</trkpt>
<trkpt lat="31.7791240" lon="35.1073220">
<ele>672.205872</ele>
<time>2014-05-23T07:25:51.997Z</time>
</trkpt>
<trkpt lat="31.7791030" lon="35.1074310">
<ele>672.388794</ele>
<time>2014-05-23T07:25:58.996Z</time>
</trkpt>
<trkpt lat="31.7790720" lon="35.1075380">
<ele>672.205872</ele>
<time>2014-05-23T07:26:06.003Z</time>
</trkpt>
<trkpt lat="31.7790390" lon="35.1076400">
<ele>671.992554</ele>
<time>2014-05-23T07:26:11.999Z</time>
</trkpt>
<trkpt lat="31.7790150" lon="35.1077450">
<ele>671.992554</ele>
<time>2014-05-23T07:26:17.002Z</time>
</trkpt>
<trkpt lat="31.7789830" lon="35.1078540">
<ele>671.809692</ele>
<time>2014-05-23T07:26:22.004Z</time>
</trkpt>
<trkpt lat="31.7789470" lon="35.1079770">
<ele>670.986694</ele>
<time>2014-05-23T07:26:26.998Z</time>
</trkpt>
<trkpt lat="31.7789360" lon="35.1081090">
<ele>670.986694</ele>
<time>2014-05-23T07:26:32.001Z</time>
</trkpt>
<trkpt lat="31.7789340" lon="35.1082490">
<ele>670.986694</ele>
<time>2014-05-23T07:26:36.001Z</time>
</trkpt>
<trkpt lat="31.7789390" lon="35.1083690">
<ele>671.200134</ele>
<time>2014-05-23T07:26:38.999Z</time>
</trkpt>
<trkpt lat="31.7789310" lon="35.1085050">
<ele>671.200134</ele>
<time>2014-05-23T07:26:41.997Z</time>
</trkpt>
<trkpt lat="31.7789230" lon="35.1086430">
<ele>671.200134</ele>
<time>2014-05-23T07:26:45.004Z</time>
</trkpt>
<trkpt lat="31.7789120" lon="35.1087770">
<ele>671.200134</ele>
<time>2014-05-23T07:26:48.002Z</time>
</trkpt>
<trkpt lat="31.7789040" lon="35.1089060">
<ele>670.194275</ele>
<time>2014-05-23T07:26:51.000Z</time>
</trkpt>
<trkpt lat="31.7789030" lon="35.1090460">
<ele>669.401733</ele>
<time>2014-05-23T07:26:53.998Z</time>
</trkpt>
<trkpt lat="31.7789100" lon="35.1091930">
<ele>668.609314</ele>
<time>2014-05-23T07:26:56.996Z</time>
</trkpt>
<trkpt lat="31.7789410" lon="35.1093200">
<ele>668.792175</ele>
<time>2014-05-23T07:27:00.003Z</time>
</trkpt>
<trkpt lat="31.7789820" lon="35.1094400">
<ele>669.188416</ele>
<time>2014-05-23T07:27:03.001Z</time>
</trkpt>
<trkpt lat="31.7790270" lon="35.1095460">
<ele>669.797974</ele>
<time>2014-05-23T07:27:05.999Z</time>
</trkpt>
<trkpt lat="31.7790930" lon="35.1096460">
<ele>671.200134</ele>
<time>2014-05-23T07:27:09.999Z</time>
</trkpt>
<trkpt lat="31.7791610" lon="35.1097220">
<ele>672.785034</ele>
<time>2014-05-23T07:27:14.000Z</time>
</trkpt>
<trkpt lat="31.7792300" lon="35.1097950">
<ele>674.400513</ele>
<time>2014-05-23T07:27:18.000Z</time>
</trkpt>
<trkpt lat="31.7793000" lon="35.1098860">
<ele>675.985474</ele>
<time>2014-05-23T07:27:23.003Z</time>
</trkpt>
<trkpt lat="31.7793620" lon="35.1099850">
<ele>677.387512</ele>
<time>2014-05-23T07:27:27.996Z</time>
</trkpt>
<trkpt lat="31.7794350" lon="35.1100740">
<ele>679.002930</ele>
<time>2014-05-23T07:27:32.999Z</time>
</trkpt>
<trkpt lat="31.7795130" lon="35.1101670">
<ele>680.801331</ele>
<time>2014-05-23T07:27:39.004Z</time>
</trkpt>
<trkpt lat="31.7795810" lon="35.1102560">
<ele>682.386230</ele>
<time>2014-05-23T07:27:43.998Z</time>
</trkpt>
<trkpt lat="31.7796410" lon="35.1103500">
<ele>683.788269</ele>
<time>2014-05-23T07:27:49.000Z</time>
</trkpt>
<trkpt lat="31.7796890" lon="35.1104660">
<ele>685.007507</ele>
<time>2014-05-23T07:27:54.003Z</time>
</trkpt>
<trkpt lat="31.7797250" lon="35.1105680">
<ele>686.988708</ele>
<time>2014-05-23T07:27:58.003Z</time>
</trkpt>
<trkpt lat="31.7797190" lon="35.1106940">
<ele>687.994568</ele>
<time>2014-05-23T07:28:02.004Z</time>
</trkpt>
<trkpt lat="31.7797060" lon="35.1108260">
<ele>689.000427</ele>
<time>2014-05-23T07:28:06.997Z</time>
</trkpt>
<trkpt lat="31.7796820" lon="35.1109490">
<ele>689.396667</ele>
<time>2014-05-23T07:28:12.000Z</time>
</trkpt>
<trkpt lat="31.7796690" lon="35.1110750">
<ele>690.402527</ele>
<time>2014-05-23T07:28:17.003Z</time>
</trkpt>
<trkpt lat="31.7796560" lon="35.1111800">
<ele>691.408264</ele>
<time>2014-05-23T07:28:21.003Z</time>
</trkpt>
<trkpt lat="31.7796410" lon="35.1112840">
<ele>692.414124</ele>
<time>2014-05-23T07:28:25.003Z</time>
</trkpt>
<trkpt lat="31.7796230" lon="35.1114190">
<ele>693.389465</ele>
<time>2014-05-23T07:28:29.004Z</time>
</trkpt>
<trkpt lat="31.7796130" lon="35.1115370">
<ele>694.608704</ele>
<time>2014-05-23T07:28:33.997Z</time>
</trkpt>
<trkpt lat="31.7795810" lon="35.1116560">
<ele>695.004944</ele>
<time>2014-05-23T07:28:39.000Z</time>
</trkpt>
<trkpt lat="31.7795660" lon="35.1117740">
<ele>696.010803</ele>
<time>2014-05-23T07:28:44.003Z</time>
</trkpt>
<trkpt lat="31.7795470" lon="35.1119080">
<ele>696.407043</ele>
<time>2014-05-23T07:28:48.996Z</time>
</trkpt>
<trkpt lat="31.7795400" lon="35.1120380">
<ele>697.199463</ele>
<time>2014-05-23T07:28:53.999Z</time>
</trkpt>
<trkpt lat="31.7795340" lon="35.1121460">
<ele>697.595764</ele>
<time>2014-05-23T07:28:57.999Z</time>
</trkpt>
<trkpt lat="31.7795140" lon="35.1122530">
<ele>696.986145</ele>
<time>2014-05-23T07:29:02.000Z</time>
</trkpt>
<trkpt lat="31.7795010" lon="35.1123730">
<ele>696.803284</ele>
<time>2014-05-23T07:29:07.002Z</time>
</trkpt>
<trkpt lat="31.7794750" lon="35.1124820">
<ele>696.193726</ele>
<time>2014-05-23T07:29:11.996Z</time>
</trkpt>
<trkpt lat="31.7794560" lon="35.1126000">
<ele>696.010803</ele>
<time>2014-05-23T07:29:16.999Z</time>
</trkpt>
<trkpt lat="31.7794370" lon="35.1127220">
<ele>695.614563</ele>
<time>2014-05-23T07:29:22.001Z</time>
</trkpt>
<trkpt lat="31.7794250" lon="35.1128380">
<ele>695.401184</ele>
<time>2014-05-23T07:29:27.004Z</time>
</trkpt>
<trkpt lat="31.7794220" lon="35.1129580">
<ele>695.187866</ele>
<time>2014-05-23T07:29:31.998Z</time>
</trkpt>
<trkpt lat="31.7794380" lon="35.1130740">
<ele>695.187866</ele>
<time>2014-05-23T07:29:35.998Z</time>
</trkpt>
<trkpt lat="31.7794680" lon="35.1131870">
<ele>695.401184</ele>
<time>2014-05-23T07:29:39.998Z</time>
</trkpt>
<trkpt lat="31.7795070" lon="35.1132770">
<ele>696.010803</ele>
<time>2014-05-23T07:29:45.001Z</time>
</trkpt>
<trkpt lat="31.7795500" lon="35.1133780">
<ele>696.803284</ele>
<time>2014-05-23T07:29:50.004Z</time>
</trkpt>
<trkpt lat="31.7795950" lon="35.1134800">
<ele>697.595764</ele>
<time>2014-05-23T07:29:54.997Z</time>
</trkpt>
<trkpt lat="31.7796430" lon="35.1135770">
<ele>698.388245</ele>
<time>2014-05-23T07:30:00.000Z</time>
</trkpt>
<trkpt lat="31.7797010" lon="35.1136870">
<ele>699.394104</ele>
<time>2014-05-23T07:30:05.996Z</time>
</trkpt>
<trkpt lat="31.7797530" lon="35.1137800">
<ele>700.186523</ele>
<time>2014-05-23T07:30:10.999Z</time>
</trkpt>
<trkpt lat="31.7798020" lon="35.1138810">
<ele>700.613281</ele>
<time>2014-05-23T07:30:14.999Z</time>
</trkpt>
<trkpt lat="31.7798520" lon="35.1139870">
<ele>700.796143</ele>
<time>2014-05-23T07:30:18.999Z</time>
</trkpt>
<trkpt lat="31.7799090" lon="35.1140750">
<ele>701.192383</ele>
<time>2014-05-23T07:30:23.000Z</time>
</trkpt>
<trkpt lat="31.7799460" lon="35.1141830">
<ele>700.613281</ele>
<time>2014-05-23T07:30:27.000Z</time>
</trkpt>
<trkpt lat="31.7799880" lon="35.1142800">
<ele>700.186523</ele>
<time>2014-05-23T07:30:31.000Z</time>
</trkpt>
<trkpt lat="31.7800400" lon="35.1143770">
<ele>700.186523</ele>
<time>2014-05-23T07:30:35.001Z</time>
</trkpt>
<trkpt lat="31.7800800" lon="35.1144820">
<ele>699.607483</ele>
<time>2014-05-23T07:30:39.001Z</time>
</trkpt>
<trkpt lat="31.7801290" lon="35.1145830">
<ele>699.394104</ele>
<time>2014-05-23T07:30:43.001Z</time>
</trkpt>
<trkpt lat="31.7801860" lon="35.1146820">
<ele>698.205322</ele>
<time>2014-05-23T07:30:48.997Z</time>
</trkpt>
<trkpt lat="31.7802400" lon="35.1147920">
<ele>696.193726</ele>
<time>2014-05-23T07:30:52.998Z</time>
</trkpt>
<trkpt lat="31.7803060" lon="35.1149000">
<ele>694.608704</ele>
<time>2014-05-23T07:30:56.998Z</time>
</trkpt>
<trkpt lat="31.7803780" lon="35.1150030">
<ele>693.206665</ele>
<time>2014-05-23T07:31:00.998Z</time>
</trkpt>
<trkpt lat="31.7804500" lon="35.1150870">
<ele>692.414124</ele>
<time>2014-05-23T07:31:04.999Z</time>
</trkpt>
<trkpt lat="31.7805390" lon="35.1151600">
<ele>691.987427</ele>
<time>2014-05-23T07:31:08.999Z</time>
</trkpt>
<trkpt lat="31.7806400" lon="35.1152240">
<ele>692.200806</ele>
<time>2014-05-23T07:31:11.997Z</time>
</trkpt>
<trkpt lat="31.7807380" lon="35.1152710">
<ele>692.200806</ele>
<time>2014-05-23T07:31:15.004Z</time>
</trkpt>
<trkpt lat="31.7808330" lon="35.1153030">
<ele>691.804565</ele>
<time>2014-05-23T07:31:18.002Z</time>
</trkpt>
<trkpt lat="31.7809320" lon="35.1153150">
<ele>691.804565</ele>
<time>2014-05-23T07:31:21.000Z</time>
</trkpt>
<trkpt lat="31.7810220" lon="35.1153170">
<ele>692.200806</ele>
<time>2014-05-23T07:31:23.998Z</time>
</trkpt>
<trkpt lat="31.7811240" lon="35.1153110">
<ele>692.597046</ele>
<time>2014-05-23T07:31:26.996Z</time>
</trkpt>
<trkpt lat="31.7812470" lon="35.1153040">
<ele>693.206665</ele>
<time>2014-05-23T07:31:30.996Z</time>
</trkpt>
<trkpt lat="31.7813590" lon="35.1152910">
<ele>693.999084</ele>
<time>2014-05-23T07:31:35.999Z</time>
</trkpt>
<trkpt lat="31.7814690" lon="35.1152800">
<ele>695.004944</ele>
<time>2014-05-23T07:31:41.002Z</time>
</trkpt>
<trkpt lat="31.7815810" lon="35.1152700">
<ele>696.010803</ele>
<time>2014-05-23T07:31:46.004Z</time>
</trkpt>
<trkpt lat="31.7816780" lon="35.1152630">
<ele>696.589905</ele>
<time>2014-05-23T07:31:50.998Z</time>
</trkpt>
<trkpt lat="31.7817790" lon="35.1152540">
<ele>697.412903</ele>
<time>2014-05-23T07:31:56.001Z</time>
</trkpt>
<trkpt lat="31.7818720" lon="35.1152330">
<ele>698.388245</ele>
<time>2014-05-23T07:32:01.003Z</time>
</trkpt>
<trkpt lat="31.7819690" lon="35.1152280">
<ele>698.997864</ele>
<time>2014-05-23T07:32:06.999Z</time>
</trkpt>
<trkpt lat="31.7820700" lon="35.1152160">
<ele>699.790283</ele>
<time>2014-05-23T07:32:12.002Z</time>
</trkpt>
<trkpt lat="31.7821700" lon="35.1152050">
<ele>700.613281</ele>
<time>2014-05-23T07:32:16.002Z</time>
</trkpt>
<trkpt lat="31.7822650" lon="35.1151860">
<ele>701.192383</ele>
<time>2014-05-23T07:32:21.998Z</time>
</trkpt>
<trkpt lat="31.7823620" lon="35.1151500">
<ele>702.198242</ele>
<time>2014-05-23T07:32:28.003Z</time>
</trkpt>
<trkpt lat="31.7824510" lon="35.1151040">
<ele>704.392822</ele>
<time>2014-05-23T07:32:33.999Z</time>
</trkpt>
<trkpt lat="31.7825490" lon="35.1150630">
<ele>706.800720</ele>
<time>2014-05-23T07:32:40.004Z</time>
</trkpt>
<trkpt lat="31.7826430" lon="35.1150050">
<ele>709.604919</ele>
<time>2014-05-23T07:32:46.000Z</time>
</trkpt>
<trkpt lat="31.7827280" lon="35.1149500">
<ele>712.195740</ele>
<time>2014-05-23T07:32:51.996Z</time>
</trkpt>
<trkpt lat="31.7828070" lon="35.1148670">
<ele>712.195740</ele>
<time>2014-05-23T07:32:58.001Z</time>
</trkpt>
<trkpt lat="31.7828730" lon="35.1147830">
<ele>712.195740</ele>
<time>2014-05-23T07:33:05.000Z</time>
</trkpt>
<trkpt lat="31.7829310" lon="35.1146960">
<ele>712.195740</ele>
<time>2014-05-23T07:33:10.996Z</time>
</trkpt>
<trkpt lat="31.7829880" lon="35.1146030">
<ele>712.409058</ele>
<time>2014-05-23T07:33:17.001Z</time>
</trkpt>
<trkpt lat="31.7830810" lon="35.1145350">
<ele>712.805298</ele>
<time>2014-05-23T07:33:22.997Z</time>
</trkpt>
<trkpt lat="31.7831730" lon="35.1145410">
<ele>712.012817</ele>
<time>2014-05-23T07:33:26.997Z</time>
</trkpt>
<trkpt lat="31.7832690" lon="35.1145690">
<ele>711.586121</ele>
<time>2014-05-23T07:33:29.002Z</time>
</trkpt>
<trkpt lat="31.7833710" lon="35.1145970">
<ele>712.012817</ele>
<time>2014-05-23T07:33:30.997Z</time>
</trkpt>
<trkpt lat="31.7834710" lon="35.1146320">
<ele>712.805298</ele>
<time>2014-05-23T07:33:33.002Z</time>
</trkpt>
<trkpt lat="31.7835560" lon="35.1146930">
<ele>713.811096</ele>
<time>2014-05-23T07:33:34.998Z</time>
</trkpt>
<trkpt lat="31.7836040" lon="35.1147890">
<ele>714.603577</ele>
<time>2014-05-23T07:33:37.002Z</time>
</trkpt>
<trkpt lat="31.7836140" lon="35.1149160">
<ele>715.609436</ele>
<time>2014-05-23T07:33:40.000Z</time>
</trkpt>
<trkpt lat="31.7836760" lon="35.1150070">
<ele>716.584778</ele>
<time>2014-05-23T07:33:44.001Z</time>
</trkpt>
<trkpt lat="31.7837490" lon="35.1149590">
<ele>716.798157</ele>
<time>2014-05-23T07:33:56.002Z</time>
</trkpt>
<trkpt lat="31.7838040" lon="35.1148940">
<ele>716.584778</ele>
<time>2014-05-23T07:40:07.997Z</time>
</trkpt>
<trkpt lat="31.7838610" lon="35.1148110">
<ele>716.401917</ele>
<time>2014-05-23T07:40:22.002Z</time>
</trkpt>
<trkpt lat="31.7839210" lon="35.1147120">
<ele>716.005737</ele>
<time>2014-05-23T07:40:27.998Z</time>
</trkpt>
<trkpt lat="31.7839800" lon="35.1146140">
<ele>715.609436</ele>
<time>2014-05-23T07:40:33.001Z</time>
</trkpt>
<trkpt lat="31.7840340" lon="35.1145090">
<ele>715.792297</ele>
<time>2014-05-23T07:40:38.004Z</time>
</trkpt>
<trkpt lat="31.7840850" lon="35.1143990">
<ele>715.396118</ele>
<time>2014-05-23T07:40:42.997Z</time>
</trkpt>
<trkpt lat="31.7841460" lon="35.1143170">
<ele>715.396118</ele>
<time>2014-05-23T07:40:48.000Z</time>
</trkpt>
<trkpt lat="31.7842460" lon="35.1143520">
<ele>715.792297</ele>
<time>2014-05-23T07:40:53.003Z</time>
</trkpt>
<trkpt lat="31.7843430" lon="35.1143280">
<ele>716.005737</ele>
<time>2014-05-23T07:40:57.996Z</time>
</trkpt>
<trkpt lat="31.7843540" lon="35.1142040">
<ele>715.609436</ele>
<time>2014-05-23T07:41:01.003Z</time>
</trkpt>
<trkpt lat="31.7843630" lon="35.1140970">
<ele>715.396118</ele>
<time>2014-05-23T07:41:02.999Z</time>
</trkpt>
<trkpt lat="31.7843780" lon="35.1139670">
<ele>714.207336</ele>
<time>2014-05-23T07:41:05.004Z</time>
</trkpt>
<trkpt lat="31.7843860" lon="35.1138170">
<ele>712.988159</ele>
<time>2014-05-23T07:41:06.999Z</time>
</trkpt>
<trkpt lat="31.7843870" lon="35.1136670">
<ele>712.409058</ele>
<time>2014-05-23T07:41:09.004Z</time>
</trkpt>
<trkpt lat="31.7843540" lon="35.1135300">
<ele>712.012817</ele>
<time>2014-05-23T07:41:11.000Z</time>
</trkpt>
<trkpt lat="31.7843040" lon="35.1134090">
<ele>711.799438</ele>
<time>2014-05-23T07:41:13.004Z</time>
</trkpt>
<trkpt lat="31.7842530" lon="35.1132860">
<ele>711.586121</ele>
<time>2014-05-23T07:41:16.002Z</time>
</trkpt>
<trkpt lat="31.7842130" lon="35.1131680">
<ele>711.403198</ele>
<time>2014-05-23T07:41:20.003Z</time>
</trkpt>
<trkpt lat="31.7841510" lon="35.1130610">
<ele>711.189880</ele>
<time>2014-05-23T07:41:24.996Z</time>
</trkpt>
<trkpt lat="31.7841060" lon="35.1129570">
<ele>710.793579</ele>
<time>2014-05-23T07:41:28.997Z</time>
</trkpt>
<trkpt lat="31.7840800" lon="35.1128450">
<ele>710.793579</ele>
<time>2014-05-23T07:41:33.999Z</time>
</trkpt>
<trkpt lat="31.7840500" lon="35.1127250">
<ele>711.189880</ele>
<time>2014-05-23T07:41:40.004Z</time>
</trkpt>
<trkpt lat="31.7840210" lon="35.1126130">
<ele>711.586121</ele>
<time>2014-05-23T07:41:44.998Z</time>
</trkpt>
<trkpt lat="31.7839920" lon="35.1125010">
<ele>711.799438</ele>
<time>2014-05-23T07:41:51.003Z</time>
</trkpt>
<trkpt lat="31.7840310" lon="35.1124190">
<ele>711.586121</ele>
<time>2014-05-23T07:41:56.999Z</time>
</trkpt>
<trkpt lat="31.7840890" lon="35.1123080">
<ele>711.403198</ele>
<time>2014-05-23T07:42:02.002Z</time>
</trkpt>
<trkpt lat="31.7840490" lon="35.1122110">
<ele>711.799438</ele>
<time>2014-05-23T07:42:06.002Z</time>
</trkpt>
<trkpt lat="31.7839710" lon="35.1121130">
<ele>712.409058</ele>
<time>2014-05-23T07:42:10.002Z</time>
</trkpt>
<trkpt lat="31.7839200" lon="35.1119880">
<ele>712.409058</ele>
<time>2014-05-23T07:42:13.000Z</time>
</trkpt>
<trkpt lat="31.7838790" lon="35.1118610">
<ele>712.409058</ele>
<time>2014-05-23T07:42:15.998Z</time>
</trkpt>
<trkpt lat="31.7838490" lon="35.1117570">
<ele>712.591919</ele>
<time>2014-05-23T07:42:18.003Z</time>
</trkpt>
<trkpt lat="31.7838170" lon="35.1116500">
<ele>712.805298</ele>
<time>2014-05-23T07:42:19.999Z</time>
</trkpt>
<trkpt lat="31.7837880" lon="35.1115370">
<ele>712.988159</ele>
<time>2014-05-23T07:42:22.003Z</time>
</trkpt>
<trkpt lat="31.7837560" lon="35.1114240">
<ele>713.201477</ele>
<time>2014-05-23T07:42:23.999Z</time>
</trkpt>
<trkpt lat="31.7837200" lon="35.1113070">
<ele>713.414917</ele>
<time>2014-05-23T07:42:26.004Z</time>
</trkpt>
<trkpt lat="31.7836800" lon="35.1111890">
<ele>712.988159</ele>
<time>2014-05-23T07:42:27.999Z</time>
</trkpt>
<trkpt lat="31.7836390" lon="35.1110710">
<ele>712.591919</ele>
<time>2014-05-23T07:42:30.004Z</time>
</trkpt>
<trkpt lat="31.7836020" lon="35.1109450">
<ele>712.012817</ele>
<time>2014-05-23T07:42:32.000Z</time>
</trkpt>
<trkpt lat="31.7835630" lon="35.1108160">
<ele>711.403198</ele>
<time>2014-05-23T07:42:34.004Z</time>
</trkpt>
<trkpt lat="31.7835240" lon="35.1106790">
<ele>711.006958</ele>
<time>2014-05-23T07:42:36.000Z</time>
</trkpt>
<trkpt lat="31.7834870" lon="35.1105330">
<ele>710.793579</ele>
<time>2014-05-23T07:42:37.996Z</time>
</trkpt>
<trkpt lat="31.7834490" lon="35.1103820">
<ele>710.397339</ele>
<time>2014-05-23T07:42:40.000Z</time>
</trkpt>
<trkpt lat="31.7834100" lon="35.1102330">
<ele>710.001099</ele>
<time>2014-05-23T07:42:41.996Z</time>
</trkpt>
<trkpt lat="31.7833760" lon="35.1100870">
<ele>709.604919</ele>
<time>2014-05-23T07:42:44.001Z</time>
</trkpt>
<trkpt lat="31.7833420" lon="35.1099520">
<ele>709.208679</ele>
<time>2014-05-23T07:42:45.996Z</time>
</trkpt>
<trkpt lat="31.7833020" lon="35.1098350">
<ele>708.812378</ele>
<time>2014-05-23T07:42:48.001Z</time>
</trkpt>
<trkpt lat="31.7832610" lon="35.1097380">
<ele>708.385681</ele>
<time>2014-05-23T07:42:49.997Z</time>
</trkpt>
<trkpt lat="31.7832030" lon="35.1095980">
<ele>707.989441</ele>
<time>2014-05-23T07:42:53.004Z</time>
</trkpt>
<trkpt lat="31.7831700" lon="35.1094970">
<ele>707.593201</ele>
<time>2014-05-23T07:42:54.999Z</time>
</trkpt>
<trkpt lat="31.7831290" lon="35.1093600">
<ele>707.196960</ele>
<time>2014-05-23T07:42:57.997Z</time>
</trkpt>
<trkpt lat="31.7830780" lon="35.1092300">
<ele>706.800720</ele>
<time>2014-05-23T07:43:01.004Z</time>
</trkpt>
<trkpt lat="31.7830510" lon="35.1091170">
<ele>706.191101</ele>
<time>2014-05-23T07:43:03.000Z</time>
</trkpt>
<trkpt lat="31.7830210" lon="35.1089880">
<ele>705.794922</ele>
<time>2014-05-23T07:43:04.996Z</time>
</trkpt>
<trkpt lat="31.7829990" lon="35.1088530">
<ele>705.002380</ele>
<time>2014-05-23T07:43:07.000Z</time>
</trkpt>
<trkpt lat="31.7829780" lon="35.1087210">
<ele>704.392822</ele>
<time>2014-05-23T07:43:08.996Z</time>
</trkpt>
<trkpt lat="31.7829540" lon="35.1085860">
<ele>703.813721</ele>
<time>2014-05-23T07:43:11.001Z</time>
</trkpt>
<trkpt lat="31.7829310" lon="35.1084500">
<ele>703.204102</ele>
<time>2014-05-23T07:43:12.996Z</time>
</trkpt>
<trkpt lat="31.7829130" lon="35.1083190">
<ele>702.594482</ele>
<time>2014-05-23T07:43:15.001Z</time>
</trkpt>
<trkpt lat="31.7828960" lon="35.1081990">
<ele>702.198242</ele>
<time>2014-05-23T07:43:16.997Z</time>
</trkpt>
<trkpt lat="31.7828770" lon="35.1080680">
<ele>701.588684</ele>
<time>2014-05-23T07:43:20.004Z</time>
</trkpt>
<trkpt lat="31.7827950" lon="35.1080530">
<ele>701.984924</ele>
<time>2014-05-23T07:43:24.997Z</time>
</trkpt>
<trkpt lat="31.7827340" lon="35.1080120">
<ele>702.198242</ele>
<time>2014-05-23T07:43:30.000Z</time>
</trkpt>
<trkpt lat="31.7827270" lon="35.1078970">
<ele>701.588684</ele>
<time>2014-05-23T07:43:32.998Z</time>
</trkpt>
<trkpt lat="31.7827360" lon="35.1077770">
<ele>700.796143</ele>
<time>2014-05-23T07:43:38.001Z</time>
</trkpt>
<trkpt lat="31.7826950" lon="35.1076360">
<ele>700.003723</ele>
<time>2014-05-23T07:46:35.000Z</time>
</trkpt>
<trkpt lat="31.7826670" lon="35.1075210">
<ele>699.211182</ele>
<time>2014-05-23T07:46:37.998Z</time>
</trkpt>
<trkpt lat="31.7826280" lon="35.1073880">
<ele>698.601624</ele>
<time>2014-05-23T07:46:40.002Z</time>
</trkpt>
<trkpt lat="31.7825800" lon="35.1072420">
<ele>697.809082</ele>
<time>2014-05-23T07:46:41.998Z</time>
</trkpt>
<trkpt lat="31.7825320" lon="35.1070820">
<ele>697.199463</ele>
<time>2014-05-23T07:46:44.003Z</time>
</trkpt>
<trkpt lat="31.7824830" lon="35.1069170">
<ele>696.407043</ele>
<time>2014-05-23T07:46:45.998Z</time>
</trkpt>
<trkpt lat="31.7824280" lon="35.1067450">
<ele>695.614563</ele>
<time>2014-05-23T07:46:48.003Z</time>
</trkpt>
<trkpt lat="31.7823730" lon="35.1065610">
<ele>694.791626</ele>
<time>2014-05-23T07:46:49.999Z</time>
</trkpt>
<trkpt lat="31.7823130" lon="35.1063670">
<ele>694.212524</ele>
<time>2014-05-23T07:46:52.003Z</time>
</trkpt>
<trkpt lat="31.7822840" lon="35.1062660">
<ele>693.785767</ele>
<time>2014-05-23T07:46:52.997Z</time>
</trkpt>
<trkpt lat="31.7822550" lon="35.1061650">
<ele>693.389465</ele>
<time>2014-05-23T07:46:53.999Z</time>
</trkpt>
<trkpt lat="31.7821930" lon="35.1059700">
<ele>692.200806</ele>
<time>2014-05-23T07:46:56.004Z</time>
</trkpt>
<trkpt lat="31.7821330" lon="35.1057870">
<ele>691.012085</ele>
<time>2014-05-23T07:46:57.999Z</time>
</trkpt>
<trkpt lat="31.7820650" lon="35.1056020">
<ele>690.006226</ele>
<time>2014-05-23T07:47:00.004Z</time>
</trkpt>
<trkpt lat="31.7819940" lon="35.1054120">
<ele>689.000427</ele>
<time>2014-05-23T07:47:02.000Z</time>
</trkpt>
<trkpt lat="31.7819570" lon="35.1053100">
<ele>688.604126</ele>
<time>2014-05-23T07:47:03.002Z</time>
</trkpt>
<trkpt lat="31.7819200" lon="35.1052040">
<ele>687.994568</ele>
<time>2014-05-23T07:47:04.004Z</time>
</trkpt>
<trkpt lat="31.7818870" lon="35.1050980">
<ele>687.384949</ele>
<time>2014-05-23T07:47:04.998Z</time>
</trkpt>
<trkpt lat="31.7818570" lon="35.1049900">
<ele>686.988708</ele>
<time>2014-05-23T07:47:06.000Z</time>
</trkpt>
<trkpt lat="31.7818280" lon="35.1048800">
<ele>686.409607</ele>
<time>2014-05-23T07:47:07.002Z</time>
</trkpt>
<trkpt lat="31.7817970" lon="35.1047710">
<ele>685.799988</ele>
<time>2014-05-23T07:47:07.996Z</time>
</trkpt>
<trkpt lat="31.7817610" lon="35.1046640">
<ele>685.403748</ele>
<time>2014-05-23T07:47:08.998Z</time>
</trkpt>
<trkpt lat="31.7817240" lon="35.1045600">
<ele>685.007507</ele>
<time>2014-05-23T07:47:10.000Z</time>
</trkpt>
<trkpt lat="31.7816860" lon="35.1044550">
<ele>684.397888</ele>
<time>2014-05-23T07:47:11.003Z</time>
</trkpt>
<trkpt lat="31.7816500" lon="35.1043500">
<ele>684.001709</ele>
<time>2014-05-23T07:47:11.996Z</time>
</trkpt>
<trkpt lat="31.7816130" lon="35.1042440">
<ele>683.392090</ele>
<time>2014-05-23T07:47:12.998Z</time>
</trkpt>
<trkpt lat="31.7815770" lon="35.1041390">
<ele>682.812927</ele>
<time>2014-05-23T07:47:14.001Z</time>
</trkpt>
<trkpt lat="31.7815310" lon="35.1040060">
<ele>682.203369</ele>
<time>2014-05-23T07:47:15.003Z</time>
</trkpt>
<trkpt lat="31.7814800" lon="35.1038340">
<ele>681.014648</ele>
<time>2014-05-23T07:47:16.999Z</time>
</trkpt>
<trkpt lat="31.7814660" lon="35.1036400">
<ele>680.191711</ele>
<time>2014-05-23T07:47:19.003Z</time>
</trkpt>
<trkpt lat="31.7815080" lon="35.1034510">
<ele>678.789612</ele>
<time>2014-05-23T07:47:20.999Z</time>
</trkpt>
<trkpt lat="31.7815870" lon="35.1032920">
<ele>677.387512</ele>
<time>2014-05-23T07:47:23.004Z</time>
</trkpt>
<trkpt lat="31.7816760" lon="35.1031460">
<ele>675.985474</ele>
<time>2014-05-23T07:47:24.999Z</time>
</trkpt>
<trkpt lat="31.7817780" lon="35.1030110">
<ele>674.400513</ele>
<time>2014-05-23T07:47:27.004Z</time>
</trkpt>
<trkpt lat="31.7818780" lon="35.1028610">
<ele>673.211731</ele>
<time>2014-05-23T07:47:29.000Z</time>
</trkpt>
<trkpt lat="31.7819780" lon="35.1027040">
<ele>672.998413</ele>
<time>2014-05-23T07:47:31.004Z</time>
</trkpt>
<trkpt lat="31.7820660" lon="35.1025560">
<ele>672.205872</ele>
<time>2014-05-23T07:47:33.000Z</time>
</trkpt>
<trkpt lat="31.7821400" lon="35.1024170">
<ele>670.194275</ele>
<time>2014-05-23T07:47:34.996Z</time>
</trkpt>
<trkpt lat="31.7821930" lon="35.1022700">
<ele>668.395874</ele>
<time>2014-05-23T07:47:37.000Z</time>
</trkpt>
<trkpt lat="31.7822420" lon="35.1020910">
<ele>666.597595</ele>
<time>2014-05-23T07:47:38.996Z</time>
</trkpt>
<trkpt lat="31.7822910" lon="35.1019010">
<ele>665.195496</ele>
<time>2014-05-23T07:47:41.001Z</time>
</trkpt>
<trkpt lat="31.7823100" lon="35.1017060">
<ele>663.214294</ele>
<time>2014-05-23T07:47:42.996Z</time>
</trkpt>
<trkpt lat="31.7823080" lon="35.1015060">
<ele>661.812256</ele>
<time>2014-05-23T07:47:45.001Z</time>
</trkpt>
<trkpt lat="31.7822970" lon="35.1013020">
<ele>660.593079</ele>
<time>2014-05-23T07:47:46.997Z</time>
</trkpt>
<trkpt lat="31.7822870" lon="35.1010960">
<ele>659.587219</ele>
<time>2014-05-23T07:47:49.001Z</time>
</trkpt>
<trkpt lat="31.7822760" lon="35.1008840">
<ele>659.008118</ele>
<time>2014-05-23T07:47:50.997Z</time>
</trkpt>
<trkpt lat="31.7822700" lon="35.1007780">
<ele>658.611877</ele>
<time>2014-05-23T07:47:51.999Z</time>
</trkpt>
<trkpt lat="31.7822660" lon="35.1006710">
<ele>658.185120</ele>
<time>2014-05-23T07:47:53.002Z</time>
</trkpt>
<trkpt lat="31.7822610" lon="35.1005620">
<ele>657.788879</ele>
<time>2014-05-23T07:47:54.004Z</time>
</trkpt>
<trkpt lat="31.7822570" lon="35.1004520">
<ele>657.392639</ele>
<time>2014-05-23T07:47:54.997Z</time>
</trkpt>
<trkpt lat="31.7822550" lon="35.1003440">
<ele>656.386780</ele>
<time>2014-05-23T07:47:56.000Z</time>
</trkpt>
<trkpt lat="31.7822530" lon="35.1002370">
<ele>655.594299</ele>
<time>2014-05-23T07:47:57.002Z</time>
</trkpt>
<trkpt lat="31.7822490" lon="35.1001310">
<ele>655.198120</ele>
<time>2014-05-23T07:47:58.004Z</time>
</trkpt>
<trkpt lat="31.7822410" lon="35.1000270">
<ele>654.801880</ele>
<time>2014-05-23T07:47:58.998Z</time>
</trkpt>
<trkpt lat="31.7822190" lon="35.0998210">
<ele>654.405579</ele>
<time>2014-05-23T07:48:01.002Z</time>
</trkpt>
<trkpt lat="31.7821910" lon="35.0996270">
<ele>654.009338</ele>
<time>2014-05-23T07:48:02.998Z</time>
</trkpt>
<trkpt lat="31.7821610" lon="35.0994470">
<ele>654.405579</ele>
<time>2014-05-23T07:48:05.003Z</time>
</trkpt>
<trkpt lat="31.7821370" lon="35.0992780">
<ele>654.801880</ele>
<time>2014-05-23T07:48:06.998Z</time>
</trkpt>
<trkpt lat="31.7821220" lon="35.0991190">
<ele>654.801880</ele>
<time>2014-05-23T07:48:09.003Z</time>
</trkpt>
<trkpt lat="31.7821020" lon="35.0989660">
<ele>654.801880</ele>
<time>2014-05-23T07:48:10.999Z</time>
</trkpt>
<trkpt lat="31.7820810" lon="35.0988170">
<ele>655.015198</ele>
<time>2014-05-23T07:48:13.003Z</time>
</trkpt>
<trkpt lat="31.7820640" lon="35.0986730">
<ele>655.198120</ele>
<time>2014-05-23T07:48:14.999Z</time>
</trkpt>
<trkpt lat="31.7820500" lon="35.0985220">
<ele>655.594299</ele>
<time>2014-05-23T07:48:17.004Z</time>
</trkpt>
<trkpt lat="31.7820400" lon="35.0983720">
<ele>655.594299</ele>
<time>2014-05-23T07:48:18.999Z</time>
</trkpt>
<trkpt lat="31.7820290" lon="35.0982320">
<ele>655.807739</ele>
<time>2014-05-23T07:48:21.004Z</time>
</trkpt>
<trkpt lat="31.7820180" lon="35.0980950">
<ele>655.807739</ele>
<time>2014-05-23T07:48:23.000Z</time>
</trkpt>
<trkpt lat="31.7820080" lon="35.0979530">
<ele>655.990540</ele>
<time>2014-05-23T07:48:25.004Z</time>
</trkpt>
<trkpt lat="31.7820010" lon="35.0978100">
<ele>655.411438</ele>
<time>2014-05-23T07:48:27.000Z</time>
</trkpt>
<trkpt lat="31.7820020" lon="35.0976660">
<ele>654.405579</ele>
<time>2014-05-23T07:48:28.996Z</time>
</trkpt>
<trkpt lat="31.7820190" lon="35.0975200">
<ele>653.399719</ele>
<time>2014-05-23T07:48:31.000Z</time>
</trkpt>
<trkpt lat="31.7820350" lon="35.0973670">
<ele>652.393860</ele>
<time>2014-05-23T07:48:32.996Z</time>
</trkpt>
<trkpt lat="31.7820510" lon="35.0972010">
<ele>651.388123</ele>
<time>2014-05-23T07:48:35.001Z</time>
</trkpt>
<trkpt lat="31.7820750" lon="35.0970280">
<ele>650.412720</ele>
<time>2014-05-23T07:48:36.996Z</time>
</trkpt>
<trkpt lat="31.7821110" lon="35.0968570">
<ele>649.193481</ele>
<time>2014-05-23T07:48:39.001Z</time>
</trkpt>
<trkpt lat="31.7821600" lon="35.0966930">
<ele>648.004822</ele>
<time>2014-05-23T07:48:40.997Z</time>
</trkpt>
<trkpt lat="31.7822120" lon="35.0965290">
<ele>646.785583</ele>
<time>2014-05-23T07:48:43.001Z</time>
</trkpt>
<trkpt lat="31.7822580" lon="35.0963610">
<ele>645.596924</ele>
<time>2014-05-23T07:48:44.997Z</time>
</trkpt>
<trkpt lat="31.7822950" lon="35.0961940">
<ele>645.596924</ele>
<time>2014-05-23T07:48:47.002Z</time>
</trkpt>
<trkpt lat="31.7823350" lon="35.0960270">
<ele>644.804382</ele>
<time>2014-05-23T07:48:48.997Z</time>
</trkpt>
<trkpt lat="31.7823870" lon="35.0958640">
<ele>644.011902</ele>
<time>2014-05-23T07:48:51.002Z</time>
</trkpt>
<trkpt lat="31.7824430" lon="35.0956970">
<ele>645.200684</ele>
<time>2014-05-23T07:48:52.998Z</time>
</trkpt>
<trkpt lat="31.7824880" lon="35.0955220">
<ele>645.993103</ele>
<time>2014-05-23T07:48:55.002Z</time>
</trkpt>
<trkpt lat="31.7825290" lon="35.0953340">
<ele>646.206482</ele>
<time>2014-05-23T07:48:56.998Z</time>
</trkpt>
<trkpt lat="31.7825800" lon="35.0951470">
<ele>646.785583</ele>
<time>2014-05-23T07:48:59.003Z</time>
</trkpt>
<trkpt lat="31.7826260" lon="35.0949490">
<ele>647.395203</ele>
<time>2014-05-23T07:49:00.998Z</time>
</trkpt>
<trkpt lat="31.7826450" lon="35.0948470">
<ele>647.608521</ele>
<time>2014-05-23T07:49:02.001Z</time>
</trkpt>
<trkpt lat="31.7826610" lon="35.0947410">
<ele>647.608521</ele>
<time>2014-05-23T07:49:03.003Z</time>
</trkpt>
<trkpt lat="31.7826780" lon="35.0946340">
<ele>647.395203</ele>
<time>2014-05-23T07:49:03.996Z</time>
</trkpt>
<trkpt lat="31.7826950" lon="35.0945270">
<ele>647.608521</ele>
<time>2014-05-23T07:49:04.999Z</time>
</trkpt>
<trkpt lat="31.7827090" lon="35.0944210">
<ele>647.791443</ele>
<time>2014-05-23T07:49:06.001Z</time>
</trkpt>
<trkpt lat="31.7827200" lon="35.0943140">
<ele>648.004822</ele>
<time>2014-05-23T07:49:07.003Z</time>
</trkpt>
<trkpt lat="31.7827470" lon="35.0941070">
<ele>648.187683</ele>
<time>2014-05-23T07:49:08.999Z</time>
</trkpt>
<trkpt lat="31.7828010" lon="35.0938760">
<ele>647.395203</ele>
<time>2014-05-23T07:49:11.004Z</time>
</trkpt>
<trkpt lat="31.7828460" lon="35.0937040">
<ele>646.785583</ele>
<time>2014-05-23T07:49:12.999Z</time>
</trkpt>
<trkpt lat="31.7828990" lon="35.0935010">
<ele>646.389343</ele>
<time>2014-05-23T07:49:15.004Z</time>
</trkpt>
<trkpt lat="31.7829260" lon="35.0933950">
<ele>645.414001</ele>
<time>2014-05-23T07:49:15.997Z</time>
</trkpt>
<trkpt lat="31.7829540" lon="35.0932900">
<ele>644.011902</ele>
<time>2014-05-23T07:49:17.000Z</time>
</trkpt>
<trkpt lat="31.7829830" lon="35.0931820">
<ele>642.609863</ele>
<time>2014-05-23T07:49:18.002Z</time>
</trkpt>
<trkpt lat="31.7830120" lon="35.0930710">
<ele>641.207764</ele>
<time>2014-05-23T07:49:19.004Z</time>
</trkpt>
<trkpt lat="31.7830380" lon="35.0929650">
<ele>639.805725</ele>
<time>2014-05-23T07:49:19.998Z</time>
</trkpt>
<trkpt lat="31.7830670" lon="35.0928590">
<ele>639.409485</ele>
<time>2014-05-23T07:49:21.000Z</time>
</trkpt>
<trkpt lat="31.7830980" lon="35.0927530">
<ele>638.586487</ele>
<time>2014-05-23T07:49:22.002Z</time>
</trkpt>
<trkpt lat="31.7831280" lon="35.0926480">
<ele>637.001465</ele>
<time>2014-05-23T07:49:22.996Z</time>
</trkpt>
<trkpt lat="31.7831590" lon="35.0925480">
<ele>635.386108</ele>
<time>2014-05-23T07:49:23.998Z</time>
</trkpt>
<trkpt lat="31.7832140" lon="35.0923550">
<ele>632.399048</ele>
<time>2014-05-23T07:49:26.003Z</time>
</trkpt>
<trkpt lat="31.7832410" lon="35.0922550">
<ele>632.399048</ele>
<time>2014-05-23T07:49:26.996Z</time>
</trkpt>
<trkpt lat="31.7832650" lon="35.0921450">
<ele>632.002808</ele>
<time>2014-05-23T07:49:27.998Z</time>
</trkpt>
<trkpt lat="31.7832830" lon="35.0920280">
<ele>631.393188</ele>
<time>2014-05-23T07:49:29.001Z</time>
</trkpt>
<trkpt lat="31.7832930" lon="35.0919040">
<ele>630.387329</ele>
<time>2014-05-23T07:49:30.003Z</time>
</trkpt>
<trkpt lat="31.7832960" lon="35.0917760">
<ele>629.198669</ele>
<time>2014-05-23T07:49:30.996Z</time>
</trkpt>
<trkpt lat="31.7832950" lon="35.0916450">
<ele>628.009888</ele>
<time>2014-05-23T07:49:31.999Z</time>
</trkpt>
<trkpt lat="31.7832910" lon="35.0915160">
<ele>626.607849</ele>
<time>2014-05-23T07:49:33.001Z</time>
</trkpt>
<trkpt lat="31.7832900" lon="35.0913900">
<ele>625.388672</ele>
<time>2014-05-23T07:49:34.003Z</time>
</trkpt>
<trkpt lat="31.7832910" lon="35.0912660">
<ele>623.590332</ele>
<time>2014-05-23T07:49:34.997Z</time>
</trkpt>
<trkpt lat="31.7832910" lon="35.0911450">
<ele>622.614929</ele>
<time>2014-05-23T07:49:35.999Z</time>
</trkpt>
<trkpt lat="31.7832910" lon="35.0910270">
<ele>621.395752</ele>
<time>2014-05-23T07:49:37.001Z</time>
</trkpt>
<trkpt lat="31.7832930" lon="35.0909110">
<ele>620.389954</ele>
<time>2014-05-23T07:49:38.004Z</time>
</trkpt>
<trkpt lat="31.7833000" lon="35.0907960">
<ele>619.414551</ele>
<time>2014-05-23T07:49:38.997Z</time>
</trkpt>
<trkpt lat="31.7833070" lon="35.0906760">
<ele>618.408752</ele>
<time>2014-05-23T07:49:39.999Z</time>
</trkpt>
<trkpt lat="31.7833080" lon="35.0905540">
<ele>617.189514</ele>
<time>2014-05-23T07:49:41.002Z</time>
</trkpt>
<trkpt lat="31.7833040" lon="35.0904360">
<ele>616.000793</ele>
<time>2014-05-23T07:49:42.004Z</time>
</trkpt>
<trkpt lat="31.7832930" lon="35.0903200">
<ele>614.994934</ele>
<time>2014-05-23T07:49:42.997Z</time>
</trkpt>
<trkpt lat="31.7832780" lon="35.0902050">
<ele>613.989136</ele>
<time>2014-05-23T07:49:44.000Z</time>
</trkpt>
<trkpt lat="31.7832630" lon="35.0900870">
<ele>613.013733</ele>
<time>2014-05-23T07:49:45.002Z</time>
</trkpt>
<trkpt lat="31.7832500" lon="35.0899700">
<ele>612.007935</ele>
<time>2014-05-23T07:49:46.004Z</time>
</trkpt>
<trkpt lat="31.7832390" lon="35.0898580">
<ele>611.184937</ele>
<time>2014-05-23T07:49:46.998Z</time>
</trkpt>
<trkpt lat="31.7832310" lon="35.0897460">
<ele>610.209595</ele>
<time>2014-05-23T07:49:48.000Z</time>
</trkpt>
<trkpt lat="31.7832240" lon="35.0896350">
<ele>609.386658</ele>
<time>2014-05-23T07:49:49.002Z</time>
</trkpt>
<trkpt lat="31.7832170" lon="35.0895240">
<ele>608.594116</ele>
<time>2014-05-23T07:49:49.996Z</time>
</trkpt>
<trkpt lat="31.7832100" lon="35.0894130">
<ele>607.801697</ele>
<time>2014-05-23T07:49:50.998Z</time>
</trkpt>
<trkpt lat="31.7832050" lon="35.0893010">
<ele>607.192078</ele>
<time>2014-05-23T07:49:52.000Z</time>
</trkpt>
<trkpt lat="31.7832000" lon="35.0891910">
<ele>606.612915</ele>
<time>2014-05-23T07:49:53.003Z</time>
</trkpt>
<trkpt lat="31.7831930" lon="35.0890800">
<ele>606.003357</ele>
<time>2014-05-23T07:49:53.996Z</time>
</trkpt>
<trkpt lat="31.7831810" lon="35.0889690">
<ele>605.607117</ele>
<time>2014-05-23T07:49:54.998Z</time>
</trkpt>
<trkpt lat="31.7831600" lon="35.0888610">
<ele>605.393738</ele>
<time>2014-05-23T07:49:56.001Z</time>
</trkpt>
<trkpt lat="31.7831320" lon="35.0887520">
<ele>605.393738</ele>
<time>2014-05-23T07:49:57.003Z</time>
</trkpt>
<trkpt lat="31.7831000" lon="35.0886420">
<ele>604.814636</ele>
<time>2014-05-23T07:49:57.996Z</time>
</trkpt>
<trkpt lat="31.7830650" lon="35.0885320">
<ele>605.210876</ele>
<time>2014-05-23T07:49:58.999Z</time>
</trkpt>
<trkpt lat="31.7830320" lon="35.0884190">
<ele>605.393738</ele>
<time>2014-05-23T07:50:00.001Z</time>
</trkpt>
<trkpt lat="31.7830000" lon="35.0883020">
<ele>605.789978</ele>
<time>2014-05-23T07:50:01.003Z</time>
</trkpt>
<trkpt lat="31.7829690" lon="35.0881820">
<ele>606.003357</ele>
<time>2014-05-23T07:50:01.997Z</time>
</trkpt>
<trkpt lat="31.7829380" lon="35.0880610">
<ele>606.186279</ele>
<time>2014-05-23T07:50:02.999Z</time>
</trkpt>
<trkpt lat="31.7829070" lon="35.0879450">
<ele>606.612915</ele>
<time>2014-05-23T07:50:04.001Z</time>
</trkpt>
<trkpt lat="31.7828740" lon="35.0878310">
<ele>605.393738</ele>
<time>2014-05-23T07:50:05.004Z</time>
</trkpt>
<trkpt lat="31.7828390" lon="35.0877200">
<ele>603.991699</ele>
<time>2014-05-23T07:50:05.997Z</time>
</trkpt>
<trkpt lat="31.7828050" lon="35.0876100">
<ele>602.589600</ele>
<time>2014-05-23T07:50:06.999Z</time>
</trkpt>
<trkpt lat="31.7827740" lon="35.0875050">
<ele>601.187500</ele>
<time>2014-05-23T07:50:08.002Z</time>
</trkpt>
<trkpt lat="31.7827470" lon="35.0874020">
<ele>600.791260</ele>
<time>2014-05-23T07:50:09.004Z</time>
</trkpt>
<trkpt lat="31.7827230" lon="35.0873010">
<ele>600.395081</ele>
<time>2014-05-23T07:50:09.997Z</time>
</trkpt>
<trkpt lat="31.7827020" lon="35.0872000">
<ele>600.212158</ele>
<time>2014-05-23T07:50:11.000Z</time>
</trkpt>
<trkpt lat="31.7826850" lon="35.0870960">
<ele>599.785461</ele>
<time>2014-05-23T07:50:12.002Z</time>
</trkpt>
<trkpt lat="31.7826700" lon="35.0869920">
<ele>598.992920</ele>
<time>2014-05-23T07:50:13.004Z</time>
</trkpt>
<trkpt lat="31.7826550" lon="35.0868860">
<ele>597.987122</ele>
<time>2014-05-23T07:50:13.998Z</time>
</trkpt>
<trkpt lat="31.7826420" lon="35.0867800">
<ele>597.011719</ele>
<time>2014-05-23T07:50:15.000Z</time>
</trkpt>
<trkpt lat="31.7826320" lon="35.0866710">
<ele>596.005920</ele>
<time>2014-05-23T07:50:16.002Z</time>
</trkpt>
<trkpt lat="31.7826240" lon="35.0865590">
<ele>595.000061</ele>
<time>2014-05-23T07:50:16.996Z</time>
</trkpt>
<trkpt lat="31.7826180" lon="35.0864460">
<ele>595.000061</ele>
<time>2014-05-23T07:50:17.998Z</time>
</trkpt>
<trkpt lat="31.7826040" lon="35.0862290">
<ele>596.005920</ele>
<time>2014-05-23T07:50:20.003Z</time>
</trkpt>
<trkpt lat="31.7825900" lon="35.0861160">
<ele>594.786743</ele>
<time>2014-05-23T07:50:20.996Z</time>
</trkpt>
<trkpt lat="31.7825690" lon="35.0860000">
<ele>593.598022</ele>
<time>2014-05-23T07:50:21.998Z</time>
</trkpt>
<trkpt lat="31.7825420" lon="35.0858850">
<ele>592.195923</ele>
<time>2014-05-23T07:50:23.001Z</time>
</trkpt>
<trkpt lat="31.7825100" lon="35.0857760">
<ele>590.793884</ele>
<time>2014-05-23T07:50:24.003Z</time>
</trkpt>
<trkpt lat="31.7824750" lon="35.0856710">
<ele>589.391724</ele>
<time>2014-05-23T07:50:24.996Z</time>
</trkpt>
<trkpt lat="31.7824410" lon="35.0855680">
<ele>587.989685</ele>
<time>2014-05-23T07:50:25.999Z</time>
</trkpt>
<trkpt lat="31.7824070" lon="35.0854710">
<ele>586.800964</ele>
<time>2014-05-23T07:50:27.001Z</time>
</trkpt>
<trkpt lat="31.7823630" lon="35.0853050">
<ele>585.002625</ele>
<time>2014-05-23T07:50:28.997Z</time>
</trkpt>
<trkpt lat="31.7823330" lon="35.0852000">
<ele>584.210144</ele>
<time>2014-05-23T07:50:31.001Z</time>
</trkpt>
<trkpt lat="31.7823560" lon="35.0851070">
<ele>583.204346</ele>
<time>2014-05-23T07:50:38.000Z</time>
</trkpt>
<trkpt lat="31.7824290" lon="35.0851420">
<ele>584.606384</ele>
<time>2014-05-23T07:51:07.004Z</time>
</trkpt>
<trkpt lat="31.7825150" lon="35.0850690">
<ele>586.404724</ele>
<time>2014-05-23T07:51:10.996Z</time>
</trkpt>
<trkpt lat="31.7825450" lon="35.0849600">
<ele>586.191345</ele>
<time>2014-05-23T07:51:14.003Z</time>
</trkpt>
<trkpt lat="31.7825790" lon="35.0848120">
<ele>585.795105</ele>
<time>2014-05-23T07:51:17.001Z</time>
</trkpt>
<trkpt lat="31.7826070" lon="35.0846620">
<ele>586.404724</ele>
<time>2014-05-23T07:51:19.999Z</time>
</trkpt>
<trkpt lat="31.7826280" lon="35.0845280">
<ele>586.404724</ele>
<time>2014-05-23T07:51:22.997Z</time>
</trkpt>
<trkpt lat="31.7826590" lon="35.0843680">
<ele>586.587585</ele>
<time>2014-05-23T07:51:26.004Z</time>
</trkpt>
<trkpt lat="31.7826970" lon="35.0842570">
<ele>587.410522</ele>
<time>2014-05-23T07:51:27.999Z</time>
</trkpt>
<trkpt lat="31.7827340" lon="35.0841430">
<ele>587.989685</ele>
<time>2014-05-23T07:51:30.004Z</time>
</trkpt>
<trkpt lat="31.7827750" lon="35.0840220">
<ele>587.806824</ele>
<time>2014-05-23T07:51:32.000Z</time>
</trkpt>
<trkpt lat="31.7828250" lon="35.0838960">
<ele>587.593445</ele>
<time>2014-05-23T07:51:34.004Z</time>
</trkpt>
<trkpt lat="31.7828740" lon="35.0837710">
<ele>587.410522</ele>
<time>2014-05-23T07:51:36.000Z</time>
</trkpt>
<trkpt lat="31.7829270" lon="35.0836470">
<ele>589.391724</ele>
<time>2014-05-23T07:51:37.996Z</time>
</trkpt>
<trkpt lat="31.7829830" lon="35.0835170">
<ele>591.190063</ele>
<time>2014-05-23T07:51:40.000Z</time>
</trkpt>
<trkpt lat="31.7830430" lon="35.0833920">
<ele>589.605103</ele>
<time>2014-05-23T07:51:41.996Z</time>
</trkpt>
<trkpt lat="31.7831010" lon="35.0832730">
<ele>587.989685</ele>
<time>2014-05-23T07:51:44.001Z</time>
</trkpt>
<trkpt lat="31.7831560" lon="35.0831690">
<ele>586.587585</ele>
<time>2014-05-23T07:51:45.996Z</time>
</trkpt>
<trkpt lat="31.7832050" lon="35.0830790">
<ele>585.398865</ele>
<time>2014-05-23T07:51:48.001Z</time>
</trkpt>
<trkpt lat="31.7832770" lon="35.0829670">
<ele>587.014343</ele>
<time>2014-05-23T07:51:50.999Z</time>
</trkpt>
<trkpt lat="31.7833470" lon="35.0828600">
<ele>588.599243</ele>
<time>2014-05-23T07:51:53.997Z</time>
</trkpt>
<trkpt lat="31.7833970" lon="35.0827730">
<ele>589.391724</ele>
<time>2014-05-23T07:51:57.004Z</time>
</trkpt>
<trkpt lat="31.7834490" lon="35.0826850">
<ele>590.397583</ele>
<time>2014-05-23T07:52:00.002Z</time>
</trkpt>
<trkpt lat="31.7835090" lon="35.0825970">
<ele>591.799683</ele>
<time>2014-05-23T07:52:03.000Z</time>
</trkpt>
<trkpt lat="31.7835730" lon="35.0825060">
<ele>593.201721</ele>
<time>2014-05-23T07:52:05.998Z</time>
</trkpt>
<trkpt lat="31.7836300" lon="35.0824200">
<ele>593.598022</ele>
<time>2014-05-23T07:52:08.996Z</time>
</trkpt>
<trkpt lat="31.7836840" lon="35.0823340">
<ele>593.201721</ele>
<time>2014-05-23T07:52:12.003Z</time>
</trkpt>
<trkpt lat="31.7837490" lon="35.0822220">
<ele>592.409302</ele>
<time>2014-05-23T07:52:16.003Z</time>
</trkpt>
<trkpt lat="31.7838010" lon="35.0821120">
<ele>591.190063</ele>
<time>2014-05-23T07:52:20.004Z</time>
</trkpt>
<trkpt lat="31.7838620" lon="35.0820130">
<ele>592.988403</ele>
<time>2014-05-23T07:52:24.004Z</time>
</trkpt>
<trkpt lat="31.7839230" lon="35.0819070">
<ele>593.201721</ele>
<time>2014-05-23T07:52:28.004Z</time>
</trkpt>
<trkpt lat="31.7839800" lon="35.0818210">
<ele>591.007202</ele>
<time>2014-05-23T07:52:31.996Z</time>
</trkpt>
<trkpt lat="31.7840410" lon="35.0817400">
<ele>588.995544</ele>
<time>2014-05-23T07:52:36.998Z</time>
</trkpt>
<trkpt lat="31.7841100" lon="35.0816470">
<ele>589.208862</ele>
<time>2014-05-23T07:52:42.001Z</time>
</trkpt>
<trkpt lat="31.7841710" lon="35.0815470">
<ele>588.995544</ele>
<time>2014-05-23T07:52:46.001Z</time>
</trkpt>
<trkpt lat="31.7842380" lon="35.0814440">
<ele>588.812683</ele>
<time>2014-05-23T07:52:50.002Z</time>
</trkpt>
<trkpt lat="31.7843060" lon="35.0813310">
<ele>587.989685</ele>
<time>2014-05-23T07:52:54.002Z</time>
</trkpt>
<trkpt lat="31.7843720" lon="35.0812310">
<ele>587.989685</ele>
<time>2014-05-23T07:52:58.002Z</time>
</trkpt>
<trkpt lat="31.7844310" lon="35.0811230">
<ele>588.995544</ele>
<time>2014-05-23T07:53:02.003Z</time>
</trkpt>
<trkpt lat="31.7844830" lon="35.0810130">
<ele>589.788025</ele>
<time>2014-05-23T07:53:06.003Z</time>
</trkpt>
<trkpt lat="31.7845390" lon="35.0809240">
<ele>591.007202</ele>
<time>2014-05-23T07:53:10.003Z</time>
</trkpt>
<trkpt lat="31.7845920" lon="35.0808120">
<ele>589.788025</ele>
<time>2014-05-23T07:53:14.004Z</time>
</trkpt>
<trkpt lat="31.7846340" lon="35.0807140">
<ele>588.599243</ele>
<time>2014-05-23T07:53:18.997Z</time>
</trkpt>
<trkpt lat="31.7846790" lon="35.0806120">
<ele>587.593445</ele>
<time>2014-05-23T07:53:25.002Z</time>
</trkpt>
<trkpt lat="31.7847260" lon="35.0805090">
<ele>586.404724</ele>
<time>2014-05-23T07:53:30.998Z</time>
</trkpt>
<trkpt lat="31.7847780" lon="35.0804020">
<ele>586.008484</ele>
<time>2014-05-23T07:53:37.003Z</time>
</trkpt>
<trkpt lat="31.7848280" lon="35.0803020">
<ele>586.191345</ele>
<time>2014-05-23T07:53:42.999Z</time>
</trkpt>
<trkpt lat="31.7848690" lon="35.0802060">
<ele>585.795105</ele>
<time>2014-05-23T07:53:49.004Z</time>
</trkpt>
<trkpt lat="31.7849190" lon="35.0801190">
<ele>585.795105</ele>
<time>2014-05-23T07:53:55.000Z</time>
</trkpt>
<trkpt lat="31.7849700" lon="35.0800150">
<ele>585.398865</ele>
<time>2014-05-23T07:54:01.999Z</time>
</trkpt>
<trkpt lat="31.7850230" lon="35.0799070">
<ele>585.185547</ele>
<time>2014-05-23T07:54:07.001Z</time>
</trkpt>
<trkpt lat="31.7850810" lon="35.0798040">
<ele>585.002625</ele>
<time>2014-05-23T07:54:12.004Z</time>
</trkpt>
<trkpt lat="31.7851280" lon="35.0797020">
<ele>583.996826</ele>
<time>2014-05-23T07:54:16.998Z</time>
</trkpt>
<trkpt lat="31.7851770" lon="35.0795990">
<ele>583.204346</ele>
<time>2014-05-23T07:54:23.003Z</time>
</trkpt>
<trkpt lat="31.7852170" lon="35.0794880">
<ele>583.996826</ele>
<time>2014-05-23T07:54:28.999Z</time>
</trkpt>
<trkpt lat="31.7852540" lon="35.0793940">
<ele>585.002625</ele>
<time>2014-05-23T07:54:34.001Z</time>
</trkpt>
<trkpt lat="31.7853060" lon="35.0792830">
<ele>586.191345</ele>
<time>2014-05-23T07:54:39.997Z</time>
</trkpt>
<trkpt lat="31.7853540" lon="35.0791950">
<ele>586.800964</ele>
<time>2014-05-23T07:54:45.000Z</time>
</trkpt>
<trkpt lat="31.7854010" lon="35.0790890">
<ele>586.008484</ele>
<time>2014-05-23T07:54:50.003Z</time>
</trkpt>
<trkpt lat="31.7854530" lon="35.0789750">
<ele>585.002625</ele>
<time>2014-05-23T07:54:57.001Z</time>
</trkpt>
<trkpt lat="31.7854990" lon="35.0788780">
<ele>584.210144</ele>
<time>2014-05-23T07:55:02.004Z</time>
</trkpt>
<trkpt lat="31.7855490" lon="35.0787730">
<ele>583.387207</ele>
<time>2014-05-23T07:55:06.997Z</time>
</trkpt>
<trkpt lat="31.7855980" lon="35.0786850">
<ele>584.606384</ele>
<time>2014-05-23T07:55:12.000Z</time>
</trkpt>
<trkpt lat="31.7856510" lon="35.0785960">
<ele>585.002625</ele>
<time>2014-05-23T07:55:17.003Z</time>
</trkpt>
<trkpt lat="31.7857180" lon="35.0785310">
<ele>584.606384</ele>
<time>2014-05-23T07:55:21.996Z</time>
</trkpt>
<trkpt lat="31.7858190" lon="35.0785150">
<ele>582.990967</ele>
<time>2014-05-23T07:55:25.997Z</time>
</trkpt>
<trkpt lat="31.7859230" lon="35.0786140">
<ele>581.406006</ele>
<time>2014-05-23T07:55:29.004Z</time>
</trkpt>
<trkpt lat="31.7859860" lon="35.0787250">
<ele>580.400146</ele>
<time>2014-05-23T07:55:30.999Z</time>
</trkpt>
<trkpt lat="31.7860510" lon="35.0788390">
<ele>581.009766</ele>
<time>2014-05-23T07:55:33.004Z</time>
</trkpt>
<trkpt lat="31.7861240" lon="35.0789510">
<ele>582.198486</ele>
<time>2014-05-23T07:55:35.000Z</time>
</trkpt>
<trkpt lat="31.7862000" lon="35.0790680">
<ele>583.387207</ele>
<time>2014-05-23T07:55:37.004Z</time>
</trkpt>
<trkpt lat="31.7862730" lon="35.0791950">
<ele>585.002625</ele>
<time>2014-05-23T07:55:39.000Z</time>
</trkpt>
<trkpt lat="31.7863480" lon="35.0793260">
<ele>586.587585</ele>
<time>2014-05-23T07:55:40.996Z</time>
</trkpt>
<trkpt lat="31.7864270" lon="35.0794630">
<ele>588.203064</ele>
<time>2014-05-23T07:55:43.000Z</time>
</trkpt>
<trkpt lat="31.7864990" lon="35.0795880">
<ele>589.208862</ele>
<time>2014-05-23T07:55:44.996Z</time>
</trkpt>
<trkpt lat="31.7865620" lon="35.0796960">
<ele>591.190063</ele>
<time>2014-05-23T07:55:47.001Z</time>
</trkpt>
<trkpt lat="31.7866160" lon="35.0797850">
<ele>592.195923</ele>
<time>2014-05-23T07:55:48.996Z</time>
</trkpt>
<trkpt lat="31.7866850" lon="35.0798860">
<ele>592.988403</ele>
<time>2014-05-23T07:55:52.003Z</time>
</trkpt>
<trkpt lat="31.7867560" lon="35.0799830">
<ele>593.811340</ele>
<time>2014-05-23T07:55:55.001Z</time>
</trkpt>
<trkpt lat="31.7868260" lon="35.0800590">
<ele>593.994263</ele>
<time>2014-05-23T07:55:57.999Z</time>
</trkpt>
<trkpt lat="31.7869070" lon="35.0801480">
<ele>594.207581</ele>
<time>2014-05-23T07:56:02.000Z</time>
</trkpt>
<trkpt lat="31.7869920" lon="35.0802250">
<ele>594.207581</ele>
<time>2014-05-23T07:56:06.000Z</time>
</trkpt>
<trkpt lat="31.7870750" lon="35.0803000">
<ele>593.994263</ele>
<time>2014-05-23T07:56:10.000Z</time>
</trkpt>
<trkpt lat="31.7871700" lon="35.0803700">
<ele>593.598022</ele>
<time>2014-05-23T07:56:14.001Z</time>
</trkpt>
<trkpt lat="31.7872460" lon="35.0804420">
<ele>593.598022</ele>
<time>2014-05-23T07:56:16.999Z</time>
</trkpt>
<trkpt lat="31.7873200" lon="35.0805090">
<ele>593.994263</ele>
<time>2014-05-23T07:56:19.997Z</time>
</trkpt>
<trkpt lat="31.7873990" lon="35.0805720">
<ele>594.207581</ele>
<time>2014-05-23T07:56:23.004Z</time>
</trkpt>
<trkpt lat="31.7874770" lon="35.0806450">
<ele>594.786743</ele>
<time>2014-05-23T07:56:26.002Z</time>
</trkpt>
<trkpt lat="31.7875550" lon="35.0807230">
<ele>595.609680</ele>
<time>2014-05-23T07:56:29.000Z</time>
</trkpt>
<trkpt lat="31.7876360" lon="35.0807910">
<ele>595.792542</ele>
<time>2014-05-23T07:56:31.998Z</time>
</trkpt>
<trkpt lat="31.7877190" lon="35.0808580">
<ele>596.188782</ele>
<time>2014-05-23T07:56:34.996Z</time>
</trkpt>
<trkpt lat="31.7878010" lon="35.0809330">
<ele>596.798401</ele>
<time>2014-05-23T07:56:38.003Z</time>
</trkpt>
<trkpt lat="31.7878830" lon="35.0810030">
<ele>597.194641</ele>
<time>2014-05-23T07:56:41.001Z</time>
</trkpt>
<trkpt lat="31.7879660" lon="35.0810690">
<ele>597.408020</ele>
<time>2014-05-23T07:56:43.999Z</time>
</trkpt>
<trkpt lat="31.7880650" lon="35.0811280">
<ele>597.011719</ele>
<time>2014-05-23T07:56:46.997Z</time>
</trkpt>
<trkpt lat="31.7881880" lon="35.0811910">
<ele>596.402161</ele>
<time>2014-05-23T07:56:50.004Z</time>
</trkpt>
<trkpt lat="31.7882740" lon="35.0812410">
<ele>596.585083</ele>
<time>2014-05-23T07:56:51.999Z</time>
</trkpt>
<trkpt lat="31.7883700" lon="35.0812860">
<ele>597.011719</ele>
<time>2014-05-23T07:56:54.004Z</time>
</trkpt>
<trkpt lat="31.7884690" lon="35.0813370">
<ele>597.590881</ele>
<time>2014-05-23T07:56:56.000Z</time>
</trkpt>
<trkpt lat="31.7885630" lon="35.0813980">
<ele>598.596741</ele>
<time>2014-05-23T07:56:58.004Z</time>
</trkpt>
<trkpt lat="31.7886550" lon="35.0814500">
<ele>599.206299</ele>
<time>2014-05-23T07:57:00.000Z</time>
</trkpt>
<trkpt lat="31.7887440" lon="35.0814950">
<ele>599.785461</ele>
<time>2014-05-23T07:57:01.996Z</time>
</trkpt>
<trkpt lat="31.7888300" lon="35.0815380">
<ele>600.212158</ele>
<time>2014-05-23T07:57:04.000Z</time>
</trkpt>
<trkpt lat="31.7889170" lon="35.0815740">
<ele>600.395081</ele>
<time>2014-05-23T07:57:05.996Z</time>
</trkpt>
<trkpt lat="31.7890170" lon="35.0816000">
<ele>600.212158</ele>
<time>2014-05-23T07:57:08.001Z</time>
</trkpt>
<trkpt lat="31.7891290" lon="35.0816130">
<ele>598.596741</ele>
<time>2014-05-23T07:57:09.996Z</time>
</trkpt>
<trkpt lat="31.7892490" lon="35.0816120">
<ele>596.188782</ele>
<time>2014-05-23T07:57:12.001Z</time>
</trkpt>
<trkpt lat="31.7893720" lon="35.0816010">
<ele>593.415100</ele>
<time>2014-05-23T07:57:13.997Z</time>
</trkpt>
<trkpt lat="31.7895000" lon="35.0815880">
<ele>591.403442</ele>
<time>2014-05-23T07:57:16.001Z</time>
</trkpt>
<trkpt lat="31.7896280" lon="35.0815770">
<ele>589.605103</ele>
<time>2014-05-23T07:57:17.997Z</time>
</trkpt>
<trkpt lat="31.7897590" lon="35.0815780">
<ele>587.989685</ele>
<time>2014-05-23T07:57:20.002Z</time>
</trkpt>
<trkpt lat="31.7898880" lon="35.0816100">
<ele>587.197205</ele>
<time>2014-05-23T07:57:21.997Z</time>
</trkpt>
<trkpt lat="31.7900120" lon="35.0816760">
<ele>586.008484</ele>
<time>2014-05-23T07:57:24.002Z</time>
</trkpt>
<trkpt lat="31.7901350" lon="35.0817640">
<ele>585.185547</ele>
<time>2014-05-23T07:57:25.998Z</time>
</trkpt>
<trkpt lat="31.7902620" lon="35.0818640">
<ele>584.789246</ele>
<time>2014-05-23T07:57:28.002Z</time>
</trkpt>
<trkpt lat="31.7903940" lon="35.0819600">
<ele>583.996826</ele>
<time>2014-05-23T07:57:29.998Z</time>
</trkpt>
<trkpt lat="31.7905280" lon="35.0820520">
<ele>583.204346</ele>
<time>2014-05-23T07:57:32.003Z</time>
</trkpt>
<trkpt lat="31.7906620" lon="35.0821490">
<ele>582.198486</ele>
<time>2014-05-23T07:57:33.998Z</time>
</trkpt>
<trkpt lat="31.7907900" lon="35.0822430">
<ele>580.186829</ele>
<time>2014-05-23T07:57:36.003Z</time>
</trkpt>
<trkpt lat="31.7909160" lon="35.0823440">
<ele>577.596008</ele>
<time>2014-05-23T07:57:37.999Z</time>
</trkpt>
<trkpt lat="31.7910270" lon="35.0824710">
<ele>576.193909</ele>
<time>2014-05-23T07:57:40.003Z</time>
</trkpt>
<trkpt lat="31.7911330" lon="35.0826030">
<ele>575.005188</ele>
<time>2014-05-23T07:57:41.999Z</time>
</trkpt>
<trkpt lat="31.7912460" lon="35.0827260">
<ele>573.603149</ele>
<time>2014-05-23T07:57:44.004Z</time>
</trkpt>
<trkpt lat="31.7913600" lon="35.0828490">
<ele>571.804810</ele>
<time>2014-05-23T07:57:45.999Z</time>
</trkpt>
<trkpt lat="31.7914730" lon="35.0829710">
<ele>570.006470</ele>
<time>2014-05-23T07:57:48.004Z</time>
</trkpt>
<trkpt lat="31.7915690" lon="35.0830880">
<ele>568.604370</ele>
<time>2014-05-23T07:57:50.000Z</time>
</trkpt>
<trkpt lat="31.7916540" lon="35.0832010">
<ele>567.994812</ele>
<time>2014-05-23T07:57:52.004Z</time>
</trkpt>
<trkpt lat="31.7917380" lon="35.0832930">
<ele>566.988953</ele>
<time>2014-05-23T07:57:54.000Z</time>
</trkpt>
<trkpt lat="31.7918360" lon="35.0834010">
<ele>566.013611</ele>
<time>2014-05-23T07:57:55.996Z</time>
</trkpt>
<trkpt lat="31.7919510" lon="35.0835290">
<ele>564.794373</ele>
<time>2014-05-23T07:57:58.000Z</time>
</trkpt>
<trkpt lat="31.7920750" lon="35.0836590">
<ele>563.392334</ele>
<time>2014-05-23T07:57:59.996Z</time>
</trkpt>
<trkpt lat="31.7922050" lon="35.0837880">
<ele>561.807373</ele>
<time>2014-05-23T07:58:02.001Z</time>
</trkpt>
<trkpt lat="31.7923380" lon="35.0839140">
<ele>560.191956</ele>
<time>2014-05-23T07:58:03.996Z</time>
</trkpt>
<trkpt lat="31.7924640" lon="35.0840380">
<ele>558.789856</ele>
<time>2014-05-23T07:58:06.001Z</time>
</trkpt>
<trkpt lat="31.7925810" lon="35.0841480">
<ele>557.387756</ele>
<time>2014-05-23T07:58:07.997Z</time>
</trkpt>
<trkpt lat="31.7926920" lon="35.0842430">
<ele>555.985657</ele>
<time>2014-05-23T07:58:10.001Z</time>
</trkpt>
<trkpt lat="31.7928060" lon="35.0843390">
<ele>554.614075</ele>
<time>2014-05-23T07:58:11.997Z</time>
</trkpt>
<trkpt lat="31.7929230" lon="35.0844460">
<ele>553.211975</ele>
<time>2014-05-23T07:58:14.002Z</time>
</trkpt>
<trkpt lat="31.7930400" lon="35.0845600">
<ele>551.809937</ele>
<time>2014-05-23T07:58:15.997Z</time>
</trkpt>
<trkpt lat="31.7931400" lon="35.0846760">
<ele>549.798279</ele>
<time>2014-05-23T07:58:18.002Z</time>
</trkpt>
<trkpt lat="31.7932170" lon="35.0848120">
<ele>547.999939</ele>
<time>2014-05-23T07:58:19.998Z</time>
</trkpt>
<trkpt lat="31.7932710" lon="35.0849690">
<ele>546.597839</ele>
<time>2014-05-23T07:58:22.002Z</time>
</trkpt>
<trkpt lat="31.7933190" lon="35.0851390">
<ele>545.409119</ele>
<time>2014-05-23T07:58:23.998Z</time>
</trkpt>
<trkpt lat="31.7933550" lon="35.0853250">
<ele>544.403259</ele>
<time>2014-05-23T07:58:26.003Z</time>
</trkpt>
<trkpt lat="31.7933890" lon="35.0855230">
<ele>543.610779</ele>
<time>2014-05-23T07:58:27.998Z</time>
</trkpt>
<trkpt lat="31.7934250" lon="35.0857230">
<ele>542.787842</ele>
<time>2014-05-23T07:58:30.003Z</time>
</trkpt>
<trkpt lat="31.7934600" lon="35.0859140">
<ele>542.208740</ele>
<time>2014-05-23T07:58:31.999Z</time>
</trkpt>
<trkpt lat="31.7934960" lon="35.0860980">
<ele>541.385742</ele>
<time>2014-05-23T07:58:34.003Z</time>
</trkpt>
<trkpt lat="31.7935260" lon="35.0862760">
<ele>540.806641</ele>
<time>2014-05-23T07:58:35.999Z</time>
</trkpt>
<trkpt lat="31.7935560" lon="35.0864420">
<ele>540.197083</ele>
<time>2014-05-23T07:58:38.004Z</time>
</trkpt>
<trkpt lat="31.7935790" lon="35.0866130">
<ele>539.800781</ele>
<time>2014-05-23T07:58:39.999Z</time>
</trkpt>
<trkpt lat="31.7935950" lon="35.0867850">
<ele>539.191223</ele>
<time>2014-05-23T07:58:42.004Z</time>
</trkpt>
<trkpt lat="31.7936110" lon="35.0869590">
<ele>538.612061</ele>
<time>2014-05-23T07:58:44.000Z</time>
</trkpt>
<trkpt lat="31.7936280" lon="35.0871350">
<ele>538.002502</ele>
<time>2014-05-23T07:58:46.004Z</time>
</trkpt>
<trkpt lat="31.7936420" lon="35.0873110">
<ele>537.606262</ele>
<time>2014-05-23T07:58:48.000Z</time>
</trkpt>
<trkpt lat="31.7936550" lon="35.0874870">
<ele>536.996643</ele>
<time>2014-05-23T07:58:49.996Z</time>
</trkpt>
<trkpt lat="31.7936650" lon="35.0876480">
<ele>536.387085</ele>
<time>2014-05-23T07:58:52.000Z</time>
</trkpt>
<trkpt lat="31.7936780" lon="35.0878000">
<ele>535.807922</ele>
<time>2014-05-23T07:58:53.996Z</time>
</trkpt>
<trkpt lat="31.7936750" lon="35.0879540">
<ele>535.594543</ele>
<time>2014-05-23T07:58:56.001Z</time>
</trkpt>
<trkpt lat="31.7936720" lon="35.0880980">
<ele>535.990784</ele>
<time>2014-05-23T07:58:57.996Z</time>
</trkpt>
<trkpt lat="31.7936810" lon="35.0882120">
<ele>535.990784</ele>
<time>2014-05-23T07:59:00.001Z</time>
</trkpt>
<trkpt lat="31.7937320" lon="35.0883260">
<ele>535.198303</ele>
<time>2014-05-23T07:59:02.999Z</time>
</trkpt>
<trkpt lat="31.7938390" lon="35.0883190">
<ele>532.790405</ele>
<time>2014-05-23T07:59:06.999Z</time>
</trkpt>
<trkpt lat="31.7939160" lon="35.0882080">
<ele>530.809204</ele>
<time>2014-05-23T07:59:09.997Z</time>
</trkpt>
<trkpt lat="31.7939490" lon="35.0880940">
<ele>529.590027</ele>
<time>2014-05-23T07:59:12.002Z</time>
</trkpt>
<trkpt lat="31.7939810" lon="35.0879700">
<ele>528.614685</ele>
<time>2014-05-23T07:59:13.998Z</time>
</trkpt>
<trkpt lat="31.7940090" lon="35.0878270">
<ele>528.005066</ele>
<time>2014-05-23T07:59:16.002Z</time>
</trkpt>
<trkpt lat="31.7940330" lon="35.0876780">
<ele>527.608826</ele>
<time>2014-05-23T07:59:17.998Z</time>
</trkpt>
<trkpt lat="31.7940560" lon="35.0875200">
<ele>527.608826</ele>
<time>2014-05-23T07:59:20.003Z</time>
</trkpt>
<trkpt lat="31.7940830" lon="35.0873560">
<ele>528.005066</ele>
<time>2014-05-23T07:59:21.998Z</time>
</trkpt>
<trkpt lat="31.7941160" lon="35.0871960">
<ele>528.401245</ele>
<time>2014-05-23T07:59:24.003Z</time>
</trkpt>
<trkpt lat="31.7941560" lon="35.0870300">
<ele>528.614685</ele>
<time>2014-05-23T07:59:25.999Z</time>
</trkpt>
<trkpt lat="31.7941990" lon="35.0868780">
<ele>528.614685</ele>
<time>2014-05-23T07:59:28.003Z</time>
</trkpt>
<trkpt lat="31.7942420" lon="35.0867270">
<ele>528.797546</ele>
<time>2014-05-23T07:59:29.999Z</time>
</trkpt>
<trkpt lat="31.7942870" lon="35.0865830">
<ele>528.797546</ele>
<time>2014-05-23T07:59:32.004Z</time>
</trkpt>
<trkpt lat="31.7943320" lon="35.0864530">
<ele>528.797546</ele>
<time>2014-05-23T07:59:33.999Z</time>
</trkpt>
<trkpt lat="31.7943830" lon="35.0863370">
<ele>528.797546</ele>
<time>2014-05-23T07:59:36.004Z</time>
</trkpt>
<trkpt lat="31.7944510" lon="35.0862240">
<ele>529.010864</ele>
<time>2014-05-23T07:59:38.000Z</time>
</trkpt>
<trkpt lat="31.7945330" lon="35.0861150">
<ele>529.407104</ele>
<time>2014-05-23T07:59:40.004Z</time>
</trkpt>
<trkpt lat="31.7946210" lon="35.0860420">
<ele>529.803345</ele>
<time>2014-05-23T07:59:42.000Z</time>
</trkpt>
<trkpt lat="31.7947160" lon="35.0859980">
<ele>529.803345</ele>
<time>2014-05-23T07:59:43.996Z</time>
</trkpt>
<trkpt lat="31.7948180" lon="35.0859700">
<ele>529.590027</ele>
<time>2014-05-23T07:59:46.000Z</time>
</trkpt>
<trkpt lat="31.7949140" lon="35.0858920">
<ele>529.803345</ele>
<time>2014-05-23T07:59:48.998Z</time>
</trkpt>
<trkpt lat="31.7949520" lon="35.0857840">
<ele>530.199585</ele>
<time>2014-05-23T08:01:26.000Z</time>
</trkpt>
<trkpt lat="31.7950040" lon="35.0856900">
<ele>530.809204</ele>
<time>2014-05-23T08:01:31.002Z</time>
</trkpt>
<trkpt lat="31.7950430" lon="35.0855850">
<ele>530.992065</ele>
<time>2014-05-23T08:01:35.003Z</time>
</trkpt>
<trkpt lat="31.7950750" lon="35.0854850">
<ele>530.595825</ele>
<time>2014-05-23T08:01:38.001Z</time>
</trkpt>
<trkpt lat="31.7951150" lon="35.0853710">
<ele>530.412964</ele>
<time>2014-05-23T08:01:40.999Z</time>
</trkpt>
<trkpt lat="31.7951590" lon="35.0852390">
<ele>530.199585</ele>
<time>2014-05-23T08:01:43.997Z</time>
</trkpt>
<trkpt lat="31.7952100" lon="35.0851160">
<ele>530.199585</ele>
<time>2014-05-23T08:01:47.004Z</time>
</trkpt>
<trkpt lat="31.7952660" lon="35.0850120">
<ele>530.412964</ele>
<time>2014-05-23T08:01:50.002Z</time>
</trkpt>
<trkpt lat="31.7953260" lon="35.0849290">
<ele>530.809204</ele>
<time>2014-05-23T08:01:53.000Z</time>
</trkpt>
<trkpt lat="31.7953790" lon="35.0848350">
<ele>530.809204</ele>
<time>2014-05-23T08:01:55.998Z</time>
</trkpt>
<trkpt lat="31.7954410" lon="35.0847410">
<ele>530.992065</ele>
<time>2014-05-23T08:01:58.996Z</time>
</trkpt>
<trkpt lat="31.7955120" lon="35.0846650">
<ele>531.388306</ele>
<time>2014-05-23T08:02:02.003Z</time>
</trkpt>
<trkpt lat="31.7955760" lon="35.0845800">
<ele>531.815063</ele>
<time>2014-05-23T08:02:06.003Z</time>
</trkpt>
<trkpt lat="31.7956480" lon="35.0844850">
<ele>532.211243</ele>
<time>2014-05-23T08:02:10.003Z</time>
</trkpt>
<trkpt lat="31.7957360" lon="35.0844040">
<ele>532.211243</ele>
<time>2014-05-23T08:02:14.004Z</time>
</trkpt>
<trkpt lat="31.7958100" lon="35.0843090">
<ele>532.607544</ele>
<time>2014-05-23T08:02:18.004Z</time>
</trkpt>
<trkpt lat="31.7958880" lon="35.0842030">
<ele>533.003723</ele>
<time>2014-05-23T08:02:22.004Z</time>
</trkpt>
<trkpt lat="31.7959440" lon="35.0841150">
<ele>533.186646</ele>
<time>2014-05-23T08:02:25.002Z</time>
</trkpt>
<trkpt lat="31.7959900" lon="35.0840080">
<ele>533.003723</ele>
<time>2014-05-23T08:02:28.000Z</time>
</trkpt>
<trkpt lat="31.7960100" lon="35.0838870">
<ele>532.211243</ele>
<time>2014-05-23T08:02:30.998Z</time>
</trkpt>
<trkpt lat="31.7960250" lon="35.0837670">
<ele>531.388306</ele>
<time>2014-05-23T08:02:34.999Z</time>
</trkpt>
<trkpt lat="31.7960450" lon="35.0836560">
<ele>531.601685</ele>
<time>2014-05-23T08:02:40.001Z</time>
</trkpt>
<trkpt lat="31.7960680" lon="35.0835350">
<ele>531.997925</ele>
<time>2014-05-23T08:02:45.997Z</time>
</trkpt>
<trkpt lat="31.7960900" lon="35.0834180">
<ele>532.211243</ele>
<time>2014-05-23T08:02:51.000Z</time>
</trkpt>
<trkpt lat="31.7961120" lon="35.0832970">
<ele>532.607544</ele>
<time>2014-05-23T08:02:56.996Z</time>
</trkpt>
<trkpt lat="31.7961180" lon="35.0831850">
<ele>532.607544</ele>
<time>2014-05-23T08:03:01.999Z</time>
</trkpt>
<trkpt lat="31.7961120" lon="35.0830670">
<ele>532.607544</ele>
<time>2014-05-23T08:03:07.001Z</time>
</trkpt>
<trkpt lat="31.7961170" lon="35.0829570">
<ele>532.607544</ele>
<time>2014-05-23T08:03:12.004Z</time>
</trkpt>
<trkpt lat="31.7961170" lon="35.0828410">
<ele>532.790405</ele>
<time>2014-05-23T08:03:16.998Z</time>
</trkpt>
<trkpt lat="31.7961190" lon="35.0827340">
<ele>533.186646</ele>
<time>2014-05-23T08:03:22.000Z</time>
</trkpt>
<trkpt lat="31.7961210" lon="35.0826170">
<ele>533.400024</ele>
<time>2014-05-23T08:03:26.001Z</time>
</trkpt>
<trkpt lat="31.7961160" lon="35.0824830">
<ele>533.796265</ele>
<time>2014-05-23T08:03:31.003Z</time>
</trkpt>
<trkpt lat="31.7961050" lon="35.0823730">
<ele>534.405884</ele>
<time>2014-05-23T08:03:35.004Z</time>
</trkpt>
<trkpt lat="31.7961070" lon="35.0822360">
<ele>535.594543</ele>
<time>2014-05-23T08:03:39.997Z</time>
</trkpt>
<trkpt lat="31.7961190" lon="35.0821050">
<ele>536.996643</ele>
<time>2014-05-23T08:03:45.000Z</time>
</trkpt>
<trkpt lat="31.7961410" lon="35.0819770">
<ele>537.606262</ele>
<time>2014-05-23T08:03:50.003Z</time>
</trkpt>
<trkpt lat="31.7961710" lon="35.0818700">
<ele>538.185364</ele>
<time>2014-05-23T08:03:54.003Z</time>
</trkpt>
<trkpt lat="31.7961930" lon="35.0817650">
<ele>538.794922</ele>
<time>2014-05-23T08:03:58.003Z</time>
</trkpt>
<trkpt lat="31.7962260" lon="35.0816510">
<ele>540.014160</ele>
<time>2014-05-23T08:04:02.997Z</time>
</trkpt>
<trkpt lat="31.7962570" lon="35.0815380">
<ele>541.202881</ele>
<time>2014-05-23T08:04:09.002Z</time>
</trkpt>
<trkpt lat="31.7962830" lon="35.0814250">
<ele>542.391602</ele>
<time>2014-05-23T08:04:13.996Z</time>
</trkpt>
<trkpt lat="31.7963080" lon="35.0813050">
<ele>543.397461</ele>
<time>2014-05-23T08:04:18.998Z</time>
</trkpt>
<trkpt lat="31.7963430" lon="35.0811840">
<ele>544.799500</ele>
<time>2014-05-23T08:04:24.001Z</time>
</trkpt>
<trkpt lat="31.7963870" lon="35.0810780">
<ele>546.414917</ele>
<time>2014-05-23T08:04:28.001Z</time>
</trkpt>
<trkpt lat="31.7964380" lon="35.0809820">
<ele>547.603699</ele>
<time>2014-05-23T08:04:32.002Z</time>
</trkpt>
<trkpt lat="31.7965070" lon="35.0808780">
<ele>549.005737</ele>
<time>2014-05-23T08:04:37.004Z</time>
</trkpt>
<trkpt lat="31.7965640" lon="35.0807850">
<ele>550.194458</ele>
<time>2014-05-23T08:04:41.998Z</time>
</trkpt>
<trkpt lat="31.7966030" lon="35.0806860">
<ele>551.200317</ele>
<time>2014-05-23T08:04:47.001Z</time>
</trkpt>
<trkpt lat="31.7966260" lon="35.0805780">
<ele>551.596558</ele>
<time>2014-05-23T08:04:51.001Z</time>
</trkpt>
<trkpt lat="31.7966160" lon="35.0804550">
<ele>550.986938</ele>
<time>2014-05-23T08:04:56.004Z</time>
</trkpt>
<trkpt lat="31.7965920" lon="35.0803410">
<ele>550.590698</ele>
<time>2014-05-23T08:05:02.000Z</time>
</trkpt>
<trkpt lat="31.7965740" lon="35.0802480">
<ele>550.590698</ele>
<time>2014-05-23T08:05:08.998Z</time>
</trkpt>
<trkpt lat="31.7965720" lon="35.0801210">
<ele>551.200317</ele>
<time>2014-05-23T08:05:16.999Z</time>
</trkpt>
<trkpt lat="31.7965890" lon="35.0800050">
<ele>552.206116</ele>
<time>2014-05-23T08:05:24.999Z</time>
</trkpt>
<trkpt lat="31.7965970" lon="35.0798900">
<ele>552.998657</ele>
<time>2014-05-23T08:05:34.002Z</time>
</trkpt>
<trkpt lat="31.7966010" lon="35.0797630">
<ele>553.791138</ele>
<time>2014-05-23T08:05:41.001Z</time>
</trkpt>
<trkpt lat="31.7966040" lon="35.0796360">
<ele>554.400757</ele>
<time>2014-05-23T08:05:50.004Z</time>
</trkpt>
<trkpt lat="31.7965950" lon="35.0795190">
<ele>554.796936</ele>
<time>2014-05-23T08:05:58.998Z</time>
</trkpt>
<trkpt lat="31.7965710" lon="35.0794180">
<ele>555.010315</ele>
<time>2014-05-23T08:06:06.998Z</time>
</trkpt>
<trkpt lat="31.7965620" lon="35.0792950">
<ele>555.802795</ele>
<time>2014-05-23T08:06:13.997Z</time>
</trkpt>
<trkpt lat="31.7965290" lon="35.0791920">
<ele>555.985657</ele>
<time>2014-05-23T08:06:20.002Z</time>
</trkpt>
<trkpt lat="31.7965110" lon="35.0790830">
<ele>556.595276</ele>
<time>2014-05-23T08:06:27.000Z</time>
</trkpt>
<trkpt lat="31.7964900" lon="35.0789680">
<ele>556.991516</ele>
<time>2014-05-23T08:06:32.996Z</time>
</trkpt>
<trkpt lat="31.7964790" lon="35.0788480">
<ele>557.814453</ele>
<time>2014-05-23T08:06:40.003Z</time>
</trkpt>
<trkpt lat="31.7964390" lon="35.0787450">
<ele>558.210754</ele>
<time>2014-05-23T08:06:44.997Z</time>
</trkpt>
<trkpt lat="31.7963830" lon="35.0786590">
<ele>558.789856</ele>
<time>2014-05-23T08:06:48.997Z</time>
</trkpt>
<trkpt lat="31.7963000" lon="35.0785740">
<ele>558.789856</ele>
<time>2014-05-23T08:06:55.002Z</time>
</trkpt>
<trkpt lat="31.7962100" lon="35.0785160">
<ele>558.210754</ele>
<time>2014-05-23T08:07:00.998Z</time>
</trkpt>
<trkpt lat="31.7961160" lon="35.0784430">
<ele>557.601135</ele>
<time>2014-05-23T08:07:07.003Z</time>
</trkpt>
<trkpt lat="31.7960380" lon="35.0783810">
<ele>557.387756</ele>
<time>2014-05-23T08:07:11.997Z</time>
</trkpt>
<trkpt lat="31.7959430" lon="35.0783120">
<ele>556.808655</ele>
<time>2014-05-23T08:07:17.000Z</time>
</trkpt>
<trkpt lat="31.7958650" lon="35.0782570">
<ele>556.412415</ele>
<time>2014-05-23T08:07:21.000Z</time>
</trkpt>
<trkpt lat="31.7957760" lon="35.0781950">
<ele>555.802795</ele>
<time>2014-05-23T08:07:26.003Z</time>
</trkpt>
<trkpt lat="31.7956870" lon="35.0781630">
<ele>555.010315</ele>
<time>2014-05-23T08:07:30.996Z</time>
</trkpt>
<trkpt lat="31.7955930" lon="35.0781350">
<ele>555.010315</ele>
<time>2014-05-23T08:07:34.997Z</time>
</trkpt>
<trkpt lat="31.7954880" lon="35.0781030">
<ele>554.796936</ele>
<time>2014-05-23T08:07:38.997Z</time>
</trkpt>
<trkpt lat="31.7953860" lon="35.0780710">
<ele>554.796936</ele>
<time>2014-05-23T08:07:44.000Z</time>
</trkpt>
<trkpt lat="31.7952920" lon="35.0780120">
<ele>555.193176</ele>
<time>2014-05-23T08:07:49.002Z</time>
</trkpt>
<trkpt lat="31.7952020" lon="35.0779800">
<ele>555.193176</ele>
<time>2014-05-23T08:07:53.996Z</time>
</trkpt>
<trkpt lat="31.7950970" lon="35.0779570">
<ele>555.010315</ele>
<time>2014-05-23T08:07:58.999Z</time>
</trkpt>
<trkpt lat="31.7950000" lon="35.0779410">
<ele>554.614075</ele>
<time>2014-05-23T08:08:04.001Z</time>
</trkpt>
<trkpt lat="31.7948890" lon="35.0779230">
<ele>554.187317</ele>
<time>2014-05-23T08:08:09.997Z</time>
</trkpt>
<trkpt lat="31.7947930" lon="35.0779110">
<ele>554.187317</ele>
<time>2014-05-23T08:08:13.004Z</time>
</trkpt>
<trkpt lat="31.7946720" lon="35.0778950">
<ele>554.614075</ele>
<time>2014-05-23T08:08:16.002Z</time>
</trkpt>
<trkpt lat="31.7945550" lon="35.0778770">
<ele>554.796936</ele>
<time>2014-05-23T08:08:19.000Z</time>
</trkpt>
<trkpt lat="31.7944440" lon="35.0778340">
<ele>555.406555</ele>
<time>2014-05-23T08:08:23.001Z</time>
</trkpt>
<trkpt lat="31.7943210" lon="35.0778020">
<ele>555.985657</ele>
<time>2014-05-23T08:08:27.001Z</time>
</trkpt>
<trkpt lat="31.7942190" lon="35.0777870">
<ele>556.199036</ele>
<time>2014-05-23T08:08:29.999Z</time>
</trkpt>
<trkpt lat="31.7941160" lon="35.0777670">
<ele>556.595276</ele>
<time>2014-05-23T08:08:32.997Z</time>
</trkpt>
<trkpt lat="31.7940250" lon="35.0777250">
<ele>557.204895</ele>
<time>2014-05-23T08:08:36.004Z</time>
</trkpt>
<trkpt lat="31.7939110" lon="35.0777270">
<ele>556.808655</ele>
<time>2014-05-23T08:08:40.004Z</time>
</trkpt>
<trkpt lat="31.7938160" lon="35.0777140">
<ele>556.808655</ele>
<time>2014-05-23T08:08:43.002Z</time>
</trkpt>
<trkpt lat="31.7936970" lon="35.0777100">
<ele>556.808655</ele>
<time>2014-05-23T08:08:46.000Z</time>
</trkpt>
<trkpt lat="31.7936030" lon="35.0777140">
<ele>556.595276</ele>
<time>2014-05-23T08:08:47.996Z</time>
</trkpt>
<trkpt lat="31.7935140" lon="35.0777100">
<ele>556.595276</ele>
<time>2014-05-23T08:08:50.001Z</time>
</trkpt>
<trkpt lat="31.7933830" lon="35.0776770">
<ele>556.808655</ele>
<time>2014-05-23T08:08:52.999Z</time>
</trkpt>
<trkpt lat="31.7932620" lon="35.0776160">
<ele>557.601135</ele>
<time>2014-05-23T08:08:55.997Z</time>
</trkpt>
<trkpt lat="31.7931540" lon="35.0775410">
<ele>557.814453</ele>
<time>2014-05-23T08:08:59.004Z</time>
</trkpt>
<trkpt lat="31.7930540" lon="35.0774580">
<ele>557.601135</ele>
<time>2014-05-23T08:09:02.002Z</time>
</trkpt>
<trkpt lat="31.7929680" lon="35.0773800">
<ele>557.601135</ele>
<time>2014-05-23T08:09:05.000Z</time>
</trkpt>
<trkpt lat="31.7928680" lon="35.0772960">
<ele>557.601135</ele>
<time>2014-05-23T08:09:07.998Z</time>
</trkpt>
<trkpt lat="31.7928080" lon="35.0772110">
<ele>557.997375</ele>
<time>2014-05-23T08:09:10.002Z</time>
</trkpt>
<trkpt lat="31.7927500" lon="35.0770880">
<ele>558.789856</ele>
<time>2014-05-23T08:09:11.998Z</time>
</trkpt>
<trkpt lat="31.7927100" lon="35.0769400">
<ele>557.204895</ele>
<time>2014-05-23T08:09:14.003Z</time>
</trkpt>
<trkpt lat="31.7926830" lon="35.0767910">
<ele>555.802795</ele>
<time>2014-05-23T08:09:15.998Z</time>
</trkpt>
<trkpt lat="31.7926730" lon="35.0766440">
<ele>554.614075</ele>
<time>2014-05-23T08:09:18.003Z</time>
</trkpt>
<trkpt lat="31.7926970" lon="35.0764980">
<ele>555.193176</ele>
<time>2014-05-23T08:09:19.999Z</time>
</trkpt>
<trkpt lat="31.7927490" lon="35.0763520">
<ele>558.393616</ele>
<time>2014-05-23T08:09:22.003Z</time>
</trkpt>
<trkpt lat="31.7927980" lon="35.0762060">
<ele>560.191956</ele>
<time>2014-05-23T08:09:23.999Z</time>
</trkpt>
<trkpt lat="31.7928540" lon="35.0760590">
<ele>559.795654</ele>
<time>2014-05-23T08:09:26.004Z</time>
</trkpt>
<trkpt lat="31.7929190" lon="35.0758980">
<ele>560.191956</ele>
<time>2014-05-23T08:09:27.999Z</time>
</trkpt>
<trkpt lat="31.7929820" lon="35.0757250">
<ele>561.990234</ele>
<time>2014-05-23T08:09:30.004Z</time>
</trkpt>
<trkpt lat="31.7930450" lon="35.0755580">
<ele>563.605652</ele>
<time>2014-05-23T08:09:32.000Z</time>
</trkpt>
<trkpt lat="31.7931200" lon="35.0753980">
<ele>565.800232</ele>
<time>2014-05-23T08:09:34.004Z</time>
</trkpt>
<trkpt lat="31.7931610" lon="35.0752410">
<ele>566.806091</ele>
<time>2014-05-23T08:09:36.000Z</time>
</trkpt>
<trkpt lat="31.7931670" lon="35.0750980">
<ele>566.409851</ele>
<time>2014-05-23T08:09:37.996Z</time>
</trkpt>
<trkpt lat="31.7931220" lon="35.0749780">
<ele>563.788574</ele>
<time>2014-05-23T08:09:40.000Z</time>
</trkpt>
<trkpt lat="31.7930400" lon="35.0748890">
<ele>559.612793</ele>
<time>2014-05-23T08:09:41.996Z</time>
</trkpt>
<trkpt lat="31.7929450" lon="35.0747850">
<ele>554.796936</ele>
<time>2014-05-23T08:09:44.001Z</time>
</trkpt>
<trkpt lat="31.7928560" lon="35.0746520">
<ele>550.011597</ele>
<time>2014-05-23T08:09:45.996Z</time>
</trkpt>
<trkpt lat="31.7927730" lon="35.0745230">
<ele>546.994080</ele>
<time>2014-05-23T08:09:48.001Z</time>
</trkpt>
<trkpt lat="31.7927100" lon="35.0743990">
<ele>545.988281</ele>
<time>2014-05-23T08:09:49.997Z</time>
</trkpt>
<trkpt lat="31.7926410" lon="35.0742850">
<ele>544.586121</ele>
<time>2014-05-23T08:09:52.001Z</time>
</trkpt>
<trkpt lat="31.7925710" lon="35.0741700">
<ele>543.214539</ele>
<time>2014-05-23T08:09:53.997Z</time>
</trkpt>
<trkpt lat="31.7924920" lon="35.0740430">
<ele>541.599121</ele>
<time>2014-05-23T08:09:56.002Z</time>
</trkpt>
<trkpt lat="31.7923950" lon="35.0739190">
<ele>539.008301</ele>
<time>2014-05-23T08:09:57.997Z</time>
</trkpt>
<trkpt lat="31.7922870" lon="35.0738030">
<ele>535.807922</ele>
<time>2014-05-23T08:10:00.002Z</time>
</trkpt>
<trkpt lat="31.7921790" lon="35.0736870">
<ele>534.009583</ele>
<time>2014-05-23T08:10:01.998Z</time>
</trkpt>
<trkpt lat="31.7920680" lon="35.0735800">
<ele>532.790405</ele>
<time>2014-05-23T08:10:04.002Z</time>
</trkpt>
<trkpt lat="31.7919480" lon="35.0735040">
<ele>529.803345</ele>
<time>2014-05-23T08:10:05.998Z</time>
</trkpt>
<trkpt lat="31.7918390" lon="35.0734180">
<ele>527.791687</ele>
<time>2014-05-23T08:10:08.003Z</time>
</trkpt>
<trkpt lat="31.7917500" lon="35.0733180">
<ele>527.212524</ele>
<time>2014-05-23T08:10:09.998Z</time>
</trkpt>
<trkpt lat="31.7916680" lon="35.0732260">
<ele>526.602966</ele>
<time>2014-05-23T08:10:12.003Z</time>
</trkpt>
<trkpt lat="31.7915950" lon="35.0731410">
<ele>526.389587</ele>
<time>2014-05-23T08:10:13.999Z</time>
</trkpt>
<trkpt lat="31.7915290" lon="35.0730580">
<ele>526.389587</ele>
<time>2014-05-23T08:10:16.003Z</time>
</trkpt>
<trkpt lat="31.7914730" lon="35.0729750">
<ele>527.395447</ele>
<time>2014-05-23T08:10:17.999Z</time>
</trkpt>
<trkpt lat="31.7914050" lon="35.0728420">
<ele>529.193726</ele>
<time>2014-05-23T08:10:20.997Z</time>
</trkpt>
<trkpt lat="31.7913420" lon="35.0727340">
<ele>530.199585</ele>
<time>2014-05-23T08:10:24.004Z</time>
</trkpt>
<trkpt lat="31.7912920" lon="35.0726480">
<ele>530.992065</ele>
<time>2014-05-23T08:10:27.002Z</time>
</trkpt>
<trkpt lat="31.7912330" lon="35.0725370">
<ele>531.997925</ele>
<time>2014-05-23T08:10:31.002Z</time>
</trkpt>
<trkpt lat="31.7911800" lon="35.0724340">
<ele>533.186646</ele>
<time>2014-05-23T08:10:35.003Z</time>
</trkpt>
<trkpt lat="31.7911350" lon="35.0723320">
<ele>534.802063</ele>
<time>2014-05-23T08:10:39.003Z</time>
</trkpt>
<trkpt lat="31.7910670" lon="35.0722310">
<ele>535.198303</ele>
<time>2014-05-23T08:10:43.997Z</time>
</trkpt>
<trkpt lat="31.7910020" lon="35.0721330">
<ele>535.807922</ele>
<time>2014-05-23T08:10:48.999Z</time>
</trkpt>
<trkpt lat="31.7909360" lon="35.0720330">
<ele>536.387085</ele>
<time>2014-05-23T08:10:53.000Z</time>
</trkpt>
<trkpt lat="31.7908760" lon="35.0719340">
<ele>536.813721</ele>
<time>2014-05-23T08:10:57.000Z</time>
</trkpt>
<trkpt lat="31.7908170" lon="35.0718420">
<ele>537.210022</ele>
<time>2014-05-23T08:11:01.000Z</time>
</trkpt>
<trkpt lat="31.7907640" lon="35.0717480">
<ele>537.789124</ele>
<time>2014-05-23T08:11:05.001Z</time>
</trkpt>
<trkpt lat="31.7906980" lon="35.0716640">
<ele>537.606262</ele>
<time>2014-05-23T08:11:09.001Z</time>
</trkpt>
<trkpt lat="31.7906230" lon="35.0715710">
<ele>537.210022</ele>
<time>2014-05-23T08:11:13.001Z</time>
</trkpt>
<trkpt lat="31.7905770" lon="35.0714620">
<ele>538.398743</ele>
<time>2014-05-23T08:11:18.004Z</time>
</trkpt>
<trkpt lat="31.7905330" lon="35.0713640">
<ele>539.404541</ele>
<time>2014-05-23T08:11:22.998Z</time>
</trkpt>
<trkpt lat="31.7905000" lon="35.0712610">
<ele>540.989502</ele>
<time>2014-05-23T08:11:28.000Z</time>
</trkpt>
<trkpt lat="31.7904880" lon="35.0711390">
<ele>540.989502</ele>
<time>2014-05-23T08:11:33.996Z</time>
</trkpt>
<trkpt lat="31.7904930" lon="35.0710110">
<ele>542.208740</ele>
<time>2014-05-23T08:11:38.999Z</time>
</trkpt>
<trkpt lat="31.7905260" lon="35.0708910">
<ele>545.591980</ele>
<time>2014-05-23T08:11:44.002Z</time>
</trkpt>
<trkpt lat="31.7905410" lon="35.0707780">
<ele>547.999939</ele>
<time>2014-05-23T08:11:48.002Z</time>
</trkpt>
<trkpt lat="31.7905580" lon="35.0706440">
<ele>550.804077</ele>
<time>2014-05-23T08:11:52.996Z</time>
</trkpt>
<trkpt lat="31.7905660" lon="35.0705140">
<ele>552.998657</ele>
<time>2014-05-23T08:11:57.998Z</time>
</trkpt>
<trkpt lat="31.7905770" lon="35.0704030">
<ele>555.193176</ele>
<time>2014-05-23T08:12:01.999Z</time>
</trkpt>
<trkpt lat="31.7905710" lon="35.0702870">
<ele>556.412415</ele>
<time>2014-05-23T08:12:05.999Z</time>
</trkpt>
<trkpt lat="31.7905510" lon="35.0701520">
<ele>556.808655</ele>
<time>2014-05-23T08:12:09.999Z</time>
</trkpt>
<trkpt lat="31.7905290" lon="35.0700340">
<ele>557.204895</ele>
<time>2014-05-23T08:12:14.000Z</time>
</trkpt>
<trkpt lat="31.7904960" lon="35.0699280">
<ele>556.595276</ele>
<time>2014-05-23T08:12:18.000Z</time>
</trkpt>
<trkpt lat="31.7904550" lon="35.0698240">
<ele>555.802795</ele>
<time>2014-05-23T08:12:22.000Z</time>
</trkpt>
<trkpt lat="31.7904130" lon="35.0697030">
<ele>555.010315</ele>
<time>2014-05-23T08:12:27.003Z</time>
</trkpt>
<trkpt lat="31.7903600" lon="35.0696060">
<ele>553.394897</ele>
<time>2014-05-23T08:12:31.003Z</time>
</trkpt>
<trkpt lat="31.7903000" lon="35.0695010">
<ele>553.394897</ele>
<time>2014-05-23T08:12:35.004Z</time>
</trkpt>
<trkpt lat="31.7902220" lon="35.0694020">
<ele>552.602417</ele>
<time>2014-05-23T08:12:39.004Z</time>
</trkpt>
<trkpt lat="31.7901470" lon="35.0693060">
<ele>551.809937</ele>
<time>2014-05-23T08:12:43.004Z</time>
</trkpt>
<trkpt lat="31.7900700" lon="35.0692260">
<ele>550.407837</ele>
<time>2014-05-23T08:12:46.996Z</time>
</trkpt>
<trkpt lat="31.7899930" lon="35.0691400">
<ele>549.188660</ele>
<time>2014-05-23T08:12:50.996Z</time>
</trkpt>
<trkpt lat="31.7899000" lon="35.0690630">
<ele>546.811218</ele>
<time>2014-05-23T08:12:54.996Z</time>
</trkpt>
<trkpt lat="31.7898250" lon="35.0689950">
<ele>546.201599</ele>
<time>2014-05-23T08:12:58.997Z</time>
</trkpt>
<trkpt lat="31.7897580" lon="35.0689160">
<ele>546.201599</ele>
<time>2014-05-23T08:13:02.997Z</time>
</trkpt>
<trkpt lat="31.7896770" lon="35.0688430">
<ele>545.591980</ele>
<time>2014-05-23T08:13:06.997Z</time>
</trkpt>
<trkpt lat="31.7896030" lon="35.0687740">
<ele>545.195740</ele>
<time>2014-05-23T08:13:10.998Z</time>
</trkpt>
<trkpt lat="31.7895270" lon="35.0686870">
<ele>545.805359</ele>
<time>2014-05-23T08:13:16.000Z</time>
</trkpt>
<trkpt lat="31.7894620" lon="35.0686080">
<ele>546.201599</ele>
<time>2014-05-23T08:13:20.001Z</time>
</trkpt>
<trkpt lat="31.7893940" lon="35.0685100">
<ele>547.390320</ele>
<time>2014-05-23T08:13:24.001Z</time>
</trkpt>
<trkpt lat="31.7893220" lon="35.0684220">
<ele>547.999939</ele>
<time>2014-05-23T08:13:28.001Z</time>
</trkpt>
<trkpt lat="31.7892520" lon="35.0683310">
<ele>548.792419</ele>
<time>2014-05-23T08:13:32.002Z</time>
</trkpt>
<trkpt lat="31.7891990" lon="35.0682390">
<ele>550.194458</ele>
<time>2014-05-23T08:13:36.002Z</time>
</trkpt>
<trkpt lat="31.7891530" lon="35.0681290">
<ele>552.602417</ele>
<time>2014-05-23T08:13:40.996Z</time>
</trkpt>
<trkpt lat="31.7891270" lon="35.0680110">
<ele>555.802795</ele>
<time>2014-05-23T08:13:47.001Z</time>
</trkpt>
<trkpt lat="31.7891280" lon="35.0678790">
<ele>558.606934</ele>
<time>2014-05-23T08:13:52.997Z</time>
</trkpt>
<trkpt lat="31.7891360" lon="35.0677600">
<ele>559.399475</ele>
<time>2014-05-23T08:13:57.999Z</time>
</trkpt>
<trkpt lat="31.7891840" lon="35.0676450">
<ele>561.197754</ele>
<time>2014-05-23T08:14:03.002Z</time>
</trkpt>
<trkpt lat="31.7892330" lon="35.0675580">
<ele>563.209473</ele>
<time>2014-05-23T08:14:07.996Z</time>
</trkpt>
<trkpt lat="31.7892900" lon="35.0674600">
<ele>565.190674</ele>
<time>2014-05-23T08:14:14.001Z</time>
</trkpt>
<trkpt lat="31.7893370" lon="35.0673580">
<ele>567.202332</ele>
<time>2014-05-23T08:14:19.997Z</time>
</trkpt>
<trkpt lat="31.7893900" lon="35.0672570">
<ele>569.793152</ele>
<time>2014-05-23T08:14:26.002Z</time>
</trkpt>
<trkpt lat="31.7894420" lon="35.0671700">
<ele>572.201050</ele>
<time>2014-05-23T08:14:31.004Z</time>
</trkpt>
<trkpt lat="31.7895000" lon="35.0670630">
<ele>574.395630</ele>
<time>2014-05-23T08:14:37.000Z</time>
</trkpt>
<trkpt lat="31.7895620" lon="35.0669600">
<ele>575.797668</ele>
<time>2014-05-23T08:14:42.996Z</time>
</trkpt>
<trkpt lat="31.7896160" lon="35.0668680">
<ele>576.986389</ele>
<time>2014-05-23T08:14:47.999Z</time>
</trkpt>
<trkpt lat="31.7896660" lon="35.0667560">
<ele>578.388489</ele>
<time>2014-05-23T08:14:54.004Z</time>
</trkpt>
<trkpt lat="31.7896990" lon="35.0666530">
<ele>579.394348</ele>
<time>2014-05-23T08:14:58.998Z</time>
</trkpt>
<trkpt lat="31.7897500" lon="35.0665480">
<ele>581.009766</ele>
<time>2014-05-23T08:15:05.003Z</time>
</trkpt>
<trkpt lat="31.7897960" lon="35.0664440">
<ele>582.411865</ele>
<time>2014-05-23T08:15:09.996Z</time>
</trkpt>
<trkpt lat="31.7898440" lon="35.0663550">
<ele>583.813904</ele>
<time>2014-05-23T08:15:16.001Z</time>
</trkpt>
<trkpt lat="31.7898880" lon="35.0662530">
<ele>585.185547</ele>
<time>2014-05-23T08:15:21.997Z</time>
</trkpt>
<trkpt lat="31.7899280" lon="35.0661490">
<ele>586.404724</ele>
<time>2014-05-23T08:15:28.002Z</time>
</trkpt>
<trkpt lat="31.7899670" lon="35.0660330">
<ele>587.410522</ele>
<time>2014-05-23T08:15:33.998Z</time>
</trkpt>
<trkpt lat="31.7899970" lon="35.0659190">
<ele>587.989685</ele>
<time>2014-05-23T08:15:40.003Z</time>
</trkpt>
<trkpt lat="31.7900130" lon="35.0658030">
<ele>587.989685</ele>
<time>2014-05-23T08:15:45.999Z</time>
</trkpt>
<trkpt lat="31.7900230" lon="35.0656920">
<ele>587.593445</ele>
<time>2014-05-23T08:15:51.002Z</time>
</trkpt>
<trkpt lat="31.7900310" lon="35.0655830">
<ele>587.197205</ele>
<time>2014-05-23T08:15:55.002Z</time>
</trkpt>
<trkpt lat="31.7900420" lon="35.0654540">
<ele>587.806824</ele>
<time>2014-05-23T08:15:59.996Z</time>
</trkpt>
<trkpt lat="31.7900380" lon="35.0653160">
<ele>587.410522</ele>
<time>2014-05-23T08:16:03.996Z</time>
</trkpt>
<trkpt lat="31.7900410" lon="35.0651900">
<ele>587.593445</ele>
<time>2014-05-23T08:16:07.003Z</time>
</trkpt>
<trkpt lat="31.7900440" lon="35.0650720">
<ele>587.593445</ele>
<time>2014-05-23T08:16:10.001Z</time>
</trkpt>
<trkpt lat="31.7900330" lon="35.0649590">
<ele>586.800964</ele>
<time>2014-05-23T08:16:12.999Z</time>
</trkpt>
<trkpt lat="31.7900260" lon="35.0648360">
<ele>586.191345</ele>
<time>2014-05-23T08:16:15.997Z</time>
</trkpt>
<trkpt lat="31.7900210" lon="35.0647050">
<ele>586.008484</ele>
<time>2014-05-23T08:16:19.004Z</time>
</trkpt>
<trkpt lat="31.7900240" lon="35.0645730">
<ele>586.404724</ele>
<time>2014-05-23T08:16:22.002Z</time>
</trkpt>
<trkpt lat="31.7900240" lon="35.0644480">
<ele>586.404724</ele>
<time>2014-05-23T08:16:25.000Z</time>
</trkpt>
<trkpt lat="31.7900260" lon="35.0643200">
<ele>586.404724</ele>
<time>2014-05-23T08:16:27.998Z</time>
</trkpt>
<trkpt lat="31.7900370" lon="35.0641930">
<ele>587.197205</ele>
<time>2014-05-23T08:16:30.996Z</time>
</trkpt>
<trkpt lat="31.7900610" lon="35.0640670">
<ele>588.599243</ele>
<time>2014-05-23T08:16:34.003Z</time>
</trkpt>
<trkpt lat="31.7900780" lon="35.0639450">
<ele>589.605103</ele>
<time>2014-05-23T08:16:37.001Z</time>
</trkpt>
<trkpt lat="31.7900990" lon="35.0638310">
<ele>591.190063</ele>
<time>2014-05-23T08:16:39.999Z</time>
</trkpt>
<trkpt lat="31.7901340" lon="35.0637160">
<ele>593.201721</ele>
<time>2014-05-23T08:16:44.000Z</time>
</trkpt>
<trkpt lat="31.7901660" lon="35.0635950">
<ele>594.390503</ele>
<time>2014-05-23T08:16:48.000Z</time>
</trkpt>
<trkpt lat="31.7902000" lon="35.0634610">
<ele>595.609680</ele>
<time>2014-05-23T08:16:52.000Z</time>
</trkpt>
<trkpt lat="31.7902280" lon="35.0633560">
<ele>596.798401</ele>
<time>2014-05-23T08:16:54.998Z</time>
</trkpt>
<trkpt lat="31.7902480" lon="35.0632130">
<ele>596.798401</ele>
<time>2014-05-23T08:16:58.999Z</time>
</trkpt>
<trkpt lat="31.7902530" lon="35.0631050">
<ele>595.792542</ele>
<time>2014-05-23T08:17:01.997Z</time>
</trkpt>
<trkpt lat="31.7902520" lon="35.0630000">
<ele>594.603882</ele>
<time>2014-05-23T08:17:05.004Z</time>
</trkpt>
<trkpt lat="31.7902300" lon="35.0628710">
<ele>592.988403</ele>
<time>2014-05-23T08:17:09.004Z</time>
</trkpt>
<trkpt lat="31.7901990" lon="35.0627530">
<ele>592.195923</ele>
<time>2014-05-23T08:17:13.004Z</time>
</trkpt>
<trkpt lat="31.7901720" lon="35.0626340">
<ele>591.403442</ele>
<time>2014-05-23T08:17:16.996Z</time>
</trkpt>
<trkpt lat="31.7901330" lon="35.0625050">
<ele>590.214722</ele>
<time>2014-05-23T08:17:20.996Z</time>
</trkpt>
<trkpt lat="31.7900940" lon="35.0623790">
<ele>588.812683</ele>
<time>2014-05-23T08:17:24.996Z</time>
</trkpt>
<trkpt lat="31.7900590" lon="35.0622590">
<ele>587.806824</ele>
<time>2014-05-23T08:17:28.997Z</time>
</trkpt>
<trkpt lat="31.7900320" lon="35.0621400">
<ele>587.197205</ele>
<time>2014-05-23T08:17:32.997Z</time>
</trkpt>
<trkpt lat="31.7899950" lon="35.0620180">
<ele>586.587585</ele>
<time>2014-05-23T08:17:36.997Z</time>
</trkpt>
<trkpt lat="31.7899830" lon="35.0618780">
<ele>587.989685</ele>
<time>2014-05-23T08:17:40.998Z</time>
</trkpt>
<trkpt lat="31.7899680" lon="35.0617390">
<ele>588.995544</ele>
<time>2014-05-23T08:17:44.998Z</time>
</trkpt>
<trkpt lat="31.7899450" lon="35.0616240">
<ele>589.391724</ele>
<time>2014-05-23T08:17:48.998Z</time>
</trkpt>
<trkpt lat="31.7899310" lon="35.0614990">
<ele>590.397583</ele>
<time>2014-05-23T08:17:52.999Z</time>
</trkpt>
<trkpt lat="31.7899160" lon="35.0613680">
<ele>591.403442</ele>
<time>2014-05-23T08:17:56.999Z</time>
</trkpt>
<trkpt lat="31.7899080" lon="35.0612360">
<ele>592.592163</ele>
<time>2014-05-23T08:18:00.999Z</time>
</trkpt>
<trkpt lat="31.7899010" lon="35.0611210">
<ele>593.201721</ele>
<time>2014-05-23T08:18:03.997Z</time>
</trkpt>
<trkpt lat="31.7898900" lon="35.0610070">
<ele>593.598022</ele>
<time>2014-05-23T08:18:07.004Z</time>
</trkpt>
<trkpt lat="31.7898720" lon="35.0609010">
<ele>593.598022</ele>
<time>2014-05-23T08:18:10.002Z</time>
</trkpt>
<trkpt lat="31.7898540" lon="35.0607850">
<ele>593.811340</ele>
<time>2014-05-23T08:18:13.000Z</time>
</trkpt>
<trkpt lat="31.7898390" lon="35.0606550">
<ele>593.994263</ele>
<time>2014-05-23T08:18:15.998Z</time>
</trkpt>
<trkpt lat="31.7898000" lon="35.0605190">
<ele>593.415100</ele>
<time>2014-05-23T08:18:18.996Z</time>
</trkpt>
<trkpt lat="31.7897650" lon="35.0604040">
<ele>593.201721</ele>
<time>2014-05-23T08:18:22.003Z</time>
</trkpt>
<trkpt lat="31.7897300" lon="35.0602910">
<ele>594.786743</ele>
<time>2014-05-23T08:18:25.001Z</time>
</trkpt>
<trkpt lat="31.7896900" lon="35.0601780">
<ele>595.609680</ele>
<time>2014-05-23T08:18:27.999Z</time>
</trkpt>
<trkpt lat="31.7896540" lon="35.0600600">
<ele>596.402161</ele>
<time>2014-05-23T08:23:58.004Z</time>
</trkpt>
<trkpt lat="31.7895970" lon="35.0599750">
<ele>596.005920</ele>
<time>2014-05-23T08:24:02.998Z</time>
</trkpt>
<trkpt lat="31.7895410" lon="35.0598980">
<ele>595.213440</ele>
<time>2014-05-23T08:24:06.998Z</time>
</trkpt>
<trkpt lat="31.7894580" lon="35.0598050">
<ele>593.994263</ele>
<time>2014-05-23T08:24:10.999Z</time>
</trkpt>
<trkpt lat="31.7893800" lon="35.0597160">
<ele>592.805542</ele>
<time>2014-05-23T08:24:13.997Z</time>
</trkpt>
<trkpt lat="31.7892950" lon="35.0596260">
<ele>591.403442</ele>
<time>2014-05-23T08:24:17.004Z</time>
</trkpt>
<trkpt lat="31.7891960" lon="35.0595300">
<ele>589.788025</ele>
<time>2014-05-23T08:24:20.002Z</time>
</trkpt>
<trkpt lat="31.7891210" lon="35.0594650">
<ele>588.812683</ele>
<time>2014-05-23T08:24:21.997Z</time>
</trkpt>
<trkpt lat="31.7890430" lon="35.0593970">
<ele>587.593445</ele>
<time>2014-05-23T08:24:24.002Z</time>
</trkpt>
<trkpt lat="31.7889720" lon="35.0593310">
<ele>586.587585</ele>
<time>2014-05-23T08:24:25.998Z</time>
</trkpt>
<trkpt lat="31.7888810" lon="35.0592390">
<ele>585.398865</ele>
<time>2014-05-23T08:24:28.996Z</time>
</trkpt>
<trkpt lat="31.7887970" lon="35.0591390">
<ele>584.789246</ele>
<time>2014-05-23T08:24:32.003Z</time>
</trkpt>
<trkpt lat="31.7887320" lon="35.0590360">
<ele>585.002625</ele>
<time>2014-05-23T08:24:35.001Z</time>
</trkpt>
<trkpt lat="31.7886750" lon="35.0589200">
<ele>585.795105</ele>
<time>2014-05-23T08:24:37.999Z</time>
</trkpt>
<trkpt lat="31.7886220" lon="35.0587840">
<ele>587.014343</ele>
<time>2014-05-23T08:24:40.997Z</time>
</trkpt>
<trkpt lat="31.7885590" lon="35.0586480">
<ele>586.587585</ele>
<time>2014-05-23T08:24:44.004Z</time>
</trkpt>
<trkpt lat="31.7885090" lon="35.0585170">
<ele>586.191345</ele>
<time>2014-05-23T08:24:47.002Z</time>
</trkpt>
<trkpt lat="31.7884690" lon="35.0583830">
<ele>586.191345</ele>
<time>2014-05-23T08:24:50.000Z</time>
</trkpt>
<trkpt lat="31.7884250" lon="35.0582310">
<ele>586.191345</ele>
<time>2014-05-23T08:24:52.998Z</time>
</trkpt>
<trkpt lat="31.7883880" lon="35.0581270">
<ele>586.008484</ele>
<time>2014-05-23T08:24:55.002Z</time>
</trkpt>
<trkpt lat="31.7883560" lon="35.0580190">
<ele>586.404724</ele>
<time>2014-05-23T08:24:56.998Z</time>
</trkpt>
<trkpt lat="31.7883370" lon="35.0579110">
<ele>587.410522</ele>
<time>2014-05-23T08:24:59.003Z</time>
</trkpt>
<trkpt lat="31.7883180" lon="35.0578010">
<ele>587.014343</ele>
<time>2014-05-23T08:25:00.998Z</time>
</trkpt>
<trkpt lat="31.7882980" lon="35.0576760">
<ele>586.587585</ele>
<time>2014-05-23T08:25:03.003Z</time>
</trkpt>
<trkpt lat="31.7882850" lon="35.0575470">
<ele>586.404724</ele>
<time>2014-05-23T08:25:04.999Z</time>
</trkpt>
<trkpt lat="31.7882610" lon="35.0574260">
<ele>585.795105</ele>
<time>2014-05-23T08:25:07.003Z</time>
</trkpt>
<trkpt lat="31.7882370" lon="35.0573010">
<ele>585.185547</ele>
<time>2014-05-23T08:25:08.999Z</time>
</trkpt>
<trkpt lat="31.7882290" lon="35.0571690">
<ele>585.398865</ele>
<time>2014-05-23T08:25:11.004Z</time>
</trkpt>
<trkpt lat="31.7882250" lon="35.0570250">
<ele>585.398865</ele>
<time>2014-05-23T08:25:12.999Z</time>
</trkpt>
<trkpt lat="31.7882000" lon="35.0568780">
<ele>584.393066</ele>
<time>2014-05-23T08:25:15.004Z</time>
</trkpt>
<trkpt lat="31.7881680" lon="35.0567370">
<ele>582.808044</ele>
<time>2014-05-23T08:25:17.000Z</time>
</trkpt>
<trkpt lat="31.7881650" lon="35.0565870">
<ele>582.808044</ele>
<time>2014-05-23T08:25:19.004Z</time>
</trkpt>
<trkpt lat="31.7881990" lon="35.0564260">
<ele>585.002625</ele>
<time>2014-05-23T08:25:21.000Z</time>
</trkpt>
<trkpt lat="31.7882550" lon="35.0562640">
<ele>587.197205</ele>
<time>2014-05-23T08:25:22.996Z</time>
</trkpt>
<trkpt lat="31.7883130" lon="35.0561100">
<ele>587.014343</ele>
<time>2014-05-23T08:25:25.000Z</time>
</trkpt>
<trkpt lat="31.7883720" lon="35.0559710">
<ele>587.014343</ele>
<time>2014-05-23T08:25:26.996Z</time>
</trkpt>
<trkpt lat="31.7884010" lon="35.0558250">
<ele>585.795105</ele>
<time>2014-05-23T08:25:29.001Z</time>
</trkpt>
<trkpt lat="31.7884120" lon="35.0556700">
<ele>584.210144</ele>
<time>2014-05-23T08:25:30.996Z</time>
</trkpt>
<trkpt lat="31.7884460" lon="35.0555080">
<ele>581.009766</ele>
<time>2014-05-23T08:25:33.001Z</time>
</trkpt>
<trkpt lat="31.7885080" lon="35.0553610">
<ele>578.815186</ele>
<time>2014-05-23T08:25:34.997Z</time>
</trkpt>
<trkpt lat="31.7885990" lon="35.0552600">
<ele>578.388489</ele>
<time>2014-05-23T08:25:37.001Z</time>
</trkpt>
<trkpt lat="31.7887070" lon="35.0552140">
<ele>579.394348</ele>
<time>2014-05-23T08:25:38.997Z</time>
</trkpt>
<trkpt lat="31.7888090" lon="35.0552020">
<ele>581.009766</ele>
<time>2014-05-23T08:25:41.002Z</time>
</trkpt>
<trkpt lat="31.7889070" lon="35.0551970">
<ele>581.802246</ele>
<time>2014-05-23T08:25:42.997Z</time>
</trkpt>
<trkpt lat="31.7890380" lon="35.0552050">
<ele>582.990967</ele>
<time>2014-05-23T08:25:46.004Z</time>
</trkpt>
<trkpt lat="31.7891620" lon="35.0552170">
<ele>582.990967</ele>
<time>2014-05-23T08:25:49.002Z</time>
</trkpt>
<trkpt lat="31.7892910" lon="35.0552400">
<ele>583.204346</ele>
<time>2014-05-23T08:25:52.000Z</time>
</trkpt>
<trkpt lat="31.7894130" lon="35.0552760">
<ele>583.813904</ele>
<time>2014-05-23T08:25:54.998Z</time>
</trkpt>
<trkpt lat="31.7895400" lon="35.0553080">
<ele>584.210144</ele>
<time>2014-05-23T08:25:57.996Z</time>
</trkpt>
<trkpt lat="31.7896270" lon="35.0553270">
<ele>584.393066</ele>
<time>2014-05-23T08:26:00.001Z</time>
</trkpt>
<trkpt lat="31.7897190" lon="35.0553430">
<ele>584.393066</ele>
<time>2014-05-23T08:26:01.997Z</time>
</trkpt>
<trkpt lat="31.7898170" lon="35.0553590">
<ele>584.393066</ele>
<time>2014-05-23T08:26:04.001Z</time>
</trkpt>
<trkpt lat="31.7899170" lon="35.0553750">
<ele>585.185547</ele>
<time>2014-05-23T08:26:05.997Z</time>
</trkpt>
<trkpt lat="31.7900130" lon="35.0553960">
<ele>585.795105</ele>
<time>2014-05-23T08:26:08.002Z</time>
</trkpt>
<trkpt lat="31.7901100" lon="35.0554140">
<ele>586.404724</ele>
<time>2014-05-23T08:26:09.997Z</time>
</trkpt>
<trkpt lat="31.7902160" lon="35.0554160">
<ele>586.587585</ele>
<time>2014-05-23T08:26:12.002Z</time>
</trkpt>
<trkpt lat="31.7903180" lon="35.0553990">
<ele>586.587585</ele>
<time>2014-05-23T08:26:13.998Z</time>
</trkpt>
<trkpt lat="31.7903640" lon="35.0552820">
<ele>584.393066</ele>
<time>2014-05-23T08:26:16.996Z</time>
</trkpt>
<trkpt lat="31.7902750" lon="35.0551470">
<ele>581.588867</ele>
<time>2014-05-23T08:26:20.003Z</time>
</trkpt>
<trkpt lat="31.7902020" lon="35.0550680">
<ele>579.790527</ele>
<time>2014-05-23T08:26:21.998Z</time>
</trkpt>
<trkpt lat="31.7901260" lon="35.0549820">
<ele>577.992249</ele>
<time>2014-05-23T08:26:24.003Z</time>
</trkpt>
<trkpt lat="31.7900510" lon="35.0548780">
<ele>575.797668</ele>
<time>2014-05-23T08:26:25.999Z</time>
</trkpt>
<trkpt lat="31.7899690" lon="35.0547630">
<ele>573.389771</ele>
<time>2014-05-23T08:26:28.003Z</time>
</trkpt>
<trkpt lat="31.7898880" lon="35.0546250">
<ele>570.585571</ele>
<time>2014-05-23T08:26:29.999Z</time>
</trkpt>
<trkpt lat="31.7897990" lon="35.0544830">
<ele>569.213989</ele>
<time>2014-05-23T08:26:32.004Z</time>
</trkpt>
<trkpt lat="31.7896970" lon="35.0543430">
<ele>568.391052</ele>
<time>2014-05-23T08:26:33.999Z</time>
</trkpt>
<trkpt lat="31.7895950" lon="35.0542080">
<ele>567.385193</ele>
<time>2014-05-23T08:26:36.004Z</time>
</trkpt>
<trkpt lat="31.7895230" lon="35.0540620">
<ele>567.385193</ele>
<time>2014-05-23T08:26:38.000Z</time>
</trkpt>
<trkpt lat="31.7894610" lon="35.0539150">
<ele>567.598572</ele>
<time>2014-05-23T08:26:40.004Z</time>
</trkpt>
<trkpt lat="31.7893940" lon="35.0537810">
<ele>567.385193</ele>
<time>2014-05-23T08:26:42.000Z</time>
</trkpt>
<trkpt lat="31.7893220" lon="35.0536450">
<ele>565.800232</ele>
<time>2014-05-23T08:26:43.996Z</time>
</trkpt>
<trkpt lat="31.7892640" lon="35.0535090">
<ele>564.398132</ele>
<time>2014-05-23T08:26:46.000Z</time>
</trkpt>
<trkpt lat="31.7892330" lon="35.0533650">
<ele>563.605652</ele>
<time>2014-05-23T08:26:47.996Z</time>
</trkpt>
<trkpt lat="31.7892140" lon="35.0532210">
<ele>563.209473</ele>
<time>2014-05-23T08:26:50.001Z</time>
</trkpt>
<trkpt lat="31.7892100" lon="35.0530780">
<ele>563.209473</ele>
<time>2014-05-23T08:26:51.996Z</time>
</trkpt>
<trkpt lat="31.7892460" lon="35.0529430">
<ele>564.794373</ele>
<time>2014-05-23T08:26:54.001Z</time>
</trkpt>
<trkpt lat="31.7893130" lon="35.0528270">
<ele>565.800232</ele>
<time>2014-05-23T08:26:55.997Z</time>
</trkpt>
<trkpt lat="31.7894010" lon="35.0527230">
<ele>567.385193</ele>
<time>2014-05-23T08:26:58.001Z</time>
</trkpt>
<trkpt lat="31.7895040" lon="35.0526500">
<ele>569.610229</ele>
<time>2014-05-23T08:26:59.997Z</time>
</trkpt>
<trkpt lat="31.7896010" lon="35.0526060">
<ele>571.591431</ele>
<time>2014-05-23T08:27:02.002Z</time>
</trkpt>
<trkpt lat="31.7896970" lon="35.0525720">
<ele>571.987671</ele>
<time>2014-05-23T08:27:03.997Z</time>
</trkpt>
<trkpt lat="31.7897930" lon="35.0525360">
<ele>572.414429</ele>
<time>2014-05-23T08:27:06.002Z</time>
</trkpt>
<trkpt lat="31.7898870" lon="35.0525050">
<ele>572.993530</ele>
<time>2014-05-23T08:27:07.998Z</time>
</trkpt>
<trkpt lat="31.7899780" lon="35.0524620">
<ele>573.999329</ele>
<time>2014-05-23T08:27:10.002Z</time>
</trkpt>
<trkpt lat="31.7900680" lon="35.0524230">
<ele>575.188049</ele>
<time>2014-05-23T08:27:11.998Z</time>
</trkpt>
<trkpt lat="31.7901640" lon="35.0523860">
<ele>576.590149</ele>
<time>2014-05-23T08:27:14.003Z</time>
</trkpt>
<trkpt lat="31.7902580" lon="35.0523540">
<ele>577.992249</ele>
<time>2014-05-23T08:27:15.998Z</time>
</trkpt>
<trkpt lat="31.7903830" lon="35.0522970">
<ele>579.790527</ele>
<time>2014-05-23T08:27:18.996Z</time>
</trkpt>
<trkpt lat="31.7905060" lon="35.0522380">
<ele>581.406006</ele>
<time>2014-05-23T08:27:22.003Z</time>
</trkpt>
<trkpt lat="31.7906220" lon="35.0521690">
<ele>582.594727</ele>
<time>2014-05-23T08:27:25.001Z</time>
</trkpt>
<trkpt lat="31.7906720" lon="35.0520580">
<ele>581.588867</ele>
<time>2014-05-23T08:27:27.999Z</time>
</trkpt>
<trkpt lat="31.7906410" lon="35.0519320">
<ele>579.607666</ele>
<time>2014-05-23T08:27:30.997Z</time>
</trkpt>
<trkpt lat="31.7905540" lon="35.0518070">
<ele>576.011047</ele>
<time>2014-05-23T08:27:34.004Z</time>
</trkpt>
<trkpt lat="31.7905030" lon="35.0517130">
<ele>573.786011</ele>
<time>2014-05-23T08:27:36.000Z</time>
</trkpt>
<trkpt lat="31.7904460" lon="35.0516160">
<ele>571.408569</ele>
<time>2014-05-23T08:27:37.996Z</time>
</trkpt>
<trkpt lat="31.7903830" lon="35.0514840">
<ele>568.391052</ele>
<time>2014-05-23T08:27:41.003Z</time>
</trkpt>
<trkpt lat="31.7903320" lon="35.0513510">
<ele>565.800232</ele>
<time>2014-05-23T08:27:44.001Z</time>
</trkpt>
<trkpt lat="31.7902690" lon="35.0512120">
<ele>564.001953</ele>
<time>2014-05-23T08:27:46.999Z</time>
</trkpt>
<trkpt lat="31.7902210" lon="35.0511150">
<ele>564.184814</ele>
<time>2014-05-23T08:27:49.003Z</time>
</trkpt>
<trkpt lat="31.7901530" lon="35.0510170">
<ele>564.001953</ele>
<time>2014-05-23T08:27:50.999Z</time>
</trkpt>
<trkpt lat="31.7900640" lon="35.0509350">
<ele>562.813171</ele>
<time>2014-05-23T08:27:53.004Z</time>
</trkpt>
<trkpt lat="31.7899560" lon="35.0508790">
<ele>560.801514</ele>
<time>2014-05-23T08:27:54.999Z</time>
</trkpt>
<trkpt lat="31.7898420" lon="35.0508350">
<ele>558.606934</ele>
<time>2014-05-23T08:27:57.004Z</time>
</trkpt>
<trkpt lat="31.7897190" lon="35.0508010">
<ele>555.802795</ele>
<time>2014-05-23T08:27:59.000Z</time>
</trkpt>
<trkpt lat="31.7895920" lon="35.0507580">
<ele>553.211975</ele>
<time>2014-05-23T08:28:01.004Z</time>
</trkpt>
<trkpt lat="31.7894680" lon="35.0507130">
<ele>550.590698</ele>
<time>2014-05-23T08:28:03.000Z</time>
</trkpt>
<trkpt lat="31.7893490" lon="35.0506520">
<ele>548.396118</ele>
<time>2014-05-23T08:28:04.996Z</time>
</trkpt>
<trkpt lat="31.7892440" lon="35.0505680">
<ele>546.994080</ele>
<time>2014-05-23T08:28:07.000Z</time>
</trkpt>
<trkpt lat="31.7891460" lon="35.0504660">
<ele>545.988281</ele>
<time>2014-05-23T08:28:08.996Z</time>
</trkpt>
<trkpt lat="31.7890650" lon="35.0503570">
<ele>546.201599</ele>
<time>2014-05-23T08:28:11.001Z</time>
</trkpt>
<trkpt lat="31.7890170" lon="35.0502420">
<ele>547.207458</ele>
<time>2014-05-23T08:28:12.996Z</time>
</trkpt>
<trkpt lat="31.7889950" lon="35.0501180">
<ele>549.188660</ele>
<time>2014-05-23T08:28:15.001Z</time>
</trkpt>
<trkpt lat="31.7889660" lon="35.0500000">
<ele>550.804077</ele>
<time>2014-05-23T08:28:16.997Z</time>
</trkpt>
<trkpt lat="31.7889490" lon="35.0498860">
<ele>552.998657</ele>
<time>2014-05-23T08:28:19.001Z</time>
</trkpt>
<trkpt lat="31.7889520" lon="35.0497740">
<ele>555.985657</ele>
<time>2014-05-23T08:28:20.997Z</time>
</trkpt>
<trkpt lat="31.7889650" lon="35.0496520">
<ele>559.612793</ele>
<time>2014-05-23T08:28:23.002Z</time>
</trkpt>
<trkpt lat="31.7889850" lon="35.0495330">
<ele>561.990234</ele>
<time>2014-05-23T08:28:24.997Z</time>
</trkpt>
<trkpt lat="31.7890220" lon="35.0494150">
<ele>562.599854</ele>
<time>2014-05-23T08:28:27.002Z</time>
</trkpt>
<trkpt lat="31.7890620" lon="35.0493020">
<ele>563.209473</ele>
<time>2014-05-23T08:28:28.998Z</time>
</trkpt>
<trkpt lat="31.7891090" lon="35.0491900">
<ele>563.209473</ele>
<time>2014-05-23T08:28:31.002Z</time>
</trkpt>
<trkpt lat="31.7891520" lon="35.0490790">
<ele>563.392334</ele>
<time>2014-05-23T08:28:32.998Z</time>
</trkpt>
<trkpt lat="31.7891960" lon="35.0489730">
<ele>563.392334</ele>
<time>2014-05-23T08:28:35.003Z</time>
</trkpt>
<trkpt lat="31.7892430" lon="35.0488590">
<ele>564.001953</ele>
<time>2014-05-23T08:28:36.998Z</time>
</trkpt>
<trkpt lat="31.7892840" lon="35.0487380">
<ele>564.611511</ele>
<time>2014-05-23T08:28:39.003Z</time>
</trkpt>
<trkpt lat="31.7893360" lon="35.0486300">
<ele>564.398132</ele>
<time>2014-05-23T08:28:40.999Z</time>
</trkpt>
<trkpt lat="31.7893800" lon="35.0485250">
<ele>564.001953</ele>
<time>2014-05-23T08:28:43.003Z</time>
</trkpt>
<trkpt lat="31.7894240" lon="35.0484240">
<ele>563.605652</ele>
<time>2014-05-23T08:28:44.999Z</time>
</trkpt>
<trkpt lat="31.7894680" lon="35.0483220">
<ele>563.392334</ele>
<time>2014-05-23T08:28:47.004Z</time>
</trkpt>
<trkpt lat="31.7895030" lon="35.0482120">
<ele>563.392334</ele>
<time>2014-05-23T08:28:48.999Z</time>
</trkpt>
<trkpt lat="31.7895300" lon="35.0481060">
<ele>563.209473</ele>
<time>2014-05-23T08:28:51.004Z</time>
</trkpt>
<trkpt lat="31.7895560" lon="35.0479600">
<ele>562.599854</ele>
<time>2014-05-23T08:28:54.002Z</time>
</trkpt>
<trkpt lat="31.7895570" lon="35.0477990">
<ele>562.813171</ele>
<time>2014-05-23T08:28:57.000Z</time>
</trkpt>
<trkpt lat="31.7895250" lon="35.0476920">
<ele>562.386475</ele>
<time>2014-05-23T08:28:58.996Z</time>
</trkpt>
<trkpt lat="31.7894820" lon="35.0475870">
<ele>561.593994</ele>
<time>2014-05-23T08:29:01.000Z</time>
</trkpt>
<trkpt lat="31.7894180" lon="35.0474960">
<ele>560.191956</ele>
<time>2014-05-23T08:29:02.996Z</time>
</trkpt>
<trkpt lat="31.7893520" lon="35.0474080">
<ele>558.606934</ele>
<time>2014-05-23T08:29:05.001Z</time>
</trkpt>
<trkpt lat="31.7892890" lon="35.0473300">
<ele>556.991516</ele>
<time>2014-05-23T08:29:06.996Z</time>
</trkpt>
<trkpt lat="31.7892170" lon="35.0472590">
<ele>555.193176</ele>
<time>2014-05-23T08:29:09.001Z</time>
</trkpt>
<trkpt lat="31.7891380" lon="35.0471820">
<ele>553.211975</ele>
<time>2014-05-23T08:29:10.997Z</time>
</trkpt>
<trkpt lat="31.7890630" lon="35.0471030">
<ele>551.413696</ele>
<time>2014-05-23T08:29:13.001Z</time>
</trkpt>
<trkpt lat="31.7889940" lon="35.0470210">
<ele>551.413696</ele>
<time>2014-05-23T08:29:14.997Z</time>
</trkpt>
<trkpt lat="31.7889280" lon="35.0469430">
<ele>551.596558</ele>
<time>2014-05-23T08:29:17.002Z</time>
</trkpt>
<trkpt lat="31.7888600" lon="35.0468680">
<ele>551.809937</ele>
<time>2014-05-23T08:29:18.997Z</time>
</trkpt>
<trkpt lat="31.7887820" lon="35.0467930">
<ele>551.809937</ele>
<time>2014-05-23T08:29:21.002Z</time>
</trkpt>
<trkpt lat="31.7886940" lon="35.0467070">
<ele>551.809937</ele>
<time>2014-05-23T08:29:22.998Z</time>
</trkpt>
<trkpt lat="31.7885990" lon="35.0466230">
<ele>551.809937</ele>
<time>2014-05-23T08:29:25.002Z</time>
</trkpt>
<trkpt lat="31.7885140" lon="35.0465490">
<ele>551.809937</ele>
<time>2014-05-23T08:29:26.998Z</time>
</trkpt>
<trkpt lat="31.7884610" lon="35.0464620">
<ele>552.389038</ele>
<time>2014-05-23T08:29:29.003Z</time>
</trkpt>
<trkpt lat="31.7884480" lon="35.0463420">
<ele>553.791138</ele>
<time>2014-05-23T08:29:32.001Z</time>
</trkpt>
<trkpt lat="31.7884690" lon="35.0462330">
<ele>555.406555</ele>
<time>2014-05-23T08:29:36.001Z</time>
</trkpt>
<trkpt lat="31.7885020" lon="35.0461190">
<ele>555.589478</ele>
<time>2014-05-23T08:29:40.001Z</time>
</trkpt>
<trkpt lat="31.7885330" lon="35.0460140">
<ele>555.985657</ele>
<time>2014-05-23T08:29:42.999Z</time>
</trkpt>
<trkpt lat="31.7885800" lon="35.0458970">
<ele>556.412415</ele>
<time>2014-05-23T08:29:45.997Z</time>
</trkpt>
<trkpt lat="31.7886420" lon="35.0457850">
<ele>557.204895</ele>
<time>2014-05-23T08:29:49.004Z</time>
</trkpt>
<trkpt lat="31.7887280" lon="35.0456820">
<ele>558.393616</ele>
<time>2014-05-23T08:29:52.002Z</time>
</trkpt>
<trkpt lat="31.7888100" lon="35.0455800">
<ele>559.612793</ele>
<time>2014-05-23T08:29:55.000Z</time>
</trkpt>
<trkpt lat="31.7889030" lon="35.0454710">
<ele>561.014893</ele>
<time>2014-05-23T08:29:57.998Z</time>
</trkpt>
<trkpt lat="31.7889970" lon="35.0453730">
<ele>561.411133</ele>
<time>2014-05-23T08:30:00.996Z</time>
</trkpt>
<trkpt lat="31.7890650" lon="35.0452710">
<ele>561.807373</ele>
<time>2014-05-23T08:30:04.003Z</time>
</trkpt>
<trkpt lat="31.7891240" lon="35.0451660">
<ele>561.593994</ele>
<time>2014-05-23T08:30:07.001Z</time>
</trkpt>
<trkpt lat="31.7891830" lon="35.0450620">
<ele>561.411133</ele>
<time>2014-05-23T08:30:09.999Z</time>
</trkpt>
<trkpt lat="31.7892480" lon="35.0449390">
<ele>561.014893</ele>
<time>2014-05-23T08:30:12.997Z</time>
</trkpt>
<trkpt lat="31.7893050" lon="35.0448040">
<ele>560.405273</ele>
<time>2014-05-23T08:30:16.004Z</time>
</trkpt>
<trkpt lat="31.7893370" lon="35.0446540">
<ele>559.612793</ele>
<time>2014-05-23T08:30:19.002Z</time>
</trkpt>
<trkpt lat="31.7893570" lon="35.0445410">
<ele>558.789856</ele>
<time>2014-05-23T08:30:20.998Z</time>
</trkpt>
<trkpt lat="31.7893790" lon="35.0444270">
<ele>557.814453</ele>
<time>2014-05-23T08:30:23.003Z</time>
</trkpt>
<trkpt lat="31.7894120" lon="35.0443100">
<ele>556.808655</ele>
<time>2014-05-23T08:30:24.998Z</time>
</trkpt>
<trkpt lat="31.7894420" lon="35.0441970">
<ele>555.985657</ele>
<time>2014-05-23T08:30:27.003Z</time>
</trkpt>
<trkpt lat="31.7894750" lon="35.0440920">
<ele>555.406555</ele>
<time>2014-05-23T08:30:28.999Z</time>
</trkpt>
<trkpt lat="31.7895000" lon="35.0439790">
<ele>554.796936</ele>
<time>2014-05-23T08:30:31.003Z</time>
</trkpt>
<trkpt lat="31.7895310" lon="35.0438740">
<ele>554.187317</ele>
<time>2014-05-23T08:30:32.999Z</time>
</trkpt>
<trkpt lat="31.7895890" lon="35.0437550">
<ele>554.004456</ele>
<time>2014-05-23T08:30:35.997Z</time>
</trkpt>
<trkpt lat="31.7896240" lon="35.0436580">
<ele>555.010315</ele>
<time>2014-05-23T08:30:39.997Z</time>
</trkpt>
<trkpt lat="31.7896330" lon="35.0435370">
<ele>555.589478</ele>
<time>2014-05-23T08:30:43.998Z</time>
</trkpt>
<trkpt lat="31.7895970" lon="35.0434260">
<ele>555.193176</ele>
<time>2014-05-23T08:30:47.998Z</time>
</trkpt>
<trkpt lat="31.7895480" lon="35.0432930">
<ele>554.187317</ele>
<time>2014-05-23T08:30:50.996Z</time>
</trkpt>
<trkpt lat="31.7894670" lon="35.0431750">
<ele>553.211975</ele>
<time>2014-05-23T08:30:54.003Z</time>
</trkpt>
<trkpt lat="31.7893930" lon="35.0431020">
<ele>552.206116</ele>
<time>2014-05-23T08:30:55.999Z</time>
</trkpt>
<trkpt lat="31.7892990" lon="35.0430390">
<ele>550.986938</ele>
<time>2014-05-23T08:30:58.003Z</time>
</trkpt>
<trkpt lat="31.7891950" lon="35.0429810">
<ele>549.798279</ele>
<time>2014-05-23T08:30:59.999Z</time>
</trkpt>
<trkpt lat="31.7890910" lon="35.0429260">
<ele>548.396118</ele>
<time>2014-05-23T08:31:02.004Z</time>
</trkpt>
<trkpt lat="31.7889820" lon="35.0428870">
<ele>547.207458</ele>
<time>2014-05-23T08:31:03.999Z</time>
</trkpt>
<trkpt lat="31.7888780" lon="35.0428440">
<ele>545.591980</ele>
<time>2014-05-23T08:31:06.004Z</time>
</trkpt>
<trkpt lat="31.7887730" lon="35.0428050">
<ele>544.007080</ele>
<time>2014-05-23T08:31:08.000Z</time>
</trkpt>
<trkpt lat="31.7886720" lon="35.0427660">
<ele>542.208740</ele>
<time>2014-05-23T08:31:10.004Z</time>
</trkpt>
<trkpt lat="31.7885730" lon="35.0427170">
<ele>540.989502</ele>
<time>2014-05-23T08:31:12.000Z</time>
</trkpt>
<trkpt lat="31.7884840" lon="35.0426560">
<ele>540.197083</ele>
<time>2014-05-23T08:31:13.996Z</time>
</trkpt>
<trkpt lat="31.7884030" lon="35.0425840">
<ele>540.014160</ele>
<time>2014-05-23T08:31:16.000Z</time>
</trkpt>
<trkpt lat="31.7883180" lon="35.0425020">
<ele>539.800781</ele>
<time>2014-05-23T08:31:17.996Z</time>
</trkpt>
<trkpt lat="31.7882280" lon="35.0424360">
<ele>539.191223</ele>
<time>2014-05-23T08:31:20.001Z</time>
</trkpt>
<trkpt lat="31.7881260" lon="35.0423660">
<ele>537.210022</ele>
<time>2014-05-23T08:31:21.996Z</time>
</trkpt>
<trkpt lat="31.7880330" lon="35.0422600">
<ele>536.204163</ele>
<time>2014-05-23T08:31:24.001Z</time>
</trkpt>
<trkpt lat="31.7879560" lon="35.0421350">
<ele>536.204163</ele>
<time>2014-05-23T08:31:25.997Z</time>
</trkpt>
<trkpt lat="31.7878960" lon="35.0420050">
<ele>536.387085</ele>
<time>2014-05-23T08:31:28.001Z</time>
</trkpt>
<trkpt lat="31.7878510" lon="35.0418770">
<ele>536.813721</ele>
<time>2014-05-23T08:31:29.997Z</time>
</trkpt>
<trkpt lat="31.7878180" lon="35.0417580">
<ele>537.392883</ele>
<time>2014-05-23T08:31:32.002Z</time>
</trkpt>
<trkpt lat="31.7878000" lon="35.0416300">
<ele>538.398743</ele>
<time>2014-05-23T08:31:33.997Z</time>
</trkpt>
<trkpt lat="31.7877980" lon="35.0414960">
<ele>539.800781</ele>
<time>2014-05-23T08:31:36.002Z</time>
</trkpt>
<trkpt lat="31.7877960" lon="35.0413700">
<ele>540.806641</ele>
<time>2014-05-23T08:31:37.998Z</time>
</trkpt>
<trkpt lat="31.7878030" lon="35.0412420">
<ele>542.208740</ele>
<time>2014-05-23T08:31:40.002Z</time>
</trkpt>
<trkpt lat="31.7877970" lon="35.0411100">
<ele>542.208740</ele>
<time>2014-05-23T08:31:41.998Z</time>
</trkpt>
<trkpt lat="31.7877730" lon="35.0409720">
<ele>541.599121</ele>
<time>2014-05-23T08:31:44.003Z</time>
</trkpt>
<trkpt lat="31.7877450" lon="35.0408040">
<ele>540.806641</ele>
<time>2014-05-23T08:31:45.998Z</time>
</trkpt>
<trkpt lat="31.7877120" lon="35.0406200">
<ele>540.197083</ele>
<time>2014-05-23T08:31:48.003Z</time>
</trkpt>
<trkpt lat="31.7876790" lon="35.0404300">
<ele>539.587463</ele>
<time>2014-05-23T08:31:49.999Z</time>
</trkpt>
<trkpt lat="31.7876470" lon="35.0402380">
<ele>539.587463</ele>
<time>2014-05-23T08:31:52.003Z</time>
</trkpt>
<trkpt lat="31.7876260" lon="35.0400420">
<ele>540.197083</ele>
<time>2014-05-23T08:31:53.999Z</time>
</trkpt>
<trkpt lat="31.7875920" lon="35.0398560">
<ele>540.014160</ele>
<time>2014-05-23T08:31:56.004Z</time>
</trkpt>
<trkpt lat="31.7875450" lon="35.0397000">
<ele>538.612061</ele>
<time>2014-05-23T08:31:57.999Z</time>
</trkpt>
<trkpt lat="31.7874860" lon="35.0395600">
<ele>536.600403</ele>
<time>2014-05-23T08:32:00.004Z</time>
</trkpt>
<trkpt lat="31.7874270" lon="35.0394230">
<ele>536.204163</ele>
<time>2014-05-23T08:32:02.000Z</time>
</trkpt>
<trkpt lat="31.7873650" lon="35.0392860">
<ele>535.594543</ele>
<time>2014-05-23T08:32:04.004Z</time>
</trkpt>
<trkpt lat="31.7872840" lon="35.0391630">
<ele>533.796265</ele>
<time>2014-05-23T08:32:06.000Z</time>
</trkpt>
<trkpt lat="31.7872000" lon="35.0390450">
<ele>531.815063</ele>
<time>2014-05-23T08:32:07.996Z</time>
</trkpt>
<trkpt lat="31.7871110" lon="35.0389330">
<ele>529.590027</ele>
<time>2014-05-23T08:32:10.000Z</time>
</trkpt>
<trkpt lat="31.7870130" lon="35.0388290">
<ele>527.212524</ele>
<time>2014-05-23T08:32:11.996Z</time>
</trkpt>
<trkpt lat="31.7869250" lon="35.0387230">
<ele>525.597107</ele>
<time>2014-05-23T08:32:14.001Z</time>
</trkpt>
<trkpt lat="31.7868440" lon="35.0386250">
<ele>525.993347</ele>
<time>2014-05-23T08:32:15.996Z</time>
</trkpt>
<trkpt lat="31.7867630" lon="35.0385280">
<ele>525.993347</ele>
<time>2014-05-23T08:32:18.001Z</time>
</trkpt>
<trkpt lat="31.7866850" lon="35.0384500">
<ele>525.810486</ele>
<time>2014-05-23T08:32:19.997Z</time>
</trkpt>
<trkpt lat="31.7866100" lon="35.0383730">
<ele>525.597107</ele>
<time>2014-05-23T08:32:22.001Z</time>
</trkpt>
<trkpt lat="31.7865260" lon="35.0383020">
<ele>524.987549</ele>
<time>2014-05-23T08:32:23.997Z</time>
</trkpt>
<trkpt lat="31.7864230" lon="35.0382420">
<ele>523.798828</ele>
<time>2014-05-23T08:32:26.002Z</time>
</trkpt>
<trkpt lat="31.7863150" lon="35.0381710">
<ele>522.792969</ele>
<time>2014-05-23T08:32:27.997Z</time>
</trkpt>
<trkpt lat="31.7862060" lon="35.0380940">
<ele>522.000488</ele>
<time>2014-05-23T08:32:30.002Z</time>
</trkpt>
<trkpt lat="31.7860970" lon="35.0380200">
<ele>521.208008</ele>
<time>2014-05-23T08:32:31.998Z</time>
</trkpt>
<trkpt lat="31.7859820" lon="35.0379510">
<ele>519.805908</ele>
<time>2014-05-23T08:32:34.002Z</time>
</trkpt>
<trkpt lat="31.7858590" lon="35.0378860">
<ele>518.800049</ele>
<time>2014-05-23T08:32:35.998Z</time>
</trkpt>
<trkpt lat="31.7857380" lon="35.0378070">
<ele>518.800049</ele>
<time>2014-05-23T08:32:38.003Z</time>
</trkpt>
<trkpt lat="31.7856210" lon="35.0377300">
<ele>519.409668</ele>
<time>2014-05-23T08:32:39.998Z</time>
</trkpt>
<trkpt lat="31.7855140" lon="35.0376630">
<ele>519.805908</ele>
<time>2014-05-23T08:32:42.003Z</time>
</trkpt>
<trkpt lat="31.7854030" lon="35.0376110">
<ele>519.805908</ele>
<time>2014-05-23T08:32:43.999Z</time>
</trkpt>
<trkpt lat="31.7852940" lon="35.0375650">
<ele>518.800049</ele>
<time>2014-05-23T08:32:46.003Z</time>
</trkpt>
<trkpt lat="31.7851930" lon="35.0375180">
<ele>518.190491</ele>
<time>2014-05-23T08:32:47.999Z</time>
</trkpt>
<trkpt lat="31.7850960" lon="35.0374700">
<ele>517.794250</ele>
<time>2014-05-23T08:32:50.004Z</time>
</trkpt>
<trkpt lat="31.7849890" lon="35.0374460">
<ele>515.813049</ele>
<time>2014-05-23T08:32:51.999Z</time>
</trkpt>
<trkpt lat="31.7848780" lon="35.0374310">
<ele>513.405151</ele>
<time>2014-05-23T08:32:54.004Z</time>
</trkpt>
<trkpt lat="31.7847690" lon="35.0374130">
<ele>513.801331</ele>
<time>2014-05-23T08:32:56.000Z</time>
</trkpt>
<trkpt lat="31.7846650" lon="35.0373990">
<ele>514.014709</ele>
<time>2014-05-23T08:32:58.004Z</time>
</trkpt>
<trkpt lat="31.7845670" lon="35.0373930">
<ele>513.801331</ele>
<time>2014-05-23T08:33:00.000Z</time>
</trkpt>
<trkpt lat="31.7844730" lon="35.0373950">
<ele>513.191772</ele>
<time>2014-05-23T08:33:01.996Z</time>
</trkpt>
<trkpt lat="31.7843770" lon="35.0374060">
<ele>512.185913</ele>
<time>2014-05-23T08:33:04.000Z</time>
</trkpt>
<trkpt lat="31.7842810" lon="35.0374070">
<ele>510.997192</ele>
<time>2014-05-23T08:33:05.996Z</time>
</trkpt>
<trkpt lat="31.7841460" lon="35.0374040">
<ele>509.412262</ele>
<time>2014-05-23T08:33:09.003Z</time>
</trkpt>
<trkpt lat="31.7840440" lon="35.0373960">
<ele>508.589264</ele>
<time>2014-05-23T08:33:12.001Z</time>
</trkpt>
<trkpt lat="31.7839430" lon="35.0373940">
<ele>507.187195</ele>
<time>2014-05-23T08:33:16.001Z</time>
</trkpt>
<trkpt lat="31.7838220" lon="35.0374040">
<ele>504.596405</ele>
<time>2014-05-23T08:33:20.002Z</time>
</trkpt>
<trkpt lat="31.7837250" lon="35.0373680">
<ele>505.205994</ele>
<time>2014-05-23T08:33:23.000Z</time>
</trkpt>
<trkpt lat="31.7836120" lon="35.0373230">
<ele>506.211853</ele>
<time>2014-05-23T08:33:25.998Z</time>
</trkpt>
<trkpt lat="31.7835210" lon="35.0372790">
<ele>507.400543</ele>
<time>2014-05-23T08:33:28.002Z</time>
</trkpt>
<trkpt lat="31.7834240" lon="35.0372070">
<ele>510.204742</ele>
<time>2014-05-23T08:33:29.998Z</time>
</trkpt>
<trkpt lat="31.7833270" lon="35.0371190">
<ele>514.014709</ele>
<time>2014-05-23T08:33:32.003Z</time>
</trkpt>
<trkpt lat="31.7832330" lon="35.0370260">
<ele>516.392151</ele>
<time>2014-05-23T08:33:33.998Z</time>
</trkpt>
<trkpt lat="31.7831390" lon="35.0369450">
<ele>515.813049</ele>
<time>2014-05-23T08:33:36.003Z</time>
</trkpt>
<trkpt lat="31.7830450" lon="35.0368780">
<ele>514.197571</ele>
<time>2014-05-23T08:33:37.999Z</time>
</trkpt>
<trkpt lat="31.7829650" lon="35.0368050">
<ele>513.405151</ele>
<time>2014-05-23T08:33:40.003Z</time>
</trkpt>
<trkpt lat="31.7829000" lon="35.0367320">
<ele>513.191772</ele>
<time>2014-05-23T08:33:41.999Z</time>
</trkpt>
<trkpt lat="31.7828480" lon="35.0365860">
<ele>515.813049</ele>
<time>2014-05-23T08:33:44.997Z</time>
</trkpt>
<trkpt lat="31.7828650" lon="35.0364270">
<ele>521.604248</ele>
<time>2014-05-23T08:33:48.004Z</time>
</trkpt>
<trkpt lat="31.7828890" lon="35.0362840">
<ele>527.212524</ele>
<time>2014-05-23T08:33:51.002Z</time>
</trkpt>
<trkpt lat="31.7829300" lon="35.0361380">
<ele>528.005066</ele>
<time>2014-05-23T08:33:54.000Z</time>
</trkpt>
<trkpt lat="31.7829710" lon="35.0360370">
<ele>528.005066</ele>
<time>2014-05-23T08:33:55.996Z</time>
</trkpt>
<trkpt lat="31.7830030" lon="35.0359260">
<ele>529.590027</ele>
<time>2014-05-23T08:33:58.000Z</time>
</trkpt>
<trkpt lat="31.7830380" lon="35.0358270">
<ele>531.601685</ele>
<time>2014-05-23T08:33:59.996Z</time>
</trkpt>
<trkpt lat="31.7830930" lon="35.0356830">
<ele>534.802063</ele>
<time>2014-05-23T08:34:03.003Z</time>
</trkpt>
<trkpt lat="31.7831120" lon="35.0355760">
<ele>535.990784</ele>
<time>2014-05-23T08:34:04.999Z</time>
</trkpt>
<trkpt lat="31.7831250" lon="35.0354730">
<ele>536.996643</ele>
<time>2014-05-23T08:34:07.003Z</time>
</trkpt>
<trkpt lat="31.7831550" lon="35.0353180">
<ele>538.398743</ele>
<time>2014-05-23T08:34:10.001Z</time>
</trkpt>
<trkpt lat="31.7831730" lon="35.0352040">
<ele>539.587463</ele>
<time>2014-05-23T08:34:11.997Z</time>
</trkpt>
<trkpt lat="31.7831610" lon="35.0350700">
<ele>539.008301</ele>
<time>2014-05-23T08:34:14.002Z</time>
</trkpt>
<trkpt lat="31.7831290" lon="35.0349290">
<ele>537.210022</ele>
<time>2014-05-23T08:34:15.997Z</time>
</trkpt>
<trkpt lat="31.7830890" lon="35.0347850">
<ele>534.588745</ele>
<time>2014-05-23T08:34:18.002Z</time>
</trkpt>
<trkpt lat="31.7830270" lon="35.0346270">
<ele>530.809204</ele>
<time>2014-05-23T08:34:19.998Z</time>
</trkpt>
<trkpt lat="31.7829440" lon="35.0344560">
<ele>526.389587</ele>
<time>2014-05-23T08:34:22.002Z</time>
</trkpt>
<trkpt lat="31.7828720" lon="35.0342710">
<ele>523.189209</ele>
<time>2014-05-23T08:34:23.998Z</time>
</trkpt>
<trkpt lat="31.7828100" lon="35.0340750">
<ele>520.811768</ele>
<time>2014-05-23T08:34:26.003Z</time>
</trkpt>
<trkpt lat="31.7827610" lon="35.0338760">
<ele>519.409668</ele>
<time>2014-05-23T08:34:27.998Z</time>
</trkpt>
<trkpt lat="31.7827120" lon="35.0336900">
<ele>519.196350</ele>
<time>2014-05-23T08:34:30.003Z</time>
</trkpt>
<trkpt lat="31.7826550" lon="35.0335200">
<ele>520.202148</ele>
<time>2014-05-23T08:34:31.999Z</time>
</trkpt>
<trkpt lat="31.7825760" lon="35.0333770">
<ele>519.013428</ele>
<time>2014-05-23T08:34:34.003Z</time>
</trkpt>
<trkpt lat="31.7824710" lon="35.0332480">
<ele>515.813049</ele>
<time>2014-05-23T08:34:35.999Z</time>
</trkpt>
<trkpt lat="31.7823480" lon="35.0331340">
<ele>511.393463</ele>
<time>2014-05-23T08:34:38.004Z</time>
</trkpt>
<trkpt lat="31.7822190" lon="35.0330290">
<ele>508.193054</ele>
<time>2014-05-23T08:34:39.999Z</time>
</trkpt>
<trkpt lat="31.7820860" lon="35.0329290">
<ele>504.596405</ele>
<time>2014-05-23T08:34:42.004Z</time>
</trkpt>
<trkpt lat="31.7819580" lon="35.0328290">
<ele>502.005615</ele>
<time>2014-05-23T08:34:44.000Z</time>
</trkpt>
<trkpt lat="31.7818470" lon="35.0327360">
<ele>500.207275</ele>
<time>2014-05-23T08:34:46.004Z</time>
</trkpt>
<trkpt lat="31.7817490" lon="35.0326530">
<ele>498.408936</ele>
<time>2014-05-23T08:34:48.000Z</time>
</trkpt>
<trkpt lat="31.7816550" lon="35.0325810">
<ele>496.397278</ele>
<time>2014-05-23T08:34:49.996Z</time>
</trkpt>
<trkpt lat="31.7815690" lon="35.0325070">
<ele>494.995209</ele>
<time>2014-05-23T08:34:52.000Z</time>
</trkpt>
<trkpt lat="31.7815070" lon="35.0324100">
<ele>496.001068</ele>
<time>2014-05-23T08:34:53.996Z</time>
</trkpt>
<trkpt lat="31.7814660" lon="35.0323020">
<ele>498.195587</ele>
<time>2014-05-23T08:34:56.001Z</time>
</trkpt>
<trkpt lat="31.7814440" lon="35.0321970">
<ele>501.213135</ele>
<time>2014-05-23T08:34:57.996Z</time>
</trkpt>
<trkpt lat="31.7814350" lon="35.0320530">
<ele>504.992645</ele>
<time>2014-05-23T08:35:01.003Z</time>
</trkpt>
<trkpt lat="31.7814400" lon="35.0319110">
<ele>505.998474</ele>
<time>2014-05-23T08:35:04.001Z</time>
</trkpt>
<trkpt lat="31.7814450" lon="35.0318050">
<ele>506.394714</ele>
<time>2014-05-23T08:35:05.997Z</time>
</trkpt>
<trkpt lat="31.7814380" lon="35.0316970">
<ele>506.394714</ele>
<time>2014-05-23T08:35:08.002Z</time>
</trkpt>
<trkpt lat="31.7814270" lon="35.0315780">
<ele>506.394714</ele>
<time>2014-05-23T08:35:09.997Z</time>
</trkpt>
<trkpt lat="31.7814130" lon="35.0314470">
<ele>506.211853</ele>
<time>2014-05-23T08:35:12.002Z</time>
</trkpt>
<trkpt lat="31.7813970" lon="35.0313030">
<ele>505.998474</ele>
<time>2014-05-23T08:35:13.998Z</time>
</trkpt>
<trkpt lat="31.7813980" lon="35.0311650">
<ele>505.205994</ele>
<time>2014-05-23T08:35:16.002Z</time>
</trkpt>
<trkpt lat="31.7814430" lon="35.0310550">
<ele>504.596405</ele>
<time>2014-05-23T08:35:17.998Z</time>
</trkpt>
<trkpt lat="31.7815500" lon="35.0310020">
<ele>505.785126</ele>
<time>2014-05-23T08:35:20.996Z</time>
</trkpt>
<trkpt lat="31.7816650" lon="35.0310220">
<ele>507.613922</ele>
<time>2014-05-23T08:35:25.999Z</time>
</trkpt>
<trkpt lat="31.7817670" lon="35.0310610">
<ele>509.595123</ele>
<time>2014-05-23T08:35:29.999Z</time>
</trkpt>
<trkpt lat="31.7818730" lon="35.0310820">
<ele>511.393463</ele>
<time>2014-05-23T08:35:33.999Z</time>
</trkpt>
<trkpt lat="31.7819860" lon="35.0310870">
<ele>512.795532</ele>
<time>2014-05-23T08:35:38.000Z</time>
</trkpt>
<trkpt lat="31.7820870" lon="35.0310810">
<ele>514.014709</ele>
<time>2014-05-23T08:35:40.998Z</time>
</trkpt>
<trkpt lat="31.7821920" lon="35.0310730">
<ele>514.990051</ele>
<time>2014-05-23T08:35:43.996Z</time>
</trkpt>
<trkpt lat="31.7822960" lon="35.0310530">
<ele>515.813049</ele>
<time>2014-05-23T08:35:47.003Z</time>
</trkpt>
<trkpt lat="31.7824050" lon="35.0310340">
<ele>516.605530</ele>
<time>2014-05-23T08:35:50.001Z</time>
</trkpt>
<trkpt lat="31.7825120" lon="35.0309960">
<ele>517.398010</ele>
<time>2014-05-23T08:35:52.999Z</time>
</trkpt>
<trkpt lat="31.7826140" lon="35.0309370">
<ele>517.794250</ele>
<time>2014-05-23T08:35:55.997Z</time>
</trkpt>
<trkpt lat="31.7827070" lon="35.0308650">
<ele>517.611328</ele>
<time>2014-05-23T08:35:59.004Z</time>
</trkpt>
<trkpt lat="31.7827540" lon="35.0307630">
<ele>516.605530</ele>
<time>2014-05-23T08:36:02.002Z</time>
</trkpt>
<trkpt lat="31.7827860" lon="35.0306550">
<ele>515.995911</ele>
<time>2014-05-23T08:36:05.000Z</time>
</trkpt>
<trkpt lat="31.7828410" lon="35.0305730">
<ele>516.392151</ele>
<time>2014-05-23T08:36:32.000Z</time>
</trkpt>
<trkpt lat="31.7828420" lon="35.0304550">
<ele>514.990051</ele>
<time>2014-05-23T08:36:37.996Z</time>
</trkpt>
<trkpt lat="31.7828550" lon="35.0303290">
<ele>514.197571</ele>
<time>2014-05-23T08:36:41.996Z</time>
</trkpt>
<trkpt lat="31.7828630" lon="35.0302200">
<ele>513.405151</ele>
<time>2014-05-23T08:36:45.003Z</time>
</trkpt>
<trkpt lat="31.7828630" lon="35.0300930">
<ele>512.399292</ele>
<time>2014-05-23T08:36:48.001Z</time>
</trkpt>
<trkpt lat="31.7828480" lon="35.0299360">
<ele>510.600952</ele>
<time>2014-05-23T08:36:50.999Z</time>
</trkpt>
<trkpt lat="31.7828260" lon="35.0298160">
<ele>508.802643</ele>
<time>2014-05-23T08:36:53.004Z</time>
</trkpt>
<trkpt lat="31.7828080" lon="35.0296940">
<ele>507.187195</ele>
<time>2014-05-23T08:36:54.999Z</time>
</trkpt>
<trkpt lat="31.7827840" lon="35.0295670">
<ele>505.602264</ele>
<time>2014-05-23T08:36:57.004Z</time>
</trkpt>
<trkpt lat="31.7827560" lon="35.0294440">
<ele>503.986786</ele>
<time>2014-05-23T08:36:59.000Z</time>
</trkpt>
<trkpt lat="31.7827310" lon="35.0293200">
<ele>502.401855</ele>
<time>2014-05-23T08:37:01.004Z</time>
</trkpt>
<trkpt lat="31.7827040" lon="35.0291920">
<ele>500.999756</ele>
<time>2014-05-23T08:37:03.000Z</time>
</trkpt>
<trkpt lat="31.7826880" lon="35.0290610">
<ele>499.597687</ele>
<time>2014-05-23T08:37:04.996Z</time>
</trkpt>
<trkpt lat="31.7826880" lon="35.0289410">
<ele>497.799347</ele>
<time>2014-05-23T08:37:07.000Z</time>
</trkpt>
<trkpt lat="31.7827190" lon="35.0288340">
<ele>496.793518</ele>
<time>2014-05-23T08:37:08.996Z</time>
</trkpt>
<trkpt lat="31.7827740" lon="35.0287380">
<ele>496.397278</ele>
<time>2014-05-23T08:37:11.001Z</time>
</trkpt>
<trkpt lat="31.7828500" lon="35.0286560">
<ele>497.006866</ele>
<time>2014-05-23T08:37:12.996Z</time>
</trkpt>
<trkpt lat="31.7829320" lon="35.0285840">
<ele>497.585999</ele>
<time>2014-05-23T08:37:15.001Z</time>
</trkpt>
<trkpt lat="31.7830240" lon="35.0285050">
<ele>498.012726</ele>
<time>2014-05-23T08:37:16.997Z</time>
</trkpt>
<trkpt lat="31.7830930" lon="35.0284290">
<ele>497.189758</ele>
<time>2014-05-23T08:37:19.001Z</time>
</trkpt>
<trkpt lat="31.7831570" lon="35.0283450">
<ele>496.214386</ele>
<time>2014-05-23T08:37:20.997Z</time>
</trkpt>
<trkpt lat="31.7832200" lon="35.0282690">
<ele>495.208557</ele>
<time>2014-05-23T08:37:23.002Z</time>
</trkpt>
<trkpt lat="31.7833300" lon="35.0281870">
<ele>492.800659</ele>
<time>2014-05-23T08:37:26.000Z</time>
</trkpt>
<trkpt lat="31.7834250" lon="35.0281960">
<ele>492.191040</ele>
<time>2014-05-23T08:37:28.004Z</time>
</trkpt>
<trkpt lat="31.7835260" lon="35.0282500">
<ele>492.191040</ele>
<time>2014-05-23T08:37:30.000Z</time>
</trkpt>
<trkpt lat="31.7836200" lon="35.0283200">
<ele>492.587280</ele>
<time>2014-05-23T08:37:31.996Z</time>
</trkpt>
<trkpt lat="31.7837110" lon="35.0283890">
<ele>493.014008</ele>
<time>2014-05-23T08:37:34.000Z</time>
</trkpt>
<trkpt lat="31.7837890" lon="35.0284590">
<ele>493.410248</ele>
<time>2014-05-23T08:37:35.996Z</time>
</trkpt>
<trkpt lat="31.7838710" lon="35.0285200">
<ele>493.593140</ele>
<time>2014-05-23T08:37:38.001Z</time>
</trkpt>
<trkpt lat="31.7839630" lon="35.0285360">
<ele>492.404388</ele>
<time>2014-05-23T08:37:39.996Z</time>
</trkpt>
<trkpt lat="31.7840620" lon="35.0285300">
<ele>490.209869</ele>
<time>2014-05-23T08:37:42.001Z</time>
</trkpt>
<trkpt lat="31.7841610" lon="35.0285500">
<ele>489.204010</ele>
<time>2014-05-23T08:37:43.997Z</time>
</trkpt>
<trkpt lat="31.7842580" lon="35.0286020">
<ele>488.990662</ele>
<time>2014-05-23T08:37:46.001Z</time>
</trkpt>
<trkpt lat="31.7843440" lon="35.0286780">
<ele>489.813599</ele>
<time>2014-05-23T08:37:47.997Z</time>
</trkpt>
<trkpt lat="31.7844230" lon="35.0287620">
<ele>491.002319</ele>
<time>2014-05-23T08:37:50.002Z</time>
</trkpt>
<trkpt lat="31.7844960" lon="35.0288520">
<ele>493.410248</ele>
<time>2014-05-23T08:37:51.997Z</time>
</trkpt>
<trkpt lat="31.7845630" lon="35.0289490">
<ele>496.001068</ele>
<time>2014-05-23T08:37:54.002Z</time>
</trkpt>
<trkpt lat="31.7846500" lon="35.0290380">
<ele>498.012726</ele>
<time>2014-05-23T08:37:55.998Z</time>
</trkpt>
<trkpt lat="31.7847520" lon="35.0290950">
<ele>498.591858</ele>
<time>2014-05-23T08:37:58.002Z</time>
</trkpt>
<trkpt lat="31.7848660" lon="35.0291400">
<ele>498.591858</ele>
<time>2014-05-23T08:37:59.998Z</time>
</trkpt>
<trkpt lat="31.7849820" lon="35.0291450">
<ele>498.591858</ele>
<time>2014-05-23T08:38:02.003Z</time>
</trkpt>
<trkpt lat="31.7850920" lon="35.0291050">
<ele>497.189758</ele>
<time>2014-05-23T08:38:03.998Z</time>
</trkpt>
<trkpt lat="31.7852080" lon="35.0290600">
<ele>495.604797</ele>
<time>2014-05-23T08:38:06.003Z</time>
</trkpt>
<trkpt lat="31.7853140" lon="35.0289980">
<ele>493.593140</ele>
<time>2014-05-23T08:38:07.999Z</time>
</trkpt>
<trkpt lat="31.7854170" lon="35.0289260">
<ele>491.398560</ele>
<time>2014-05-23T08:38:10.003Z</time>
</trkpt>
<trkpt lat="31.7855260" lon="35.0288630">
<ele>489.386871</ele>
<time>2014-05-23T08:38:11.999Z</time>
</trkpt>
<trkpt lat="31.7856380" lon="35.0288060">
<ele>487.588531</ele>
<time>2014-05-23T08:38:14.004Z</time>
</trkpt>
<trkpt lat="31.7857460" lon="35.0287740">
<ele>486.399841</ele>
<time>2014-05-23T08:38:15.999Z</time>
</trkpt>
<trkpt lat="31.7858430" lon="35.0287530">
<ele>484.601532</ele>
<time>2014-05-23T08:38:18.004Z</time>
</trkpt>
<trkpt lat="31.7859540" lon="35.0287380">
<ele>482.986084</ele>
<time>2014-05-23T08:38:20.000Z</time>
</trkpt>
<trkpt lat="31.7860640" lon="35.0287390">
<ele>482.010742</ele>
<time>2014-05-23T08:38:22.004Z</time>
</trkpt>
<trkpt lat="31.7861690" lon="35.0287410">
<ele>481.004883</ele>
<time>2014-05-23T08:38:24.000Z</time>
</trkpt>
<trkpt lat="31.7862820" lon="35.0287400">
<ele>479.999054</ele>
<time>2014-05-23T08:38:25.996Z</time>
</trkpt>
<trkpt lat="31.7863940" lon="35.0287300">
<ele>478.414063</ele>
<time>2014-05-23T08:38:28.000Z</time>
</trkpt>
<trkpt lat="31.7865130" lon="35.0287380">
<ele>477.591125</ele>
<time>2014-05-23T08:38:29.996Z</time>
</trkpt>
<trkpt lat="31.7866280" lon="35.0287820">
<ele>476.798645</ele>
<time>2014-05-23T08:38:32.001Z</time>
</trkpt>
<trkpt lat="31.7867360" lon="35.0288480">
<ele>476.189056</ele>
<time>2014-05-23T08:38:33.996Z</time>
</trkpt>
<trkpt lat="31.7868390" lon="35.0289340">
<ele>476.585266</ele>
<time>2014-05-23T08:38:36.001Z</time>
</trkpt>
<trkpt lat="31.7869460" lon="35.0290160">
<ele>476.798645</ele>
<time>2014-05-23T08:38:37.997Z</time>
</trkpt>
<trkpt lat="31.7870550" lon="35.0290950">
<ele>476.798645</ele>
<time>2014-05-23T08:38:40.001Z</time>
</trkpt>
<trkpt lat="31.7871690" lon="35.0291700">
<ele>476.585266</ele>
<time>2014-05-23T08:38:41.997Z</time>
</trkpt>
<trkpt lat="31.7872810" lon="35.0292480">
<ele>476.402405</ele>
<time>2014-05-23T08:38:44.002Z</time>
</trkpt>
<trkpt lat="31.7873950" lon="35.0293180">
<ele>475.792786</ele>
<time>2014-05-23T08:38:45.997Z</time>
</trkpt>
<trkpt lat="31.7875050" lon="35.0293830">
<ele>474.786957</ele>
<time>2014-05-23T08:38:48.002Z</time>
</trkpt>
<trkpt lat="31.7876140" lon="35.0294460">
<ele>473.598267</ele>
<time>2014-05-23T08:38:49.998Z</time>
</trkpt>
<trkpt lat="31.7877280" lon="35.0295050">
<ele>472.013275</ele>
<time>2014-05-23T08:38:52.002Z</time>
</trkpt>
<trkpt lat="31.7878340" lon="35.0295670">
<ele>471.007446</ele>
<time>2014-05-23T08:38:53.998Z</time>
</trkpt>
<trkpt lat="31.7879470" lon="35.0296290">
<ele>468.995758</ele>
<time>2014-05-23T08:38:56.003Z</time>
</trkpt>
<trkpt lat="31.7880610" lon="35.0297000">
<ele>466.801208</ele>
<time>2014-05-23T08:38:57.998Z</time>
</trkpt>
<trkpt lat="31.7881690" lon="35.0297940">
<ele>465.185730</ele>
<time>2014-05-23T08:39:00.003Z</time>
</trkpt>
<trkpt lat="31.7882760" lon="35.0298960">
<ele>465.002869</ele>
<time>2014-05-23T08:39:01.999Z</time>
</trkpt>
<trkpt lat="31.7883850" lon="35.0299920">
<ele>465.399139</ele>
<time>2014-05-23T08:39:04.003Z</time>
</trkpt>
<trkpt lat="31.7884880" lon="35.0300900">
<ele>465.795349</ele>
<time>2014-05-23T08:39:05.999Z</time>
</trkpt>
<trkpt lat="31.7885770" lon="35.0302030">
<ele>467.014557</ele>
<time>2014-05-23T08:39:08.004Z</time>
</trkpt>
<trkpt lat="31.7886610" lon="35.0303180">
<ele>468.203278</ele>
<time>2014-05-23T08:39:09.999Z</time>
</trkpt>
<trkpt lat="31.7887260" lon="35.0304310">
<ele>469.391998</ele>
<time>2014-05-23T08:39:12.004Z</time>
</trkpt>
<trkpt lat="31.7887790" lon="35.0305260">
<ele>469.209137</ele>
<time>2014-05-23T08:39:14.000Z</time>
</trkpt>
<trkpt lat="31.7888630" lon="35.0306050">
<ele>468.203278</ele>
<time>2014-05-23T08:39:16.998Z</time>
</trkpt>
<trkpt lat="31.7889600" lon="35.0305480">
<ele>466.191589</ele>
<time>2014-05-23T08:39:19.996Z</time>
</trkpt>
<trkpt lat="31.7890170" lon="35.0304050">
<ele>464.210388</ele>
<time>2014-05-23T08:39:23.003Z</time>
</trkpt>
<trkpt lat="31.7890230" lon="35.0302510">
<ele>463.997040</ele>
<time>2014-05-23T08:39:26.001Z</time>
</trkpt>
<trkpt lat="31.7890310" lon="35.0300960">
<ele>464.210388</ele>
<time>2014-05-23T08:39:28.999Z</time>
</trkpt>
<trkpt lat="31.7890310" lon="35.0299710">
<ele>464.393280</ele>
<time>2014-05-23T08:39:31.997Z</time>
</trkpt>
<trkpt lat="31.7890030" lon="35.0298510">
<ele>464.393280</ele>
<time>2014-05-23T08:39:35.997Z</time>
</trkpt>
<trkpt lat="31.7889710" lon="35.0297310">
<ele>464.210388</ele>
<time>2014-05-23T08:39:39.004Z</time>
</trkpt>
<trkpt lat="31.7889410" lon="35.0296150">
<ele>464.210388</ele>
<time>2014-05-23T08:39:42.002Z</time>
</trkpt>
<trkpt lat="31.7889160" lon="35.0295070">
<ele>462.808319</ele>
<time>2014-05-23T08:39:45.000Z</time>
</trkpt>
<trkpt lat="31.7888910" lon="35.0294010">
<ele>461.589142</ele>
<time>2014-05-23T08:39:47.998Z</time>
</trkpt>
<trkpt lat="31.7888530" lon="35.0292940">
<ele>461.406250</ele>
<time>2014-05-23T08:39:50.996Z</time>
</trkpt>
<trkpt lat="31.7888030" lon="35.0291730">
<ele>460.796661</ele>
<time>2014-05-23T08:39:54.003Z</time>
</trkpt>
<trkpt lat="31.7887450" lon="35.0290390">
<ele>460.187042</ele>
<time>2014-05-23T08:39:57.001Z</time>
</trkpt>
<trkpt lat="31.7886800" lon="35.0289170">
<ele>459.211670</ele>
<time>2014-05-23T08:39:59.999Z</time>
</trkpt>
<trkpt lat="31.7886360" lon="35.0287960">
<ele>458.784943</ele>
<time>2014-05-23T08:40:02.997Z</time>
</trkpt>
<trkpt lat="31.7885930" lon="35.0286730">
<ele>458.602081</ele>
<time>2014-05-23T08:40:06.004Z</time>
</trkpt>
<trkpt lat="31.7885200" lon="35.0285580">
<ele>457.596252</ele>
<time>2014-05-23T08:40:09.002Z</time>
</trkpt>
<trkpt lat="31.7884490" lon="35.0284810">
<ele>456.194153</ele>
<time>2014-05-23T08:40:10.998Z</time>
</trkpt>
<trkpt lat="31.7883790" lon="35.0284010">
<ele>455.005463</ele>
<time>2014-05-23T08:40:13.002Z</time>
</trkpt>
<trkpt lat="31.7883090" lon="35.0283190">
<ele>453.603333</ele>
<time>2014-05-23T08:40:14.998Z</time>
</trkpt>
<trkpt lat="31.7882400" lon="35.0282330">
<ele>452.414642</ele>
<time>2014-05-23T08:40:17.003Z</time>
</trkpt>
<trkpt lat="31.7881730" lon="35.0281450">
<ele>451.591675</ele>
<time>2014-05-23T08:40:18.998Z</time>
</trkpt>
<trkpt lat="31.7881040" lon="35.0280520">
<ele>451.012543</ele>
<time>2014-05-23T08:40:21.003Z</time>
</trkpt>
<trkpt lat="31.7880390" lon="35.0279570">
<ele>450.402954</ele>
<time>2014-05-23T08:40:22.999Z</time>
</trkpt>
<trkpt lat="31.7879700" lon="35.0278560">
<ele>450.006714</ele>
<time>2014-05-23T08:40:25.003Z</time>
</trkpt>
<trkpt lat="31.7878950" lon="35.0277540">
<ele>449.397125</ele>
<time>2014-05-23T08:40:26.999Z</time>
</trkpt>
<trkpt lat="31.7878200" lon="35.0276470">
<ele>448.787537</ele>
<time>2014-05-23T08:40:29.004Z</time>
</trkpt>
<trkpt lat="31.7877460" lon="35.0275430">
<ele>448.391266</ele>
<time>2014-05-23T08:40:30.999Z</time>
</trkpt>
<trkpt lat="31.7876590" lon="35.0274570">
<ele>447.202545</ele>
<time>2014-05-23T08:40:33.004Z</time>
</trkpt>
<trkpt lat="31.7875670" lon="35.0273850">
<ele>445.800476</ele>
<time>2014-05-23T08:40:35.000Z</time>
</trkpt>
<trkpt lat="31.7874680" lon="35.0273090">
<ele>444.398407</ele>
<time>2014-05-23T08:40:37.004Z</time>
</trkpt>
<trkpt lat="31.7873670" lon="35.0272200">
<ele>443.209686</ele>
<time>2014-05-23T08:40:39.000Z</time>
</trkpt>
<trkpt lat="31.7872650" lon="35.0271450">
<ele>441.807587</ele>
<time>2014-05-23T08:40:40.996Z</time>
</trkpt>
<trkpt lat="31.7871730" lon="35.0270620">
<ele>440.801758</ele>
<time>2014-05-23T08:40:43.000Z</time>
</trkpt>
<trkpt lat="31.7870900" lon="35.0269650">
<ele>440.405518</ele>
<time>2014-05-23T08:40:44.996Z</time>
</trkpt>
<trkpt lat="31.7869960" lon="35.0268890">
<ele>439.613068</ele>
<time>2014-05-23T08:40:47.001Z</time>
</trkpt>
<trkpt lat="31.7869070" lon="35.0268300">
<ele>438.393860</ele>
<time>2014-05-23T08:40:48.996Z</time>
</trkpt>
<trkpt lat="31.7868120" lon="35.0267670">
<ele>437.388000</ele>
<time>2014-05-23T08:40:51.001Z</time>
</trkpt>
<trkpt lat="31.7867340" lon="35.0266780">
<ele>436.991760</ele>
<time>2014-05-23T08:40:52.997Z</time>
</trkpt>
<trkpt lat="31.7866630" lon="35.0265830">
<ele>436.808868</ele>
<time>2014-05-23T08:40:55.001Z</time>
</trkpt>
<trkpt lat="31.7865780" lon="35.0264970">
<ele>436.199280</ele>
<time>2014-05-23T08:40:56.997Z</time>
</trkpt>
<trkpt lat="31.7864780" lon="35.0264290">
<ele>434.797211</ele>
<time>2014-05-23T08:40:59.002Z</time>
</trkpt>
<trkpt lat="31.7863770" lon="35.0263540">
<ele>433.395142</ele>
<time>2014-05-23T08:41:00.997Z</time>
</trkpt>
<trkpt lat="31.7862890" lon="35.0262520">
<ele>432.785522</ele>
<time>2014-05-23T08:41:03.002Z</time>
</trkpt>
<trkpt lat="31.7861880" lon="35.0261650">
<ele>431.993042</ele>
<time>2014-05-23T08:41:04.998Z</time>
</trkpt>
<trkpt lat="31.7860780" lon="35.0260870">
<ele>430.987213</ele>
<time>2014-05-23T08:41:07.002Z</time>
</trkpt>
<trkpt lat="31.7859630" lon="35.0260160">
<ele>429.585114</ele>
<time>2014-05-23T08:41:08.998Z</time>
</trkpt>
<trkpt lat="31.7858600" lon="35.0259300">
<ele>428.792664</ele>
<time>2014-05-23T08:41:11.003Z</time>
</trkpt>
<trkpt lat="31.7857810" lon="35.0258160">
<ele>429.006012</ele>
<time>2014-05-23T08:41:12.998Z</time>
</trkpt>
<trkpt lat="31.7857210" lon="35.0256850">
<ele>430.194733</ele>
<time>2014-05-23T08:41:15.003Z</time>
</trkpt>
<trkpt lat="31.7856800" lon="35.0255350">
<ele>431.596802</ele>
<time>2014-05-23T08:41:16.999Z</time>
</trkpt>
<trkpt lat="31.7856440" lon="35.0253810">
<ele>432.998871</ele>
<time>2014-05-23T08:41:19.003Z</time>
</trkpt>
<trkpt lat="31.7856110" lon="35.0252320">
<ele>432.998871</ele>
<time>2014-05-23T08:41:20.999Z</time>
</trkpt>
<trkpt lat="31.7855770" lon="35.0250900">
<ele>433.212250</ele>
<time>2014-05-23T08:41:23.004Z</time>
</trkpt>
<trkpt lat="31.7855480" lon="35.0249490">
<ele>433.608459</ele>
<time>2014-05-23T08:41:24.999Z</time>
</trkpt>
<trkpt lat="31.7855220" lon="35.0248110">
<ele>434.004730</ele>
<time>2014-05-23T08:41:27.004Z</time>
</trkpt>
<trkpt lat="31.7854910" lon="35.0246760">
<ele>434.187592</ele>
<time>2014-05-23T08:41:29.000Z</time>
</trkpt>
<trkpt lat="31.7854700" lon="35.0245360">
<ele>434.614319</ele>
<time>2014-05-23T08:41:31.004Z</time>
</trkpt>
<trkpt lat="31.7854610" lon="35.0243990">
<ele>435.193451</ele>
<time>2014-05-23T08:41:33.000Z</time>
</trkpt>
<trkpt lat="31.7854370" lon="35.0242660">
<ele>435.193451</ele>
<time>2014-05-23T08:41:34.996Z</time>
</trkpt>
<trkpt lat="31.7854080" lon="35.0241310">
<ele>435.010559</ele>
<time>2014-05-23T08:41:37.000Z</time>
</trkpt>
<trkpt lat="31.7853830" lon="35.0240030">
<ele>435.010559</ele>
<time>2014-05-23T08:41:38.996Z</time>
</trkpt>
<trkpt lat="31.7853370" lon="35.0238830">
<ele>434.187592</ele>
<time>2014-05-23T08:41:41.001Z</time>
</trkpt>
<trkpt lat="31.7852780" lon="35.0237670">
<ele>432.785522</ele>
<time>2014-05-23T08:41:42.996Z</time>
</trkpt>
<trkpt lat="31.7852120" lon="35.0236560">
<ele>431.993042</ele>
<time>2014-05-23T08:41:45.001Z</time>
</trkpt>
<trkpt lat="31.7851400" lon="35.0235530">
<ele>431.200531</ele>
<time>2014-05-23T08:41:46.997Z</time>
</trkpt>
<trkpt lat="31.7850600" lon="35.0234520">
<ele>430.011841</ele>
<time>2014-05-23T08:41:49.001Z</time>
</trkpt>
<trkpt lat="31.7849640" lon="35.0233630">
<ele>428.000153</ele>
<time>2014-05-23T08:41:50.997Z</time>
</trkpt>
<trkpt lat="31.7848670" lon="35.0232840">
<ele>425.805603</ele>
<time>2014-05-23T08:41:53.002Z</time>
</trkpt>
<trkpt lat="31.7847910" lon="35.0231920">
<ele>424.586395</ele>
<time>2014-05-23T08:41:54.997Z</time>
</trkpt>
<trkpt lat="31.7847170" lon="35.0231240">
<ele>423.214813</ele>
<time>2014-05-23T08:41:57.002Z</time>
</trkpt>
<trkpt lat="31.7846140" lon="35.0230430">
<ele>420.806885</ele>
<time>2014-05-23T08:42:00.000Z</time>
</trkpt>
<trkpt lat="31.7845250" lon="35.0229510">
<ele>419.191467</ele>
<time>2014-05-23T08:42:02.998Z</time>
</trkpt>
<trkpt lat="31.7844310" lon="35.0228480">
<ele>418.398956</ele>
<time>2014-05-23T08:42:05.996Z</time>
</trkpt>
<trkpt lat="31.7843630" lon="35.0227700">
<ele>418.185608</ele>
<time>2014-05-23T08:42:08.001Z</time>
</trkpt>
<trkpt lat="31.7842930" lon="35.0226790">
<ele>418.185608</ele>
<time>2014-05-23T08:42:09.996Z</time>
</trkpt>
<trkpt lat="31.7842450" lon="35.0225720">
<ele>419.404785</ele>
<time>2014-05-23T08:42:12.001Z</time>
</trkpt>
<trkpt lat="31.7842310" lon="35.0224660">
<ele>421.995605</ele>
<time>2014-05-23T08:42:13.997Z</time>
</trkpt>
<trkpt lat="31.7842820" lon="35.0223470">
<ele>426.994324</ele>
<time>2014-05-23T08:42:17.004Z</time>
</trkpt>
<trkpt lat="31.7843710" lon="35.0222620">
<ele>429.402252</ele>
<time>2014-05-23T08:42:20.002Z</time>
</trkpt>
<trkpt lat="31.7844640" lon="35.0221640">
<ele>431.413940</ele>
<time>2014-05-23T08:42:23.000Z</time>
</trkpt>
<trkpt lat="31.7845560" lon="35.0220630">
<ele>433.212250</ele>
<time>2014-05-23T08:42:25.998Z</time>
</trkpt>
<trkpt lat="31.7846490" lon="35.0219750">
<ele>434.400940</ele>
<time>2014-05-23T08:42:28.996Z</time>
</trkpt>
<trkpt lat="31.7847510" lon="35.0219110">
<ele>435.406799</ele>
<time>2014-05-23T08:42:32.003Z</time>
</trkpt>
<trkpt lat="31.7848530" lon="35.0218660">
<ele>435.985931</ele>
<time>2014-05-23T08:42:35.001Z</time>
</trkpt>
<trkpt lat="31.7849550" lon="35.0218250">
<ele>436.412659</ele>
<time>2014-05-23T08:42:37.999Z</time>
</trkpt>
<trkpt lat="31.7850510" lon="35.0217930">
<ele>436.991760</ele>
<time>2014-05-23T08:42:40.997Z</time>
</trkpt>
<trkpt lat="31.7851520" lon="35.0217660">
<ele>437.601349</ele>
<time>2014-05-23T08:42:44.004Z</time>
</trkpt>
<trkpt lat="31.7852460" lon="35.0217380">
<ele>438.210938</ele>
<time>2014-05-23T08:42:47.002Z</time>
</trkpt>
<trkpt lat="31.7853330" lon="35.0216870">
<ele>438.393860</ele>
<time>2014-05-23T08:42:50.000Z</time>
</trkpt>
<trkpt lat="31.7854310" lon="35.0216310">
<ele>438.393860</ele>
<time>2014-05-23T08:42:52.998Z</time>
</trkpt>
<trkpt lat="31.7855360" lon="35.0215710">
<ele>438.393860</ele>
<time>2014-05-23T08:42:55.996Z</time>
</trkpt>
<trkpt lat="31.7856470" lon="35.0215450">
<ele>438.790070</ele>
<time>2014-05-23T08:42:59.003Z</time>
</trkpt>
<trkpt lat="31.7857450" lon="35.0214910">
<ele>438.790070</ele>
<time>2014-05-23T08:43:02.001Z</time>
</trkpt>
<trkpt lat="31.7858340" lon="35.0214010">
<ele>438.790070</ele>
<time>2014-05-23T08:43:04.999Z</time>
</trkpt>
<trkpt lat="31.7859460" lon="35.0213050">
<ele>437.601349</ele>
<time>2014-05-23T08:43:07.997Z</time>
</trkpt>
<trkpt lat="31.7860300" lon="35.0212390">
<ele>436.991760</ele>
<time>2014-05-23T08:43:10.001Z</time>
</trkpt>
<trkpt lat="31.7861080" lon="35.0211630">
<ele>436.412659</ele>
<time>2014-05-23T08:43:11.997Z</time>
</trkpt>
<trkpt lat="31.7861760" lon="35.0210810">
<ele>435.589661</ele>
<time>2014-05-23T08:43:14.002Z</time>
</trkpt>
<trkpt lat="31.7862410" lon="35.0210010">
<ele>434.797211</ele>
<time>2014-05-23T08:43:15.997Z</time>
</trkpt>
<trkpt lat="31.7863060" lon="35.0209080">
<ele>433.791351</ele>
<time>2014-05-23T08:43:18.002Z</time>
</trkpt>
<trkpt lat="31.7863930" lon="35.0207980">
<ele>432.602661</ele>
<time>2014-05-23T08:43:21.000Z</time>
</trkpt>
<trkpt lat="31.7864680" lon="35.0207160">
<ele>431.810150</ele>
<time>2014-05-23T08:43:23.998Z</time>
</trkpt>
<trkpt lat="31.7865500" lon="35.0206240">
<ele>430.590942</ele>
<time>2014-05-23T08:43:29.001Z</time>
</trkpt>
<trkpt lat="31.7866190" lon="35.0205480">
<ele>429.585114</ele>
<time>2014-05-23T08:43:31.999Z</time>
</trkpt>
<trkpt lat="31.7866880" lon="35.0204650">
<ele>427.786804</ele>
<time>2014-05-23T08:43:34.997Z</time>
</trkpt>
<trkpt lat="31.7867900" lon="35.0203950">
<ele>425.805603</ele>
<time>2014-05-23T08:43:38.004Z</time>
</trkpt>
<trkpt lat="31.7869000" lon="35.0203440">
<ele>424.007263</ele>
<time>2014-05-23T08:43:41.002Z</time>
</trkpt>
<trkpt lat="31.7870040" lon="35.0203310">
<ele>423.001465</ele>
<time>2014-05-23T08:43:44.000Z</time>
</trkpt>
<trkpt lat="31.7871260" lon="35.0203590">
<ele>422.605194</ele>
<time>2014-05-23T08:43:46.998Z</time>
</trkpt>
<trkpt lat="31.7872130" lon="35.0204190">
<ele>423.214813</ele>
<time>2014-05-23T08:43:49.002Z</time>
</trkpt>
<trkpt lat="31.7873000" lon="35.0205000">
<ele>424.007263</ele>
<time>2014-05-23T08:43:50.998Z</time>
</trkpt>
<trkpt lat="31.7873800" lon="35.0205960">
<ele>425.196014</ele>
<time>2014-05-23T08:43:53.003Z</time>
</trkpt>
<trkpt lat="31.7874750" lon="35.0206900">
<ele>426.598083</ele>
<time>2014-05-23T08:43:54.998Z</time>
</trkpt>
<trkpt lat="31.7875840" lon="35.0207750">
<ele>427.603912</ele>
<time>2014-05-23T08:43:57.003Z</time>
</trkpt>
<trkpt lat="31.7877130" lon="35.0208430">
<ele>428.396393</ele>
<time>2014-05-23T08:43:58.999Z</time>
</trkpt>
<trkpt lat="31.7878610" lon="35.0208970">
<ele>428.792664</ele>
<time>2014-05-23T08:44:01.003Z</time>
</trkpt>
<trkpt lat="31.7880110" lon="35.0209280">
<ele>428.792664</ele>
<time>2014-05-23T08:44:02.999Z</time>
</trkpt>
<trkpt lat="31.7881440" lon="35.0209530">
<ele>428.609741</ele>
<time>2014-05-23T08:44:05.004Z</time>
</trkpt>
<trkpt lat="31.7882720" lon="35.0209570">
<ele>428.792664</ele>
<time>2014-05-23T08:44:06.999Z</time>
</trkpt>
<trkpt lat="31.7883900" lon="35.0209200">
<ele>428.792664</ele>
<time>2014-05-23T08:44:09.004Z</time>
</trkpt>
<trkpt lat="31.7884920" lon="35.0208450">
<ele>428.213531</ele>
<time>2014-05-23T08:44:11.000Z</time>
</trkpt>
<trkpt lat="31.7885750" lon="35.0207520">
<ele>427.207672</ele>
<time>2014-05-23T08:44:13.004Z</time>
</trkpt>
<trkpt lat="31.7886360" lon="35.0206320">
<ele>426.415192</ele>
<time>2014-05-23T08:44:15.000Z</time>
</trkpt>
<trkpt lat="31.7886630" lon="35.0204990">
<ele>425.013123</ele>
<time>2014-05-23T08:44:16.996Z</time>
</trkpt>
<trkpt lat="31.7886940" lon="35.0203480">
<ele>423.001465</ele>
<time>2014-05-23T08:44:19.000Z</time>
</trkpt>
<trkpt lat="31.7887270" lon="35.0201840">
<ele>420.593536</ele>
<time>2014-05-23T08:44:20.996Z</time>
</trkpt>
<trkpt lat="31.7887600" lon="35.0200220">
<ele>418.002716</ele>
<time>2014-05-23T08:44:23.001Z</time>
</trkpt>
<trkpt lat="31.7888120" lon="35.0198730">
<ele>415.991058</ele>
<time>2014-05-23T08:44:24.996Z</time>
</trkpt>
<trkpt lat="31.7888700" lon="35.0197450">
<ele>414.588959</ele>
<time>2014-05-23T08:44:27.001Z</time>
</trkpt>
<trkpt lat="31.7889610" lon="35.0196520">
<ele>414.009857</ele>
<time>2014-05-23T08:44:28.997Z</time>
</trkpt>
<trkpt lat="31.7890860" lon="35.0195680">
<ele>413.613586</ele>
<time>2014-05-23T08:44:31.001Z</time>
</trkpt>
<trkpt lat="31.7892350" lon="35.0195030">
<ele>411.998138</ele>
<time>2014-05-23T08:44:32.997Z</time>
</trkpt>
<trkpt lat="31.7893920" lon="35.0194460">
<ele>410.596069</ele>
<time>2014-05-23T08:44:35.002Z</time>
</trkpt>
<trkpt lat="31.7895450" lon="35.0194030">
<ele>409.590240</ele>
<time>2014-05-23T08:44:36.997Z</time>
</trkpt>
<trkpt lat="31.7896910" lon="35.0193440">
<ele>408.188141</ele>
<time>2014-05-23T08:44:39.002Z</time>
</trkpt>
<trkpt lat="31.7898280" lon="35.0192810">
<ele>406.999451</ele>
<time>2014-05-23T08:44:40.998Z</time>
</trkpt>
<trkpt lat="31.7899600" lon="35.0192230">
<ele>404.987732</ele>
<time>2014-05-23T08:44:43.002Z</time>
</trkpt>
<trkpt lat="31.7900870" lon="35.0191720">
<ele>402.610321</ele>
<time>2014-05-23T08:44:44.998Z</time>
</trkpt>
<trkpt lat="31.7902150" lon="35.0191410">
<ele>400.598663</ele>
<time>2014-05-23T08:44:47.003Z</time>
</trkpt>
<trkpt lat="31.7903510" lon="35.0191310">
<ele>399.013672</ele>
<time>2014-05-23T08:44:48.998Z</time>
</trkpt>
<trkpt lat="31.7905030" lon="35.0191410">
<ele>397.794464</ele>
<time>2014-05-23T08:44:51.003Z</time>
</trkpt>
<trkpt lat="31.7906600" lon="35.0191840">
<ele>397.398254</ele>
<time>2014-05-23T08:44:52.999Z</time>
</trkpt>
<trkpt lat="31.7908150" lon="35.0192450">
<ele>397.002014</ele>
<time>2014-05-23T08:44:55.003Z</time>
</trkpt>
<trkpt lat="31.7909750" lon="35.0193060">
<ele>396.392395</ele>
<time>2014-05-23T08:44:56.999Z</time>
</trkpt>
<trkpt lat="31.7911400" lon="35.0193420">
<ele>395.386536</ele>
<time>2014-05-23T08:44:59.004Z</time>
</trkpt>
<trkpt lat="31.7913100" lon="35.0193540">
<ele>393.588257</ele>
<time>2014-05-23T08:45:00.999Z</time>
</trkpt>
<trkpt lat="31.7914670" lon="35.0193660">
<ele>392.612885</ele>
<time>2014-05-23T08:45:03.004Z</time>
</trkpt>
<trkpt lat="31.7916160" lon="35.0193820">
<ele>391.789917</ele>
<time>2014-05-23T08:45:05.000Z</time>
</trkpt>
<trkpt lat="31.7917680" lon="35.0193740">
<ele>390.601196</ele>
<time>2014-05-23T08:45:07.004Z</time>
</trkpt>
<trkpt lat="31.7919210" lon="35.0193790">
<ele>389.595337</ele>
<time>2014-05-23T08:45:09.000Z</time>
</trkpt>
<trkpt lat="31.7920740" lon="35.0193900">
<ele>388.589539</ele>
<time>2014-05-23T08:45:10.996Z</time>
</trkpt>
<trkpt lat="31.7922210" lon="35.0193760">
<ele>387.400787</ele>
<time>2014-05-23T08:45:13.000Z</time>
</trkpt>
<trkpt lat="31.7923510" lon="35.0193050">
<ele>385.785339</ele>
<time>2014-05-23T08:45:14.996Z</time>
</trkpt>
<trkpt lat="31.7924700" lon="35.0192170">
<ele>382.402069</ele>
<time>2014-05-23T08:45:17.001Z</time>
</trkpt>
<trkpt lat="31.7925740" lon="35.0191370">
<ele>378.988342</ele>
<time>2014-05-23T08:45:18.996Z</time>
</trkpt>
<trkpt lat="31.7926500" lon="35.0190470">
<ele>376.214661</ele>
<time>2014-05-23T08:45:21.001Z</time>
</trkpt>
<trkpt lat="31.7926690" lon="35.0189190">
<ele>375.208801</ele>
<time>2014-05-23T08:45:22.997Z</time>
</trkpt>
<trkpt lat="31.7926490" lon="35.0187950">
<ele>374.995453</ele>
<time>2014-05-23T08:45:25.001Z</time>
</trkpt>
<trkpt lat="31.7925670" lon="35.0186620">
<ele>374.995453</ele>
<time>2014-05-23T08:45:27.999Z</time>
</trkpt>
<trkpt lat="31.7925140" lon="35.0185480">
<ele>374.995453</ele>
<time>2014-05-23T08:45:30.997Z</time>
</trkpt>
<trkpt lat="31.7924650" lon="35.0184390">
<ele>374.812531</ele>
<time>2014-05-23T08:45:36.000Z</time>
</trkpt>
<trkpt lat="31.7924210" lon="35.0182960">
<ele>374.385864</ele>
<time>2014-05-23T08:45:41.003Z</time>
</trkpt>
<trkpt lat="31.7923780" lon="35.0181750">
<ele>374.202942</ele>
<time>2014-05-23T08:45:48.001Z</time>
</trkpt>
<trkpt lat="31.7923420" lon="35.0180410">
<ele>373.197113</ele>
<time>2014-05-23T08:46:26.000Z</time>
</trkpt>
<trkpt lat="31.7923040" lon="35.0178920">
<ele>372.191284</ele>
<time>2014-05-23T08:46:28.998Z</time>
</trkpt>
<trkpt lat="31.7922590" lon="35.0177800">
<ele>370.789215</ele>
<time>2014-05-23T08:46:31.002Z</time>
</trkpt>
<trkpt lat="31.7922060" lon="35.0176610">
<ele>369.813843</ele>
<time>2014-05-23T08:46:32.998Z</time>
</trkpt>
<trkpt lat="31.7921800" lon="35.0175340">
<ele>369.387115</ele>
<time>2014-05-23T08:46:35.003Z</time>
</trkpt>
<trkpt lat="31.7921760" lon="35.0173880">
<ele>369.204254</ele>
<time>2014-05-23T08:46:36.998Z</time>
</trkpt>
<trkpt lat="31.7921680" lon="35.0172150">
<ele>369.204254</ele>
<time>2014-05-23T08:46:39.003Z</time>
</trkpt>
<trkpt lat="31.7921500" lon="35.0170230">
<ele>368.198395</ele>
<time>2014-05-23T08:46:40.999Z</time>
</trkpt>
<trkpt lat="31.7921440" lon="35.0168320">
<ele>366.186737</ele>
<time>2014-05-23T08:46:43.003Z</time>
</trkpt>
<trkpt lat="31.7921420" lon="35.0166380">
<ele>364.388397</ele>
<time>2014-05-23T08:46:44.999Z</time>
</trkpt>
<trkpt lat="31.7921510" lon="35.0164520">
<ele>362.803467</ele>
<time>2014-05-23T08:46:47.004Z</time>
</trkpt>
<trkpt lat="31.7921710" lon="35.0162730">
<ele>361.401337</ele>
<time>2014-05-23T08:46:48.999Z</time>
</trkpt>
<trkpt lat="31.7922010" lon="35.0161060">
<ele>360.212646</ele>
<time>2014-05-23T08:46:51.004Z</time>
</trkpt>
<trkpt lat="31.7922490" lon="35.0159480">
<ele>358.993469</ele>
<time>2014-05-23T08:46:53.000Z</time>
</trkpt>
<trkpt lat="31.7923330" lon="35.0157950">
<ele>358.200958</ele>
<time>2014-05-23T08:46:55.004Z</time>
</trkpt>
<trkpt lat="31.7924310" lon="35.0156850">
<ele>357.408478</ele>
<time>2014-05-23T08:46:57.000Z</time>
</trkpt>
<trkpt lat="31.7925500" lon="35.0156310">
<ele>356.189270</ele>
<time>2014-05-23T08:46:58.996Z</time>
</trkpt>
<trkpt lat="31.7926770" lon="35.0155940">
<ele>355.213928</ele>
<time>2014-05-23T08:47:01.000Z</time>
</trkpt>
<trkpt lat="31.7927750" lon="35.0155040">
<ele>353.385132</ele>
<time>2014-05-23T08:47:02.996Z</time>
</trkpt>
<trkpt lat="31.7928630" lon="35.0153930">
<ele>351.190552</ele>
<time>2014-05-23T08:47:05.001Z</time>
</trkpt>
<trkpt lat="31.7929810" lon="35.0153220">
<ele>349.392242</ele>
<time>2014-05-23T08:47:06.996Z</time>
</trkpt>
<trkpt lat="31.7931260" lon="35.0152900">
<ele>348.599731</ele>
<time>2014-05-23T08:47:09.001Z</time>
</trkpt>
<trkpt lat="31.7932820" lon="35.0152720">
<ele>348.203522</ele>
<time>2014-05-23T08:47:10.997Z</time>
</trkpt>
<trkpt lat="31.7934380" lon="35.0152510">
<ele>346.405212</ele>
<time>2014-05-23T08:47:13.001Z</time>
</trkpt>
<trkpt lat="31.7935990" lon="35.0152090">
<ele>344.606873</ele>
<time>2014-05-23T08:47:14.997Z</time>
</trkpt>
<trkpt lat="31.7937220" lon="35.0151370">
<ele>342.808533</ele>
<time>2014-05-23T08:47:17.002Z</time>
</trkpt>
<trkpt lat="31.7937730" lon="35.0150540">
<ele>341.985596</ele>
<time>2014-05-23T08:47:18.997Z</time>
</trkpt>
<trkpt lat="31.7937210" lon="35.0149390">
<ele>341.589355</ele>
<time>2014-05-23T08:47:22.004Z</time>
</trkpt>
<trkpt lat="31.7935980" lon="35.0148700">
<ele>341.985596</ele>
<time>2014-05-23T08:47:25.002Z</time>
</trkpt>
<trkpt lat="31.7935110" lon="35.0148190">
<ele>342.412323</ele>
<time>2014-05-23T08:47:26.998Z</time>
</trkpt>
<trkpt lat="31.7933780" lon="35.0147660">
<ele>342.991455</ele>
<time>2014-05-23T08:47:29.996Z</time>
</trkpt>
<trkpt lat="31.7932670" lon="35.0147450">
<ele>343.814392</ele>
<time>2014-05-23T08:47:32.001Z</time>
</trkpt>
<trkpt lat="31.7931310" lon="35.0147200">
<ele>343.814392</ele>
<time>2014-05-23T08:47:33.996Z</time>
</trkpt>
<trkpt lat="31.7929960" lon="35.0146610">
<ele>342.808533</ele>
<time>2014-05-23T08:47:36.001Z</time>
</trkpt>
<trkpt lat="31.7928680" lon="35.0146330">
<ele>342.198944</ele>
<time>2014-05-23T08:47:37.997Z</time>
</trkpt>
<trkpt lat="31.7927240" lon="35.0146280">
<ele>341.589355</ele>
<time>2014-05-23T08:47:40.001Z</time>
</trkpt>
<trkpt lat="31.7925730" lon="35.0146080">
<ele>340.796875</ele>
<time>2014-05-23T08:47:41.997Z</time>
</trkpt>
<trkpt lat="31.7924470" lon="35.0146020">
<ele>340.400665</ele>
<time>2014-05-23T08:47:44.002Z</time>
</trkpt>
<trkpt lat="31.7923460" lon="35.0146050">
<ele>339.791046</ele>
<time>2014-05-23T08:47:45.997Z</time>
</trkpt>
<trkpt lat="31.7922020" lon="35.0145770">
<ele>337.809845</ele>
<time>2014-05-23T08:47:48.002Z</time>
</trkpt>
<trkpt lat="31.7921080" lon="35.0145570">
<ele>336.407745</ele>
<time>2014-05-23T08:47:49.004Z</time>
</trkpt>
<trkpt lat="31.7920050" lon="35.0145430">
<ele>335.005676</ele>
<time>2014-05-23T08:47:49.998Z</time>
</trkpt>
<trkpt lat="31.7918970" lon="35.0145360">
<ele>333.603607</ele>
<time>2014-05-23T08:47:51.000Z</time>
</trkpt>
<trkpt lat="31.7917890" lon="35.0145250">
<ele>331.988159</ele>
<time>2014-05-23T08:47:52.002Z</time>
</trkpt>
<trkpt lat="31.7916810" lon="35.0145040">
<ele>330.586060</ele>
<time>2014-05-23T08:47:52.996Z</time>
</trkpt>
<trkpt lat="31.7915720" lon="35.0144770">
<ele>328.787750</ele>
<time>2014-05-23T08:47:53.998Z</time>
</trkpt>
<trkpt lat="31.7914650" lon="35.0144500">
<ele>327.812408</ele>
<time>2014-05-23T08:47:55.000Z</time>
</trkpt>
<trkpt lat="31.7913600" lon="35.0144240">
<ele>326.989441</ele>
<time>2014-05-23T08:47:56.003Z</time>
</trkpt>
<trkpt lat="31.7912580" lon="35.0143930">
<ele>326.593201</ele>
<time>2014-05-23T08:47:56.996Z</time>
</trkpt>
<trkpt lat="31.7911600" lon="35.0143580">
<ele>325.800720</ele>
<time>2014-05-23T08:47:57.998Z</time>
</trkpt>
<trkpt lat="31.7910620" lon="35.0143270">
<ele>325.404480</ele>
<time>2014-05-23T08:47:59.001Z</time>
</trkpt>
<trkpt lat="31.7909640" lon="35.0143040">
<ele>325.008240</ele>
<time>2014-05-23T08:48:00.003Z</time>
</trkpt>
<trkpt lat="31.7908690" lon="35.0142830">
<ele>324.612000</ele>
<time>2014-05-23T08:48:00.996Z</time>
</trkpt>
<trkpt lat="31.7907770" lon="35.0142630">
<ele>324.185272</ele>
<time>2014-05-23T08:48:01.999Z</time>
</trkpt>
<trkpt lat="31.7906080" lon="35.0142300">
<ele>323.789063</ele>
<time>2014-05-23T08:48:04.003Z</time>
</trkpt>
<trkpt lat="31.7904690" lon="35.0141860">
<ele>323.392792</ele>
<time>2014-05-23T08:48:05.999Z</time>
</trkpt>
<trkpt lat="31.7903440" lon="35.0141240">
<ele>322.600342</ele>
<time>2014-05-23T08:48:08.004Z</time>
</trkpt>
<trkpt lat="31.7902310" lon="35.0140650">
<ele>321.807861</ele>
<time>2014-05-23T08:48:09.999Z</time>
</trkpt>
<trkpt lat="31.7901100" lon="35.0140430">
<ele>321.807861</ele>
<time>2014-05-23T08:48:12.004Z</time>
</trkpt>
<trkpt lat="31.7899900" lon="35.0140530">
<ele>322.600342</ele>
<time>2014-05-23T08:48:14.000Z</time>
</trkpt>
<trkpt lat="31.7898750" lon="35.0140740">
<ele>323.606140</ele>
<time>2014-05-23T08:48:16.004Z</time>
</trkpt>
<trkpt lat="31.7897670" lon="35.0140970">
<ele>323.392792</ele>
<time>2014-05-23T08:48:18.000Z</time>
</trkpt>
<trkpt lat="31.7896340" lon="35.0140900">
<ele>322.813660</ele>
<time>2014-05-23T08:48:19.996Z</time>
</trkpt>
<trkpt lat="31.7894820" lon="35.0140570">
<ele>321.198242</ele>
<time>2014-05-23T08:48:22.000Z</time>
</trkpt>
<trkpt lat="31.7893150" lon="35.0140630">
<ele>320.192413</ele>
<time>2014-05-23T08:48:23.996Z</time>
</trkpt>
<trkpt lat="31.7891340" lon="35.0140870">
<ele>318.211212</ele>
<time>2014-05-23T08:48:26.001Z</time>
</trkpt>
<trkpt lat="31.7890340" lon="35.0141050">
<ele>317.205353</ele>
<time>2014-05-23T08:48:27.003Z</time>
</trkpt>
<trkpt lat="31.7889320" lon="35.0141180">
<ele>317.205353</ele>
<time>2014-05-23T08:48:27.996Z</time>
</trkpt>
<trkpt lat="31.7888290" lon="35.0141230">
<ele>317.205353</ele>
<time>2014-05-23T08:48:28.999Z</time>
</trkpt>
<trkpt lat="31.7887280" lon="35.0141240">
<ele>316.992004</ele>
<time>2014-05-23T08:48:30.001Z</time>
</trkpt>
<trkpt lat="31.7886310" lon="35.0141220">
<ele>316.992004</ele>
<time>2014-05-23T08:48:31.003Z</time>
</trkpt>
<trkpt lat="31.7884680" lon="35.0141220">
<ele>318.211212</ele>
<time>2014-05-23T08:48:32.999Z</time>
</trkpt>
<trkpt lat="31.7883380" lon="35.0141190">
<ele>319.796143</ele>
<time>2014-05-23T08:48:35.004Z</time>
</trkpt>
<trkpt lat="31.7882390" lon="35.0141170">
<ele>320.984863</ele>
<time>2014-05-23T08:48:36.999Z</time>
</trkpt>
<trkpt lat="31.7881450" lon="35.0141070">
<ele>320.405731</ele>
<time>2014-05-23T08:48:39.004Z</time>
</trkpt>
<trkpt lat="31.7880400" lon="35.0140990">
<ele>319.186554</ele>
<time>2014-05-23T08:48:41.000Z</time>
</trkpt>
<trkpt lat="31.7879250" lon="35.0140850">
<ele>317.997864</ele>
<time>2014-05-23T08:48:43.004Z</time>
</trkpt>
<trkpt lat="31.7877990" lon="35.0140860">
<ele>316.992004</ele>
<time>2014-05-23T08:48:45.000Z</time>
</trkpt>
<trkpt lat="31.7876720" lon="35.0140880">
<ele>315.803284</ele>
<time>2014-05-23T08:48:46.996Z</time>
</trkpt>
<trkpt lat="31.7875320" lon="35.0141020">
<ele>315.010803</ele>
<time>2014-05-23T08:48:49.000Z</time>
</trkpt>
<trkpt lat="31.7874030" lon="35.0141250">
<ele>314.614532</ele>
<time>2014-05-23T08:48:50.996Z</time>
</trkpt>
<trkpt lat="31.7872650" lon="35.0141230">
<ele>313.212463</ele>
<time>2014-05-23T08:48:53.001Z</time>
</trkpt>
<trkpt lat="31.7871110" lon="35.0141080">
<ele>311.414154</ele>
<time>2014-05-23T08:48:54.996Z</time>
</trkpt>
<trkpt lat="31.7869530" lon="35.0141170">
<ele>310.012085</ele>
<time>2014-05-23T08:48:57.001Z</time>
</trkpt>
<trkpt lat="31.7868070" lon="35.0141240">
<ele>308.000397</ele>
<time>2014-05-23T08:48:58.997Z</time>
</trkpt>
<trkpt lat="31.7866860" lon="35.0141400">
<ele>306.384949</ele>
<time>2014-05-23T08:49:01.001Z</time>
</trkpt>
<trkpt lat="31.7865890" lon="35.0141550">
<ele>305.013367</ele>
<time>2014-05-23T08:49:02.997Z</time>
</trkpt>
<trkpt lat="31.7865000" lon="35.0141730">
<ele>304.586639</ele>
<time>2014-05-23T08:49:05.002Z</time>
</trkpt>
<trkpt lat="31.7863870" lon="35.0142160">
<ele>305.409607</ele>
<time>2014-05-23T08:49:08.000Z</time>
</trkpt>
<trkpt lat="31.7862850" lon="35.0142510">
<ele>305.988739</ele>
<time>2014-05-23T08:49:10.004Z</time>
</trkpt>
<trkpt lat="31.7861430" lon="35.0142810">
<ele>306.384949</ele>
<time>2014-05-23T08:49:12.000Z</time>
</trkpt>
<trkpt lat="31.7859990" lon="35.0143160">
<ele>306.811676</ele>
<time>2014-05-23T08:49:13.996Z</time>
</trkpt>
<trkpt lat="31.7858650" lon="35.0143400">
<ele>306.994568</ele>
<time>2014-05-23T08:49:16.000Z</time>
</trkpt>
<trkpt lat="31.7857440" lon="35.0143560">
<ele>307.207916</ele>
<time>2014-05-23T08:49:17.996Z</time>
</trkpt>
<trkpt lat="31.7856340" lon="35.0143750">
<ele>306.994568</ele>
<time>2014-05-23T08:49:20.001Z</time>
</trkpt>
<trkpt lat="31.7855400" lon="35.0143840">
<ele>306.811676</ele>
<time>2014-05-23T08:49:21.996Z</time>
</trkpt>
<trkpt lat="31.7854220" lon="35.0143930">
<ele>306.994568</ele>
<time>2014-05-23T08:49:25.003Z</time>
</trkpt>
<trkpt lat="31.7853090" lon="35.0143870">
<ele>307.207916</ele>
<time>2014-05-23T08:49:28.001Z</time>
</trkpt>
<trkpt lat="31.7852020" lon="35.0143870">
<ele>307.390808</ele>
<time>2014-05-23T08:49:30.999Z</time>
</trkpt>
<trkpt lat="31.7850750" lon="35.0144090">
<ele>308.213776</ele>
<time>2014-05-23T08:49:33.997Z</time>
</trkpt>
<trkpt lat="31.7849770" lon="35.0144370">
<ele>309.189117</ele>
<time>2014-05-23T08:49:36.002Z</time>
</trkpt>
<trkpt lat="31.7848600" lon="35.0144680">
<ele>310.194977</ele>
<time>2014-05-23T08:49:37.998Z</time>
</trkpt>
<trkpt lat="31.7847190" lon="35.0145000">
<ele>309.402466</ele>
<time>2014-05-23T08:49:40.002Z</time>
</trkpt>
<trkpt lat="31.7845690" lon="35.0145350">
<ele>307.207916</ele>
<time>2014-05-23T08:49:41.998Z</time>
</trkpt>
<trkpt lat="31.7844100" lon="35.0145620">
<ele>304.799988</ele>
<time>2014-05-23T08:49:44.003Z</time>
</trkpt>
<trkpt lat="31.7842460" lon="35.0145740">
<ele>302.209198</ele>
<time>2014-05-23T08:49:45.998Z</time>
</trkpt>
<trkpt lat="31.7840740" lon="35.0145720">
<ele>299.191681</ele>
<time>2014-05-23T08:49:48.003Z</time>
</trkpt>
<trkpt lat="31.7839810" lon="35.0145680">
<ele>297.789612</ele>
<time>2014-05-23T08:49:48.996Z</time>
</trkpt>
<trkpt lat="31.7838860" lon="35.0145540">
<ele>296.204651</ele>
<time>2014-05-23T08:49:49.999Z</time>
</trkpt>
<trkpt lat="31.7837870" lon="35.0145330">
<ele>294.589203</ele>
<time>2014-05-23T08:49:51.001Z</time>
</trkpt>
<trkpt lat="31.7836880" lon="35.0145170">
<ele>292.790863</ele>
<time>2014-05-23T08:49:52.003Z</time>
</trkpt>
<trkpt lat="31.7835890" lon="35.0145140">
<ele>291.205933</ele>
<time>2014-05-23T08:49:52.997Z</time>
</trkpt>
<trkpt lat="31.7834950" lon="35.0145250">
<ele>289.590485</ele>
<time>2014-05-23T08:49:53.999Z</time>
</trkpt>
<trkpt lat="31.7833970" lon="35.0145320">
<ele>288.005524</ele>
<time>2014-05-23T08:49:55.001Z</time>
</trkpt>
<trkpt lat="31.7833020" lon="35.0145340">
<ele>286.390076</ele>
<time>2014-05-23T08:49:56.004Z</time>
</trkpt>
<trkpt lat="31.7832080" lon="35.0145310">
<ele>284.805115</ele>
<time>2014-05-23T08:49:56.997Z</time>
</trkpt>
<trkpt lat="31.7831130" lon="35.0145280">
<ele>284.805115</ele>
<time>2014-05-23T08:49:57.999Z</time>
</trkpt>
<trkpt lat="31.7830200" lon="35.0145260">
<ele>285.201355</ele>
<time>2014-05-23T08:49:59.002Z</time>
</trkpt>
<trkpt lat="31.7829300" lon="35.0145250">
<ele>285.810974</ele>
<time>2014-05-23T08:50:00.004Z</time>
</trkpt>
<trkpt lat="31.7828440" lon="35.0145260">
<ele>286.207214</ele>
<time>2014-05-23T08:50:00.997Z</time>
</trkpt>
<trkpt lat="31.7826820" lon="35.0145410">
<ele>286.999664</ele>
<time>2014-05-23T08:50:03.002Z</time>
</trkpt>
<trkpt lat="31.7825260" lon="35.0145390">
<ele>287.792175</ele>
<time>2014-05-23T08:50:04.998Z</time>
</trkpt>
<trkpt lat="31.7823790" lon="35.0145310">
<ele>288.401764</ele>
<time>2014-05-23T08:50:07.002Z</time>
</trkpt>
<trkpt lat="31.7822250" lon="35.0145220">
<ele>287.609283</ele>
<time>2014-05-23T08:50:08.998Z</time>
</trkpt>
<trkpt lat="31.7820680" lon="35.0145070">
<ele>286.999664</ele>
<time>2014-05-23T08:50:11.003Z</time>
</trkpt>
<trkpt lat="31.7819170" lon="35.0145040">
<ele>286.390076</ele>
<time>2014-05-23T08:50:12.998Z</time>
</trkpt>
<trkpt lat="31.7817660" lon="35.0145090">
<ele>285.810974</ele>
<time>2014-05-23T08:50:15.003Z</time>
</trkpt>
<trkpt lat="31.7816190" lon="35.0145190">
<ele>285.414734</ele>
<time>2014-05-23T08:50:16.999Z</time>
</trkpt>
<trkpt lat="31.7814780" lon="35.0145410">
<ele>285.201355</ele>
<time>2014-05-23T08:50:19.003Z</time>
</trkpt>
<trkpt lat="31.7813370" lon="35.0145630">
<ele>285.201355</ele>
<time>2014-05-23T08:50:20.999Z</time>
</trkpt>
<trkpt lat="31.7811990" lon="35.0145770">
<ele>284.988007</ele>
<time>2014-05-23T08:50:23.004Z</time>
</trkpt>
<trkpt lat="31.7810610" lon="35.0145580">
<ele>284.408875</ele>
<time>2014-05-23T08:50:24.999Z</time>
</trkpt>
<trkpt lat="31.7809220" lon="35.0145250">
<ele>283.585938</ele>
<time>2014-05-23T08:50:27.004Z</time>
</trkpt>
<trkpt lat="31.7807790" lon="35.0144860">
<ele>282.793427</ele>
<time>2014-05-23T08:50:29.000Z</time>
</trkpt>
<trkpt lat="31.7806370" lon="35.0144530">
<ele>281.604736</ele>
<time>2014-05-23T08:50:31.004Z</time>
</trkpt>
<trkpt lat="31.7804910" lon="35.0144240">
<ele>279.989258</ele>
<time>2014-05-23T08:50:33.000Z</time>
</trkpt>
<trkpt lat="31.7803370" lon="35.0143870">
<ele>278.008087</ele>
<time>2014-05-23T08:50:34.996Z</time>
</trkpt>
<trkpt lat="31.7801830" lon="35.0143470">
<ele>275.996399</ele>
<time>2014-05-23T08:50:37.000Z</time>
</trkpt>
<trkpt lat="31.7800360" lon="35.0143020">
<ele>274.015198</ele>
<time>2014-05-23T08:50:38.996Z</time>
</trkpt>
<trkpt lat="31.7798990" lon="35.0142480">
<ele>272.186401</ele>
<time>2014-05-23T08:50:41.001Z</time>
</trkpt>
<trkpt lat="31.7797680" lon="35.0142280">
<ele>271.393921</ele>
<time>2014-05-23T08:50:42.996Z</time>
</trkpt>
<trkpt lat="31.7796330" lon="35.0142850">
<ele>271.393921</ele>
<time>2014-05-23T08:50:45.001Z</time>
</trkpt>
<trkpt lat="31.7795590" lon="35.0143650">
<ele>271.607269</ele>
<time>2014-05-23T08:50:46.997Z</time>
</trkpt>
<trkpt lat="31.7794860" lon="35.0144830">
<ele>271.607269</ele>
<time>2014-05-23T08:50:49.001Z</time>
</trkpt>
<trkpt lat="31.7794370" lon="35.0146140">
<ele>272.186401</ele>
<time>2014-05-23T08:50:50.997Z</time>
</trkpt>
<trkpt lat="31.7794060" lon="35.0147400">
<ele>273.588470</ele>
<time>2014-05-23T08:50:53.002Z</time>
</trkpt>
<trkpt lat="31.7793860" lon="35.0148630">
<ele>275.203918</ele>
<time>2014-05-23T08:50:54.997Z</time>
</trkpt>
<trkpt lat="31.7793660" lon="35.0149840">
<ele>276.209778</ele>
<time>2014-05-23T08:50:57.002Z</time>
</trkpt>
<trkpt lat="31.7793470" lon="35.0151040">
<ele>276.605988</ele>
<time>2014-05-23T08:50:58.998Z</time>
</trkpt>
<trkpt lat="31.7793300" lon="35.0152170">
<ele>276.788879</ele>
<time>2014-05-23T08:51:01.002Z</time>
</trkpt>
<trkpt lat="31.7792980" lon="35.0153740">
<ele>277.185120</ele>
<time>2014-05-23T08:51:04.000Z</time>
</trkpt>
<trkpt lat="31.7792780" lon="35.0155250">
<ele>278.190948</ele>
<time>2014-05-23T08:51:06.998Z</time>
</trkpt>
<trkpt lat="31.7792520" lon="35.0156730">
<ele>279.013916</ele>
<time>2014-05-23T08:51:09.996Z</time>
</trkpt>
<trkpt lat="31.7792190" lon="35.0158140">
<ele>279.013916</ele>
<time>2014-05-23T08:51:13.003Z</time>
</trkpt>
<trkpt lat="31.7791900" lon="35.0159430">
<ele>279.196808</ele>
<time>2014-05-23T08:51:16.001Z</time>
</trkpt>
<trkpt lat="31.7791640" lon="35.0160660">
<ele>279.410156</ele>
<time>2014-05-23T08:51:18.999Z</time>
</trkpt>
<trkpt lat="31.7790990" lon="35.0161720">
<ele>278.587189</ele>
<time>2014-05-23T08:51:21.997Z</time>
</trkpt>
<trkpt lat="31.7789500" lon="35.0161970">
<ele>276.788879</ele>
<time>2014-05-23T08:51:25.004Z</time>
</trkpt>
<trkpt lat="31.7787980" lon="35.0162150">
<ele>276.209778</ele>
<time>2014-05-23T08:51:27.000Z</time>
</trkpt>
<trkpt lat="31.7786370" lon="35.0162080">
<ele>275.203918</ele>
<time>2014-05-23T08:51:28.996Z</time>
</trkpt>
<trkpt lat="31.7784990" lon="35.0161450">
<ele>273.588470</ele>
<time>2014-05-23T08:51:31.000Z</time>
</trkpt>
<trkpt lat="31.7783850" lon="35.0160470">
<ele>272.003540</ele>
<time>2014-05-23T08:51:32.996Z</time>
</trkpt>
<trkpt lat="31.7782830" lon="35.0159800">
<ele>270.814789</ele>
<time>2014-05-23T08:51:35.001Z</time>
</trkpt>
<trkpt lat="31.7781960" lon="35.0159250">
<ele>269.991821</ele>
<time>2014-05-23T08:51:36.996Z</time>
</trkpt>
<trkpt lat="31.7780780" lon="35.0159010">
<ele>270.997681</ele>
<time>2014-05-23T08:51:40.003Z</time>
</trkpt>
<trkpt lat="31.7779930" lon="35.0159440">
<ele>272.399750</ele>
<time>2014-05-23T08:51:43.001Z</time>
</trkpt>
<trkpt lat="31.7778990" lon="35.0159940">
<ele>274.411438</ele>
<time>2014-05-23T08:51:47.002Z</time>
</trkpt>
<trkpt lat="31.7778120" lon="35.0160400">
<ele>277.398468</ele>
<time>2014-05-23T08:51:51.002Z</time>
</trkpt>
<trkpt lat="31.7777140" lon="35.0160530">
<ele>279.593048</ele>
<time>2014-05-23T08:51:55.996Z</time>
</trkpt>
<trkpt lat="31.7776270" lon="35.0161150">
<ele>282.793427</ele>
<time>2014-05-23T08:52:02.001Z</time>
</trkpt>
<trkpt lat="31.7776450" lon="35.0162280">
<ele>284.805115</ele>
<time>2014-05-23T08:52:07.003Z</time>
</trkpt>
<trkpt lat="31.7776980" lon="35.0163370">
<ele>285.414734</ele>
<time>2014-05-23T08:52:12.999Z</time>
</trkpt>
<trkpt lat="31.7777590" lon="35.0164360">
<ele>285.414734</ele>
<time>2014-05-23T08:52:18.002Z</time>
</trkpt>
</trkseg>
</trk>
</gpx>
